<?xml version="1.0" encoding="UTF-8" standalone="no" ?>
<gpx xmlns="http://www.topografix.com/GPX/1/1" xmlns:xsi="http://www.w3.org/2001/XMLSchema-instance" xsi:schemaLocation="http://www.topografix.com/GPX/1/1 http://www.topografix.com/GPX/1/1/gpx.xsd" version="1.1" creator="VisuGPX - https://www.visugpx.com">
  <metadata>
    <name>Pornichet 10/01/2021</name>
    <desc><![CDATA[Sortie VTT du dimanche 10 janvier 2021]]></desc>
  </metadata>
  <trk>
    <name><![CDATA[Pornichet Cyclisme]]></name>
    <trkseg>
      <trkpt lat="47.26418" lon="-2.31578">
        <ele>10.1</ele>
        <time>2021-01-10T08:27:04.000Z</time>
      </trkpt>
      <trkpt lat="47.26419" lon="-2.31594">
        <ele>10.1</ele>
        <time>2021-01-10T08:27:07.000Z</time>
      </trkpt>
      <trkpt lat="47.26419" lon="-2.31599">
        <ele>-0.40000000596046</ele>
        <time>2021-01-10T08:27:08.000Z</time>
      </trkpt>
      <trkpt lat="47.26419" lon="-2.31615">
        <ele>-0.40000000596046</ele>
        <time>2021-01-10T08:27:11.000Z</time>
      </trkpt>
      <trkpt lat="47.26418" lon="-2.31647">
        <ele>-0.40000000596046</ele>
        <time>2021-01-10T08:27:17.000Z</time>
      </trkpt>
      <trkpt lat="47.26419" lon="-2.31653">
        <ele>-0.40000000596046</ele>
        <time>2021-01-10T08:27:18.000Z</time>
      </trkpt>
      <trkpt lat="47.26419" lon="-2.31663">
        <ele>-0.40000000596046</ele>
        <time>2021-01-10T08:27:20.000Z</time>
      </trkpt>
      <trkpt lat="47.26415" lon="-2.31669">
        <ele>-0.40000000596046</ele>
        <time>2021-01-10T08:27:22.000Z</time>
      </trkpt>
      <trkpt lat="47.26396" lon="-2.31679">
        <ele>-0.40000000596046</ele>
        <time>2021-01-10T08:27:28.000Z</time>
      </trkpt>
      <trkpt lat="47.26375" lon="-2.31692">
        <ele>-0.40000000596046</ele>
        <time>2021-01-10T08:27:33.000Z</time>
      </trkpt>
      <trkpt lat="47.26361" lon="-2.317">
        <ele>-0.80000001192093</ele>
        <time>2021-01-10T08:27:36.000Z</time>
      </trkpt>
      <trkpt lat="47.26356" lon="-2.31703">
        <ele>-1.2000000476837</ele>
        <time>2021-01-10T08:27:37.000Z</time>
      </trkpt>
      <trkpt lat="47.26351" lon="-2.31705">
        <ele>-1.6000000238419</ele>
        <time>2021-01-10T08:27:38.000Z</time>
      </trkpt>
      <trkpt lat="47.26346" lon="-2.31708">
        <ele>-2</ele>
        <time>2021-01-10T08:27:39.000Z</time>
      </trkpt>
      <trkpt lat="47.2634" lon="-2.31711">
        <ele>-2.4000000953674</ele>
        <time>2021-01-10T08:27:40.000Z</time>
      </trkpt>
      <trkpt lat="47.26321" lon="-2.31721">
        <ele>-2.4000000953674</ele>
        <time>2021-01-10T08:27:44.000Z</time>
      </trkpt>
      <trkpt lat="47.26318" lon="-2.31725">
        <ele>-2.4000000953674</ele>
        <time>2021-01-10T08:27:45.000Z</time>
      </trkpt>
      <trkpt lat="47.26317" lon="-2.3174">
        <ele>-2.4000000953674</ele>
        <time>2021-01-10T08:27:48.000Z</time>
      </trkpt>
      <trkpt lat="47.26318" lon="-2.31745">
        <ele>-2.4000000953674</ele>
        <time>2021-01-10T08:27:49.000Z</time>
      </trkpt>
      <trkpt lat="47.26319" lon="-2.31755">
        <ele>-2.7999999523163</ele>
        <time>2021-01-10T08:27:51.000Z</time>
      </trkpt>
      <trkpt lat="47.26319" lon="-2.3176">
        <ele>-3.4000000953674</ele>
        <time>2021-01-10T08:27:52.000Z</time>
      </trkpt>
      <trkpt lat="47.2632" lon="-2.31765">
        <ele>-3.7999999523163</ele>
        <time>2021-01-10T08:27:53.000Z</time>
      </trkpt>
      <trkpt lat="47.2632" lon="-2.31771">
        <ele>-4.1999998092651</ele>
        <time>2021-01-10T08:27:54.000Z</time>
      </trkpt>
      <trkpt lat="47.2632" lon="-2.31777">
        <ele>-4.5999999046326</ele>
        <time>2021-01-10T08:27:55.000Z</time>
      </trkpt>
      <trkpt lat="47.26321" lon="-2.31795">
        <ele>-4.5999999046326</ele>
        <time>2021-01-10T08:27:58.000Z</time>
      </trkpt>
      <trkpt lat="47.2632" lon="-2.31814">
        <ele>-4.5999999046326</ele>
        <time>2021-01-10T08:28:01.000Z</time>
      </trkpt>
      <trkpt lat="47.26316" lon="-2.31848">
        <ele>-4.5999999046326</ele>
        <time>2021-01-10T08:28:07.000Z</time>
      </trkpt>
      <trkpt lat="47.26316" lon="-2.3187">
        <ele>-4.5999999046326</ele>
        <time>2021-01-10T08:28:12.000Z</time>
      </trkpt>
      <trkpt lat="47.26314" lon="-2.31878">
        <ele>-4.5999999046326</ele>
        <time>2021-01-10T08:28:14.000Z</time>
      </trkpt>
      <trkpt lat="47.26309" lon="-2.31883">
        <ele>-4.5999999046326</ele>
        <time>2021-01-10T08:28:17.000Z</time>
      </trkpt>
      <trkpt lat="47.26291" lon="-2.31902">
        <ele>-4.5999999046326</ele>
        <time>2021-01-10T08:28:23.000Z</time>
      </trkpt>
      <trkpt lat="47.26276" lon="-2.31926">
        <ele>-4.5999999046326</ele>
        <time>2021-01-10T08:28:29.000Z</time>
      </trkpt>
      <trkpt lat="47.26271" lon="-2.31937">
        <ele>-4.5999999046326</ele>
        <time>2021-01-10T08:28:32.000Z</time>
      </trkpt>
      <trkpt lat="47.26267" lon="-2.31946">
        <ele>-4.5999999046326</ele>
        <time>2021-01-10T08:28:34.000Z</time>
      </trkpt>
      <trkpt lat="47.26259" lon="-2.31961">
        <ele>-4.5999999046326</ele>
        <time>2021-01-10T08:28:38.000Z</time>
      </trkpt>
      <trkpt lat="47.26257" lon="-2.31962">
        <ele>-4.5999999046326</ele>
        <time>2021-01-10T08:28:39.000Z</time>
      </trkpt>
      <trkpt lat="47.26247" lon="-2.31965">
        <ele>-4.5999999046326</ele>
        <time>2021-01-10T08:28:43.000Z</time>
      </trkpt>
      <trkpt lat="47.26245" lon="-2.31967">
        <ele>-4.5999999046326</ele>
        <time>2021-01-10T08:28:44.000Z</time>
      </trkpt>
      <trkpt lat="47.26236" lon="-2.31978">
        <ele>-4.5999999046326</ele>
        <time>2021-01-10T08:28:48.000Z</time>
      </trkpt>
      <trkpt lat="47.26222" lon="-2.31987">
        <ele>-4.5999999046326</ele>
        <time>2021-01-10T08:28:53.000Z</time>
      </trkpt>
      <trkpt lat="47.26221" lon="-2.31989">
        <ele>-5</ele>
        <time>2021-01-10T08:28:54.000Z</time>
      </trkpt>
      <trkpt lat="47.2622" lon="-2.31992">
        <ele>-5.4000000953674</ele>
        <time>2021-01-10T08:28:55.000Z</time>
      </trkpt>
      <trkpt lat="47.2622" lon="-2.31995">
        <ele>-5.8000001907349</ele>
        <time>2021-01-10T08:28:56.000Z</time>
      </trkpt>
      <trkpt lat="47.2622" lon="-2.31998">
        <ele>-6.1999998092651</ele>
        <time>2021-01-10T08:28:57.000Z</time>
      </trkpt>
      <trkpt lat="47.2622" lon="-2.32">
        <ele>-6.5999999046326</ele>
        <time>2021-01-10T08:28:58.000Z</time>
      </trkpt>
      <trkpt lat="47.26217" lon="-2.32002">
        <ele>-6.5999999046326</ele>
        <time>2021-01-10T08:29:00.000Z</time>
      </trkpt>
      <trkpt lat="47.26216" lon="-2.32002">
        <ele>-6.5999999046326</ele>
        <time>2021-01-10T08:29:01.000Z</time>
      </trkpt>
      <trkpt lat="47.26203" lon="-2.32004">
        <ele>-6.5999999046326</ele>
        <time>2021-01-10T08:29:06.000Z</time>
      </trkpt>
      <trkpt lat="47.26197" lon="-2.32006">
        <ele>-6.5999999046326</ele>
        <time>2021-01-10T08:29:08.000Z</time>
      </trkpt>
      <trkpt lat="47.26186" lon="-2.32013">
        <ele>-6.5999999046326</ele>
        <time>2021-01-10T08:29:11.000Z</time>
      </trkpt>
      <trkpt lat="47.26182" lon="-2.32017">
        <ele>-6.5999999046326</ele>
        <time>2021-01-10T08:29:12.000Z</time>
      </trkpt>
      <trkpt lat="47.26176" lon="-2.32025">
        <ele>-6.5999999046326</ele>
        <time>2021-01-10T08:29:14.000Z</time>
      </trkpt>
      <trkpt lat="47.2617" lon="-2.32043">
        <ele>-6.5999999046326</ele>
        <time>2021-01-10T08:29:17.000Z</time>
      </trkpt>
      <trkpt lat="47.26164" lon="-2.32062">
        <ele>-6.5999999046326</ele>
        <time>2021-01-10T08:29:20.000Z</time>
      </trkpt>
      <trkpt lat="47.2616" lon="-2.32075">
        <ele>-6.5999999046326</ele>
        <time>2021-01-10T08:29:22.000Z</time>
      </trkpt>
      <trkpt lat="47.26156" lon="-2.32088">
        <ele>-6.5999999046326</ele>
        <time>2021-01-10T08:29:24.000Z</time>
      </trkpt>
      <trkpt lat="47.2614" lon="-2.32134">
        <ele>-6.5999999046326</ele>
        <time>2021-01-10T08:29:31.000Z</time>
      </trkpt>
      <trkpt lat="47.26135" lon="-2.32147">
        <ele>-6.5999999046326</ele>
        <time>2021-01-10T08:29:33.000Z</time>
      </trkpt>
      <trkpt lat="47.2613" lon="-2.3216">
        <ele>-6.5999999046326</ele>
        <time>2021-01-10T08:29:35.000Z</time>
      </trkpt>
      <trkpt lat="47.26124" lon="-2.32172">
        <ele>-6.5999999046326</ele>
        <time>2021-01-10T08:29:37.000Z</time>
      </trkpt>
      <trkpt lat="47.26101" lon="-2.32212">
        <ele>-6.5999999046326</ele>
        <time>2021-01-10T08:29:44.000Z</time>
      </trkpt>
      <trkpt lat="47.26073" lon="-2.32247">
        <ele>-6.5999999046326</ele>
        <time>2021-01-10T08:29:51.000Z</time>
      </trkpt>
      <trkpt lat="47.26069" lon="-2.32252">
        <ele>-6.5999999046326</ele>
        <time>2021-01-10T08:29:52.000Z</time>
      </trkpt>
      <trkpt lat="47.26039" lon="-2.32286">
        <ele>-6.5999999046326</ele>
        <time>2021-01-10T08:29:59.000Z</time>
      </trkpt>
      <trkpt lat="47.26006" lon="-2.32327">
        <ele>-6.5999999046326</ele>
        <time>2021-01-10T08:30:07.000Z</time>
      </trkpt>
      <trkpt lat="47.2597" lon="-2.32374">
        <ele>-6.5999999046326</ele>
        <time>2021-01-10T08:30:16.000Z</time>
      </trkpt>
      <trkpt lat="47.25954" lon="-2.32395">
        <ele>-6.5999999046326</ele>
        <time>2021-01-10T08:30:20.000Z</time>
      </trkpt>
      <trkpt lat="47.25945" lon="-2.32406">
        <ele>-6.5999999046326</ele>
        <time>2021-01-10T08:30:22.000Z</time>
      </trkpt>
      <trkpt lat="47.25912" lon="-2.32447">
        <ele>-6.5999999046326</ele>
        <time>2021-01-10T08:30:30.000Z</time>
      </trkpt>
      <trkpt lat="47.25895" lon="-2.32464">
        <ele>-6.5999999046326</ele>
        <time>2021-01-10T08:30:35.000Z</time>
      </trkpt>
      <trkpt lat="47.25891" lon="-2.32466">
        <ele>-6.5999999046326</ele>
        <time>2021-01-10T08:30:36.000Z</time>
      </trkpt>
      <trkpt lat="47.25873" lon="-2.32472">
        <ele>-6.5999999046326</ele>
        <time>2021-01-10T08:30:40.000Z</time>
      </trkpt>
      <trkpt lat="47.25868" lon="-2.32472">
        <ele>-6.5999999046326</ele>
        <time>2021-01-10T08:30:41.000Z</time>
      </trkpt>
      <trkpt lat="47.25854" lon="-2.32472">
        <ele>-6.5999999046326</ele>
        <time>2021-01-10T08:30:44.000Z</time>
      </trkpt>
      <trkpt lat="47.25844" lon="-2.3247">
        <ele>-6.5999999046326</ele>
        <time>2021-01-10T08:30:46.000Z</time>
      </trkpt>
      <trkpt lat="47.25839" lon="-2.32468">
        <ele>-6.5999999046326</ele>
        <time>2021-01-10T08:30:47.000Z</time>
      </trkpt>
      <trkpt lat="47.25817" lon="-2.32458">
        <ele>-6.1999998092651</ele>
        <time>2021-01-10T08:30:51.000Z</time>
      </trkpt>
      <trkpt lat="47.25812" lon="-2.32456">
        <ele>-5.8000001907349</ele>
        <time>2021-01-10T08:30:52.000Z</time>
      </trkpt>
      <trkpt lat="47.25807" lon="-2.32456">
        <ele>-5.4000000953674</ele>
        <time>2021-01-10T08:30:53.000Z</time>
      </trkpt>
      <trkpt lat="47.25802" lon="-2.32457">
        <ele>-5</ele>
        <time>2021-01-10T08:30:54.000Z</time>
      </trkpt>
      <trkpt lat="47.25797" lon="-2.32458">
        <ele>-4.5999999046326</ele>
        <time>2021-01-10T08:30:55.000Z</time>
      </trkpt>
      <trkpt lat="47.25793" lon="-2.32458">
        <ele>-4.5999999046326</ele>
        <time>2021-01-10T08:30:56.000Z</time>
      </trkpt>
      <trkpt lat="47.25782" lon="-2.32449">
        <ele>-4.5999999046326</ele>
        <time>2021-01-10T08:30:59.000Z</time>
      </trkpt>
      <trkpt lat="47.2578" lon="-2.32444">
        <ele>-4.5999999046326</ele>
        <time>2021-01-10T08:31:00.000Z</time>
      </trkpt>
      <trkpt lat="47.25774" lon="-2.32435">
        <ele>-4.5999999046326</ele>
        <time>2021-01-10T08:31:02.000Z</time>
      </trkpt>
      <trkpt lat="47.25765" lon="-2.32431">
        <ele>-4.5999999046326</ele>
        <time>2021-01-10T08:31:04.000Z</time>
      </trkpt>
      <trkpt lat="47.25748" lon="-2.3243">
        <ele>-4.5999999046326</ele>
        <time>2021-01-10T08:31:07.000Z</time>
      </trkpt>
      <trkpt lat="47.25736" lon="-2.32429">
        <ele>-4.5999999046326</ele>
        <time>2021-01-10T08:31:09.000Z</time>
      </trkpt>
      <trkpt lat="47.25696" lon="-2.32427">
        <ele>-4.5999999046326</ele>
        <time>2021-01-10T08:31:16.000Z</time>
      </trkpt>
      <trkpt lat="47.25672" lon="-2.32424">
        <ele>-4.5999999046326</ele>
        <time>2021-01-10T08:31:21.000Z</time>
      </trkpt>
      <trkpt lat="47.25667" lon="-2.32426">
        <ele>-4.5999999046326</ele>
        <time>2021-01-10T08:31:22.000Z</time>
      </trkpt>
      <trkpt lat="47.25656" lon="-2.32435">
        <ele>-4.5999999046326</ele>
        <time>2021-01-10T08:31:26.000Z</time>
      </trkpt>
      <trkpt lat="47.25655" lon="-2.32444">
        <ele>-4.5999999046326</ele>
        <time>2021-01-10T08:31:30.000Z</time>
      </trkpt>
      <trkpt lat="47.25656" lon="-2.32448">
        <ele>-4.1999998092651</ele>
        <time>2021-01-10T08:31:31.000Z</time>
      </trkpt>
      <trkpt lat="47.25657" lon="-2.32452">
        <ele>-3.7999999523163</ele>
        <time>2021-01-10T08:31:32.000Z</time>
      </trkpt>
      <trkpt lat="47.25658" lon="-2.32455">
        <ele>-3.4000000953674</ele>
        <time>2021-01-10T08:31:33.000Z</time>
      </trkpt>
      <trkpt lat="47.2566" lon="-2.32461">
        <ele>-3</ele>
        <time>2021-01-10T08:31:34.000Z</time>
      </trkpt>
      <trkpt lat="47.25662" lon="-2.32467">
        <ele>-2.4000000953674</ele>
        <time>2021-01-10T08:31:35.000Z</time>
      </trkpt>
      <trkpt lat="47.25665" lon="-2.32473">
        <ele>-2.4000000953674</ele>
        <time>2021-01-10T08:31:36.000Z</time>
      </trkpt>
      <trkpt lat="47.25671" lon="-2.32491">
        <ele>-2.4000000953674</ele>
        <time>2021-01-10T08:31:39.000Z</time>
      </trkpt>
      <trkpt lat="47.25677" lon="-2.32509">
        <ele>-2</ele>
        <time>2021-01-10T08:31:42.000Z</time>
      </trkpt>
      <trkpt lat="47.25679" lon="-2.32514">
        <ele>-1.6000000238419</ele>
        <time>2021-01-10T08:31:43.000Z</time>
      </trkpt>
      <trkpt lat="47.2568" lon="-2.3252">
        <ele>-1.2000000476837</ele>
        <time>2021-01-10T08:31:44.000Z</time>
      </trkpt>
      <trkpt lat="47.25682" lon="-2.32525">
        <ele>-0.80000001192093</ele>
        <time>2021-01-10T08:31:45.000Z</time>
      </trkpt>
      <trkpt lat="47.25684" lon="-2.32531">
        <ele>-0.40000000596046</ele>
        <time>2021-01-10T08:31:46.000Z</time>
      </trkpt>
      <trkpt lat="47.25686" lon="-2.32536">
        <ele>-0.40000000596046</ele>
        <time>2021-01-10T08:31:47.000Z</time>
      </trkpt>
      <trkpt lat="47.25695" lon="-2.32562">
        <ele>-0.40000000596046</ele>
        <time>2021-01-10T08:31:51.000Z</time>
      </trkpt>
      <trkpt lat="47.25698" lon="-2.32588">
        <ele>-0.40000000596046</ele>
        <time>2021-01-10T08:31:55.000Z</time>
      </trkpt>
      <trkpt lat="47.25699" lon="-2.32601">
        <ele>-0.40000000596046</ele>
        <time>2021-01-10T08:31:56.000Z</time>
      </trkpt>
      <trkpt lat="47.25692" lon="-2.32608">
        <ele>-0.40000000596046</ele>
        <time>2021-01-10T08:31:58.000Z</time>
      </trkpt>
      <trkpt lat="47.25685" lon="-2.32612">
        <ele>-0.40000000596046</ele>
        <time>2021-01-10T08:32:00.000Z</time>
      </trkpt>
      <trkpt lat="47.25674" lon="-2.32619">
        <ele>-0.40000000596046</ele>
        <time>2021-01-10T08:32:03.000Z</time>
      </trkpt>
      <trkpt lat="47.25666" lon="-2.32625">
        <ele>-0.40000000596046</ele>
        <time>2021-01-10T08:32:05.000Z</time>
      </trkpt>
      <trkpt lat="47.25662" lon="-2.32628">
        <ele>11.2</ele>
        <time>2021-01-10T08:32:06.000Z</time>
      </trkpt>
      <trkpt lat="47.25658" lon="-2.32631">
        <ele>0.40000000596046</ele>
        <time>2021-01-10T08:32:07.000Z</time>
      </trkpt>
      <trkpt lat="47.25654" lon="-2.32633">
        <ele>0.80000001192093</ele>
        <time>2021-01-10T08:32:08.000Z</time>
      </trkpt>
      <trkpt lat="47.2565" lon="-2.32635">
        <ele>1.2000000476837</ele>
        <time>2021-01-10T08:32:09.000Z</time>
      </trkpt>
      <trkpt lat="47.25646" lon="-2.32637">
        <ele>1.6000000238419</ele>
        <time>2021-01-10T08:32:10.000Z</time>
      </trkpt>
      <trkpt lat="47.25638" lon="-2.32641">
        <ele>1.6000000238419</ele>
        <time>2021-01-10T08:32:12.000Z</time>
      </trkpt>
      <trkpt lat="47.25609" lon="-2.32654">
        <ele>1.6000000238419</ele>
        <time>2021-01-10T08:32:19.000Z</time>
      </trkpt>
      <trkpt lat="47.25606" lon="-2.32656">
        <ele>2</ele>
        <time>2021-01-10T08:32:20.000Z</time>
      </trkpt>
      <trkpt lat="47.25601" lon="-2.32658">
        <ele>2.4000000953674</ele>
        <time>2021-01-10T08:32:21.000Z</time>
      </trkpt>
      <trkpt lat="47.25597" lon="-2.3266">
        <ele>2.7999999523163</ele>
        <time>2021-01-10T08:32:22.000Z</time>
      </trkpt>
      <trkpt lat="47.25593" lon="-2.32661">
        <ele>3.2000000476837</ele>
        <time>2021-01-10T08:32:23.000Z</time>
      </trkpt>
      <trkpt lat="47.25589" lon="-2.32663">
        <ele>3.5999999046326</ele>
        <time>2021-01-10T08:32:24.000Z</time>
      </trkpt>
      <trkpt lat="47.25584" lon="-2.32665">
        <ele>3.5999999046326</ele>
        <time>2021-01-10T08:32:25.000Z</time>
      </trkpt>
      <trkpt lat="47.25547" lon="-2.32684">
        <ele>3.5999999046326</ele>
        <time>2021-01-10T08:32:33.000Z</time>
      </trkpt>
      <trkpt lat="47.25518" lon="-2.32697">
        <ele>3.5999999046326</ele>
        <time>2021-01-10T08:32:39.000Z</time>
      </trkpt>
      <trkpt lat="47.25513" lon="-2.32698">
        <ele>3.5999999046326</ele>
        <time>2021-01-10T08:32:40.000Z</time>
      </trkpt>
      <trkpt lat="47.25489" lon="-2.32702">
        <ele>3.5999999046326</ele>
        <time>2021-01-10T08:32:45.000Z</time>
      </trkpt>
      <trkpt lat="47.25484" lon="-2.32704">
        <ele>3.5999999046326</ele>
        <time>2021-01-10T08:32:46.000Z</time>
      </trkpt>
      <trkpt lat="47.25467" lon="-2.3272">
        <ele>3.5999999046326</ele>
        <time>2021-01-10T08:32:50.000Z</time>
      </trkpt>
      <trkpt lat="47.25459" lon="-2.32732">
        <ele>3.5999999046326</ele>
        <time>2021-01-10T08:32:52.000Z</time>
      </trkpt>
      <trkpt lat="47.25443" lon="-2.32755">
        <ele>3.5999999046326</ele>
        <time>2021-01-10T08:32:56.000Z</time>
      </trkpt>
      <trkpt lat="47.25439" lon="-2.32761">
        <ele>3.5999999046326</ele>
        <time>2021-01-10T08:32:57.000Z</time>
      </trkpt>
      <trkpt lat="47.25432" lon="-2.32783">
        <ele>3.5999999046326</ele>
        <time>2021-01-10T08:33:00.000Z</time>
      </trkpt>
      <trkpt lat="47.25425" lon="-2.32795">
        <ele>3.5999999046326</ele>
        <time>2021-01-10T08:33:02.000Z</time>
      </trkpt>
      <trkpt lat="47.25413" lon="-2.32813">
        <ele>3.5999999046326</ele>
        <time>2021-01-10T08:33:05.000Z</time>
      </trkpt>
      <trkpt lat="47.25398" lon="-2.32831">
        <ele>3.2000000476837</ele>
        <time>2021-01-10T08:33:08.000Z</time>
      </trkpt>
      <trkpt lat="47.25393" lon="-2.32837">
        <ele>2.7999999523163</ele>
        <time>2021-01-10T08:33:09.000Z</time>
      </trkpt>
      <trkpt lat="47.25388" lon="-2.32842">
        <ele>2</ele>
        <time>2021-01-10T08:33:10.000Z</time>
      </trkpt>
      <trkpt lat="47.25383" lon="-2.32848">
        <ele>1.6000000238419</ele>
        <time>2021-01-10T08:33:11.000Z</time>
      </trkpt>
      <trkpt lat="47.25378" lon="-2.32853">
        <ele>1.6000000238419</ele>
        <time>2021-01-10T08:33:12.000Z</time>
      </trkpt>
      <trkpt lat="47.25344" lon="-2.32888">
        <ele>1.6000000238419</ele>
        <time>2021-01-10T08:33:19.000Z</time>
      </trkpt>
      <trkpt lat="47.25311" lon="-2.32924">
        <ele>1.6000000238419</ele>
        <time>2021-01-10T08:33:27.000Z</time>
      </trkpt>
      <trkpt lat="47.25309" lon="-2.32945">
        <ele>1.6000000238419</ele>
        <time>2021-01-10T08:33:30.000Z</time>
      </trkpt>
      <trkpt lat="47.25314" lon="-2.32965">
        <ele>1.6000000238419</ele>
        <time>2021-01-10T08:33:33.000Z</time>
      </trkpt>
      <trkpt lat="47.25317" lon="-2.32972">
        <ele>1.6000000238419</ele>
        <time>2021-01-10T08:33:34.000Z</time>
      </trkpt>
      <trkpt lat="47.25336" lon="-2.33022">
        <ele>1.6000000238419</ele>
        <time>2021-01-10T08:33:41.000Z</time>
      </trkpt>
      <trkpt lat="47.25356" lon="-2.33069">
        <ele>1.6000000238419</ele>
        <time>2021-01-10T08:33:48.000Z</time>
      </trkpt>
      <trkpt lat="47.25372" lon="-2.33111">
        <ele>1.2000000476837</ele>
        <time>2021-01-10T08:33:54.000Z</time>
      </trkpt>
      <trkpt lat="47.25375" lon="-2.33117">
        <ele>0.80000001192093</ele>
        <time>2021-01-10T08:33:55.000Z</time>
      </trkpt>
      <trkpt lat="47.25377" lon="-2.33122">
        <ele>0.40000000596046</ele>
        <time>2021-01-10T08:33:56.000Z</time>
      </trkpt>
      <trkpt lat="47.25379" lon="-2.33127">
        <ele>8</ele>
        <time>2021-01-10T08:33:57.000Z</time>
      </trkpt>
      <trkpt lat="47.2538" lon="-2.33132">
        <ele>-0.40000000596046</ele>
        <time>2021-01-10T08:33:58.000Z</time>
      </trkpt>
      <trkpt lat="47.25379" lon="-2.33136">
        <ele>-0.40000000596046</ele>
        <time>2021-01-10T08:33:59.000Z</time>
      </trkpt>
      <trkpt lat="47.25373" lon="-2.33143">
        <ele>-0.40000000596046</ele>
        <time>2021-01-10T08:34:02.000Z</time>
      </trkpt>
      <trkpt lat="47.25372" lon="-2.33142">
        <ele>-0.40000000596046</ele>
        <time>2021-01-10T08:34:05.000Z</time>
      </trkpt>
      <trkpt lat="47.25377" lon="-2.33126">
        <ele>-2.4000000953674</ele>
        <time>2021-01-10T08:42:33.000Z</time>
      </trkpt>
      <trkpt lat="47.25377" lon="-2.33126">
        <ele>-2.4000000953674</ele>
        <time>2021-01-10T08:42:34.000Z</time>
      </trkpt>
      <trkpt lat="47.25377" lon="-2.33128">
        <ele>-2.4000000953674</ele>
        <time>2021-01-10T08:42:46.000Z</time>
      </trkpt>
      <trkpt lat="47.25379" lon="-2.33135">
        <ele>-2.4000000953674</ele>
        <time>2021-01-10T08:42:49.000Z</time>
      </trkpt>
      <trkpt lat="47.25387" lon="-2.33138">
        <ele>-2.4000000953674</ele>
        <time>2021-01-10T08:42:52.000Z</time>
      </trkpt>
      <trkpt lat="47.2539" lon="-2.33138">
        <ele>-2.4000000953674</ele>
        <time>2021-01-10T08:42:53.000Z</time>
      </trkpt>
      <trkpt lat="47.25406" lon="-2.33129">
        <ele>-2.4000000953674</ele>
        <time>2021-01-10T08:42:59.000Z</time>
      </trkpt>
      <trkpt lat="47.2543" lon="-2.33117">
        <ele>-2.4000000953674</ele>
        <time>2021-01-10T08:43:05.000Z</time>
      </trkpt>
      <trkpt lat="47.25455" lon="-2.33106">
        <ele>-2.4000000953674</ele>
        <time>2021-01-10T08:43:11.000Z</time>
      </trkpt>
      <trkpt lat="47.25459" lon="-2.33104">
        <ele>-2.4000000953674</ele>
        <time>2021-01-10T08:43:12.000Z</time>
      </trkpt>
      <trkpt lat="47.25491" lon="-2.33082">
        <ele>-2.4000000953674</ele>
        <time>2021-01-10T08:43:20.000Z</time>
      </trkpt>
      <trkpt lat="47.25512" lon="-2.33057">
        <ele>-2.4000000953674</ele>
        <time>2021-01-10T08:43:26.000Z</time>
      </trkpt>
      <trkpt lat="47.25523" lon="-2.33047">
        <ele>-2.4000000953674</ele>
        <time>2021-01-10T08:43:29.000Z</time>
      </trkpt>
      <trkpt lat="47.25535" lon="-2.33042">
        <ele>-2.4000000953674</ele>
        <time>2021-01-10T08:43:32.000Z</time>
      </trkpt>
      <trkpt lat="47.2554" lon="-2.33041">
        <ele>-2.4000000953674</ele>
        <time>2021-01-10T08:43:33.000Z</time>
      </trkpt>
      <trkpt lat="47.25557" lon="-2.33039">
        <ele>-2.4000000953674</ele>
        <time>2021-01-10T08:43:37.000Z</time>
      </trkpt>
      <trkpt lat="47.25565" lon="-2.33037">
        <ele>-2.4000000953674</ele>
        <time>2021-01-10T08:43:39.000Z</time>
      </trkpt>
      <trkpt lat="47.25593" lon="-2.3303">
        <ele>-2.4000000953674</ele>
        <time>2021-01-10T08:43:46.000Z</time>
      </trkpt>
      <trkpt lat="47.25597" lon="-2.33029">
        <ele>-2.4000000953674</ele>
        <time>2021-01-10T08:43:47.000Z</time>
      </trkpt>
      <trkpt lat="47.25601" lon="-2.33028">
        <ele>-2</ele>
        <time>2021-01-10T08:43:48.000Z</time>
      </trkpt>
      <trkpt lat="47.25605" lon="-2.33027">
        <ele>-1.6000000238419</ele>
        <time>2021-01-10T08:43:49.000Z</time>
      </trkpt>
      <trkpt lat="47.25609" lon="-2.33025">
        <ele>-1.2000000476837</ele>
        <time>2021-01-10T08:43:50.000Z</time>
      </trkpt>
      <trkpt lat="47.25613" lon="-2.33022">
        <ele>-0.80000001192093</ele>
        <time>2021-01-10T08:43:51.000Z</time>
      </trkpt>
      <trkpt lat="47.25615" lon="-2.33018">
        <ele>-0.40000000596046</ele>
        <time>2021-01-10T08:43:52.000Z</time>
      </trkpt>
      <trkpt lat="47.25617" lon="-2.33007">
        <ele>-0.40000000596046</ele>
        <time>2021-01-10T08:43:54.000Z</time>
      </trkpt>
      <trkpt lat="47.25611" lon="-2.32977">
        <ele>-0.40000000596046</ele>
        <time>2021-01-10T08:43:59.000Z</time>
      </trkpt>
      <trkpt lat="47.25604" lon="-2.32934">
        <ele>-0.40000000596046</ele>
        <time>2021-01-10T08:44:06.000Z</time>
      </trkpt>
      <trkpt lat="47.256" lon="-2.3291">
        <ele>-0.40000000596046</ele>
        <time>2021-01-10T08:44:10.000Z</time>
      </trkpt>
      <trkpt lat="47.25597" lon="-2.32885">
        <ele>-0.40000000596046</ele>
        <time>2021-01-10T08:44:14.000Z</time>
      </trkpt>
      <trkpt lat="47.25596" lon="-2.32873">
        <ele>12.5</ele>
        <time>2021-01-10T08:44:16.000Z</time>
      </trkpt>
      <trkpt lat="47.25595" lon="-2.32866">
        <ele>0.80000001192093</ele>
        <time>2021-01-10T08:44:17.000Z</time>
      </trkpt>
      <trkpt lat="47.25594" lon="-2.3286">
        <ele>1.3999999761581</ele>
        <time>2021-01-10T08:44:18.000Z</time>
      </trkpt>
      <trkpt lat="47.25593" lon="-2.32854">
        <ele>1.7999999523163</ele>
        <time>2021-01-10T08:44:19.000Z</time>
      </trkpt>
      <trkpt lat="47.25592" lon="-2.32842">
        <ele>1.7999999523163</ele>
        <time>2021-01-10T08:44:21.000Z</time>
      </trkpt>
      <trkpt lat="47.25593" lon="-2.32819">
        <ele>1.7999999523163</ele>
        <time>2021-01-10T08:44:25.000Z</time>
      </trkpt>
      <trkpt lat="47.25593" lon="-2.32813">
        <ele>1.7999999523163</ele>
        <time>2021-01-10T08:44:26.000Z</time>
      </trkpt>
      <trkpt lat="47.25595" lon="-2.32807">
        <ele>1.7999999523163</ele>
        <time>2021-01-10T08:44:27.000Z</time>
      </trkpt>
      <trkpt lat="47.25599" lon="-2.32777">
        <ele>1.7999999523163</ele>
        <time>2021-01-10T08:44:32.000Z</time>
      </trkpt>
      <trkpt lat="47.25602" lon="-2.32722">
        <ele>1.7999999523163</ele>
        <time>2021-01-10T08:44:41.000Z</time>
      </trkpt>
      <trkpt lat="47.25604" lon="-2.32669">
        <ele>1.7999999523163</ele>
        <time>2021-01-10T08:44:50.000Z</time>
      </trkpt>
      <trkpt lat="47.25606" lon="-2.32666">
        <ele>1.7999999523163</ele>
        <time>2021-01-10T08:44:51.000Z</time>
      </trkpt>
      <trkpt lat="47.25614" lon="-2.32657">
        <ele>1.7999999523163</ele>
        <time>2021-01-10T08:44:54.000Z</time>
      </trkpt>
      <trkpt lat="47.25622" lon="-2.32655">
        <ele>1.7999999523163</ele>
        <time>2021-01-10T08:44:56.000Z</time>
      </trkpt>
      <trkpt lat="47.25635" lon="-2.32649">
        <ele>1.7999999523163</ele>
        <time>2021-01-10T08:44:59.000Z</time>
      </trkpt>
      <trkpt lat="47.25643" lon="-2.32644">
        <ele>1.7999999523163</ele>
        <time>2021-01-10T08:45:01.000Z</time>
      </trkpt>
      <trkpt lat="47.25662" lon="-2.32636">
        <ele>1.7999999523163</ele>
        <time>2021-01-10T08:45:05.000Z</time>
      </trkpt>
      <trkpt lat="47.25692" lon="-2.32623">
        <ele>1.3999999761581</ele>
        <time>2021-01-10T08:45:11.000Z</time>
      </trkpt>
      <trkpt lat="47.25696" lon="-2.32622">
        <ele>1</ele>
        <time>2021-01-10T08:45:12.000Z</time>
      </trkpt>
      <trkpt lat="47.257" lon="-2.3262">
        <ele>0.60000002384186</ele>
        <time>2021-01-10T08:45:13.000Z</time>
      </trkpt>
      <trkpt lat="47.25704" lon="-2.32617">
        <ele>0.20000000298023</ele>
        <time>2021-01-10T08:45:14.000Z</time>
      </trkpt>
      <trkpt lat="47.25707" lon="-2.32615">
        <ele>-0.20000000298023</ele>
        <time>2021-01-10T08:45:15.000Z</time>
      </trkpt>
      <trkpt lat="47.25708" lon="-2.3261">
        <ele>-0.80000001192093</ele>
        <time>2021-01-10T08:45:17.000Z</time>
      </trkpt>
      <trkpt lat="47.25708" lon="-2.3261">
        <ele>-1.2000000476837</ele>
        <time>2021-01-10T08:45:18.000Z</time>
      </trkpt>
      <trkpt lat="47.25708" lon="-2.32606">
        <ele>-2.5999999046326</ele>
        <time>2021-01-10T08:45:54.000Z</time>
      </trkpt>
      <trkpt lat="47.25708" lon="-2.326">
        <ele>-2.5999999046326</ele>
        <time>2021-01-10T08:45:56.000Z</time>
      </trkpt>
      <trkpt lat="47.25702" lon="-2.32577">
        <ele>-2.5999999046326</ele>
        <time>2021-01-10T08:46:01.000Z</time>
      </trkpt>
      <trkpt lat="47.25695" lon="-2.32559">
        <ele>-2.5999999046326</ele>
        <time>2021-01-10T08:46:05.000Z</time>
      </trkpt>
      <trkpt lat="47.25686" lon="-2.32529">
        <ele>-2.5999999046326</ele>
        <time>2021-01-10T08:46:10.000Z</time>
      </trkpt>
      <trkpt lat="47.25671" lon="-2.32482">
        <ele>-3</ele>
        <time>2021-01-10T08:46:17.000Z</time>
      </trkpt>
      <trkpt lat="47.25669" lon="-2.32476">
        <ele>-3.5999999046326</ele>
        <time>2021-01-10T08:46:18.000Z</time>
      </trkpt>
      <trkpt lat="47.25666" lon="-2.32469">
        <ele>-4.5999999046326</ele>
        <time>2021-01-10T08:46:19.000Z</time>
      </trkpt>
      <trkpt lat="47.25665" lon="-2.32464">
        <ele>-5</ele>
        <time>2021-01-10T08:46:20.000Z</time>
      </trkpt>
      <trkpt lat="47.25663" lon="-2.3246">
        <ele>-5</ele>
        <time>2021-01-10T08:46:22.000Z</time>
      </trkpt>
      <trkpt lat="47.25662" lon="-2.32458">
        <ele>-5.4000000953674</ele>
        <time>2021-01-10T08:46:24.000Z</time>
      </trkpt>
      <trkpt lat="47.25662" lon="-2.32458">
        <ele>-5.8000001907349</ele>
        <time>2021-01-10T08:46:25.000Z</time>
      </trkpt>
      <trkpt lat="47.25662" lon="-2.32451">
        <ele>-7</ele>
        <time>2021-01-10T08:46:46.000Z</time>
      </trkpt>
      <trkpt lat="47.25662" lon="-2.32449">
        <ele>-7</ele>
        <time>2021-01-10T08:46:47.000Z</time>
      </trkpt>
      <trkpt lat="47.25658" lon="-2.32426">
        <ele>-7</ele>
        <time>2021-01-10T08:46:54.000Z</time>
      </trkpt>
      <trkpt lat="47.25661" lon="-2.32418">
        <ele>-7</ele>
        <time>2021-01-10T08:46:56.000Z</time>
      </trkpt>
      <trkpt lat="47.25664" lon="-2.32417">
        <ele>-7</ele>
        <time>2021-01-10T08:46:57.000Z</time>
      </trkpt>
      <trkpt lat="47.25681" lon="-2.32419">
        <ele>-7</ele>
        <time>2021-01-10T08:47:01.000Z</time>
      </trkpt>
      <trkpt lat="47.25714" lon="-2.32421">
        <ele>-7</ele>
        <time>2021-01-10T08:47:07.000Z</time>
      </trkpt>
      <trkpt lat="47.25757" lon="-2.32421">
        <ele>-7</ele>
        <time>2021-01-10T08:47:15.000Z</time>
      </trkpt>
      <trkpt lat="47.25766" lon="-2.32417">
        <ele>-7</ele>
        <time>2021-01-10T08:47:17.000Z</time>
      </trkpt>
      <trkpt lat="47.25774" lon="-2.32412">
        <ele>-7</ele>
        <time>2021-01-10T08:47:19.000Z</time>
      </trkpt>
      <trkpt lat="47.25785" lon="-2.32422">
        <ele>-7</ele>
        <time>2021-01-10T08:47:22.000Z</time>
      </trkpt>
      <trkpt lat="47.25791" lon="-2.32434">
        <ele>-7</ele>
        <time>2021-01-10T08:47:24.000Z</time>
      </trkpt>
      <trkpt lat="47.25802" lon="-2.32454">
        <ele>-7</ele>
        <time>2021-01-10T08:47:27.000Z</time>
      </trkpt>
      <trkpt lat="47.25818" lon="-2.32488">
        <ele>-7</ele>
        <time>2021-01-10T08:47:32.000Z</time>
      </trkpt>
      <trkpt lat="47.25846" lon="-2.32527">
        <ele>-7</ele>
        <time>2021-01-10T08:47:39.000Z</time>
      </trkpt>
      <trkpt lat="47.25874" lon="-2.32565">
        <ele>-7</ele>
        <time>2021-01-10T08:47:46.000Z</time>
      </trkpt>
      <trkpt lat="47.2589" lon="-2.32588">
        <ele>-7</ele>
        <time>2021-01-10T08:47:50.000Z</time>
      </trkpt>
      <trkpt lat="47.25901" lon="-2.32595">
        <ele>-7</ele>
        <time>2021-01-10T08:47:52.000Z</time>
      </trkpt>
      <trkpt lat="47.25914" lon="-2.32611">
        <ele>-7</ele>
        <time>2021-01-10T08:47:55.000Z</time>
      </trkpt>
      <trkpt lat="47.25918" lon="-2.32617">
        <ele>-7</ele>
        <time>2021-01-10T08:47:56.000Z</time>
      </trkpt>
      <trkpt lat="47.25953" lon="-2.3266">
        <ele>-7</ele>
        <time>2021-01-10T08:48:04.000Z</time>
      </trkpt>
      <trkpt lat="47.25959" lon="-2.32662">
        <ele>-7</ele>
        <time>2021-01-10T08:48:05.000Z</time>
      </trkpt>
      <trkpt lat="47.25977" lon="-2.32661">
        <ele>-7</ele>
        <time>2021-01-10T08:48:08.000Z</time>
      </trkpt>
      <trkpt lat="47.25999" lon="-2.3266">
        <ele>-7</ele>
        <time>2021-01-10T08:48:12.000Z</time>
      </trkpt>
      <trkpt lat="47.26005" lon="-2.32658">
        <ele>-7</ele>
        <time>2021-01-10T08:48:13.000Z</time>
      </trkpt>
      <trkpt lat="47.26042" lon="-2.32649">
        <ele>-7</ele>
        <time>2021-01-10T08:48:20.000Z</time>
      </trkpt>
      <trkpt lat="47.26082" lon="-2.32642">
        <ele>-7</ele>
        <time>2021-01-10T08:48:28.000Z</time>
      </trkpt>
      <trkpt lat="47.26121" lon="-2.32637">
        <ele>-7</ele>
        <time>2021-01-10T08:48:36.000Z</time>
      </trkpt>
      <trkpt lat="47.26151" lon="-2.32643">
        <ele>-7</ele>
        <time>2021-01-10T08:48:42.000Z</time>
      </trkpt>
      <trkpt lat="47.26187" lon="-2.32662">
        <ele>-7</ele>
        <time>2021-01-10T08:48:49.000Z</time>
      </trkpt>
      <trkpt lat="47.26217" lon="-2.32696">
        <ele>-7</ele>
        <time>2021-01-10T08:48:56.000Z</time>
      </trkpt>
      <trkpt lat="47.26245" lon="-2.32738">
        <ele>-7</ele>
        <time>2021-01-10T08:49:03.000Z</time>
      </trkpt>
      <trkpt lat="47.26272" lon="-2.32784">
        <ele>-7.4000000953674</ele>
        <time>2021-01-10T08:49:10.000Z</time>
      </trkpt>
      <trkpt lat="47.26275" lon="-2.32791">
        <ele>-7.8000001907349</ele>
        <time>2021-01-10T08:49:11.000Z</time>
      </trkpt>
      <trkpt lat="47.26279" lon="-2.32799">
        <ele>-8.8000001907349</ele>
        <time>2021-01-10T08:49:12.000Z</time>
      </trkpt>
      <trkpt lat="47.26281" lon="-2.32807">
        <ele>-9.1999998092651</ele>
        <time>2021-01-10T08:49:13.000Z</time>
      </trkpt>
      <trkpt lat="47.26286" lon="-2.32824">
        <ele>-9.1999998092651</ele>
        <time>2021-01-10T08:49:15.000Z</time>
      </trkpt>
      <trkpt lat="47.26287" lon="-2.32833">
        <ele>-9.1999998092651</ele>
        <time>2021-01-10T08:49:16.000Z</time>
      </trkpt>
      <trkpt lat="47.26297" lon="-2.3286">
        <ele>-9.1999998092651</ele>
        <time>2021-01-10T08:49:20.000Z</time>
      </trkpt>
      <trkpt lat="47.26313" lon="-2.32865">
        <ele>-9.1999998092651</ele>
        <time>2021-01-10T08:49:23.000Z</time>
      </trkpt>
      <trkpt lat="47.26323" lon="-2.32884">
        <ele>-9.1999998092651</ele>
        <time>2021-01-10T08:49:26.000Z</time>
      </trkpt>
      <trkpt lat="47.26328" lon="-2.32899">
        <ele>-9.1999998092651</ele>
        <time>2021-01-10T08:49:28.000Z</time>
      </trkpt>
      <trkpt lat="47.2634" lon="-2.32939">
        <ele>-9.1999998092651</ele>
        <time>2021-01-10T08:49:33.000Z</time>
      </trkpt>
      <trkpt lat="47.26356" lon="-2.32976">
        <ele>-9.1999998092651</ele>
        <time>2021-01-10T08:49:38.000Z</time>
      </trkpt>
      <trkpt lat="47.26361" lon="-2.32981">
        <ele>-9.1999998092651</ele>
        <time>2021-01-10T08:49:39.000Z</time>
      </trkpt>
      <trkpt lat="47.26367" lon="-2.32993">
        <ele>-9.1999998092651</ele>
        <time>2021-01-10T08:49:41.000Z</time>
      </trkpt>
      <trkpt lat="47.26368" lon="-2.33009">
        <ele>-9.1999998092651</ele>
        <time>2021-01-10T08:49:43.000Z</time>
      </trkpt>
      <trkpt lat="47.26371" lon="-2.33087">
        <ele>-9.1999998092651</ele>
        <time>2021-01-10T08:49:52.000Z</time>
      </trkpt>
      <trkpt lat="47.26372" lon="-2.33113">
        <ele>-9.1999998092651</ele>
        <time>2021-01-10T08:49:55.000Z</time>
      </trkpt>
      <trkpt lat="47.26375" lon="-2.33147">
        <ele>-9.1999998092651</ele>
        <time>2021-01-10T08:49:59.000Z</time>
      </trkpt>
      <trkpt lat="47.26379" lon="-2.33221">
        <ele>-9.6000003814697</ele>
        <time>2021-01-10T08:50:08.000Z</time>
      </trkpt>
      <trkpt lat="47.26379" lon="-2.33229">
        <ele>-10</ele>
        <time>2021-01-10T08:50:09.000Z</time>
      </trkpt>
      <trkpt lat="47.26379" lon="-2.33236">
        <ele>-10.39999961853</ele>
        <time>2021-01-10T08:50:10.000Z</time>
      </trkpt>
      <trkpt lat="47.2638" lon="-2.33243">
        <ele>-10.800000190735</ele>
        <time>2021-01-10T08:50:11.000Z</time>
      </trkpt>
      <trkpt lat="47.2638" lon="-2.33249">
        <ele>-11.199999809265</ele>
        <time>2021-01-10T08:50:12.000Z</time>
      </trkpt>
      <trkpt lat="47.26381" lon="-2.33255">
        <ele>-11.199999809265</ele>
        <time>2021-01-10T08:50:13.000Z</time>
      </trkpt>
      <trkpt lat="47.26383" lon="-2.33261">
        <ele>-11.199999809265</ele>
        <time>2021-01-10T08:50:14.000Z</time>
      </trkpt>
      <trkpt lat="47.26392" lon="-2.33272">
        <ele>-11.199999809265</ele>
        <time>2021-01-10T08:50:17.000Z</time>
      </trkpt>
      <trkpt lat="47.26407" lon="-2.33274">
        <ele>-11.199999809265</ele>
        <time>2021-01-10T08:50:20.000Z</time>
      </trkpt>
      <trkpt lat="47.26412" lon="-2.33275">
        <ele>-11.199999809265</ele>
        <time>2021-01-10T08:50:21.000Z</time>
      </trkpt>
      <trkpt lat="47.2646" lon="-2.33277">
        <ele>-11.199999809265</ele>
        <time>2021-01-10T08:50:30.000Z</time>
      </trkpt>
      <trkpt lat="47.2647" lon="-2.33277">
        <ele>-11.199999809265</ele>
        <time>2021-01-10T08:50:32.000Z</time>
      </trkpt>
      <trkpt lat="47.26484" lon="-2.33268">
        <ele>-11.199999809265</ele>
        <time>2021-01-10T08:50:35.000Z</time>
      </trkpt>
      <trkpt lat="47.26498" lon="-2.33246">
        <ele>-11.199999809265</ele>
        <time>2021-01-10T08:50:39.000Z</time>
      </trkpt>
      <trkpt lat="47.26506" lon="-2.33235">
        <ele>-11.199999809265</ele>
        <time>2021-01-10T08:50:41.000Z</time>
      </trkpt>
      <trkpt lat="47.2652" lon="-2.33224">
        <ele>-11.199999809265</ele>
        <time>2021-01-10T08:50:44.000Z</time>
      </trkpt>
      <trkpt lat="47.26559" lon="-2.33201">
        <ele>-11.199999809265</ele>
        <time>2021-01-10T08:50:52.000Z</time>
      </trkpt>
      <trkpt lat="47.26579" lon="-2.33186">
        <ele>-11.199999809265</ele>
        <time>2021-01-10T08:50:56.000Z</time>
      </trkpt>
      <trkpt lat="47.26587" lon="-2.33174">
        <ele>-11.199999809265</ele>
        <time>2021-01-10T08:50:58.000Z</time>
      </trkpt>
      <trkpt lat="47.26591" lon="-2.33152">
        <ele>-11.199999809265</ele>
        <time>2021-01-10T08:51:01.000Z</time>
      </trkpt>
      <trkpt lat="47.26603" lon="-2.3314">
        <ele>-11.199999809265</ele>
        <time>2021-01-10T08:51:05.000Z</time>
      </trkpt>
      <trkpt lat="47.26616" lon="-2.33146">
        <ele>-11.199999809265</ele>
        <time>2021-01-10T08:51:08.000Z</time>
      </trkpt>
      <trkpt lat="47.2662" lon="-2.33147">
        <ele>-10.800000190735</ele>
        <time>2021-01-10T08:51:09.000Z</time>
      </trkpt>
      <trkpt lat="47.26624" lon="-2.33148">
        <ele>-10.39999961853</ele>
        <time>2021-01-10T08:51:10.000Z</time>
      </trkpt>
      <trkpt lat="47.26629" lon="-2.33147">
        <ele>-10</ele>
        <time>2021-01-10T08:51:11.000Z</time>
      </trkpt>
      <trkpt lat="47.26633" lon="-2.33145">
        <ele>-9.6000003814697</ele>
        <time>2021-01-10T08:51:12.000Z</time>
      </trkpt>
      <trkpt lat="47.26638" lon="-2.33143">
        <ele>-9.1999998092651</ele>
        <time>2021-01-10T08:51:13.000Z</time>
      </trkpt>
      <trkpt lat="47.26642" lon="-2.3314">
        <ele>-9.1999998092651</ele>
        <time>2021-01-10T08:51:14.000Z</time>
      </trkpt>
      <trkpt lat="47.26647" lon="-2.33137">
        <ele>-9.1999998092651</ele>
        <time>2021-01-10T08:51:15.000Z</time>
      </trkpt>
      <trkpt lat="47.26662" lon="-2.33123">
        <ele>-9.1999998092651</ele>
        <time>2021-01-10T08:51:19.000Z</time>
      </trkpt>
      <trkpt lat="47.2667" lon="-2.33117">
        <ele>-9.1999998092651</ele>
        <time>2021-01-10T08:51:21.000Z</time>
      </trkpt>
      <trkpt lat="47.26685" lon="-2.33101">
        <ele>-9.1999998092651</ele>
        <time>2021-01-10T08:51:25.000Z</time>
      </trkpt>
      <trkpt lat="47.26705" lon="-2.33084">
        <ele>-9.1999998092651</ele>
        <time>2021-01-10T08:51:31.000Z</time>
      </trkpt>
      <trkpt lat="47.26717" lon="-2.3307">
        <ele>-9.1999998092651</ele>
        <time>2021-01-10T08:51:37.000Z</time>
      </trkpt>
      <trkpt lat="47.26732" lon="-2.33045">
        <ele>-9.1999998092651</ele>
        <time>2021-01-10T08:51:43.000Z</time>
      </trkpt>
      <trkpt lat="47.26733" lon="-2.33026">
        <ele>-9.1999998092651</ele>
        <time>2021-01-10T08:51:47.000Z</time>
      </trkpt>
      <trkpt lat="47.26734" lon="-2.33">
        <ele>-9.1999998092651</ele>
        <time>2021-01-10T08:51:52.000Z</time>
      </trkpt>
      <trkpt lat="47.26737" lon="-2.32987">
        <ele>-9.1999998092651</ele>
        <time>2021-01-10T08:51:54.000Z</time>
      </trkpt>
      <trkpt lat="47.26746" lon="-2.32971">
        <ele>-9.1999998092651</ele>
        <time>2021-01-10T08:51:57.000Z</time>
      </trkpt>
      <trkpt lat="47.26754" lon="-2.32962">
        <ele>-9.1999998092651</ele>
        <time>2021-01-10T08:51:59.000Z</time>
      </trkpt>
      <trkpt lat="47.26762" lon="-2.32953">
        <ele>-9.1999998092651</ele>
        <time>2021-01-10T08:52:01.000Z</time>
      </trkpt>
      <trkpt lat="47.26787" lon="-2.32924">
        <ele>-9.1999998092651</ele>
        <time>2021-01-10T08:52:07.000Z</time>
      </trkpt>
      <trkpt lat="47.26792" lon="-2.3292">
        <ele>-9.1999998092651</ele>
        <time>2021-01-10T08:52:08.000Z</time>
      </trkpt>
      <trkpt lat="47.26805" lon="-2.32911">
        <ele>-9.1999998092651</ele>
        <time>2021-01-10T08:52:11.000Z</time>
      </trkpt>
      <trkpt lat="47.26814" lon="-2.32903">
        <ele>-9.1999998092651</ele>
        <time>2021-01-10T08:52:13.000Z</time>
      </trkpt>
      <trkpt lat="47.26819" lon="-2.32898">
        <ele>-9.1999998092651</ele>
        <time>2021-01-10T08:52:14.000Z</time>
      </trkpt>
      <trkpt lat="47.2683" lon="-2.32884">
        <ele>-9.1999998092651</ele>
        <time>2021-01-10T08:52:17.000Z</time>
      </trkpt>
      <trkpt lat="47.26834" lon="-2.32882">
        <ele>-9.1999998092651</ele>
        <time>2021-01-10T08:52:18.000Z</time>
      </trkpt>
      <trkpt lat="47.26845" lon="-2.32876">
        <ele>-9.1999998092651</ele>
        <time>2021-01-10T08:52:21.000Z</time>
      </trkpt>
      <trkpt lat="47.2686" lon="-2.32865">
        <ele>-9.1999998092651</ele>
        <time>2021-01-10T08:52:25.000Z</time>
      </trkpt>
      <trkpt lat="47.26859" lon="-2.32848">
        <ele>-9.1999998092651</ele>
        <time>2021-01-10T08:52:28.000Z</time>
      </trkpt>
      <trkpt lat="47.26854" lon="-2.32838">
        <ele>-9.1999998092651</ele>
        <time>2021-01-10T08:52:30.000Z</time>
      </trkpt>
      <trkpt lat="47.2685" lon="-2.32829">
        <ele>-9.1999998092651</ele>
        <time>2021-01-10T08:52:32.000Z</time>
      </trkpt>
      <trkpt lat="47.26848" lon="-2.32827">
        <ele>-8.8000001907349</ele>
        <time>2021-01-10T08:52:33.000Z</time>
      </trkpt>
      <trkpt lat="47.26847" lon="-2.32824">
        <ele>-8.3999996185303</ele>
        <time>2021-01-10T08:52:34.000Z</time>
      </trkpt>
      <trkpt lat="47.26847" lon="-2.32821">
        <ele>-8</ele>
        <time>2021-01-10T08:52:35.000Z</time>
      </trkpt>
      <trkpt lat="47.26846" lon="-2.32818">
        <ele>-7.5999999046326</ele>
        <time>2021-01-10T08:52:36.000Z</time>
      </trkpt>
      <trkpt lat="47.26846" lon="-2.32815">
        <ele>-7.1999998092651</ele>
        <time>2021-01-10T08:52:37.000Z</time>
      </trkpt>
      <trkpt lat="47.26841" lon="-2.32803">
        <ele>-6.5999999046326</ele>
        <time>2021-01-10T08:52:40.000Z</time>
      </trkpt>
      <trkpt lat="47.2684" lon="-2.32798">
        <ele>-6.1999998092651</ele>
        <time>2021-01-10T08:52:41.000Z</time>
      </trkpt>
      <trkpt lat="47.26839" lon="-2.32793">
        <ele>-5.8000001907349</ele>
        <time>2021-01-10T08:52:42.000Z</time>
      </trkpt>
      <trkpt lat="47.26837" lon="-2.32789">
        <ele>-5.4000000953674</ele>
        <time>2021-01-10T08:52:43.000Z</time>
      </trkpt>
      <trkpt lat="47.26836" lon="-2.32784">
        <ele>-4.8000001907349</ele>
        <time>2021-01-10T08:52:44.000Z</time>
      </trkpt>
      <trkpt lat="47.26833" lon="-2.32775">
        <ele>-4.4000000953674</ele>
        <time>2021-01-10T08:52:46.000Z</time>
      </trkpt>
      <trkpt lat="47.26831" lon="-2.3277">
        <ele>-4</ele>
        <time>2021-01-10T08:52:47.000Z</time>
      </trkpt>
      <trkpt lat="47.2683" lon="-2.32766">
        <ele>-3.4000000953674</ele>
        <time>2021-01-10T08:52:48.000Z</time>
      </trkpt>
      <trkpt lat="47.26828" lon="-2.32762">
        <ele>-3</ele>
        <time>2021-01-10T08:52:49.000Z</time>
      </trkpt>
      <trkpt lat="47.26826" lon="-2.32757">
        <ele>-2.5999999046326</ele>
        <time>2021-01-10T08:52:50.000Z</time>
      </trkpt>
      <trkpt lat="47.26822" lon="-2.32748">
        <ele>-2</ele>
        <time>2021-01-10T08:52:52.000Z</time>
      </trkpt>
      <trkpt lat="47.2682" lon="-2.32744">
        <ele>-1.6000000238419</ele>
        <time>2021-01-10T08:52:53.000Z</time>
      </trkpt>
      <trkpt lat="47.26818" lon="-2.3274">
        <ele>-1.2000000476837</ele>
        <time>2021-01-10T08:52:54.000Z</time>
      </trkpt>
      <trkpt lat="47.26816" lon="-2.32736">
        <ele>-0.20000000298023</ele>
        <time>2021-01-10T08:52:55.000Z</time>
      </trkpt>
      <trkpt lat="47.26813" lon="-2.32727">
        <ele>0.20000000298023</ele>
        <time>2021-01-10T08:52:57.000Z</time>
      </trkpt>
      <trkpt lat="47.26811" lon="-2.32723">
        <ele>0.80000001192093</ele>
        <time>2021-01-10T08:52:58.000Z</time>
      </trkpt>
      <trkpt lat="47.26809" lon="-2.32719">
        <ele>1.2000000476837</ele>
        <time>2021-01-10T08:52:59.000Z</time>
      </trkpt>
      <trkpt lat="47.26807" lon="-2.32714">
        <ele>1.6000000238419</ele>
        <time>2021-01-10T08:53:00.000Z</time>
      </trkpt>
      <trkpt lat="47.26805" lon="-2.32709">
        <ele>2</ele>
        <time>2021-01-10T08:53:01.000Z</time>
      </trkpt>
      <trkpt lat="47.268" lon="-2.32693">
        <ele>2</ele>
        <time>2021-01-10T08:53:04.000Z</time>
      </trkpt>
      <trkpt lat="47.268" lon="-2.32687">
        <ele>2</ele>
        <time>2021-01-10T08:53:05.000Z</time>
      </trkpt>
      <trkpt lat="47.26799" lon="-2.32681">
        <ele>2.4000000953674</ele>
        <time>2021-01-10T08:53:06.000Z</time>
      </trkpt>
      <trkpt lat="47.26801" lon="-2.32675">
        <ele>3</ele>
        <time>2021-01-10T08:53:07.000Z</time>
      </trkpt>
      <trkpt lat="47.26804" lon="-2.32669">
        <ele>3.4000000953674</ele>
        <time>2021-01-10T08:53:08.000Z</time>
      </trkpt>
      <trkpt lat="47.26806" lon="-2.32664">
        <ele>3.7999999523163</ele>
        <time>2021-01-10T08:53:09.000Z</time>
      </trkpt>
      <trkpt lat="47.26808" lon="-2.32658">
        <ele>4.1999998092651</ele>
        <time>2021-01-10T08:53:10.000Z</time>
      </trkpt>
      <trkpt lat="47.26807" lon="-2.32637">
        <ele>4.1999998092651</ele>
        <time>2021-01-10T08:53:13.000Z</time>
      </trkpt>
      <trkpt lat="47.26806" lon="-2.3263">
        <ele>4.1999998092651</ele>
        <time>2021-01-10T08:53:14.000Z</time>
      </trkpt>
      <trkpt lat="47.26804" lon="-2.32609">
        <ele>4.1999998092651</ele>
        <time>2021-01-10T08:53:17.000Z</time>
      </trkpt>
      <trkpt lat="47.26802" lon="-2.32594">
        <ele>4.1999998092651</ele>
        <time>2021-01-10T08:53:19.000Z</time>
      </trkpt>
      <trkpt lat="47.26798" lon="-2.32548">
        <ele>4.1999998092651</ele>
        <time>2021-01-10T08:53:25.000Z</time>
      </trkpt>
      <trkpt lat="47.26795" lon="-2.32492">
        <ele>4.1999998092651</ele>
        <time>2021-01-10T08:53:33.000Z</time>
      </trkpt>
      <trkpt lat="47.26791" lon="-2.32454">
        <ele>4.1999998092651</ele>
        <time>2021-01-10T08:53:39.000Z</time>
      </trkpt>
      <trkpt lat="47.26787" lon="-2.32418">
        <ele>4.1999998092651</ele>
        <time>2021-01-10T08:53:45.000Z</time>
      </trkpt>
      <trkpt lat="47.2678" lon="-2.32383">
        <ele>4.1999998092651</ele>
        <time>2021-01-10T08:53:52.000Z</time>
      </trkpt>
      <trkpt lat="47.26778" lon="-2.32375">
        <ele>4.1999998092651</ele>
        <time>2021-01-10T08:53:56.000Z</time>
      </trkpt>
      <trkpt lat="47.26778" lon="-2.32371">
        <ele>4.1999998092651</ele>
        <time>2021-01-10T08:54:01.000Z</time>
      </trkpt>
      <trkpt lat="47.2678" lon="-2.32369">
        <ele>4.1999998092651</ele>
        <time>2021-01-10T08:55:17.000Z</time>
      </trkpt>
      <trkpt lat="47.26786" lon="-2.32366">
        <ele>4.1999998092651</ele>
        <time>2021-01-10T08:55:19.000Z</time>
      </trkpt>
      <trkpt lat="47.26804" lon="-2.32358">
        <ele>4.1999998092651</ele>
        <time>2021-01-10T08:55:24.000Z</time>
      </trkpt>
      <trkpt lat="47.2681" lon="-2.32356">
        <ele>3.7999999523163</ele>
        <time>2021-01-10T08:55:25.000Z</time>
      </trkpt>
      <trkpt lat="47.26815" lon="-2.32354">
        <ele>3.2000000476837</ele>
        <time>2021-01-10T08:55:26.000Z</time>
      </trkpt>
      <trkpt lat="47.26821" lon="-2.32353">
        <ele>2.7999999523163</ele>
        <time>2021-01-10T08:55:27.000Z</time>
      </trkpt>
      <trkpt lat="47.26826" lon="-2.32351">
        <ele>2.4000000953674</ele>
        <time>2021-01-10T08:55:28.000Z</time>
      </trkpt>
      <trkpt lat="47.26832" lon="-2.32349">
        <ele>2</ele>
        <time>2021-01-10T08:55:29.000Z</time>
      </trkpt>
      <trkpt lat="47.26838" lon="-2.32347">
        <ele>2</ele>
        <time>2021-01-10T08:55:30.000Z</time>
      </trkpt>
      <trkpt lat="47.26851" lon="-2.32345">
        <ele>1.3999999761581</ele>
        <time>2021-01-10T08:55:32.000Z</time>
      </trkpt>
      <trkpt lat="47.26858" lon="-2.32344">
        <ele>1</ele>
        <time>2021-01-10T08:55:33.000Z</time>
      </trkpt>
      <trkpt lat="47.26864" lon="-2.32343">
        <ele>0.40000000596046</ele>
        <time>2021-01-10T08:55:34.000Z</time>
      </trkpt>
      <trkpt lat="47.2687" lon="-2.32342">
        <ele>-0.20000000298023</ele>
        <time>2021-01-10T08:55:35.000Z</time>
      </trkpt>
      <trkpt lat="47.26876" lon="-2.32341">
        <ele>-0.60000002384186</ele>
        <time>2021-01-10T08:55:36.000Z</time>
      </trkpt>
      <trkpt lat="47.26882" lon="-2.32339">
        <ele>-1.2000000476837</ele>
        <time>2021-01-10T08:55:37.000Z</time>
      </trkpt>
      <trkpt lat="47.26888" lon="-2.32337">
        <ele>-1.7999999523163</ele>
        <time>2021-01-10T08:55:38.000Z</time>
      </trkpt>
      <trkpt lat="47.26894" lon="-2.32336">
        <ele>-2.2000000476837</ele>
        <time>2021-01-10T08:55:39.000Z</time>
      </trkpt>
      <trkpt lat="47.269" lon="-2.32334">
        <ele>-2.7999999523163</ele>
        <time>2021-01-10T08:55:40.000Z</time>
      </trkpt>
      <trkpt lat="47.2691" lon="-2.32332">
        <ele>-3.2000000476837</ele>
        <time>2021-01-10T08:55:42.000Z</time>
      </trkpt>
      <trkpt lat="47.26914" lon="-2.32332">
        <ele>-3.7999999523163</ele>
        <time>2021-01-10T08:55:43.000Z</time>
      </trkpt>
      <trkpt lat="47.26919" lon="-2.32334">
        <ele>-4.1999998092651</ele>
        <time>2021-01-10T08:55:44.000Z</time>
      </trkpt>
      <trkpt lat="47.26923" lon="-2.32339">
        <ele>-4.8000001907349</ele>
        <time>2021-01-10T08:55:45.000Z</time>
      </trkpt>
      <trkpt lat="47.26926" lon="-2.32343">
        <ele>-5.1999998092651</ele>
        <time>2021-01-10T08:55:46.000Z</time>
      </trkpt>
      <trkpt lat="47.26931" lon="-2.3235">
        <ele>-5.5999999046326</ele>
        <time>2021-01-10T08:55:48.000Z</time>
      </trkpt>
      <trkpt lat="47.26934" lon="-2.32353">
        <ele>-6</ele>
        <time>2021-01-10T08:55:49.000Z</time>
      </trkpt>
      <trkpt lat="47.26936" lon="-2.32356">
        <ele>-6.5999999046326</ele>
        <time>2021-01-10T08:55:50.000Z</time>
      </trkpt>
      <trkpt lat="47.26937" lon="-2.3236">
        <ele>-7</ele>
        <time>2021-01-10T08:55:51.000Z</time>
      </trkpt>
      <trkpt lat="47.26939" lon="-2.32364">
        <ele>-7.4000000953674</ele>
        <time>2021-01-10T08:55:52.000Z</time>
      </trkpt>
      <trkpt lat="47.26947" lon="-2.32392">
        <ele>-7.4000000953674</ele>
        <time>2021-01-10T08:55:58.000Z</time>
      </trkpt>
      <trkpt lat="47.26951" lon="-2.32405">
        <ele>-7.4000000953674</ele>
        <time>2021-01-10T08:56:00.000Z</time>
      </trkpt>
      <trkpt lat="47.2696" lon="-2.32425">
        <ele>-7.4000000953674</ele>
        <time>2021-01-10T08:56:03.000Z</time>
      </trkpt>
      <trkpt lat="47.26968" lon="-2.32438">
        <ele>-7.4000000953674</ele>
        <time>2021-01-10T08:56:05.000Z</time>
      </trkpt>
      <trkpt lat="47.2698" lon="-2.32456">
        <ele>-7.4000000953674</ele>
        <time>2021-01-10T08:56:08.000Z</time>
      </trkpt>
      <trkpt lat="47.26997" lon="-2.3249">
        <ele>-7.4000000953674</ele>
        <time>2021-01-10T08:56:14.000Z</time>
      </trkpt>
      <trkpt lat="47.27003" lon="-2.325">
        <ele>-7.8000001907349</ele>
        <time>2021-01-10T08:56:16.000Z</time>
      </trkpt>
      <trkpt lat="47.27007" lon="-2.32504">
        <ele>-8.1999998092651</ele>
        <time>2021-01-10T08:56:17.000Z</time>
      </trkpt>
      <trkpt lat="47.27011" lon="-2.32505">
        <ele>-8.6000003814697</ele>
        <time>2021-01-10T08:56:18.000Z</time>
      </trkpt>
      <trkpt lat="47.27016" lon="-2.32504">
        <ele>-9.1999998092651</ele>
        <time>2021-01-10T08:56:19.000Z</time>
      </trkpt>
      <trkpt lat="47.27021" lon="-2.32503">
        <ele>-9.6000003814697</ele>
        <time>2021-01-10T08:56:20.000Z</time>
      </trkpt>
      <trkpt lat="47.27031" lon="-2.3249">
        <ele>-9.6000003814697</ele>
        <time>2021-01-10T08:56:23.000Z</time>
      </trkpt>
      <trkpt lat="47.27032" lon="-2.3247">
        <ele>-9.6000003814697</ele>
        <time>2021-01-10T08:56:26.000Z</time>
      </trkpt>
      <trkpt lat="47.27031" lon="-2.32454">
        <ele>-9.6000003814697</ele>
        <time>2021-01-10T08:56:28.000Z</time>
      </trkpt>
      <trkpt lat="47.27029" lon="-2.3242">
        <ele>-9.6000003814697</ele>
        <time>2021-01-10T08:56:32.000Z</time>
      </trkpt>
      <trkpt lat="47.27025" lon="-2.32379">
        <ele>-9.6000003814697</ele>
        <time>2021-01-10T08:56:38.000Z</time>
      </trkpt>
      <trkpt lat="47.27019" lon="-2.32348">
        <ele>-9.6000003814697</ele>
        <time>2021-01-10T08:56:43.000Z</time>
      </trkpt>
      <trkpt lat="47.27019" lon="-2.32325">
        <ele>-9.6000003814697</ele>
        <time>2021-01-10T08:56:46.000Z</time>
      </trkpt>
      <trkpt lat="47.27019" lon="-2.32319">
        <ele>-9.6000003814697</ele>
        <time>2021-01-10T08:56:47.000Z</time>
      </trkpt>
      <trkpt lat="47.27019" lon="-2.32297">
        <ele>-10</ele>
        <time>2021-01-10T08:56:50.000Z</time>
      </trkpt>
      <trkpt lat="47.27019" lon="-2.3229">
        <ele>-10.39999961853</ele>
        <time>2021-01-10T08:56:51.000Z</time>
      </trkpt>
      <trkpt lat="47.27019" lon="-2.32283">
        <ele>-10.800000190735</ele>
        <time>2021-01-10T08:56:52.000Z</time>
      </trkpt>
      <trkpt lat="47.2702" lon="-2.32276">
        <ele>-11.199999809265</ele>
        <time>2021-01-10T08:56:53.000Z</time>
      </trkpt>
      <trkpt lat="47.27021" lon="-2.32269">
        <ele>-11.60000038147</ele>
        <time>2021-01-10T08:56:54.000Z</time>
      </trkpt>
      <trkpt lat="47.27021" lon="-2.32262">
        <ele>-11.60000038147</ele>
        <time>2021-01-10T08:56:55.000Z</time>
      </trkpt>
      <trkpt lat="47.2702" lon="-2.32237">
        <ele>-11.60000038147</ele>
        <time>2021-01-10T08:56:59.000Z</time>
      </trkpt>
      <trkpt lat="47.27016" lon="-2.32214">
        <ele>-11.60000038147</ele>
        <time>2021-01-10T08:57:04.000Z</time>
      </trkpt>
      <trkpt lat="47.2701" lon="-2.3219">
        <ele>-11.60000038147</ele>
        <time>2021-01-10T08:57:10.000Z</time>
      </trkpt>
      <trkpt lat="47.27001" lon="-2.32171">
        <ele>-11.60000038147</ele>
        <time>2021-01-10T08:57:16.000Z</time>
      </trkpt>
      <trkpt lat="47.26992" lon="-2.32152">
        <ele>-11.60000038147</ele>
        <time>2021-01-10T08:57:20.000Z</time>
      </trkpt>
      <trkpt lat="47.26991" lon="-2.32148">
        <ele>-11.60000038147</ele>
        <time>2021-01-10T08:57:21.000Z</time>
      </trkpt>
      <trkpt lat="47.26992" lon="-2.32143">
        <ele>-11.60000038147</ele>
        <time>2021-01-10T08:57:22.000Z</time>
      </trkpt>
      <trkpt lat="47.26995" lon="-2.32136">
        <ele>-11.60000038147</ele>
        <time>2021-01-10T08:57:24.000Z</time>
      </trkpt>
      <trkpt lat="47.27002" lon="-2.3213">
        <ele>-11.60000038147</ele>
        <time>2021-01-10T08:57:27.000Z</time>
      </trkpt>
      <trkpt lat="47.27004" lon="-2.32128">
        <ele>-11.60000038147</ele>
        <time>2021-01-10T08:57:28.000Z</time>
      </trkpt>
      <trkpt lat="47.27009" lon="-2.32115">
        <ele>-11.60000038147</ele>
        <time>2021-01-10T08:57:34.000Z</time>
      </trkpt>
      <trkpt lat="47.2701" lon="-2.32113">
        <ele>-11.60000038147</ele>
        <time>2021-01-10T08:57:35.000Z</time>
      </trkpt>
      <trkpt lat="47.27014" lon="-2.32101">
        <ele>-11.60000038147</ele>
        <time>2021-01-10T08:57:38.000Z</time>
      </trkpt>
      <trkpt lat="47.27014" lon="-2.32093">
        <ele>-11.60000038147</ele>
        <time>2021-01-10T08:57:40.000Z</time>
      </trkpt>
      <trkpt lat="47.27015" lon="-2.32082">
        <ele>-11.60000038147</ele>
        <time>2021-01-10T08:57:43.000Z</time>
      </trkpt>
      <trkpt lat="47.27016" lon="-2.32064">
        <ele>-11.199999809265</ele>
        <time>2021-01-10T08:57:47.000Z</time>
      </trkpt>
      <trkpt lat="47.27016" lon="-2.3206">
        <ele>-10.800000190735</ele>
        <time>2021-01-10T08:57:48.000Z</time>
      </trkpt>
      <trkpt lat="47.27016" lon="-2.32056">
        <ele>-10.39999961853</ele>
        <time>2021-01-10T08:57:49.000Z</time>
      </trkpt>
      <trkpt lat="47.27017" lon="-2.32052">
        <ele>-10</ele>
        <time>2021-01-10T08:57:50.000Z</time>
      </trkpt>
      <trkpt lat="47.27017" lon="-2.32049">
        <ele>-9.3999996185303</ele>
        <time>2021-01-10T08:57:51.000Z</time>
      </trkpt>
      <trkpt lat="47.27015" lon="-2.32024">
        <ele>-9.3999996185303</ele>
        <time>2021-01-10T08:57:57.000Z</time>
      </trkpt>
      <trkpt lat="47.27011" lon="-2.32008">
        <ele>-9</ele>
        <time>2021-01-10T08:58:01.000Z</time>
      </trkpt>
      <trkpt lat="47.2701" lon="-2.32005">
        <ele>-8.6000003814697</ele>
        <time>2021-01-10T08:58:02.000Z</time>
      </trkpt>
      <trkpt lat="47.27009" lon="-2.32003">
        <ele>-8.1999998092651</ele>
        <time>2021-01-10T08:58:03.000Z</time>
      </trkpt>
      <trkpt lat="47.27008" lon="-2.31999">
        <ele>-7.8000001907349</ele>
        <time>2021-01-10T08:58:04.000Z</time>
      </trkpt>
      <trkpt lat="47.27008" lon="-2.31997">
        <ele>-7.4000000953674</ele>
        <time>2021-01-10T08:58:05.000Z</time>
      </trkpt>
      <trkpt lat="47.27006" lon="-2.31992">
        <ele>-7.4000000953674</ele>
        <time>2021-01-10T08:58:08.000Z</time>
      </trkpt>
      <trkpt lat="47.27005" lon="-2.3199">
        <ele>-7.4000000953674</ele>
        <time>2021-01-10T08:58:11.000Z</time>
      </trkpt>
      <trkpt lat="47.26997" lon="-2.31989">
        <ele>-7.4000000953674</ele>
        <time>2021-01-10T08:58:22.000Z</time>
      </trkpt>
      <trkpt lat="47.26992" lon="-2.31994">
        <ele>-7.4000000953674</ele>
        <time>2021-01-10T08:58:24.000Z</time>
      </trkpt>
      <trkpt lat="47.26982" lon="-2.31999">
        <ele>-7.4000000953674</ele>
        <time>2021-01-10T08:58:27.000Z</time>
      </trkpt>
      <trkpt lat="47.26973" lon="-2.32001">
        <ele>-7.4000000953674</ele>
        <time>2021-01-10T08:58:29.000Z</time>
      </trkpt>
      <trkpt lat="47.26951" lon="-2.32">
        <ele>-7.4000000953674</ele>
        <time>2021-01-10T08:58:35.000Z</time>
      </trkpt>
      <trkpt lat="47.26948" lon="-2.31997">
        <ele>-7</ele>
        <time>2021-01-10T08:58:36.000Z</time>
      </trkpt>
      <trkpt lat="47.26946" lon="-2.31994">
        <ele>-6.4000000953674</ele>
        <time>2021-01-10T08:58:37.000Z</time>
      </trkpt>
      <trkpt lat="47.26944" lon="-2.31991">
        <ele>-6</ele>
        <time>2021-01-10T08:58:38.000Z</time>
      </trkpt>
      <trkpt lat="47.26942" lon="-2.31988">
        <ele>-5.5999999046326</ele>
        <time>2021-01-10T08:58:39.000Z</time>
      </trkpt>
      <trkpt lat="47.2694" lon="-2.31985">
        <ele>-5.1999998092651</ele>
        <time>2021-01-10T08:58:40.000Z</time>
      </trkpt>
      <trkpt lat="47.26927" lon="-2.31963">
        <ele>-5.1999998092651</ele>
        <time>2021-01-10T08:58:46.000Z</time>
      </trkpt>
      <trkpt lat="47.26922" lon="-2.31957">
        <ele>-4.8000001907349</ele>
        <time>2021-01-10T08:58:48.000Z</time>
      </trkpt>
      <trkpt lat="47.26919" lon="-2.31953">
        <ele>-4.4000000953674</ele>
        <time>2021-01-10T08:58:49.000Z</time>
      </trkpt>
      <trkpt lat="47.26916" lon="-2.3195">
        <ele>-4</ele>
        <time>2021-01-10T08:58:50.000Z</time>
      </trkpt>
      <trkpt lat="47.26913" lon="-2.31947">
        <ele>-3.4000000953674</ele>
        <time>2021-01-10T08:58:51.000Z</time>
      </trkpt>
      <trkpt lat="47.2691" lon="-2.31944">
        <ele>-3</ele>
        <time>2021-01-10T08:58:52.000Z</time>
      </trkpt>
      <trkpt lat="47.26901" lon="-2.31934">
        <ele>-3</ele>
        <time>2021-01-10T08:58:57.000Z</time>
      </trkpt>
      <trkpt lat="47.26891" lon="-2.31917">
        <ele>-2.5999999046326</ele>
        <time>2021-01-10T08:59:03.000Z</time>
      </trkpt>
      <trkpt lat="47.26889" lon="-2.31915">
        <ele>-2.2000000476837</ele>
        <time>2021-01-10T08:59:04.000Z</time>
      </trkpt>
      <trkpt lat="47.26887" lon="-2.31912">
        <ele>-1.2000000476837</ele>
        <time>2021-01-10T08:59:05.000Z</time>
      </trkpt>
      <trkpt lat="47.26885" lon="-2.31909">
        <ele>-0.80000001192093</ele>
        <time>2021-01-10T08:59:06.000Z</time>
      </trkpt>
      <trkpt lat="47.26874" lon="-2.31898">
        <ele>-0.80000001192093</ele>
        <time>2021-01-10T08:59:10.000Z</time>
      </trkpt>
      <trkpt lat="47.26858" lon="-2.31893">
        <ele>-0.40000000596046</ele>
        <time>2021-01-10T08:59:15.000Z</time>
      </trkpt>
      <trkpt lat="47.26855" lon="-2.31893">
        <ele>17.1</ele>
        <time>2021-01-10T08:59:16.000Z</time>
      </trkpt>
      <trkpt lat="47.26852" lon="-2.31892">
        <ele>0.60000002384186</ele>
        <time>2021-01-10T08:59:17.000Z</time>
      </trkpt>
      <trkpt lat="47.26849" lon="-2.31891">
        <ele>1</ele>
        <time>2021-01-10T08:59:18.000Z</time>
      </trkpt>
      <trkpt lat="47.26846" lon="-2.31888">
        <ele>1.3999999761581</ele>
        <time>2021-01-10T08:59:19.000Z</time>
      </trkpt>
      <trkpt lat="47.26842" lon="-2.31882">
        <ele>1.3999999761581</ele>
        <time>2021-01-10T08:59:21.000Z</time>
      </trkpt>
      <trkpt lat="47.26834" lon="-2.31864">
        <ele>1.7999999523163</ele>
        <time>2021-01-10T08:59:27.000Z</time>
      </trkpt>
      <trkpt lat="47.26832" lon="-2.31861">
        <ele>2.2000000476837</ele>
        <time>2021-01-10T08:59:28.000Z</time>
      </trkpt>
      <trkpt lat="47.26831" lon="-2.31858">
        <ele>2.5999999046326</ele>
        <time>2021-01-10T08:59:29.000Z</time>
      </trkpt>
      <trkpt lat="47.2683" lon="-2.31855">
        <ele>3.4000000953674</ele>
        <time>2021-01-10T08:59:30.000Z</time>
      </trkpt>
      <trkpt lat="47.26824" lon="-2.31836">
        <ele>3.4000000953674</ele>
        <time>2021-01-10T08:59:36.000Z</time>
      </trkpt>
      <trkpt lat="47.26819" lon="-2.31821">
        <ele>3.7999999523163</ele>
        <time>2021-01-10T08:59:42.000Z</time>
      </trkpt>
      <trkpt lat="47.26818" lon="-2.31818">
        <ele>4.1999998092651</ele>
        <time>2021-01-10T08:59:43.000Z</time>
      </trkpt>
      <trkpt lat="47.26818" lon="-2.31816">
        <ele>4.5999999046326</ele>
        <time>2021-01-10T08:59:44.000Z</time>
      </trkpt>
      <trkpt lat="47.26818" lon="-2.31813">
        <ele>5</ele>
        <time>2021-01-10T08:59:45.000Z</time>
      </trkpt>
      <trkpt lat="47.26818" lon="-2.3181">
        <ele>5.4000000953674</ele>
        <time>2021-01-10T08:59:46.000Z</time>
      </trkpt>
      <trkpt lat="47.26816" lon="-2.31808">
        <ele>5.4000000953674</ele>
        <time>2021-01-10T08:59:47.000Z</time>
      </trkpt>
      <trkpt lat="47.26814" lon="-2.31808">
        <ele>5.4000000953674</ele>
        <time>2021-01-10T08:59:48.000Z</time>
      </trkpt>
      <trkpt lat="47.26804" lon="-2.31813">
        <ele>5.4000000953674</ele>
        <time>2021-01-10T08:59:51.000Z</time>
      </trkpt>
      <trkpt lat="47.26799" lon="-2.31816">
        <ele>5.4000000953674</ele>
        <time>2021-01-10T08:59:52.000Z</time>
      </trkpt>
      <trkpt lat="47.26791" lon="-2.3182">
        <ele>5.4000000953674</ele>
        <time>2021-01-10T08:59:54.000Z</time>
      </trkpt>
      <trkpt lat="47.26774" lon="-2.3183">
        <ele>5.4000000953674</ele>
        <time>2021-01-10T08:59:58.000Z</time>
      </trkpt>
      <trkpt lat="47.2677" lon="-2.31833">
        <ele>6</ele>
        <time>2021-01-10T08:59:59.000Z</time>
      </trkpt>
      <trkpt lat="47.26766" lon="-2.31836">
        <ele>6.4000000953674</ele>
        <time>2021-01-10T09:00:00.000Z</time>
      </trkpt>
      <trkpt lat="47.26762" lon="-2.31839">
        <ele>6.8000001907349</ele>
        <time>2021-01-10T09:00:01.000Z</time>
      </trkpt>
      <trkpt lat="47.26757" lon="-2.31842">
        <ele>7.1999998092651</ele>
        <time>2021-01-10T09:00:02.000Z</time>
      </trkpt>
      <trkpt lat="47.26753" lon="-2.31846">
        <ele>7.5999999046326</ele>
        <time>2021-01-10T09:00:03.000Z</time>
      </trkpt>
      <trkpt lat="47.26742" lon="-2.31855">
        <ele>7.5999999046326</ele>
        <time>2021-01-10T09:00:06.000Z</time>
      </trkpt>
      <trkpt lat="47.26738" lon="-2.31856">
        <ele>7.5999999046326</ele>
        <time>2021-01-10T09:00:07.000Z</time>
      </trkpt>
      <trkpt lat="47.26729" lon="-2.31847">
        <ele>7.5999999046326</ele>
        <time>2021-01-10T09:00:10.000Z</time>
      </trkpt>
      <trkpt lat="47.26727" lon="-2.31842">
        <ele>7.5999999046326</ele>
        <time>2021-01-10T09:00:11.000Z</time>
      </trkpt>
      <trkpt lat="47.26716" lon="-2.31802">
        <ele>7.5999999046326</ele>
        <time>2021-01-10T09:00:18.000Z</time>
      </trkpt>
      <trkpt lat="47.26701" lon="-2.31744">
        <ele>7.5999999046326</ele>
        <time>2021-01-10T09:00:28.000Z</time>
      </trkpt>
      <trkpt lat="47.26698" lon="-2.31732">
        <ele>8</ele>
        <time>2021-01-10T09:00:30.000Z</time>
      </trkpt>
      <trkpt lat="47.26697" lon="-2.31726">
        <ele>8.3999996185303</ele>
        <time>2021-01-10T09:00:31.000Z</time>
      </trkpt>
      <trkpt lat="47.26695" lon="-2.3172">
        <ele>8.8000001907349</ele>
        <time>2021-01-10T09:00:32.000Z</time>
      </trkpt>
      <trkpt lat="47.26693" lon="-2.31714">
        <ele>9.1999998092651</ele>
        <time>2021-01-10T09:00:33.000Z</time>
      </trkpt>
      <trkpt lat="47.26692" lon="-2.31708">
        <ele>9.6000003814697</ele>
        <time>2021-01-10T09:00:34.000Z</time>
      </trkpt>
      <trkpt lat="47.2669" lon="-2.31701">
        <ele>9.6000003814697</ele>
        <time>2021-01-10T09:00:35.000Z</time>
      </trkpt>
      <trkpt lat="47.26674" lon="-2.31651">
        <ele>9.6000003814697</ele>
        <time>2021-01-10T09:00:42.000Z</time>
      </trkpt>
      <trkpt lat="47.26652" lon="-2.31596">
        <ele>9.6000003814697</ele>
        <time>2021-01-10T09:00:50.000Z</time>
      </trkpt>
      <trkpt lat="47.26633" lon="-2.31546">
        <ele>9.6000003814697</ele>
        <time>2021-01-10T09:00:57.000Z</time>
      </trkpt>
      <trkpt lat="47.26608" lon="-2.31486">
        <ele>9.6000003814697</ele>
        <time>2021-01-10T09:01:06.000Z</time>
      </trkpt>
      <trkpt lat="47.26592" lon="-2.31453">
        <ele>9.6000003814697</ele>
        <time>2021-01-10T09:01:12.000Z</time>
      </trkpt>
      <trkpt lat="47.26572" lon="-2.31412">
        <ele>9.6000003814697</ele>
        <time>2021-01-10T09:01:19.000Z</time>
      </trkpt>
      <trkpt lat="47.26552" lon="-2.3136">
        <ele>9.6000003814697</ele>
        <time>2021-01-10T09:01:26.000Z</time>
      </trkpt>
      <trkpt lat="47.2654" lon="-2.31326">
        <ele>9.1999998092651</ele>
        <time>2021-01-10T09:01:30.000Z</time>
      </trkpt>
      <trkpt lat="47.26537" lon="-2.31317">
        <ele>8.8000001907349</ele>
        <time>2021-01-10T09:01:31.000Z</time>
      </trkpt>
      <trkpt lat="47.26534" lon="-2.31307">
        <ele>8.3999996185303</ele>
        <time>2021-01-10T09:01:32.000Z</time>
      </trkpt>
      <trkpt lat="47.26531" lon="-2.31298">
        <ele>7.4000000953674</ele>
        <time>2021-01-10T09:01:33.000Z</time>
      </trkpt>
      <trkpt lat="47.26526" lon="-2.3128">
        <ele>7</ele>
        <time>2021-01-10T09:01:35.000Z</time>
      </trkpt>
      <trkpt lat="47.26524" lon="-2.31274">
        <ele>6.5999999046326</ele>
        <time>2021-01-10T09:01:36.000Z</time>
      </trkpt>
      <trkpt lat="47.26523" lon="-2.31269">
        <ele>6.1999998092651</ele>
        <time>2021-01-10T09:01:37.000Z</time>
      </trkpt>
      <trkpt lat="47.26522" lon="-2.31264">
        <ele>5.8000001907349</ele>
        <time>2021-01-10T09:01:38.000Z</time>
      </trkpt>
      <trkpt lat="47.2652" lon="-2.31258">
        <ele>5.1999998092651</ele>
        <time>2021-01-10T09:01:39.000Z</time>
      </trkpt>
      <trkpt lat="47.26517" lon="-2.31251">
        <ele>4.8000001907349</ele>
        <time>2021-01-10T09:01:41.000Z</time>
      </trkpt>
      <trkpt lat="47.26515" lon="-2.31248">
        <ele>4.4000000953674</ele>
        <time>2021-01-10T09:01:42.000Z</time>
      </trkpt>
      <trkpt lat="47.26514" lon="-2.31245">
        <ele>4</ele>
        <time>2021-01-10T09:01:43.000Z</time>
      </trkpt>
      <trkpt lat="47.26512" lon="-2.31243">
        <ele>3.5999999046326</ele>
        <time>2021-01-10T09:01:44.000Z</time>
      </trkpt>
      <trkpt lat="47.2651" lon="-2.31239">
        <ele>3.2000000476837</ele>
        <time>2021-01-10T09:01:45.000Z</time>
      </trkpt>
      <trkpt lat="47.26506" lon="-2.31231">
        <ele>3.2000000476837</ele>
        <time>2021-01-10T09:01:47.000Z</time>
      </trkpt>
      <trkpt lat="47.26504" lon="-2.31225">
        <ele>3.2000000476837</ele>
        <time>2021-01-10T09:01:48.000Z</time>
      </trkpt>
      <trkpt lat="47.26487" lon="-2.3118">
        <ele>3.2000000476837</ele>
        <time>2021-01-10T09:01:55.000Z</time>
      </trkpt>
      <trkpt lat="47.26476" lon="-2.31153">
        <ele>2.7999999523163</ele>
        <time>2021-01-10T09:01:59.000Z</time>
      </trkpt>
      <trkpt lat="47.26473" lon="-2.31146">
        <ele>2.4000000953674</ele>
        <time>2021-01-10T09:02:00.000Z</time>
      </trkpt>
      <trkpt lat="47.2647" lon="-2.31139">
        <ele>2</ele>
        <time>2021-01-10T09:02:01.000Z</time>
      </trkpt>
      <trkpt lat="47.26467" lon="-2.31132">
        <ele>1.3999999761581</ele>
        <time>2021-01-10T09:02:02.000Z</time>
      </trkpt>
      <trkpt lat="47.26465" lon="-2.31125">
        <ele>1</ele>
        <time>2021-01-10T09:02:03.000Z</time>
      </trkpt>
      <trkpt lat="47.26441" lon="-2.3107">
        <ele>1</ele>
        <time>2021-01-10T09:02:11.000Z</time>
      </trkpt>
      <trkpt lat="47.26435" lon="-2.31056">
        <ele>1</ele>
        <time>2021-01-10T09:02:13.000Z</time>
      </trkpt>
      <trkpt lat="47.2643" lon="-2.31042">
        <ele>0.60000002384186</ele>
        <time>2021-01-10T09:02:15.000Z</time>
      </trkpt>
      <trkpt lat="47.26428" lon="-2.31035">
        <ele>0.20000000298023</ele>
        <time>2021-01-10T09:02:16.000Z</time>
      </trkpt>
      <trkpt lat="47.26425" lon="-2.31029">
        <ele>-0.20000000298023</ele>
        <time>2021-01-10T09:02:17.000Z</time>
      </trkpt>
      <trkpt lat="47.26423" lon="-2.31023">
        <ele>-0.60000002384186</ele>
        <time>2021-01-10T09:02:18.000Z</time>
      </trkpt>
      <trkpt lat="47.26421" lon="-2.31017">
        <ele>-1.2000000476837</ele>
        <time>2021-01-10T09:02:19.000Z</time>
      </trkpt>
      <trkpt lat="47.2642" lon="-2.31012">
        <ele>-1.2000000476837</ele>
        <time>2021-01-10T09:02:20.000Z</time>
      </trkpt>
      <trkpt lat="47.26426" lon="-2.30995">
        <ele>-1.2000000476837</ele>
        <time>2021-01-10T09:02:24.000Z</time>
      </trkpt>
      <trkpt lat="47.26429" lon="-2.30991">
        <ele>-1.2000000476837</ele>
        <time>2021-01-10T09:02:25.000Z</time>
      </trkpt>
      <trkpt lat="47.26442" lon="-2.3097">
        <ele>-1.2000000476837</ele>
        <time>2021-01-10T09:02:30.000Z</time>
      </trkpt>
      <trkpt lat="47.26456" lon="-2.3095">
        <ele>-1.2000000476837</ele>
        <time>2021-01-10T09:02:35.000Z</time>
      </trkpt>
      <trkpt lat="47.26465" lon="-2.30939">
        <ele>-1.2000000476837</ele>
        <time>2021-01-10T09:02:39.000Z</time>
      </trkpt>
      <trkpt lat="47.26474" lon="-2.30924">
        <ele>-1.2000000476837</ele>
        <time>2021-01-10T09:02:45.000Z</time>
      </trkpt>
      <trkpt lat="47.26481" lon="-2.30912">
        <ele>-0.60000002384186</ele>
        <time>2021-01-10T09:02:49.000Z</time>
      </trkpt>
      <trkpt lat="47.26484" lon="-2.3091">
        <ele>-0.20000000298023</ele>
        <time>2021-01-10T09:02:50.000Z</time>
      </trkpt>
      <trkpt lat="47.26486" lon="-2.30907">
        <ele>0.20000000298023</ele>
        <time>2021-01-10T09:02:51.000Z</time>
      </trkpt>
      <trkpt lat="47.26488" lon="-2.30904">
        <ele>0.60000002384186</ele>
        <time>2021-01-10T09:02:52.000Z</time>
      </trkpt>
      <trkpt lat="47.2649" lon="-2.30901">
        <ele>1</ele>
        <time>2021-01-10T09:02:53.000Z</time>
      </trkpt>
      <trkpt lat="47.26494" lon="-2.30895">
        <ele>1</ele>
        <time>2021-01-10T09:02:55.000Z</time>
      </trkpt>
      <trkpt lat="47.26494" lon="-2.3089">
        <ele>1</ele>
        <time>2021-01-10T09:02:57.000Z</time>
      </trkpt>
      <trkpt lat="47.26492" lon="-2.30884">
        <ele>1</ele>
        <time>2021-01-10T09:02:59.000Z</time>
      </trkpt>
      <trkpt lat="47.26489" lon="-2.30876">
        <ele>1.3999999761581</ele>
        <time>2021-01-10T09:03:02.000Z</time>
      </trkpt>
      <trkpt lat="47.26488" lon="-2.30873">
        <ele>1.7999999523163</ele>
        <time>2021-01-10T09:03:03.000Z</time>
      </trkpt>
      <trkpt lat="47.26487" lon="-2.3087">
        <ele>2.4000000953674</ele>
        <time>2021-01-10T09:03:04.000Z</time>
      </trkpt>
      <trkpt lat="47.26486" lon="-2.30867">
        <ele>2.7999999523163</ele>
        <time>2021-01-10T09:03:05.000Z</time>
      </trkpt>
      <trkpt lat="47.26485" lon="-2.30864">
        <ele>3.2000000476837</ele>
        <time>2021-01-10T09:03:06.000Z</time>
      </trkpt>
      <trkpt lat="47.26484" lon="-2.30862">
        <ele>3.5999999046326</ele>
        <time>2021-01-10T09:03:07.000Z</time>
      </trkpt>
      <trkpt lat="47.26483" lon="-2.3086">
        <ele>4.1999998092651</ele>
        <time>2021-01-10T09:03:08.000Z</time>
      </trkpt>
      <trkpt lat="47.26482" lon="-2.30857">
        <ele>4.5999999046326</ele>
        <time>2021-01-10T09:03:09.000Z</time>
      </trkpt>
      <trkpt lat="47.26481" lon="-2.30855">
        <ele>5</ele>
        <time>2021-01-10T09:03:10.000Z</time>
      </trkpt>
      <trkpt lat="47.2648" lon="-2.30851">
        <ele>5.4000000953674</ele>
        <time>2021-01-10T09:03:11.000Z</time>
      </trkpt>
      <trkpt lat="47.26479" lon="-2.30848">
        <ele>5.4000000953674</ele>
        <time>2021-01-10T09:03:12.000Z</time>
      </trkpt>
      <trkpt lat="47.26479" lon="-2.30845">
        <ele>5.4000000953674</ele>
        <time>2021-01-10T09:03:13.000Z</time>
      </trkpt>
      <trkpt lat="47.26472" lon="-2.30823">
        <ele>5.8000001907349</ele>
        <time>2021-01-10T09:03:17.000Z</time>
      </trkpt>
      <trkpt lat="47.26471" lon="-2.30816">
        <ele>6.1999998092651</ele>
        <time>2021-01-10T09:03:18.000Z</time>
      </trkpt>
      <trkpt lat="47.26469" lon="-2.30812">
        <ele>6.5999999046326</ele>
        <time>2021-01-10T09:03:19.000Z</time>
      </trkpt>
      <trkpt lat="47.26467" lon="-2.30808">
        <ele>7</ele>
        <time>2021-01-10T09:03:20.000Z</time>
      </trkpt>
      <trkpt lat="47.26466" lon="-2.30803">
        <ele>7.4000000953674</ele>
        <time>2021-01-10T09:03:21.000Z</time>
      </trkpt>
      <trkpt lat="47.26464" lon="-2.30798">
        <ele>7.4000000953674</ele>
        <time>2021-01-10T09:03:22.000Z</time>
      </trkpt>
      <trkpt lat="47.26454" lon="-2.30772">
        <ele>7.4000000953674</ele>
        <time>2021-01-10T09:03:28.000Z</time>
      </trkpt>
      <trkpt lat="47.26452" lon="-2.30767">
        <ele>7.8000001907349</ele>
        <time>2021-01-10T09:03:29.000Z</time>
      </trkpt>
      <trkpt lat="47.26451" lon="-2.30763">
        <ele>8.1999998092651</ele>
        <time>2021-01-10T09:03:30.000Z</time>
      </trkpt>
      <trkpt lat="47.2645" lon="-2.30758">
        <ele>8.6000003814697</ele>
        <time>2021-01-10T09:03:31.000Z</time>
      </trkpt>
      <trkpt lat="47.26448" lon="-2.30753">
        <ele>9</ele>
        <time>2021-01-10T09:03:32.000Z</time>
      </trkpt>
      <trkpt lat="47.26447" lon="-2.30749">
        <ele>9.3999996185303</ele>
        <time>2021-01-10T09:03:33.000Z</time>
      </trkpt>
      <trkpt lat="47.26439" lon="-2.30727">
        <ele>9.3999996185303</ele>
        <time>2021-01-10T09:03:38.000Z</time>
      </trkpt>
      <trkpt lat="47.26431" lon="-2.30708">
        <ele>9.3999996185303</ele>
        <time>2021-01-10T09:03:43.000Z</time>
      </trkpt>
      <trkpt lat="47.26422" lon="-2.30688">
        <ele>9.8000001907349</ele>
        <time>2021-01-10T09:03:49.000Z</time>
      </trkpt>
      <trkpt lat="47.2642" lon="-2.30685">
        <ele>10.199999809265</ele>
        <time>2021-01-10T09:03:50.000Z</time>
      </trkpt>
      <trkpt lat="47.26418" lon="-2.30683">
        <ele>10.60000038147</ele>
        <time>2021-01-10T09:03:51.000Z</time>
      </trkpt>
      <trkpt lat="47.26416" lon="-2.30682">
        <ele>11</ele>
        <time>2021-01-10T09:03:52.000Z</time>
      </trkpt>
      <trkpt lat="47.26413" lon="-2.3068">
        <ele>11.39999961853</ele>
        <time>2021-01-10T09:03:53.000Z</time>
      </trkpt>
      <trkpt lat="47.2641" lon="-2.30679">
        <ele>11.39999961853</ele>
        <time>2021-01-10T09:03:54.000Z</time>
      </trkpt>
      <trkpt lat="47.26394" lon="-2.30668">
        <ele>11.39999961853</ele>
        <time>2021-01-10T09:04:00.000Z</time>
      </trkpt>
      <trkpt lat="47.26382" lon="-2.30657">
        <ele>11.39999961853</ele>
        <time>2021-01-10T09:04:06.000Z</time>
      </trkpt>
      <trkpt lat="47.26371" lon="-2.30638">
        <ele>11.39999961853</ele>
        <time>2021-01-10T09:04:12.000Z</time>
      </trkpt>
      <trkpt lat="47.26359" lon="-2.30614">
        <ele>11.39999961853</ele>
        <time>2021-01-10T09:04:18.000Z</time>
      </trkpt>
      <trkpt lat="47.26351" lon="-2.30599">
        <ele>11.39999961853</ele>
        <time>2021-01-10T09:04:23.000Z</time>
      </trkpt>
      <trkpt lat="47.26345" lon="-2.30582">
        <ele>11.39999961853</ele>
        <time>2021-01-10T09:04:28.000Z</time>
      </trkpt>
      <trkpt lat="47.26343" lon="-2.30574">
        <ele>11.39999961853</ele>
        <time>2021-01-10T09:04:33.000Z</time>
      </trkpt>
      <trkpt lat="47.26345" lon="-2.30574">
        <ele>11.39999961853</ele>
        <time>2021-01-10T09:04:35.000Z</time>
      </trkpt>
      <trkpt lat="47.26345" lon="-2.30578">
        <ele>11.39999961853</ele>
        <time>2021-01-10T09:04:37.000Z</time>
      </trkpt>
      <trkpt lat="47.26347" lon="-2.30586">
        <ele>11.39999961853</ele>
        <time>2021-01-10T09:04:40.000Z</time>
      </trkpt>
      <trkpt lat="47.26348" lon="-2.3059">
        <ele>11.39999961853</ele>
        <time>2021-01-10T09:04:42.000Z</time>
      </trkpt>
      <trkpt lat="47.26344" lon="-2.30592">
        <ele>11.39999961853</ele>
        <time>2021-01-10T09:04:46.000Z</time>
      </trkpt>
      <trkpt lat="47.26342" lon="-2.30589">
        <ele>11.39999961853</ele>
        <time>2021-01-10T09:04:49.000Z</time>
      </trkpt>
      <trkpt lat="47.26341" lon="-2.30587">
        <ele>11.39999961853</ele>
        <time>2021-01-10T09:04:51.000Z</time>
      </trkpt>
      <trkpt lat="47.26341" lon="-2.30585">
        <ele>11.39999961853</ele>
        <time>2021-01-10T09:05:06.000Z</time>
      </trkpt>
      <trkpt lat="47.2634" lon="-2.30581">
        <ele>11.39999961853</ele>
        <time>2021-01-10T09:05:08.000Z</time>
      </trkpt>
      <trkpt lat="47.26342" lon="-2.30576">
        <ele>11.39999961853</ele>
        <time>2021-01-10T09:05:11.000Z</time>
      </trkpt>
      <trkpt lat="47.26343" lon="-2.30561">
        <ele>11.39999961853</ele>
        <time>2021-01-10T09:05:15.000Z</time>
      </trkpt>
      <trkpt lat="47.26343" lon="-2.30554">
        <ele>11.39999961853</ele>
        <time>2021-01-10T09:05:17.000Z</time>
      </trkpt>
      <trkpt lat="47.26344" lon="-2.30542">
        <ele>11.39999961853</ele>
        <time>2021-01-10T09:05:20.000Z</time>
      </trkpt>
      <trkpt lat="47.26341" lon="-2.30516">
        <ele>11.39999961853</ele>
        <time>2021-01-10T09:05:26.000Z</time>
      </trkpt>
      <trkpt lat="47.26339" lon="-2.30505">
        <ele>12</ele>
        <time>2021-01-10T09:05:28.000Z</time>
      </trkpt>
      <trkpt lat="47.26337" lon="-2.30499">
        <ele>12.39999961853</ele>
        <time>2021-01-10T09:05:29.000Z</time>
      </trkpt>
      <trkpt lat="47.26335" lon="-2.30493">
        <ele>12.800000190735</ele>
        <time>2021-01-10T09:05:30.000Z</time>
      </trkpt>
      <trkpt lat="47.26334" lon="-2.30487">
        <ele>13.199999809265</ele>
        <time>2021-01-10T09:05:31.000Z</time>
      </trkpt>
      <trkpt lat="47.26332" lon="-2.30481">
        <ele>13.60000038147</ele>
        <time>2021-01-10T09:05:32.000Z</time>
      </trkpt>
      <trkpt lat="47.26323" lon="-2.30448">
        <ele>13.60000038147</ele>
        <time>2021-01-10T09:05:38.000Z</time>
      </trkpt>
      <trkpt lat="47.26314" lon="-2.30404">
        <ele>13.60000038147</ele>
        <time>2021-01-10T09:05:45.000Z</time>
      </trkpt>
      <trkpt lat="47.26312" lon="-2.30398">
        <ele>13.60000038147</ele>
        <time>2021-01-10T09:05:46.000Z</time>
      </trkpt>
      <trkpt lat="47.26305" lon="-2.30358">
        <ele>13.60000038147</ele>
        <time>2021-01-10T09:05:52.000Z</time>
      </trkpt>
      <trkpt lat="47.26302" lon="-2.30336">
        <ele>13.60000038147</ele>
        <time>2021-01-10T09:05:55.000Z</time>
      </trkpt>
      <trkpt lat="47.26298" lon="-2.30324">
        <ele>13.60000038147</ele>
        <time>2021-01-10T09:05:57.000Z</time>
      </trkpt>
      <trkpt lat="47.26296" lon="-2.30319">
        <ele>13.60000038147</ele>
        <time>2021-01-10T09:05:58.000Z</time>
      </trkpt>
      <trkpt lat="47.26289" lon="-2.30301">
        <ele>13.60000038147</ele>
        <time>2021-01-10T09:06:01.000Z</time>
      </trkpt>
      <trkpt lat="47.26286" lon="-2.30288">
        <ele>13.60000038147</ele>
        <time>2021-01-10T09:06:03.000Z</time>
      </trkpt>
      <trkpt lat="47.26282" lon="-2.30266">
        <ele>13.60000038147</ele>
        <time>2021-01-10T09:06:06.000Z</time>
      </trkpt>
      <trkpt lat="47.26276" lon="-2.30231">
        <ele>13.60000038147</ele>
        <time>2021-01-10T09:06:11.000Z</time>
      </trkpt>
      <trkpt lat="47.26273" lon="-2.30218">
        <ele>13.60000038147</ele>
        <time>2021-01-10T09:06:13.000Z</time>
      </trkpt>
      <trkpt lat="47.26266" lon="-2.30183">
        <ele>13.60000038147</ele>
        <time>2021-01-10T09:06:19.000Z</time>
      </trkpt>
      <trkpt lat="47.26253" lon="-2.30153">
        <ele>14</ele>
        <time>2021-01-10T09:06:23.000Z</time>
      </trkpt>
      <trkpt lat="47.26246" lon="-2.30137">
        <ele>15.199999809265</ele>
        <time>2021-01-10T09:06:26.000Z</time>
      </trkpt>
      <trkpt lat="47.26245" lon="-2.30131">
        <ele>15.60000038147</ele>
        <time>2021-01-10T09:06:29.000Z</time>
      </trkpt>
      <trkpt lat="47.26245" lon="-2.30131">
        <ele>15.60000038147</ele>
        <time>2021-01-10T09:06:30.000Z</time>
      </trkpt>
      <trkpt lat="47.26244" lon="-2.30124">
        <ele>15.60000038147</ele>
        <time>2021-01-10T09:06:31.000Z</time>
      </trkpt>
      <trkpt lat="47.26242" lon="-2.30113">
        <ele>15.60000038147</ele>
        <time>2021-01-10T09:06:33.000Z</time>
      </trkpt>
      <trkpt lat="47.26243" lon="-2.30105">
        <ele>15.60000038147</ele>
        <time>2021-01-10T09:06:35.000Z</time>
      </trkpt>
      <trkpt lat="47.26242" lon="-2.30097">
        <ele>15.60000038147</ele>
        <time>2021-01-10T09:06:38.000Z</time>
      </trkpt>
      <trkpt lat="47.26241" lon="-2.30094">
        <ele>15.60000038147</ele>
        <time>2021-01-10T09:06:40.000Z</time>
      </trkpt>
      <trkpt lat="47.2624" lon="-2.30089">
        <ele>15.60000038147</ele>
        <time>2021-01-10T09:06:56.000Z</time>
      </trkpt>
      <trkpt lat="47.26239" lon="-2.30086">
        <ele>15.60000038147</ele>
        <time>2021-01-10T09:06:57.000Z</time>
      </trkpt>
      <trkpt lat="47.26231" lon="-2.3006">
        <ele>15.60000038147</ele>
        <time>2021-01-10T09:07:03.000Z</time>
      </trkpt>
      <trkpt lat="47.26228" lon="-2.30037">
        <ele>15.60000038147</ele>
        <time>2021-01-10T09:07:08.000Z</time>
      </trkpt>
      <trkpt lat="47.26229" lon="-2.30011">
        <ele>15.60000038147</ele>
        <time>2021-01-10T09:07:13.000Z</time>
      </trkpt>
      <trkpt lat="47.2623" lon="-2.29997">
        <ele>15.60000038147</ele>
        <time>2021-01-10T09:07:15.000Z</time>
      </trkpt>
      <trkpt lat="47.2623" lon="-2.29984">
        <ele>15.60000038147</ele>
        <time>2021-01-10T09:07:17.000Z</time>
      </trkpt>
      <trkpt lat="47.26229" lon="-2.29977">
        <ele>15.60000038147</ele>
        <time>2021-01-10T09:07:18.000Z</time>
      </trkpt>
      <trkpt lat="47.26226" lon="-2.29943">
        <ele>16.200000762939</ele>
        <time>2021-01-10T09:07:23.000Z</time>
      </trkpt>
      <trkpt lat="47.26226" lon="-2.29936">
        <ele>16.60000038147</ele>
        <time>2021-01-10T09:07:24.000Z</time>
      </trkpt>
      <trkpt lat="47.26225" lon="-2.2993">
        <ele>17</ele>
        <time>2021-01-10T09:07:25.000Z</time>
      </trkpt>
      <trkpt lat="47.26225" lon="-2.29923">
        <ele>17.39999961853</ele>
        <time>2021-01-10T09:07:26.000Z</time>
      </trkpt>
      <trkpt lat="47.26224" lon="-2.29916">
        <ele>17.799999237061</ele>
        <time>2021-01-10T09:07:27.000Z</time>
      </trkpt>
      <trkpt lat="47.26222" lon="-2.29897">
        <ele>17.799999237061</ele>
        <time>2021-01-10T09:07:30.000Z</time>
      </trkpt>
      <trkpt lat="47.2622" lon="-2.2985">
        <ele>17.799999237061</ele>
        <time>2021-01-10T09:07:38.000Z</time>
      </trkpt>
      <trkpt lat="47.26219" lon="-2.29844">
        <ele>17.799999237061</ele>
        <time>2021-01-10T09:07:40.000Z</time>
      </trkpt>
      <trkpt lat="47.26214" lon="-2.29841">
        <ele>17.799999237061</ele>
        <time>2021-01-10T09:07:42.000Z</time>
      </trkpt>
      <trkpt lat="47.26202" lon="-2.2984">
        <ele>17.799999237061</ele>
        <time>2021-01-10T09:07:45.000Z</time>
      </trkpt>
      <trkpt lat="47.26192" lon="-2.2984">
        <ele>17.39999961853</ele>
        <time>2021-01-10T09:07:47.000Z</time>
      </trkpt>
      <trkpt lat="47.26187" lon="-2.2984">
        <ele>17</ele>
        <time>2021-01-10T09:07:48.000Z</time>
      </trkpt>
      <trkpt lat="47.26183" lon="-2.2984">
        <ele>16.60000038147</ele>
        <time>2021-01-10T09:07:49.000Z</time>
      </trkpt>
      <trkpt lat="47.26178" lon="-2.29841">
        <ele>16</ele>
        <time>2021-01-10T09:07:50.000Z</time>
      </trkpt>
      <trkpt lat="47.26173" lon="-2.29842">
        <ele>15.60000038147</ele>
        <time>2021-01-10T09:07:51.000Z</time>
      </trkpt>
      <trkpt lat="47.26168" lon="-2.29843">
        <ele>15.60000038147</ele>
        <time>2021-01-10T09:07:52.000Z</time>
      </trkpt>
      <trkpt lat="47.26156" lon="-2.29846">
        <ele>15.199999809265</ele>
        <time>2021-01-10T09:07:54.000Z</time>
      </trkpt>
      <trkpt lat="47.26151" lon="-2.29848">
        <ele>14.800000190735</ele>
        <time>2021-01-10T09:07:55.000Z</time>
      </trkpt>
      <trkpt lat="47.26145" lon="-2.29851">
        <ele>14.39999961853</ele>
        <time>2021-01-10T09:07:56.000Z</time>
      </trkpt>
      <trkpt lat="47.26139" lon="-2.29854">
        <ele>14</ele>
        <time>2021-01-10T09:07:57.000Z</time>
      </trkpt>
      <trkpt lat="47.26134" lon="-2.29857">
        <ele>13.60000038147</ele>
        <time>2021-01-10T09:07:58.000Z</time>
      </trkpt>
      <trkpt lat="47.26129" lon="-2.29859">
        <ele>13</ele>
        <time>2021-01-10T09:07:59.000Z</time>
      </trkpt>
      <trkpt lat="47.26125" lon="-2.29861">
        <ele>12.60000038147</ele>
        <time>2021-01-10T09:08:00.000Z</time>
      </trkpt>
      <trkpt lat="47.26121" lon="-2.29863">
        <ele>12.199999809265</ele>
        <time>2021-01-10T09:08:01.000Z</time>
      </trkpt>
      <trkpt lat="47.26117" lon="-2.29864">
        <ele>11.60000038147</ele>
        <time>2021-01-10T09:08:02.000Z</time>
      </trkpt>
      <trkpt lat="47.26114" lon="-2.29866">
        <ele>11.199999809265</ele>
        <time>2021-01-10T09:08:03.000Z</time>
      </trkpt>
      <trkpt lat="47.26087" lon="-2.29875">
        <ele>10.39999961853</ele>
        <time>2021-01-10T09:08:09.000Z</time>
      </trkpt>
      <trkpt lat="47.26082" lon="-2.29877">
        <ele>10</ele>
        <time>2021-01-10T09:08:10.000Z</time>
      </trkpt>
      <trkpt lat="47.26076" lon="-2.2988">
        <ele>9.6000003814697</ele>
        <time>2021-01-10T09:08:11.000Z</time>
      </trkpt>
      <trkpt lat="47.2607" lon="-2.29881">
        <ele>9.1999998092651</ele>
        <time>2021-01-10T09:08:12.000Z</time>
      </trkpt>
      <trkpt lat="47.26051" lon="-2.29887">
        <ele>8.6000003814697</ele>
        <time>2021-01-10T09:08:15.000Z</time>
      </trkpt>
      <trkpt lat="47.26044" lon="-2.29889">
        <ele>8.1999998092651</ele>
        <time>2021-01-10T09:08:16.000Z</time>
      </trkpt>
      <trkpt lat="47.26038" lon="-2.29891">
        <ele>7.8000001907349</ele>
        <time>2021-01-10T09:08:17.000Z</time>
      </trkpt>
      <trkpt lat="47.26031" lon="-2.29894">
        <ele>7.4000000953674</ele>
        <time>2021-01-10T09:08:18.000Z</time>
      </trkpt>
      <trkpt lat="47.26025" lon="-2.29897">
        <ele>7</ele>
        <time>2021-01-10T09:08:19.000Z</time>
      </trkpt>
      <trkpt lat="47.26019" lon="-2.29901">
        <ele>7</ele>
        <time>2021-01-10T09:08:20.000Z</time>
      </trkpt>
      <trkpt lat="47.26014" lon="-2.29904">
        <ele>7</ele>
        <time>2021-01-10T09:08:21.000Z</time>
      </trkpt>
      <trkpt lat="47.2601" lon="-2.29907">
        <ele>6.5999999046326</ele>
        <time>2021-01-10T09:08:22.000Z</time>
      </trkpt>
      <trkpt lat="47.26007" lon="-2.29911">
        <ele>6</ele>
        <time>2021-01-10T09:08:23.000Z</time>
      </trkpt>
      <trkpt lat="47.26004" lon="-2.29914">
        <ele>5.5999999046326</ele>
        <time>2021-01-10T09:08:24.000Z</time>
      </trkpt>
      <trkpt lat="47.26001" lon="-2.29917">
        <ele>5.1999998092651</ele>
        <time>2021-01-10T09:08:25.000Z</time>
      </trkpt>
      <trkpt lat="47.25999" lon="-2.2992">
        <ele>4.5999999046326</ele>
        <time>2021-01-10T09:08:26.000Z</time>
      </trkpt>
      <trkpt lat="47.25995" lon="-2.29924">
        <ele>4.5999999046326</ele>
        <time>2021-01-10T09:08:28.000Z</time>
      </trkpt>
      <trkpt lat="47.25993" lon="-2.29923">
        <ele>4.5999999046326</ele>
        <time>2021-01-10T09:08:29.000Z</time>
      </trkpt>
      <trkpt lat="47.25983" lon="-2.29916">
        <ele>4.5999999046326</ele>
        <time>2021-01-10T09:08:35.000Z</time>
      </trkpt>
      <trkpt lat="47.25975" lon="-2.29901">
        <ele>4.5999999046326</ele>
        <time>2021-01-10T09:08:39.000Z</time>
      </trkpt>
      <trkpt lat="47.25968" lon="-2.29891">
        <ele>4.5999999046326</ele>
        <time>2021-01-10T09:08:43.000Z</time>
      </trkpt>
      <trkpt lat="47.25962" lon="-2.29875">
        <ele>4.5999999046326</ele>
        <time>2021-01-10T09:08:50.000Z</time>
      </trkpt>
      <trkpt lat="47.2596" lon="-2.29868">
        <ele>4.5999999046326</ele>
        <time>2021-01-10T09:08:55.000Z</time>
      </trkpt>
      <trkpt lat="47.25961" lon="-2.29847">
        <ele>2.5999999046326</ele>
        <time>2021-01-10T09:09:10.000Z</time>
      </trkpt>
      <trkpt lat="47.25959" lon="-2.29824">
        <ele>2.5999999046326</ele>
        <time>2021-01-10T09:09:17.000Z</time>
      </trkpt>
      <trkpt lat="47.25956" lon="-2.29806">
        <ele>2.5999999046326</ele>
        <time>2021-01-10T09:09:22.000Z</time>
      </trkpt>
      <trkpt lat="47.25949" lon="-2.29782">
        <ele>2.5999999046326</ele>
        <time>2021-01-10T09:09:27.000Z</time>
      </trkpt>
      <trkpt lat="47.25945" lon="-2.29772">
        <ele>2.5999999046326</ele>
        <time>2021-01-10T09:09:30.000Z</time>
      </trkpt>
      <trkpt lat="47.2594" lon="-2.29761">
        <ele>2.5999999046326</ele>
        <time>2021-01-10T09:09:33.000Z</time>
      </trkpt>
      <trkpt lat="47.25933" lon="-2.29746">
        <ele>2.5999999046326</ele>
        <time>2021-01-10T09:09:38.000Z</time>
      </trkpt>
      <trkpt lat="47.25928" lon="-2.29729">
        <ele>2.5999999046326</ele>
        <time>2021-01-10T09:09:43.000Z</time>
      </trkpt>
      <trkpt lat="47.25929" lon="-2.29724">
        <ele>3</ele>
        <time>2021-01-10T09:09:44.000Z</time>
      </trkpt>
      <trkpt lat="47.25928" lon="-2.29718">
        <ele>3.4000000953674</ele>
        <time>2021-01-10T09:09:45.000Z</time>
      </trkpt>
      <trkpt lat="47.25929" lon="-2.29714">
        <ele>3.7999999523163</ele>
        <time>2021-01-10T09:09:46.000Z</time>
      </trkpt>
      <trkpt lat="47.25929" lon="-2.29709">
        <ele>4.1999998092651</ele>
        <time>2021-01-10T09:09:47.000Z</time>
      </trkpt>
      <trkpt lat="47.2593" lon="-2.29703">
        <ele>4.5999999046326</ele>
        <time>2021-01-10T09:09:48.000Z</time>
      </trkpt>
      <trkpt lat="47.25932" lon="-2.29671">
        <ele>4.5999999046326</ele>
        <time>2021-01-10T09:09:54.000Z</time>
      </trkpt>
      <trkpt lat="47.25933" lon="-2.29638">
        <ele>4.5999999046326</ele>
        <time>2021-01-10T09:10:01.000Z</time>
      </trkpt>
      <trkpt lat="47.25933" lon="-2.2963">
        <ele>5.1999998092651</ele>
        <time>2021-01-10T09:10:03.000Z</time>
      </trkpt>
      <trkpt lat="47.25934" lon="-2.29627">
        <ele>5.5999999046326</ele>
        <time>2021-01-10T09:10:04.000Z</time>
      </trkpt>
      <trkpt lat="47.25936" lon="-2.29626">
        <ele>6</ele>
        <time>2021-01-10T09:10:05.000Z</time>
      </trkpt>
      <trkpt lat="47.25939" lon="-2.29625">
        <ele>6.4000000953674</ele>
        <time>2021-01-10T09:10:06.000Z</time>
      </trkpt>
      <trkpt lat="47.25942" lon="-2.29627">
        <ele>6.8000001907349</ele>
        <time>2021-01-10T09:10:07.000Z</time>
      </trkpt>
      <trkpt lat="47.25951" lon="-2.29634">
        <ele>6.8000001907349</ele>
        <time>2021-01-10T09:10:10.000Z</time>
      </trkpt>
      <trkpt lat="47.25967" lon="-2.29639">
        <ele>6.8000001907349</ele>
        <time>2021-01-10T09:10:14.000Z</time>
      </trkpt>
      <trkpt lat="47.25982" lon="-2.29631">
        <ele>6.8000001907349</ele>
        <time>2021-01-10T09:10:18.000Z</time>
      </trkpt>
      <trkpt lat="47.25994" lon="-2.29624">
        <ele>6.8000001907349</ele>
        <time>2021-01-10T09:10:23.000Z</time>
      </trkpt>
      <trkpt lat="47.26011" lon="-2.2962">
        <ele>6.8000001907349</ele>
        <time>2021-01-10T09:10:28.000Z</time>
      </trkpt>
      <trkpt lat="47.2603" lon="-2.29616">
        <ele>6.8000001907349</ele>
        <time>2021-01-10T09:10:34.000Z</time>
      </trkpt>
      <trkpt lat="47.26044" lon="-2.29616">
        <ele>6.8000001907349</ele>
        <time>2021-01-10T09:10:39.000Z</time>
      </trkpt>
      <trkpt lat="47.26064" lon="-2.29615">
        <ele>6.8000001907349</ele>
        <time>2021-01-10T09:10:45.000Z</time>
      </trkpt>
      <trkpt lat="47.26073" lon="-2.29614">
        <ele>7.4000000953674</ele>
        <time>2021-01-10T09:10:48.000Z</time>
      </trkpt>
      <trkpt lat="47.26076" lon="-2.29613">
        <ele>7.8000001907349</ele>
        <time>2021-01-10T09:10:49.000Z</time>
      </trkpt>
      <trkpt lat="47.2608" lon="-2.29612">
        <ele>8.1999998092651</ele>
        <time>2021-01-10T09:10:50.000Z</time>
      </trkpt>
      <trkpt lat="47.26083" lon="-2.29611">
        <ele>8.8000001907349</ele>
        <time>2021-01-10T09:10:51.000Z</time>
      </trkpt>
      <trkpt lat="47.26087" lon="-2.2961">
        <ele>9.1999998092651</ele>
        <time>2021-01-10T09:10:52.000Z</time>
      </trkpt>
      <trkpt lat="47.26093" lon="-2.2961">
        <ele>9.6000003814697</ele>
        <time>2021-01-10T09:10:54.000Z</time>
      </trkpt>
      <trkpt lat="47.26095" lon="-2.29609">
        <ele>10</ele>
        <time>2021-01-10T09:10:55.000Z</time>
      </trkpt>
      <trkpt lat="47.26098" lon="-2.29609">
        <ele>10.39999961853</ele>
        <time>2021-01-10T09:10:56.000Z</time>
      </trkpt>
      <trkpt lat="47.26101" lon="-2.29609">
        <ele>10.800000190735</ele>
        <time>2021-01-10T09:10:57.000Z</time>
      </trkpt>
      <trkpt lat="47.26104" lon="-2.29608">
        <ele>11.39999961853</ele>
        <time>2021-01-10T09:10:58.000Z</time>
      </trkpt>
      <trkpt lat="47.26116" lon="-2.29602">
        <ele>11.800000190735</ele>
        <time>2021-01-10T09:11:02.000Z</time>
      </trkpt>
      <trkpt lat="47.2612" lon="-2.29601">
        <ele>12.60000038147</ele>
        <time>2021-01-10T09:11:03.000Z</time>
      </trkpt>
      <trkpt lat="47.26123" lon="-2.29599">
        <ele>13</ele>
        <time>2021-01-10T09:11:04.000Z</time>
      </trkpt>
      <trkpt lat="47.26127" lon="-2.29598">
        <ele>13.39999961853</ele>
        <time>2021-01-10T09:11:05.000Z</time>
      </trkpt>
      <trkpt lat="47.26144" lon="-2.29589">
        <ele>13.800000190735</ele>
        <time>2021-01-10T09:11:10.000Z</time>
      </trkpt>
      <trkpt lat="47.26147" lon="-2.29587">
        <ele>14.199999809265</ele>
        <time>2021-01-10T09:11:11.000Z</time>
      </trkpt>
      <trkpt lat="47.26151" lon="-2.29586">
        <ele>14.60000038147</ele>
        <time>2021-01-10T09:11:12.000Z</time>
      </trkpt>
      <trkpt lat="47.26154" lon="-2.29585">
        <ele>15</ele>
        <time>2021-01-10T09:11:13.000Z</time>
      </trkpt>
      <trkpt lat="47.26157" lon="-2.29584">
        <ele>15.39999961853</ele>
        <time>2021-01-10T09:11:14.000Z</time>
      </trkpt>
      <trkpt lat="47.26165" lon="-2.29582">
        <ele>15.39999961853</ele>
        <time>2021-01-10T09:11:16.000Z</time>
      </trkpt>
      <trkpt lat="47.26168" lon="-2.2958">
        <ele>15.800000190735</ele>
        <time>2021-01-10T09:11:17.000Z</time>
      </trkpt>
      <trkpt lat="47.26172" lon="-2.29579">
        <ele>16.200000762939</ele>
        <time>2021-01-10T09:11:18.000Z</time>
      </trkpt>
      <trkpt lat="47.26175" lon="-2.29578">
        <ele>16.799999237061</ele>
        <time>2021-01-10T09:11:19.000Z</time>
      </trkpt>
      <trkpt lat="47.26178" lon="-2.29577">
        <ele>17.200000762939</ele>
        <time>2021-01-10T09:11:20.000Z</time>
      </trkpt>
      <trkpt lat="47.2618" lon="-2.29577">
        <ele>17.60000038147</ele>
        <time>2021-01-10T09:11:21.000Z</time>
      </trkpt>
      <trkpt lat="47.26183" lon="-2.29576">
        <ele>17.60000038147</ele>
        <time>2021-01-10T09:11:22.000Z</time>
      </trkpt>
      <trkpt lat="47.26188" lon="-2.29574">
        <ele>17.60000038147</ele>
        <time>2021-01-10T09:11:25.000Z</time>
      </trkpt>
      <trkpt lat="47.26192" lon="-2.29568">
        <ele>18</ele>
        <time>2021-01-10T09:11:28.000Z</time>
      </trkpt>
      <trkpt lat="47.26192" lon="-2.29566">
        <ele>18.39999961853</ele>
        <time>2021-01-10T09:11:29.000Z</time>
      </trkpt>
      <trkpt lat="47.26193" lon="-2.29565">
        <ele>18.799999237061</ele>
        <time>2021-01-10T09:11:30.000Z</time>
      </trkpt>
      <trkpt lat="47.26194" lon="-2.29564">
        <ele>19.200000762939</ele>
        <time>2021-01-10T09:11:31.000Z</time>
      </trkpt>
      <trkpt lat="47.26196" lon="-2.29564">
        <ele>19.60000038147</ele>
        <time>2021-01-10T09:11:32.000Z</time>
      </trkpt>
      <trkpt lat="47.26197" lon="-2.29565">
        <ele>19.60000038147</ele>
        <time>2021-01-10T09:11:33.000Z</time>
      </trkpt>
      <trkpt lat="47.26198" lon="-2.29565">
        <ele>19.60000038147</ele>
        <time>2021-01-10T09:11:35.000Z</time>
      </trkpt>
      <trkpt lat="47.26198" lon="-2.29568">
        <ele>19.60000038147</ele>
        <time>2021-01-10T09:12:11.000Z</time>
      </trkpt>
      <trkpt lat="47.26198" lon="-2.29571">
        <ele>19.60000038147</ele>
        <time>2021-01-10T09:12:12.000Z</time>
      </trkpt>
      <trkpt lat="47.26202" lon="-2.29586">
        <ele>19.60000038147</ele>
        <time>2021-01-10T09:12:16.000Z</time>
      </trkpt>
      <trkpt lat="47.26204" lon="-2.29595">
        <ele>19.60000038147</ele>
        <time>2021-01-10T09:12:18.000Z</time>
      </trkpt>
      <trkpt lat="47.26211" lon="-2.29616">
        <ele>19.60000038147</ele>
        <time>2021-01-10T09:12:23.000Z</time>
      </trkpt>
      <trkpt lat="47.26228" lon="-2.29653">
        <ele>19.60000038147</ele>
        <time>2021-01-10T09:12:32.000Z</time>
      </trkpt>
      <trkpt lat="47.26244" lon="-2.29664">
        <ele>19.60000038147</ele>
        <time>2021-01-10T09:12:37.000Z</time>
      </trkpt>
      <trkpt lat="47.26269" lon="-2.2967">
        <ele>19.60000038147</ele>
        <time>2021-01-10T09:12:44.000Z</time>
      </trkpt>
      <trkpt lat="47.26284" lon="-2.29674">
        <ele>20</ele>
        <time>2021-01-10T09:12:49.000Z</time>
      </trkpt>
      <trkpt lat="47.26287" lon="-2.29675">
        <ele>20.39999961853</ele>
        <time>2021-01-10T09:12:50.000Z</time>
      </trkpt>
      <trkpt lat="47.2629" lon="-2.29676">
        <ele>20.799999237061</ele>
        <time>2021-01-10T09:12:51.000Z</time>
      </trkpt>
      <trkpt lat="47.26293" lon="-2.29677">
        <ele>21.200000762939</ele>
        <time>2021-01-10T09:12:52.000Z</time>
      </trkpt>
      <trkpt lat="47.26296" lon="-2.29677">
        <ele>21.60000038147</ele>
        <time>2021-01-10T09:12:53.000Z</time>
      </trkpt>
      <trkpt lat="47.26313" lon="-2.29684">
        <ele>21.60000038147</ele>
        <time>2021-01-10T09:12:58.000Z</time>
      </trkpt>
      <trkpt lat="47.26321" lon="-2.2969">
        <ele>21.60000038147</ele>
        <time>2021-01-10T09:13:00.000Z</time>
      </trkpt>
      <trkpt lat="47.2633" lon="-2.29714">
        <ele>21.60000038147</ele>
        <time>2021-01-10T09:13:04.000Z</time>
      </trkpt>
      <trkpt lat="47.26332" lon="-2.2972">
        <ele>21.60000038147</ele>
        <time>2021-01-10T09:13:05.000Z</time>
      </trkpt>
      <trkpt lat="47.26338" lon="-2.29755">
        <ele>21.60000038147</ele>
        <time>2021-01-10T09:13:11.000Z</time>
      </trkpt>
      <trkpt lat="47.26339" lon="-2.29761">
        <ele>21.60000038147</ele>
        <time>2021-01-10T09:13:12.000Z</time>
      </trkpt>
      <trkpt lat="47.26342" lon="-2.29786">
        <ele>21.60000038147</ele>
        <time>2021-01-10T09:13:16.000Z</time>
      </trkpt>
      <trkpt lat="47.26335" lon="-2.29801">
        <ele>21.60000038147</ele>
        <time>2021-01-10T09:13:19.000Z</time>
      </trkpt>
      <trkpt lat="47.2632" lon="-2.29809">
        <ele>21.60000038147</ele>
        <time>2021-01-10T09:13:22.000Z</time>
      </trkpt>
      <trkpt lat="47.26315" lon="-2.29812">
        <ele>21.60000038147</ele>
        <time>2021-01-10T09:13:23.000Z</time>
      </trkpt>
      <trkpt lat="47.26283" lon="-2.29823">
        <ele>21.60000038147</ele>
        <time>2021-01-10T09:13:28.000Z</time>
      </trkpt>
      <trkpt lat="47.26263" lon="-2.29827">
        <ele>20.799999237061</ele>
        <time>2021-01-10T09:13:31.000Z</time>
      </trkpt>
      <trkpt lat="47.26257" lon="-2.2983">
        <ele>20.200000762939</ele>
        <time>2021-01-10T09:13:32.000Z</time>
      </trkpt>
      <trkpt lat="47.26252" lon="-2.29833">
        <ele>19.799999237061</ele>
        <time>2021-01-10T09:13:33.000Z</time>
      </trkpt>
      <trkpt lat="47.26246" lon="-2.29836">
        <ele>19.39999961853</ele>
        <time>2021-01-10T09:13:34.000Z</time>
      </trkpt>
      <trkpt lat="47.26234" lon="-2.29839">
        <ele>19</ele>
        <time>2021-01-10T09:13:37.000Z</time>
      </trkpt>
      <trkpt lat="47.26232" lon="-2.2984">
        <ele>18.39999961853</ele>
        <time>2021-01-10T09:13:38.000Z</time>
      </trkpt>
      <trkpt lat="47.2623" lon="-2.2984">
        <ele>18</ele>
        <time>2021-01-10T09:13:39.000Z</time>
      </trkpt>
      <trkpt lat="47.26227" lon="-2.2984">
        <ele>17.60000038147</ele>
        <time>2021-01-10T09:13:40.000Z</time>
      </trkpt>
      <trkpt lat="47.26225" lon="-2.29841">
        <ele>17.200000762939</ele>
        <time>2021-01-10T09:13:41.000Z</time>
      </trkpt>
      <trkpt lat="47.26223" lon="-2.29843">
        <ele>17.200000762939</ele>
        <time>2021-01-10T09:13:42.000Z</time>
      </trkpt>
      <trkpt lat="47.26218" lon="-2.2986">
        <ele>17.200000762939</ele>
        <time>2021-01-10T09:13:46.000Z</time>
      </trkpt>
      <trkpt lat="47.26218" lon="-2.29866">
        <ele>17.200000762939</ele>
        <time>2021-01-10T09:13:47.000Z</time>
      </trkpt>
      <trkpt lat="47.2622" lon="-2.29904">
        <ele>17.200000762939</ele>
        <time>2021-01-10T09:13:53.000Z</time>
      </trkpt>
      <trkpt lat="47.26223" lon="-2.29948">
        <ele>17.200000762939</ele>
        <time>2021-01-10T09:14:00.000Z</time>
      </trkpt>
      <trkpt lat="47.26226" lon="-2.29993">
        <ele>17.200000762939</ele>
        <time>2021-01-10T09:14:07.000Z</time>
      </trkpt>
      <trkpt lat="47.26226" lon="-2.30039">
        <ele>16.799999237061</ele>
        <time>2021-01-10T09:14:14.000Z</time>
      </trkpt>
      <trkpt lat="47.26226" lon="-2.30046">
        <ele>16.39999961853</ele>
        <time>2021-01-10T09:14:15.000Z</time>
      </trkpt>
      <trkpt lat="47.26227" lon="-2.30052">
        <ele>16</ele>
        <time>2021-01-10T09:14:16.000Z</time>
      </trkpt>
      <trkpt lat="47.26228" lon="-2.30058">
        <ele>15.60000038147</ele>
        <time>2021-01-10T09:14:17.000Z</time>
      </trkpt>
      <trkpt lat="47.26229" lon="-2.30063">
        <ele>15.199999809265</ele>
        <time>2021-01-10T09:14:18.000Z</time>
      </trkpt>
      <trkpt lat="47.26233" lon="-2.30078">
        <ele>15.199999809265</ele>
        <time>2021-01-10T09:14:21.000Z</time>
      </trkpt>
      <trkpt lat="47.26243" lon="-2.30107">
        <ele>15.199999809265</ele>
        <time>2021-01-10T09:14:26.000Z</time>
      </trkpt>
      <trkpt lat="47.26244" lon="-2.30113">
        <ele>15.199999809265</ele>
        <time>2021-01-10T09:14:27.000Z</time>
      </trkpt>
      <trkpt lat="47.26245" lon="-2.30128">
        <ele>15.199999809265</ele>
        <time>2021-01-10T09:14:31.000Z</time>
      </trkpt>
      <trkpt lat="47.26236" lon="-2.30132">
        <ele>15.199999809265</ele>
        <time>2021-01-10T09:14:35.000Z</time>
      </trkpt>
      <trkpt lat="47.26215" lon="-2.30141">
        <ele>15.199999809265</ele>
        <time>2021-01-10T09:14:41.000Z</time>
      </trkpt>
      <trkpt lat="47.26188" lon="-2.30152">
        <ele>14.800000190735</ele>
        <time>2021-01-10T09:14:48.000Z</time>
      </trkpt>
      <trkpt lat="47.26184" lon="-2.30154">
        <ele>14.39999961853</ele>
        <time>2021-01-10T09:14:49.000Z</time>
      </trkpt>
      <trkpt lat="47.26181" lon="-2.30155">
        <ele>13.800000190735</ele>
        <time>2021-01-10T09:14:50.000Z</time>
      </trkpt>
      <trkpt lat="47.26178" lon="-2.30156">
        <ele>13.39999961853</ele>
        <time>2021-01-10T09:14:51.000Z</time>
      </trkpt>
      <trkpt lat="47.26176" lon="-2.30156">
        <ele>13</ele>
        <time>2021-01-10T09:14:52.000Z</time>
      </trkpt>
      <trkpt lat="47.26175" lon="-2.30155">
        <ele>13</ele>
        <time>2021-01-10T09:14:53.000Z</time>
      </trkpt>
      <trkpt lat="47.2617" lon="-2.30144">
        <ele>13</ele>
        <time>2021-01-10T09:14:58.000Z</time>
      </trkpt>
      <trkpt lat="47.26165" lon="-2.30146">
        <ele>12.60000038147</ele>
        <time>2021-01-10T09:15:00.000Z</time>
      </trkpt>
      <trkpt lat="47.26162" lon="-2.30147">
        <ele>12.199999809265</ele>
        <time>2021-01-10T09:15:01.000Z</time>
      </trkpt>
      <trkpt lat="47.26158" lon="-2.30149">
        <ele>11.800000190735</ele>
        <time>2021-01-10T09:15:02.000Z</time>
      </trkpt>
      <trkpt lat="47.26154" lon="-2.3015">
        <ele>11.199999809265</ele>
        <time>2021-01-10T09:15:03.000Z</time>
      </trkpt>
      <trkpt lat="47.2615" lon="-2.30152">
        <ele>10.800000190735</ele>
        <time>2021-01-10T09:15:04.000Z</time>
      </trkpt>
      <trkpt lat="47.26133" lon="-2.30157">
        <ele>10.800000190735</ele>
        <time>2021-01-10T09:15:08.000Z</time>
      </trkpt>
      <trkpt lat="47.26123" lon="-2.3016">
        <ele>10.39999961853</ele>
        <time>2021-01-10T09:15:10.000Z</time>
      </trkpt>
      <trkpt lat="47.26118" lon="-2.30162">
        <ele>10</ele>
        <time>2021-01-10T09:15:11.000Z</time>
      </trkpt>
      <trkpt lat="47.26115" lon="-2.30163">
        <ele>9.6000003814697</ele>
        <time>2021-01-10T09:15:12.000Z</time>
      </trkpt>
      <trkpt lat="47.26112" lon="-2.30163">
        <ele>9.1999998092651</ele>
        <time>2021-01-10T09:15:13.000Z</time>
      </trkpt>
      <trkpt lat="47.26109" lon="-2.30164">
        <ele>8.8000001907349</ele>
        <time>2021-01-10T09:15:14.000Z</time>
      </trkpt>
      <trkpt lat="47.26102" lon="-2.30163">
        <ele>8.8000001907349</ele>
        <time>2021-01-10T09:15:17.000Z</time>
      </trkpt>
      <trkpt lat="47.261" lon="-2.30161">
        <ele>8.8000001907349</ele>
        <time>2021-01-10T09:15:18.000Z</time>
      </trkpt>
      <trkpt lat="47.26099" lon="-2.30158">
        <ele>8.3999996185303</ele>
        <time>2021-01-10T09:15:19.000Z</time>
      </trkpt>
      <trkpt lat="47.26097" lon="-2.30154">
        <ele>7.8000001907349</ele>
        <time>2021-01-10T09:15:20.000Z</time>
      </trkpt>
      <trkpt lat="47.26095" lon="-2.30153">
        <ele>7.4000000953674</ele>
        <time>2021-01-10T09:15:21.000Z</time>
      </trkpt>
      <trkpt lat="47.26092" lon="-2.30152">
        <ele>7</ele>
        <time>2021-01-10T09:15:22.000Z</time>
      </trkpt>
      <trkpt lat="47.2609" lon="-2.30153">
        <ele>6.5999999046326</ele>
        <time>2021-01-10T09:15:23.000Z</time>
      </trkpt>
      <trkpt lat="47.26083" lon="-2.30154">
        <ele>6.5999999046326</ele>
        <time>2021-01-10T09:15:25.000Z</time>
      </trkpt>
      <trkpt lat="47.26066" lon="-2.30146">
        <ele>6.5999999046326</ele>
        <time>2021-01-10T09:15:30.000Z</time>
      </trkpt>
      <trkpt lat="47.26059" lon="-2.30138">
        <ele>6.5999999046326</ele>
        <time>2021-01-10T09:15:33.000Z</time>
      </trkpt>
      <trkpt lat="47.26055" lon="-2.30138">
        <ele>6.1999998092651</ele>
        <time>2021-01-10T09:15:34.000Z</time>
      </trkpt>
      <trkpt lat="47.26051" lon="-2.30138">
        <ele>5.4000000953674</ele>
        <time>2021-01-10T09:15:35.000Z</time>
      </trkpt>
      <trkpt lat="47.26048" lon="-2.30139">
        <ele>5</ele>
        <time>2021-01-10T09:15:36.000Z</time>
      </trkpt>
      <trkpt lat="47.26044" lon="-2.30139">
        <ele>4.4000000953674</ele>
        <time>2021-01-10T09:15:37.000Z</time>
      </trkpt>
      <trkpt lat="47.26035" lon="-2.3014">
        <ele>4.4000000953674</ele>
        <time>2021-01-10T09:15:39.000Z</time>
      </trkpt>
      <trkpt lat="47.26027" lon="-2.3014">
        <ele>4.4000000953674</ele>
        <time>2021-01-10T09:15:41.000Z</time>
      </trkpt>
      <trkpt lat="47.26022" lon="-2.30135">
        <ele>4.4000000953674</ele>
        <time>2021-01-10T09:15:43.000Z</time>
      </trkpt>
      <trkpt lat="47.26007" lon="-2.30134">
        <ele>4</ele>
        <time>2021-01-10T09:15:47.000Z</time>
      </trkpt>
      <trkpt lat="47.26002" lon="-2.30133">
        <ele>3.5999999046326</ele>
        <time>2021-01-10T09:15:48.000Z</time>
      </trkpt>
      <trkpt lat="47.25998" lon="-2.30134">
        <ele>3.2000000476837</ele>
        <time>2021-01-10T09:15:49.000Z</time>
      </trkpt>
      <trkpt lat="47.25993" lon="-2.30135">
        <ele>2.7999999523163</ele>
        <time>2021-01-10T09:15:50.000Z</time>
      </trkpt>
      <trkpt lat="47.25989" lon="-2.30135">
        <ele>2.4000000953674</ele>
        <time>2021-01-10T09:15:51.000Z</time>
      </trkpt>
      <trkpt lat="47.25985" lon="-2.30135">
        <ele>2.4000000953674</ele>
        <time>2021-01-10T09:15:52.000Z</time>
      </trkpt>
      <trkpt lat="47.25968" lon="-2.30143">
        <ele>2.4000000953674</ele>
        <time>2021-01-10T09:15:56.000Z</time>
      </trkpt>
      <trkpt lat="47.25962" lon="-2.30154">
        <ele>2</ele>
        <time>2021-01-10T09:15:58.000Z</time>
      </trkpt>
      <trkpt lat="47.25959" lon="-2.30159">
        <ele>1</ele>
        <time>2021-01-10T09:15:59.000Z</time>
      </trkpt>
      <trkpt lat="47.25955" lon="-2.30164">
        <ele>0.60000002384186</ele>
        <time>2021-01-10T09:16:00.000Z</time>
      </trkpt>
      <trkpt lat="47.2595" lon="-2.30167">
        <ele>0.20000000298023</ele>
        <time>2021-01-10T09:16:01.000Z</time>
      </trkpt>
      <trkpt lat="47.2594" lon="-2.30171">
        <ele>0.20000000298023</ele>
        <time>2021-01-10T09:16:03.000Z</time>
      </trkpt>
      <trkpt lat="47.25935" lon="-2.30173">
        <ele>0.20000000298023</ele>
        <time>2021-01-10T09:16:04.000Z</time>
      </trkpt>
      <trkpt lat="47.25915" lon="-2.30177">
        <ele>0.20000000298023</ele>
        <time>2021-01-10T09:16:08.000Z</time>
      </trkpt>
      <trkpt lat="47.25906" lon="-2.30178">
        <ele>0.20000000298023</ele>
        <time>2021-01-10T09:16:10.000Z</time>
      </trkpt>
      <trkpt lat="47.25895" lon="-2.30187">
        <ele>0.60000002384186</ele>
        <time>2021-01-10T09:16:13.000Z</time>
      </trkpt>
      <trkpt lat="47.25893" lon="-2.30193">
        <ele>1</ele>
        <time>2021-01-10T09:16:14.000Z</time>
      </trkpt>
      <trkpt lat="47.25891" lon="-2.30199">
        <ele>1.3999999761581</ele>
        <time>2021-01-10T09:16:15.000Z</time>
      </trkpt>
      <trkpt lat="47.2589" lon="-2.30206">
        <ele>1.7999999523163</ele>
        <time>2021-01-10T09:16:16.000Z</time>
      </trkpt>
      <trkpt lat="47.2589" lon="-2.30213">
        <ele>2.2000000476837</ele>
        <time>2021-01-10T09:16:17.000Z</time>
      </trkpt>
      <trkpt lat="47.25892" lon="-2.30228">
        <ele>2.2000000476837</ele>
        <time>2021-01-10T09:16:19.000Z</time>
      </trkpt>
      <trkpt lat="47.25896" lon="-2.30256">
        <ele>2.2000000476837</ele>
        <time>2021-01-10T09:16:23.000Z</time>
      </trkpt>
      <trkpt lat="47.25896" lon="-2.30263">
        <ele>2.2000000476837</ele>
        <time>2021-01-10T09:16:24.000Z</time>
      </trkpt>
      <trkpt lat="47.25896" lon="-2.30287">
        <ele>2.2000000476837</ele>
        <time>2021-01-10T09:16:28.000Z</time>
      </trkpt>
      <trkpt lat="47.25894" lon="-2.30303">
        <ele>2.2000000476837</ele>
        <time>2021-01-10T09:16:31.000Z</time>
      </trkpt>
      <trkpt lat="47.25891" lon="-2.30306">
        <ele>2.2000000476837</ele>
        <time>2021-01-10T09:16:32.000Z</time>
      </trkpt>
      <trkpt lat="47.25879" lon="-2.30307">
        <ele>2.5999999046326</ele>
        <time>2021-01-10T09:16:35.000Z</time>
      </trkpt>
      <trkpt lat="47.25875" lon="-2.30304">
        <ele>3</ele>
        <time>2021-01-10T09:16:36.000Z</time>
      </trkpt>
      <trkpt lat="47.25871" lon="-2.303">
        <ele>3.4000000953674</ele>
        <time>2021-01-10T09:16:37.000Z</time>
      </trkpt>
      <trkpt lat="47.25868" lon="-2.30295">
        <ele>3.7999999523163</ele>
        <time>2021-01-10T09:16:38.000Z</time>
      </trkpt>
      <trkpt lat="47.25864" lon="-2.3029">
        <ele>4.1999998092651</ele>
        <time>2021-01-10T09:16:39.000Z</time>
      </trkpt>
      <trkpt lat="47.25855" lon="-2.30282">
        <ele>4.1999998092651</ele>
        <time>2021-01-10T09:16:41.000Z</time>
      </trkpt>
      <trkpt lat="47.25845" lon="-2.30276">
        <ele>4.1999998092651</ele>
        <time>2021-01-10T09:16:43.000Z</time>
      </trkpt>
      <trkpt lat="47.25817" lon="-2.30262">
        <ele>3.4000000953674</ele>
        <time>2021-01-10T09:16:48.000Z</time>
      </trkpt>
      <trkpt lat="47.25811" lon="-2.30258">
        <ele>2.7999999523163</ele>
        <time>2021-01-10T09:16:49.000Z</time>
      </trkpt>
      <trkpt lat="47.25805" lon="-2.30255">
        <ele>2.4000000953674</ele>
        <time>2021-01-10T09:16:50.000Z</time>
      </trkpt>
      <trkpt lat="47.258" lon="-2.30251">
        <ele>2</ele>
        <time>2021-01-10T09:16:51.000Z</time>
      </trkpt>
      <trkpt lat="47.25788" lon="-2.30244">
        <ele>2</ele>
        <time>2021-01-10T09:16:53.000Z</time>
      </trkpt>
      <trkpt lat="47.25775" lon="-2.30238">
        <ele>2</ele>
        <time>2021-01-10T09:16:55.000Z</time>
      </trkpt>
      <trkpt lat="47.25733" lon="-2.3022">
        <ele>2</ele>
        <time>2021-01-10T09:17:02.000Z</time>
      </trkpt>
      <trkpt lat="47.25722" lon="-2.30216">
        <ele>2</ele>
        <time>2021-01-10T09:17:04.000Z</time>
      </trkpt>
      <trkpt lat="47.25706" lon="-2.30221">
        <ele>2</ele>
        <time>2021-01-10T09:17:07.000Z</time>
      </trkpt>
      <trkpt lat="47.25698" lon="-2.30231">
        <ele>2.4000000953674</ele>
        <time>2021-01-10T09:17:09.000Z</time>
      </trkpt>
      <trkpt lat="47.25695" lon="-2.30236">
        <ele>2.7999999523163</ele>
        <time>2021-01-10T09:17:10.000Z</time>
      </trkpt>
      <trkpt lat="47.25692" lon="-2.30242">
        <ele>3.2000000476837</ele>
        <time>2021-01-10T09:17:11.000Z</time>
      </trkpt>
      <trkpt lat="47.25689" lon="-2.30249">
        <ele>3.5999999046326</ele>
        <time>2021-01-10T09:17:12.000Z</time>
      </trkpt>
      <trkpt lat="47.25688" lon="-2.30255">
        <ele>4</ele>
        <time>2021-01-10T09:17:13.000Z</time>
      </trkpt>
      <trkpt lat="47.25687" lon="-2.30269">
        <ele>4</ele>
        <time>2021-01-10T09:17:15.000Z</time>
      </trkpt>
      <trkpt lat="47.25689" lon="-2.30295">
        <ele>4</ele>
        <time>2021-01-10T09:17:19.000Z</time>
      </trkpt>
      <trkpt lat="47.25682" lon="-2.30312">
        <ele>4</ele>
        <time>2021-01-10T09:17:22.000Z</time>
      </trkpt>
      <trkpt lat="47.25669" lon="-2.30319">
        <ele>4</ele>
        <time>2021-01-10T09:17:25.000Z</time>
      </trkpt>
      <trkpt lat="47.25664" lon="-2.30322">
        <ele>4</ele>
        <time>2021-01-10T09:17:26.000Z</time>
      </trkpt>
      <trkpt lat="47.25648" lon="-2.30339">
        <ele>4</ele>
        <time>2021-01-10T09:17:30.000Z</time>
      </trkpt>
      <trkpt lat="47.2564" lon="-2.30346">
        <ele>4</ele>
        <time>2021-01-10T09:17:32.000Z</time>
      </trkpt>
      <trkpt lat="47.2563" lon="-2.3034">
        <ele>4</ele>
        <time>2021-01-10T09:17:35.000Z</time>
      </trkpt>
      <trkpt lat="47.25627" lon="-2.30322">
        <ele>4</ele>
        <time>2021-01-10T09:17:38.000Z</time>
      </trkpt>
      <trkpt lat="47.25627" lon="-2.30309">
        <ele>4</ele>
        <time>2021-01-10T09:17:40.000Z</time>
      </trkpt>
      <trkpt lat="47.25626" lon="-2.30303">
        <ele>4</ele>
        <time>2021-01-10T09:17:41.000Z</time>
      </trkpt>
      <trkpt lat="47.25625" lon="-2.3029">
        <ele>4</ele>
        <time>2021-01-10T09:17:43.000Z</time>
      </trkpt>
      <trkpt lat="47.25624" lon="-2.30283">
        <ele>4</ele>
        <time>2021-01-10T09:17:44.000Z</time>
      </trkpt>
      <trkpt lat="47.25616" lon="-2.30239">
        <ele>4</ele>
        <time>2021-01-10T09:17:50.000Z</time>
      </trkpt>
      <trkpt lat="47.25613" lon="-2.30225">
        <ele>4</ele>
        <time>2021-01-10T09:17:52.000Z</time>
      </trkpt>
      <trkpt lat="47.25603" lon="-2.30208">
        <ele>4</ele>
        <time>2021-01-10T09:17:55.000Z</time>
      </trkpt>
      <trkpt lat="47.25592" lon="-2.30196">
        <ele>4</ele>
        <time>2021-01-10T09:17:58.000Z</time>
      </trkpt>
      <trkpt lat="47.25584" lon="-2.30189">
        <ele>4.4000000953674</ele>
        <time>2021-01-10T09:18:00.000Z</time>
      </trkpt>
      <trkpt lat="47.25581" lon="-2.30187">
        <ele>4.8000001907349</ele>
        <time>2021-01-10T09:18:01.000Z</time>
      </trkpt>
      <trkpt lat="47.25577" lon="-2.30185">
        <ele>5.5999999046326</ele>
        <time>2021-01-10T09:18:02.000Z</time>
      </trkpt>
      <trkpt lat="47.25573" lon="-2.30183">
        <ele>6</ele>
        <time>2021-01-10T09:18:03.000Z</time>
      </trkpt>
      <trkpt lat="47.25563" lon="-2.30183">
        <ele>6</ele>
        <time>2021-01-10T09:18:05.000Z</time>
      </trkpt>
      <trkpt lat="47.25545" lon="-2.30191">
        <ele>6</ele>
        <time>2021-01-10T09:18:09.000Z</time>
      </trkpt>
      <trkpt lat="47.25541" lon="-2.30193">
        <ele>6</ele>
        <time>2021-01-10T09:18:10.000Z</time>
      </trkpt>
      <trkpt lat="47.25519" lon="-2.30198">
        <ele>6</ele>
        <time>2021-01-10T09:18:16.000Z</time>
      </trkpt>
      <trkpt lat="47.25506" lon="-2.302">
        <ele>6</ele>
        <time>2021-01-10T09:18:20.000Z</time>
      </trkpt>
      <trkpt lat="47.25503" lon="-2.30202">
        <ele>6</ele>
        <time>2021-01-10T09:18:21.000Z</time>
      </trkpt>
      <trkpt lat="47.25491" lon="-2.30215">
        <ele>6</ele>
        <time>2021-01-10T09:18:25.000Z</time>
      </trkpt>
      <trkpt lat="47.25485" lon="-2.30232">
        <ele>6</ele>
        <time>2021-01-10T09:18:29.000Z</time>
      </trkpt>
      <trkpt lat="47.25479" lon="-2.30246">
        <ele>6</ele>
        <time>2021-01-10T09:18:33.000Z</time>
      </trkpt>
      <trkpt lat="47.25468" lon="-2.30241">
        <ele>6</ele>
        <time>2021-01-10T09:18:37.000Z</time>
      </trkpt>
      <trkpt lat="47.25465" lon="-2.30241">
        <ele>6.4000000953674</ele>
        <time>2021-01-10T09:18:38.000Z</time>
      </trkpt>
      <trkpt lat="47.25462" lon="-2.3024">
        <ele>6.8000001907349</ele>
        <time>2021-01-10T09:18:39.000Z</time>
      </trkpt>
      <trkpt lat="47.25459" lon="-2.3024">
        <ele>7.1999998092651</ele>
        <time>2021-01-10T09:18:40.000Z</time>
      </trkpt>
      <trkpt lat="47.25455" lon="-2.30239">
        <ele>7.5999999046326</ele>
        <time>2021-01-10T09:18:41.000Z</time>
      </trkpt>
      <trkpt lat="47.25452" lon="-2.30238">
        <ele>8</ele>
        <time>2021-01-10T09:18:42.000Z</time>
      </trkpt>
      <trkpt lat="47.25437" lon="-2.30233">
        <ele>8</ele>
        <time>2021-01-10T09:18:47.000Z</time>
      </trkpt>
      <trkpt lat="47.2543" lon="-2.30229">
        <ele>8</ele>
        <time>2021-01-10T09:18:49.000Z</time>
      </trkpt>
      <trkpt lat="47.25419" lon="-2.30228">
        <ele>8</ele>
        <time>2021-01-10T09:18:52.000Z</time>
      </trkpt>
      <trkpt lat="47.25412" lon="-2.30225">
        <ele>8</ele>
        <time>2021-01-10T09:18:54.000Z</time>
      </trkpt>
      <trkpt lat="47.25397" lon="-2.30218">
        <ele>8</ele>
        <time>2021-01-10T09:18:58.000Z</time>
      </trkpt>
      <trkpt lat="47.25385" lon="-2.30213">
        <ele>8</ele>
        <time>2021-01-10T09:19:03.000Z</time>
      </trkpt>
      <trkpt lat="47.25384" lon="-2.30213">
        <ele>8.3999996185303</ele>
        <time>2021-01-10T09:19:04.000Z</time>
      </trkpt>
      <trkpt lat="47.25381" lon="-2.30213">
        <ele>8.8000001907349</ele>
        <time>2021-01-10T09:19:05.000Z</time>
      </trkpt>
      <trkpt lat="47.25377" lon="-2.30213">
        <ele>9.1999998092651</ele>
        <time>2021-01-10T09:19:06.000Z</time>
      </trkpt>
      <trkpt lat="47.25374" lon="-2.30213">
        <ele>9.6000003814697</ele>
        <time>2021-01-10T09:19:07.000Z</time>
      </trkpt>
      <trkpt lat="47.2537" lon="-2.30213">
        <ele>10</ele>
        <time>2021-01-10T09:19:08.000Z</time>
      </trkpt>
      <trkpt lat="47.25351" lon="-2.30213">
        <ele>10</ele>
        <time>2021-01-10T09:19:13.000Z</time>
      </trkpt>
      <trkpt lat="47.25329" lon="-2.30211">
        <ele>10</ele>
        <time>2021-01-10T09:19:19.000Z</time>
      </trkpt>
      <trkpt lat="47.25311" lon="-2.3021">
        <ele>10</ele>
        <time>2021-01-10T09:19:25.000Z</time>
      </trkpt>
      <trkpt lat="47.25306" lon="-2.30215">
        <ele>10</ele>
        <time>2021-01-10T09:19:29.000Z</time>
      </trkpt>
      <trkpt lat="47.25305" lon="-2.30215">
        <ele>10</ele>
        <time>2021-01-10T09:19:30.000Z</time>
      </trkpt>
      <trkpt lat="47.25303" lon="-2.30214">
        <ele>10</ele>
        <time>2021-01-10T09:19:31.000Z</time>
      </trkpt>
      <trkpt lat="47.25295" lon="-2.3021">
        <ele>10</ele>
        <time>2021-01-10T09:19:34.000Z</time>
      </trkpt>
      <trkpt lat="47.25291" lon="-2.30208">
        <ele>10.39999961853</ele>
        <time>2021-01-10T09:19:35.000Z</time>
      </trkpt>
      <trkpt lat="47.25288" lon="-2.30207">
        <ele>10.800000190735</ele>
        <time>2021-01-10T09:19:36.000Z</time>
      </trkpt>
      <trkpt lat="47.25285" lon="-2.30205">
        <ele>11.199999809265</ele>
        <time>2021-01-10T09:19:37.000Z</time>
      </trkpt>
      <trkpt lat="47.25281" lon="-2.30203">
        <ele>11.60000038147</ele>
        <time>2021-01-10T09:19:38.000Z</time>
      </trkpt>
      <trkpt lat="47.25276" lon="-2.30201">
        <ele>12</ele>
        <time>2021-01-10T09:19:39.000Z</time>
      </trkpt>
      <trkpt lat="47.25258" lon="-2.30193">
        <ele>12</ele>
        <time>2021-01-10T09:19:43.000Z</time>
      </trkpt>
      <trkpt lat="47.25254" lon="-2.30192">
        <ele>12</ele>
        <time>2021-01-10T09:19:44.000Z</time>
      </trkpt>
      <trkpt lat="47.25241" lon="-2.30185">
        <ele>12</ele>
        <time>2021-01-10T09:19:48.000Z</time>
      </trkpt>
      <trkpt lat="47.25224" lon="-2.30176">
        <ele>12.39999961853</ele>
        <time>2021-01-10T09:19:53.000Z</time>
      </trkpt>
      <trkpt lat="47.25221" lon="-2.30173">
        <ele>12.800000190735</ele>
        <time>2021-01-10T09:19:54.000Z</time>
      </trkpt>
      <trkpt lat="47.25218" lon="-2.3017">
        <ele>13.199999809265</ele>
        <time>2021-01-10T09:19:55.000Z</time>
      </trkpt>
      <trkpt lat="47.25216" lon="-2.30167">
        <ele>13.60000038147</ele>
        <time>2021-01-10T09:19:56.000Z</time>
      </trkpt>
      <trkpt lat="47.25213" lon="-2.30164">
        <ele>14</ele>
        <time>2021-01-10T09:19:57.000Z</time>
      </trkpt>
      <trkpt lat="47.25205" lon="-2.30156">
        <ele>14</ele>
        <time>2021-01-10T09:19:59.000Z</time>
      </trkpt>
      <trkpt lat="47.25193" lon="-2.30133">
        <ele>14</ele>
        <time>2021-01-10T09:20:04.000Z</time>
      </trkpt>
      <trkpt lat="47.2519" lon="-2.3013">
        <ele>15</ele>
        <time>2021-01-10T09:20:05.000Z</time>
      </trkpt>
      <trkpt lat="47.25187" lon="-2.30127">
        <ele>15.39999961853</ele>
        <time>2021-01-10T09:20:06.000Z</time>
      </trkpt>
      <trkpt lat="47.25184" lon="-2.30126">
        <ele>15.800000190735</ele>
        <time>2021-01-10T09:20:07.000Z</time>
      </trkpt>
      <trkpt lat="47.2518" lon="-2.30125">
        <ele>16.200000762939</ele>
        <time>2021-01-10T09:20:08.000Z</time>
      </trkpt>
      <trkpt lat="47.25168" lon="-2.30127">
        <ele>16.200000762939</ele>
        <time>2021-01-10T09:20:11.000Z</time>
      </trkpt>
      <trkpt lat="47.25154" lon="-2.30128">
        <ele>16.200000762939</ele>
        <time>2021-01-10T09:20:15.000Z</time>
      </trkpt>
      <trkpt lat="47.25141" lon="-2.30133">
        <ele>16.200000762939</ele>
        <time>2021-01-10T09:20:19.000Z</time>
      </trkpt>
      <trkpt lat="47.25114" lon="-2.30136">
        <ele>16.60000038147</ele>
        <time>2021-01-10T09:20:26.000Z</time>
      </trkpt>
      <trkpt lat="47.2511" lon="-2.30137">
        <ele>17</ele>
        <time>2021-01-10T09:20:27.000Z</time>
      </trkpt>
      <trkpt lat="47.25106" lon="-2.30138">
        <ele>17.39999961853</ele>
        <time>2021-01-10T09:20:28.000Z</time>
      </trkpt>
      <trkpt lat="47.25101" lon="-2.30138">
        <ele>18</ele>
        <time>2021-01-10T09:20:29.000Z</time>
      </trkpt>
      <trkpt lat="47.25097" lon="-2.30139">
        <ele>18.39999961853</ele>
        <time>2021-01-10T09:20:30.000Z</time>
      </trkpt>
      <trkpt lat="47.2509" lon="-2.30139">
        <ele>18.39999961853</ele>
        <time>2021-01-10T09:20:32.000Z</time>
      </trkpt>
      <trkpt lat="47.25077" lon="-2.30141">
        <ele>18.39999961853</ele>
        <time>2021-01-10T09:20:37.000Z</time>
      </trkpt>
      <trkpt lat="47.25074" lon="-2.30139">
        <ele>18.39999961853</ele>
        <time>2021-01-10T09:20:39.000Z</time>
      </trkpt>
      <trkpt lat="47.25073" lon="-2.30137">
        <ele>18.39999961853</ele>
        <time>2021-01-10T09:20:41.000Z</time>
      </trkpt>
      <trkpt lat="47.25068" lon="-2.30126">
        <ele>18.799999237061</ele>
        <time>2021-01-10T09:23:54.000Z</time>
      </trkpt>
      <trkpt lat="47.2507" lon="-2.30107">
        <ele>18.799999237061</ele>
        <time>2021-01-10T09:24:00.000Z</time>
      </trkpt>
      <trkpt lat="47.2507" lon="-2.30084">
        <ele>18.799999237061</ele>
        <time>2021-01-10T09:24:05.000Z</time>
      </trkpt>
      <trkpt lat="47.25072" lon="-2.30069">
        <ele>18.799999237061</ele>
        <time>2021-01-10T09:24:11.000Z</time>
      </trkpt>
      <trkpt lat="47.25072" lon="-2.3006">
        <ele>18.799999237061</ele>
        <time>2021-01-10T09:24:16.000Z</time>
      </trkpt>
      <trkpt lat="47.2507" lon="-2.30059">
        <ele>18.799999237061</ele>
        <time>2021-01-10T09:24:17.000Z</time>
      </trkpt>
      <trkpt lat="47.25065" lon="-2.30058">
        <ele>18.799999237061</ele>
        <time>2021-01-10T09:24:20.000Z</time>
      </trkpt>
      <trkpt lat="47.25058" lon="-2.30058">
        <ele>18.799999237061</ele>
        <time>2021-01-10T09:24:23.000Z</time>
      </trkpt>
      <trkpt lat="47.25037" lon="-2.30055">
        <ele>18.799999237061</ele>
        <time>2021-01-10T09:24:29.000Z</time>
      </trkpt>
      <trkpt lat="47.25013" lon="-2.30053">
        <ele>18.799999237061</ele>
        <time>2021-01-10T09:24:35.000Z</time>
      </trkpt>
      <trkpt lat="47.24985" lon="-2.30057">
        <ele>18.799999237061</ele>
        <time>2021-01-10T09:24:42.000Z</time>
      </trkpt>
      <trkpt lat="47.24973" lon="-2.30056">
        <ele>19.200000762939</ele>
        <time>2021-01-10T09:24:45.000Z</time>
      </trkpt>
      <trkpt lat="47.24969" lon="-2.30056">
        <ele>19.60000038147</ele>
        <time>2021-01-10T09:24:46.000Z</time>
      </trkpt>
      <trkpt lat="47.24965" lon="-2.30056">
        <ele>20</ele>
        <time>2021-01-10T09:24:47.000Z</time>
      </trkpt>
      <trkpt lat="47.24961" lon="-2.30056">
        <ele>20.39999961853</ele>
        <time>2021-01-10T09:24:48.000Z</time>
      </trkpt>
      <trkpt lat="47.24957" lon="-2.30056">
        <ele>21</ele>
        <time>2021-01-10T09:24:49.000Z</time>
      </trkpt>
      <trkpt lat="47.24933" lon="-2.30056">
        <ele>21</ele>
        <time>2021-01-10T09:24:55.000Z</time>
      </trkpt>
      <trkpt lat="47.24913" lon="-2.30056">
        <ele>21</ele>
        <time>2021-01-10T09:25:01.000Z</time>
      </trkpt>
      <trkpt lat="47.24904" lon="-2.30053">
        <ele>21</ele>
        <time>2021-01-10T09:25:04.000Z</time>
      </trkpt>
      <trkpt lat="47.24902" lon="-2.30044">
        <ele>21</ele>
        <time>2021-01-10T09:25:06.000Z</time>
      </trkpt>
      <trkpt lat="47.24902" lon="-2.3002">
        <ele>21</ele>
        <time>2021-01-10T09:25:10.000Z</time>
      </trkpt>
      <trkpt lat="47.249" lon="-2.30013">
        <ele>21</ele>
        <time>2021-01-10T09:25:11.000Z</time>
      </trkpt>
      <trkpt lat="47.24893" lon="-2.29987">
        <ele>21</ele>
        <time>2021-01-10T09:25:15.000Z</time>
      </trkpt>
      <trkpt lat="47.24888" lon="-2.29966">
        <ele>21</ele>
        <time>2021-01-10T09:25:18.000Z</time>
      </trkpt>
      <trkpt lat="47.24884" lon="-2.29952">
        <ele>21</ele>
        <time>2021-01-10T09:25:20.000Z</time>
      </trkpt>
      <trkpt lat="47.24879" lon="-2.2993">
        <ele>21</ele>
        <time>2021-01-10T09:25:23.000Z</time>
      </trkpt>
      <trkpt lat="47.24877" lon="-2.29909">
        <ele>21</ele>
        <time>2021-01-10T09:25:26.000Z</time>
      </trkpt>
      <trkpt lat="47.24876" lon="-2.29901">
        <ele>21</ele>
        <time>2021-01-10T09:25:27.000Z</time>
      </trkpt>
      <trkpt lat="47.24873" lon="-2.29874">
        <ele>21</ele>
        <time>2021-01-10T09:25:31.000Z</time>
      </trkpt>
      <trkpt lat="47.24872" lon="-2.29867">
        <ele>21.39999961853</ele>
        <time>2021-01-10T09:25:32.000Z</time>
      </trkpt>
      <trkpt lat="47.24871" lon="-2.29861">
        <ele>21.799999237061</ele>
        <time>2021-01-10T09:25:33.000Z</time>
      </trkpt>
      <trkpt lat="47.24869" lon="-2.29855">
        <ele>22.200000762939</ele>
        <time>2021-01-10T09:25:34.000Z</time>
      </trkpt>
      <trkpt lat="47.24867" lon="-2.29849">
        <ele>22.60000038147</ele>
        <time>2021-01-10T09:25:35.000Z</time>
      </trkpt>
      <trkpt lat="47.24866" lon="-2.29844">
        <ele>23</ele>
        <time>2021-01-10T09:25:36.000Z</time>
      </trkpt>
      <trkpt lat="47.24865" lon="-2.29838">
        <ele>23</ele>
        <time>2021-01-10T09:25:37.000Z</time>
      </trkpt>
      <trkpt lat="47.2486" lon="-2.2983">
        <ele>23</ele>
        <time>2021-01-10T09:25:40.000Z</time>
      </trkpt>
      <trkpt lat="47.24856" lon="-2.29831">
        <ele>23</ele>
        <time>2021-01-10T09:25:41.000Z</time>
      </trkpt>
      <trkpt lat="47.24837" lon="-2.29843">
        <ele>23</ele>
        <time>2021-01-10T09:25:46.000Z</time>
      </trkpt>
      <trkpt lat="47.24832" lon="-2.29844">
        <ele>23</ele>
        <time>2021-01-10T09:25:47.000Z</time>
      </trkpt>
      <trkpt lat="47.24819" lon="-2.29847">
        <ele>23</ele>
        <time>2021-01-10T09:25:50.000Z</time>
      </trkpt>
      <trkpt lat="47.24814" lon="-2.29848">
        <ele>23</ele>
        <time>2021-01-10T09:25:51.000Z</time>
      </trkpt>
      <trkpt lat="47.24798" lon="-2.29855">
        <ele>23</ele>
        <time>2021-01-10T09:25:54.000Z</time>
      </trkpt>
      <trkpt lat="47.24788" lon="-2.29862">
        <ele>23</ele>
        <time>2021-01-10T09:25:56.000Z</time>
      </trkpt>
      <trkpt lat="47.24748" lon="-2.29894">
        <ele>23</ele>
        <time>2021-01-10T09:26:04.000Z</time>
      </trkpt>
      <trkpt lat="47.24744" lon="-2.29907">
        <ele>22.60000038147</ele>
        <time>2021-01-10T09:26:06.000Z</time>
      </trkpt>
      <trkpt lat="47.24744" lon="-2.29914">
        <ele>22.200000762939</ele>
        <time>2021-01-10T09:26:07.000Z</time>
      </trkpt>
      <trkpt lat="47.24744" lon="-2.29921">
        <ele>21.60000038147</ele>
        <time>2021-01-10T09:26:08.000Z</time>
      </trkpt>
      <trkpt lat="47.24744" lon="-2.29928">
        <ele>21.200000762939</ele>
        <time>2021-01-10T09:26:09.000Z</time>
      </trkpt>
      <trkpt lat="47.24744" lon="-2.29935">
        <ele>20.799999237061</ele>
        <time>2021-01-10T09:26:10.000Z</time>
      </trkpt>
      <trkpt lat="47.24744" lon="-2.2997">
        <ele>20.799999237061</ele>
        <time>2021-01-10T09:26:15.000Z</time>
      </trkpt>
      <trkpt lat="47.24742" lon="-2.29978">
        <ele>20.799999237061</ele>
        <time>2021-01-10T09:26:16.000Z</time>
      </trkpt>
      <trkpt lat="47.24735" lon="-2.29998">
        <ele>20.799999237061</ele>
        <time>2021-01-10T09:26:19.000Z</time>
      </trkpt>
      <trkpt lat="47.24713" lon="-2.30028">
        <ele>20.799999237061</ele>
        <time>2021-01-10T09:26:24.000Z</time>
      </trkpt>
      <trkpt lat="47.24707" lon="-2.30033">
        <ele>20.799999237061</ele>
        <time>2021-01-10T09:26:25.000Z</time>
      </trkpt>
      <trkpt lat="47.24685" lon="-2.30052">
        <ele>20.799999237061</ele>
        <time>2021-01-10T09:26:29.000Z</time>
      </trkpt>
      <trkpt lat="47.24673" lon="-2.30061">
        <ele>20.39999961853</ele>
        <time>2021-01-10T09:26:31.000Z</time>
      </trkpt>
      <trkpt lat="47.24668" lon="-2.30066">
        <ele>20</ele>
        <time>2021-01-10T09:26:32.000Z</time>
      </trkpt>
      <trkpt lat="47.24664" lon="-2.3007">
        <ele>19.60000038147</ele>
        <time>2021-01-10T09:26:33.000Z</time>
      </trkpt>
      <trkpt lat="47.24661" lon="-2.30073">
        <ele>19.200000762939</ele>
        <time>2021-01-10T09:26:34.000Z</time>
      </trkpt>
      <trkpt lat="47.24658" lon="-2.30076">
        <ele>18.799999237061</ele>
        <time>2021-01-10T09:26:35.000Z</time>
      </trkpt>
      <trkpt lat="47.2465" lon="-2.30081">
        <ele>18.799999237061</ele>
        <time>2021-01-10T09:26:39.000Z</time>
      </trkpt>
      <trkpt lat="47.24649" lon="-2.30084">
        <ele>16.799999237061</ele>
        <time>2021-01-10T09:26:48.000Z</time>
      </trkpt>
      <trkpt lat="47.24649" lon="-2.30091">
        <ele>16.799999237061</ele>
        <time>2021-01-10T09:26:50.000Z</time>
      </trkpt>
      <trkpt lat="47.24653" lon="-2.30106">
        <ele>16.799999237061</ele>
        <time>2021-01-10T09:26:53.000Z</time>
      </trkpt>
      <trkpt lat="47.24657" lon="-2.30117">
        <ele>16.799999237061</ele>
        <time>2021-01-10T09:26:55.000Z</time>
      </trkpt>
      <trkpt lat="47.24669" lon="-2.30166">
        <ele>16.799999237061</ele>
        <time>2021-01-10T09:27:02.000Z</time>
      </trkpt>
      <trkpt lat="47.24681" lon="-2.30209">
        <ele>16.799999237061</ele>
        <time>2021-01-10T09:27:08.000Z</time>
      </trkpt>
      <trkpt lat="47.24684" lon="-2.30217">
        <ele>16.799999237061</ele>
        <time>2021-01-10T09:27:09.000Z</time>
      </trkpt>
      <trkpt lat="47.24709" lon="-2.30275">
        <ele>16.799999237061</ele>
        <time>2021-01-10T09:27:17.000Z</time>
      </trkpt>
      <trkpt lat="47.24731" lon="-2.30327">
        <ele>16.799999237061</ele>
        <time>2021-01-10T09:27:25.000Z</time>
      </trkpt>
      <trkpt lat="47.24751" lon="-2.30365">
        <ele>16.799999237061</ele>
        <time>2021-01-10T09:27:32.000Z</time>
      </trkpt>
      <trkpt lat="47.24767" lon="-2.30389">
        <ele>17.200000762939</ele>
        <time>2021-01-10T09:27:37.000Z</time>
      </trkpt>
      <trkpt lat="47.2477" lon="-2.30393">
        <ele>17.60000038147</ele>
        <time>2021-01-10T09:27:38.000Z</time>
      </trkpt>
      <trkpt lat="47.24774" lon="-2.30397">
        <ele>18.200000762939</ele>
        <time>2021-01-10T09:27:39.000Z</time>
      </trkpt>
      <trkpt lat="47.24778" lon="-2.30401">
        <ele>18.60000038147</ele>
        <time>2021-01-10T09:27:40.000Z</time>
      </trkpt>
      <trkpt lat="47.24781" lon="-2.30405">
        <ele>19</ele>
        <time>2021-01-10T09:27:41.000Z</time>
      </trkpt>
      <trkpt lat="47.24808" lon="-2.30433">
        <ele>19</ele>
        <time>2021-01-10T09:27:48.000Z</time>
      </trkpt>
      <trkpt lat="47.2482" lon="-2.30446">
        <ele>19.39999961853</ele>
        <time>2021-01-10T09:27:51.000Z</time>
      </trkpt>
      <trkpt lat="47.24824" lon="-2.30451">
        <ele>19.799999237061</ele>
        <time>2021-01-10T09:27:52.000Z</time>
      </trkpt>
      <trkpt lat="47.24828" lon="-2.30456">
        <ele>20.200000762939</ele>
        <time>2021-01-10T09:27:53.000Z</time>
      </trkpt>
      <trkpt lat="47.24833" lon="-2.30461">
        <ele>20.60000038147</ele>
        <time>2021-01-10T09:27:54.000Z</time>
      </trkpt>
      <trkpt lat="47.24837" lon="-2.30466">
        <ele>21</ele>
        <time>2021-01-10T09:27:55.000Z</time>
      </trkpt>
      <trkpt lat="47.24871" lon="-2.30511">
        <ele>21</ele>
        <time>2021-01-10T09:28:03.000Z</time>
      </trkpt>
      <trkpt lat="47.249" lon="-2.30551">
        <ele>20.60000038147</ele>
        <time>2021-01-10T09:28:10.000Z</time>
      </trkpt>
      <trkpt lat="47.24904" lon="-2.30557">
        <ele>20.200000762939</ele>
        <time>2021-01-10T09:28:11.000Z</time>
      </trkpt>
      <trkpt lat="47.24908" lon="-2.30563">
        <ele>19.799999237061</ele>
        <time>2021-01-10T09:28:12.000Z</time>
      </trkpt>
      <trkpt lat="47.24911" lon="-2.3057">
        <ele>19.39999961853</ele>
        <time>2021-01-10T09:28:13.000Z</time>
      </trkpt>
      <trkpt lat="47.24914" lon="-2.30578">
        <ele>19</ele>
        <time>2021-01-10T09:28:14.000Z</time>
      </trkpt>
      <trkpt lat="47.24918" lon="-2.30594">
        <ele>19</ele>
        <time>2021-01-10T09:28:16.000Z</time>
      </trkpt>
      <trkpt lat="47.24918" lon="-2.30628">
        <ele>19</ele>
        <time>2021-01-10T09:28:20.000Z</time>
      </trkpt>
      <trkpt lat="47.24914" lon="-2.3067">
        <ele>18.60000038147</ele>
        <time>2021-01-10T09:28:25.000Z</time>
      </trkpt>
      <trkpt lat="47.24913" lon="-2.30678">
        <ele>18.200000762939</ele>
        <time>2021-01-10T09:28:26.000Z</time>
      </trkpt>
      <trkpt lat="47.24912" lon="-2.30686">
        <ele>17.799999237061</ele>
        <time>2021-01-10T09:28:27.000Z</time>
      </trkpt>
      <trkpt lat="47.24911" lon="-2.30694">
        <ele>17.39999961853</ele>
        <time>2021-01-10T09:28:28.000Z</time>
      </trkpt>
      <trkpt lat="47.24911" lon="-2.30703">
        <ele>16.799999237061</ele>
        <time>2021-01-10T09:28:29.000Z</time>
      </trkpt>
      <trkpt lat="47.24909" lon="-2.3073">
        <ele>16.799999237061</ele>
        <time>2021-01-10T09:28:32.000Z</time>
      </trkpt>
      <trkpt lat="47.2491" lon="-2.30739">
        <ele>16.799999237061</ele>
        <time>2021-01-10T09:28:33.000Z</time>
      </trkpt>
      <trkpt lat="47.2491" lon="-2.30771">
        <ele>16.799999237061</ele>
        <time>2021-01-10T09:28:37.000Z</time>
      </trkpt>
      <trkpt lat="47.24906" lon="-2.30776">
        <ele>16.799999237061</ele>
        <time>2021-01-10T09:28:38.000Z</time>
      </trkpt>
      <trkpt lat="47.24893" lon="-2.30776">
        <ele>16.799999237061</ele>
        <time>2021-01-10T09:28:41.000Z</time>
      </trkpt>
      <trkpt lat="47.24884" lon="-2.30775">
        <ele>16.799999237061</ele>
        <time>2021-01-10T09:28:43.000Z</time>
      </trkpt>
      <trkpt lat="47.24864" lon="-2.30776">
        <ele>16.799999237061</ele>
        <time>2021-01-10T09:28:47.000Z</time>
      </trkpt>
      <trkpt lat="47.2484" lon="-2.30772">
        <ele>16.39999961853</ele>
        <time>2021-01-10T09:28:51.000Z</time>
      </trkpt>
      <trkpt lat="47.24833" lon="-2.3077">
        <ele>16</ele>
        <time>2021-01-10T09:28:52.000Z</time>
      </trkpt>
      <trkpt lat="47.24827" lon="-2.30769">
        <ele>15.60000038147</ele>
        <time>2021-01-10T09:28:53.000Z</time>
      </trkpt>
      <trkpt lat="47.24821" lon="-2.30766">
        <ele>15.199999809265</ele>
        <time>2021-01-10T09:28:54.000Z</time>
      </trkpt>
      <trkpt lat="47.24816" lon="-2.30762">
        <ele>14.800000190735</ele>
        <time>2021-01-10T09:28:55.000Z</time>
      </trkpt>
      <trkpt lat="47.24806" lon="-2.30764">
        <ele>14.800000190735</ele>
        <time>2021-01-10T09:28:57.000Z</time>
      </trkpt>
      <trkpt lat="47.24798" lon="-2.30786">
        <ele>14.800000190735</ele>
        <time>2021-01-10T09:29:00.000Z</time>
      </trkpt>
      <trkpt lat="47.24796" lon="-2.30794">
        <ele>14.800000190735</ele>
        <time>2021-01-10T09:29:01.000Z</time>
      </trkpt>
      <trkpt lat="47.24791" lon="-2.3081">
        <ele>14.39999961853</ele>
        <time>2021-01-10T09:29:03.000Z</time>
      </trkpt>
      <trkpt lat="47.24789" lon="-2.3082">
        <ele>14</ele>
        <time>2021-01-10T09:29:04.000Z</time>
      </trkpt>
      <trkpt lat="47.24787" lon="-2.30828">
        <ele>13.39999961853</ele>
        <time>2021-01-10T09:29:05.000Z</time>
      </trkpt>
      <trkpt lat="47.24785" lon="-2.30837">
        <ele>13</ele>
        <time>2021-01-10T09:29:06.000Z</time>
      </trkpt>
      <trkpt lat="47.24784" lon="-2.30846">
        <ele>12.60000038147</ele>
        <time>2021-01-10T09:29:07.000Z</time>
      </trkpt>
      <trkpt lat="47.24782" lon="-2.30871">
        <ele>12.60000038147</ele>
        <time>2021-01-10T09:29:10.000Z</time>
      </trkpt>
      <trkpt lat="47.24782" lon="-2.30889">
        <ele>12.60000038147</ele>
        <time>2021-01-10T09:29:12.000Z</time>
      </trkpt>
      <trkpt lat="47.24781" lon="-2.30897">
        <ele>12.199999809265</ele>
        <time>2021-01-10T09:29:13.000Z</time>
      </trkpt>
      <trkpt lat="47.2478" lon="-2.30905">
        <ele>11.800000190735</ele>
        <time>2021-01-10T09:29:14.000Z</time>
      </trkpt>
      <trkpt lat="47.24778" lon="-2.30914">
        <ele>11.39999961853</ele>
        <time>2021-01-10T09:29:15.000Z</time>
      </trkpt>
      <trkpt lat="47.24775" lon="-2.30922">
        <ele>11</ele>
        <time>2021-01-10T09:29:16.000Z</time>
      </trkpt>
      <trkpt lat="47.24772" lon="-2.3093">
        <ele>10.60000038147</ele>
        <time>2021-01-10T09:29:17.000Z</time>
      </trkpt>
      <trkpt lat="47.2476" lon="-2.30952">
        <ele>10.60000038147</ele>
        <time>2021-01-10T09:29:20.000Z</time>
      </trkpt>
      <trkpt lat="47.24752" lon="-2.30967">
        <ele>10.60000038147</ele>
        <time>2021-01-10T09:29:22.000Z</time>
      </trkpt>
      <trkpt lat="47.24745" lon="-2.30982">
        <ele>10.60000038147</ele>
        <time>2021-01-10T09:29:24.000Z</time>
      </trkpt>
      <trkpt lat="47.24743" lon="-2.3099">
        <ele>10</ele>
        <time>2021-01-10T09:29:25.000Z</time>
      </trkpt>
      <trkpt lat="47.2474" lon="-2.30997">
        <ele>9.6000003814697</ele>
        <time>2021-01-10T09:29:26.000Z</time>
      </trkpt>
      <trkpt lat="47.24737" lon="-2.31004">
        <ele>9.1999998092651</ele>
        <time>2021-01-10T09:29:27.000Z</time>
      </trkpt>
      <trkpt lat="47.24733" lon="-2.3101">
        <ele>8.6000003814697</ele>
        <time>2021-01-10T09:29:28.000Z</time>
      </trkpt>
      <trkpt lat="47.24729" lon="-2.31016">
        <ele>8.1999998092651</ele>
        <time>2021-01-10T09:29:29.000Z</time>
      </trkpt>
      <trkpt lat="47.24725" lon="-2.31022">
        <ele>8.1999998092651</ele>
        <time>2021-01-10T09:29:30.000Z</time>
      </trkpt>
      <trkpt lat="47.24721" lon="-2.31029">
        <ele>8.1999998092651</ele>
        <time>2021-01-10T09:29:31.000Z</time>
      </trkpt>
      <trkpt lat="47.24709" lon="-2.31051">
        <ele>7.8000001907349</ele>
        <time>2021-01-10T09:29:34.000Z</time>
      </trkpt>
      <trkpt lat="47.24705" lon="-2.31059">
        <ele>7.4000000953674</ele>
        <time>2021-01-10T09:29:35.000Z</time>
      </trkpt>
      <trkpt lat="47.24701" lon="-2.31066">
        <ele>7</ele>
        <time>2021-01-10T09:29:36.000Z</time>
      </trkpt>
      <trkpt lat="47.24697" lon="-2.31073">
        <ele>6.5999999046326</ele>
        <time>2021-01-10T09:29:37.000Z</time>
      </trkpt>
      <trkpt lat="47.24693" lon="-2.3108">
        <ele>6.1999998092651</ele>
        <time>2021-01-10T09:29:38.000Z</time>
      </trkpt>
      <trkpt lat="47.24689" lon="-2.31087">
        <ele>6.1999998092651</ele>
        <time>2021-01-10T09:29:39.000Z</time>
      </trkpt>
      <trkpt lat="47.24674" lon="-2.31119">
        <ele>6.1999998092651</ele>
        <time>2021-01-10T09:29:44.000Z</time>
      </trkpt>
      <trkpt lat="47.24662" lon="-2.3114">
        <ele>6.1999998092651</ele>
        <time>2021-01-10T09:29:48.000Z</time>
      </trkpt>
      <trkpt lat="47.24659" lon="-2.31145">
        <ele>6.1999998092651</ele>
        <time>2021-01-10T09:29:49.000Z</time>
      </trkpt>
      <trkpt lat="47.24636" lon="-2.31174">
        <ele>6.1999998092651</ele>
        <time>2021-01-10T09:29:55.000Z</time>
      </trkpt>
      <trkpt lat="47.24608" lon="-2.31202">
        <ele>6.1999998092651</ele>
        <time>2021-01-10T09:30:01.000Z</time>
      </trkpt>
      <trkpt lat="47.24604" lon="-2.31207">
        <ele>6.1999998092651</ele>
        <time>2021-01-10T09:30:02.000Z</time>
      </trkpt>
      <trkpt lat="47.2457" lon="-2.31241">
        <ele>6.1999998092651</ele>
        <time>2021-01-10T09:30:09.000Z</time>
      </trkpt>
      <trkpt lat="47.24532" lon="-2.31283">
        <ele>6.1999998092651</ele>
        <time>2021-01-10T09:30:17.000Z</time>
      </trkpt>
      <trkpt lat="47.24498" lon="-2.31313">
        <ele>5.1999998092651</ele>
        <time>2021-01-10T09:30:23.000Z</time>
      </trkpt>
      <trkpt lat="47.24494" lon="-2.31315">
        <ele>4.5999999046326</ele>
        <time>2021-01-10T09:30:24.000Z</time>
      </trkpt>
      <trkpt lat="47.24489" lon="-2.31317">
        <ele>4.1999998092651</ele>
        <time>2021-01-10T09:30:25.000Z</time>
      </trkpt>
      <trkpt lat="47.24484" lon="-2.31318">
        <ele>3.5999999046326</ele>
        <time>2021-01-10T09:30:26.000Z</time>
      </trkpt>
      <trkpt lat="47.2448" lon="-2.31317">
        <ele>3</ele>
        <time>2021-01-10T09:30:27.000Z</time>
      </trkpt>
      <trkpt lat="47.24478" lon="-2.31313">
        <ele>2.5999999046326</ele>
        <time>2021-01-10T09:30:28.000Z</time>
      </trkpt>
      <trkpt lat="47.24474" lon="-2.31306">
        <ele>2</ele>
        <time>2021-01-10T09:30:29.000Z</time>
      </trkpt>
      <trkpt lat="47.24472" lon="-2.31297">
        <ele>1.3999999761581</ele>
        <time>2021-01-10T09:30:30.000Z</time>
      </trkpt>
      <trkpt lat="47.2447" lon="-2.31289">
        <ele>1.3999999761581</ele>
        <time>2021-01-10T09:30:31.000Z</time>
      </trkpt>
      <trkpt lat="47.24464" lon="-2.31272">
        <ele>1.3999999761581</ele>
        <time>2021-01-10T09:30:33.000Z</time>
      </trkpt>
      <trkpt lat="47.24459" lon="-2.31256">
        <ele>1.3999999761581</ele>
        <time>2021-01-10T09:30:35.000Z</time>
      </trkpt>
      <trkpt lat="47.24453" lon="-2.31242">
        <ele>1.3999999761581</ele>
        <time>2021-01-10T09:30:37.000Z</time>
      </trkpt>
      <trkpt lat="47.24451" lon="-2.31236">
        <ele>1.3999999761581</ele>
        <time>2021-01-10T09:30:38.000Z</time>
      </trkpt>
      <trkpt lat="47.24446" lon="-2.31226">
        <ele>1</ele>
        <time>2021-01-10T09:30:40.000Z</time>
      </trkpt>
      <trkpt lat="47.24444" lon="-2.31224">
        <ele>0.60000002384186</ele>
        <time>2021-01-10T09:30:41.000Z</time>
      </trkpt>
      <trkpt lat="47.24442" lon="-2.31221">
        <ele>0.20000000298023</ele>
        <time>2021-01-10T09:30:42.000Z</time>
      </trkpt>
      <trkpt lat="47.24439" lon="-2.31223">
        <ele>-0.40000000596046</ele>
        <time>2021-01-10T09:30:43.000Z</time>
      </trkpt>
      <trkpt lat="47.24435" lon="-2.31225">
        <ele>-0.80000001192093</ele>
        <time>2021-01-10T09:30:44.000Z</time>
      </trkpt>
      <trkpt lat="47.24432" lon="-2.31227">
        <ele>-1.3999999761581</ele>
        <time>2021-01-10T09:30:45.000Z</time>
      </trkpt>
      <trkpt lat="47.24429" lon="-2.31225">
        <ele>-1.7999999523163</ele>
        <time>2021-01-10T09:30:46.000Z</time>
      </trkpt>
      <trkpt lat="47.24427" lon="-2.31221">
        <ele>-2.4000000953674</ele>
        <time>2021-01-10T09:30:47.000Z</time>
      </trkpt>
      <trkpt lat="47.24425" lon="-2.31217">
        <ele>-2.7999999523163</ele>
        <time>2021-01-10T09:30:48.000Z</time>
      </trkpt>
      <trkpt lat="47.24423" lon="-2.31211">
        <ele>-2.7999999523163</ele>
        <time>2021-01-10T09:30:50.000Z</time>
      </trkpt>
      <trkpt lat="47.2442" lon="-2.31204">
        <ele>-2.7999999523163</ele>
        <time>2021-01-10T09:30:53.000Z</time>
      </trkpt>
      <trkpt lat="47.24416" lon="-2.31195">
        <ele>-2.7999999523163</ele>
        <time>2021-01-10T09:30:57.000Z</time>
      </trkpt>
      <trkpt lat="47.24414" lon="-2.31193">
        <ele>-2.7999999523163</ele>
        <time>2021-01-10T09:30:58.000Z</time>
      </trkpt>
      <trkpt lat="47.24409" lon="-2.31181">
        <ele>-2.7999999523163</ele>
        <time>2021-01-10T09:31:03.000Z</time>
      </trkpt>
      <trkpt lat="47.24404" lon="-2.31179">
        <ele>-2.7999999523163</ele>
        <time>2021-01-10T09:31:07.000Z</time>
      </trkpt>
      <trkpt lat="47.24403" lon="-2.31179">
        <ele>-2.7999999523163</ele>
        <time>2021-01-10T09:31:10.000Z</time>
      </trkpt>
      <trkpt lat="47.24401" lon="-2.31178">
        <ele>-2.4000000953674</ele>
        <time>2021-01-10T09:31:15.000Z</time>
      </trkpt>
      <trkpt lat="47.24399" lon="-2.31176">
        <ele>-2</ele>
        <time>2021-01-10T09:31:16.000Z</time>
      </trkpt>
      <trkpt lat="47.24397" lon="-2.31173">
        <ele>-1.6000000238419</ele>
        <time>2021-01-10T09:31:17.000Z</time>
      </trkpt>
      <trkpt lat="47.24395" lon="-2.31172">
        <ele>-1.2000000476837</ele>
        <time>2021-01-10T09:31:18.000Z</time>
      </trkpt>
      <trkpt lat="47.24393" lon="-2.31169">
        <ele>-0.80000001192093</ele>
        <time>2021-01-10T09:31:19.000Z</time>
      </trkpt>
      <trkpt lat="47.24385" lon="-2.3116">
        <ele>-0.80000001192093</ele>
        <time>2021-01-10T09:31:23.000Z</time>
      </trkpt>
      <trkpt lat="47.24373" lon="-2.3114">
        <ele>-0.80000001192093</ele>
        <time>2021-01-10T09:31:30.000Z</time>
      </trkpt>
      <trkpt lat="47.24363" lon="-2.31125">
        <ele>-0.80000001192093</ele>
        <time>2021-01-10T09:31:35.000Z</time>
      </trkpt>
      <trkpt lat="47.24355" lon="-2.31098">
        <ele>-0.80000001192093</ele>
        <time>2021-01-10T09:31:41.000Z</time>
      </trkpt>
      <trkpt lat="47.24342" lon="-2.31058">
        <ele>-0.80000001192093</ele>
        <time>2021-01-10T09:31:49.000Z</time>
      </trkpt>
      <trkpt lat="47.24326" lon="-2.31039">
        <ele>-0.80000001192093</ele>
        <time>2021-01-10T09:31:54.000Z</time>
      </trkpt>
      <trkpt lat="47.24322" lon="-2.31036">
        <ele>-0.80000001192093</ele>
        <time>2021-01-10T09:31:55.000Z</time>
      </trkpt>
      <trkpt lat="47.24316" lon="-2.31034">
        <ele>-0.80000001192093</ele>
        <time>2021-01-10T09:31:56.000Z</time>
      </trkpt>
      <trkpt lat="47.24298" lon="-2.31033">
        <ele>-0.80000001192093</ele>
        <time>2021-01-10T09:31:59.000Z</time>
      </trkpt>
      <trkpt lat="47.24293" lon="-2.31033">
        <ele>-0.80000001192093</ele>
        <time>2021-01-10T09:32:00.000Z</time>
      </trkpt>
      <trkpt lat="47.24281" lon="-2.31028">
        <ele>-1.7999999523163</ele>
        <time>2021-01-10T09:32:03.000Z</time>
      </trkpt>
      <trkpt lat="47.2428" lon="-2.31023">
        <ele>-2.2000000476837</ele>
        <time>2021-01-10T09:32:04.000Z</time>
      </trkpt>
      <trkpt lat="47.2428" lon="-2.31017">
        <ele>-2.5999999046326</ele>
        <time>2021-01-10T09:32:05.000Z</time>
      </trkpt>
      <trkpt lat="47.24281" lon="-2.31012">
        <ele>-3.2000000476837</ele>
        <time>2021-01-10T09:32:06.000Z</time>
      </trkpt>
      <trkpt lat="47.24283" lon="-2.31006">
        <ele>-3.2000000476837</ele>
        <time>2021-01-10T09:32:07.000Z</time>
      </trkpt>
      <trkpt lat="47.24283" lon="-2.31">
        <ele>-3.2000000476837</ele>
        <time>2021-01-10T09:32:08.000Z</time>
      </trkpt>
      <trkpt lat="47.24284" lon="-2.30994">
        <ele>-3.2000000476837</ele>
        <time>2021-01-10T09:32:09.000Z</time>
      </trkpt>
      <trkpt lat="47.24287" lon="-2.30969">
        <ele>-2.5999999046326</ele>
        <time>2021-01-10T09:32:13.000Z</time>
      </trkpt>
      <trkpt lat="47.24288" lon="-2.30963">
        <ele>-2.2000000476837</ele>
        <time>2021-01-10T09:32:14.000Z</time>
      </trkpt>
      <trkpt lat="47.24289" lon="-2.30957">
        <ele>-1.6000000238419</ele>
        <time>2021-01-10T09:32:15.000Z</time>
      </trkpt>
      <trkpt lat="47.2429" lon="-2.30951">
        <ele>-1.2000000476837</ele>
        <time>2021-01-10T09:32:16.000Z</time>
      </trkpt>
      <trkpt lat="47.24291" lon="-2.30946">
        <ele>-0.80000001192093</ele>
        <time>2021-01-10T09:32:17.000Z</time>
      </trkpt>
      <trkpt lat="47.24291" lon="-2.30934">
        <ele>-0.20000000298023</ele>
        <time>2021-01-10T09:32:19.000Z</time>
      </trkpt>
      <trkpt lat="47.2429" lon="-2.30929">
        <ele>0.20000000298023</ele>
        <time>2021-01-10T09:32:20.000Z</time>
      </trkpt>
      <trkpt lat="47.2429" lon="-2.30925">
        <ele>0.60000002384186</ele>
        <time>2021-01-10T09:32:21.000Z</time>
      </trkpt>
      <trkpt lat="47.2429" lon="-2.3092">
        <ele>1</ele>
        <time>2021-01-10T09:32:22.000Z</time>
      </trkpt>
      <trkpt lat="47.2429" lon="-2.30914">
        <ele>1.6000000238419</ele>
        <time>2021-01-10T09:32:23.000Z</time>
      </trkpt>
      <trkpt lat="47.24288" lon="-2.30892">
        <ele>2</ele>
        <time>2021-01-10T09:32:27.000Z</time>
      </trkpt>
      <trkpt lat="47.24287" lon="-2.30886">
        <ele>2.4000000953674</ele>
        <time>2021-01-10T09:32:28.000Z</time>
      </trkpt>
      <trkpt lat="47.24286" lon="-2.3088">
        <ele>2.7999999523163</ele>
        <time>2021-01-10T09:32:29.000Z</time>
      </trkpt>
      <trkpt lat="47.24286" lon="-2.30873">
        <ele>3.2000000476837</ele>
        <time>2021-01-10T09:32:30.000Z</time>
      </trkpt>
      <trkpt lat="47.24286" lon="-2.30866">
        <ele>3.5999999046326</ele>
        <time>2021-01-10T09:32:31.000Z</time>
      </trkpt>
      <trkpt lat="47.24288" lon="-2.30846">
        <ele>3.5999999046326</ele>
        <time>2021-01-10T09:32:34.000Z</time>
      </trkpt>
      <trkpt lat="47.24294" lon="-2.30824">
        <ele>4</ele>
        <time>2021-01-10T09:32:38.000Z</time>
      </trkpt>
      <trkpt lat="47.24296" lon="-2.30819">
        <ele>4.4000000953674</ele>
        <time>2021-01-10T09:32:39.000Z</time>
      </trkpt>
      <trkpt lat="47.243" lon="-2.30815">
        <ele>4.8000001907349</ele>
        <time>2021-01-10T09:32:40.000Z</time>
      </trkpt>
      <trkpt lat="47.24303" lon="-2.30813">
        <ele>5.1999998092651</ele>
        <time>2021-01-10T09:32:41.000Z</time>
      </trkpt>
      <trkpt lat="47.24307" lon="-2.3081">
        <ele>5.5999999046326</ele>
        <time>2021-01-10T09:32:42.000Z</time>
      </trkpt>
      <trkpt lat="47.24311" lon="-2.30807">
        <ele>5.5999999046326</ele>
        <time>2021-01-10T09:32:43.000Z</time>
      </trkpt>
      <trkpt lat="47.24336" lon="-2.30798">
        <ele>5.5999999046326</ele>
        <time>2021-01-10T09:32:48.000Z</time>
      </trkpt>
      <trkpt lat="47.24341" lon="-2.30797">
        <ele>5.5999999046326</ele>
        <time>2021-01-10T09:32:49.000Z</time>
      </trkpt>
      <trkpt lat="47.24346" lon="-2.30795">
        <ele>5.5999999046326</ele>
        <time>2021-01-10T09:32:50.000Z</time>
      </trkpt>
      <trkpt lat="47.24355" lon="-2.30791">
        <ele>5.5999999046326</ele>
        <time>2021-01-10T09:32:52.000Z</time>
      </trkpt>
      <trkpt lat="47.24359" lon="-2.30789">
        <ele>6</ele>
        <time>2021-01-10T09:32:53.000Z</time>
      </trkpt>
      <trkpt lat="47.24362" lon="-2.30787">
        <ele>6.4000000953674</ele>
        <time>2021-01-10T09:32:54.000Z</time>
      </trkpt>
      <trkpt lat="47.24366" lon="-2.30783">
        <ele>6.8000001907349</ele>
        <time>2021-01-10T09:32:55.000Z</time>
      </trkpt>
      <trkpt lat="47.24369" lon="-2.3078">
        <ele>7.1999998092651</ele>
        <time>2021-01-10T09:32:56.000Z</time>
      </trkpt>
      <trkpt lat="47.24372" lon="-2.30777">
        <ele>7.8000001907349</ele>
        <time>2021-01-10T09:32:57.000Z</time>
      </trkpt>
      <trkpt lat="47.24376" lon="-2.30773">
        <ele>7.8000001907349</ele>
        <time>2021-01-10T09:32:58.000Z</time>
      </trkpt>
      <trkpt lat="47.24381" lon="-2.30764">
        <ele>7.8000001907349</ele>
        <time>2021-01-10T09:33:00.000Z</time>
      </trkpt>
      <trkpt lat="47.24384" lon="-2.3076">
        <ele>8.1999998092651</ele>
        <time>2021-01-10T09:33:01.000Z</time>
      </trkpt>
      <trkpt lat="47.24386" lon="-2.30757">
        <ele>8.6000003814697</ele>
        <time>2021-01-10T09:33:02.000Z</time>
      </trkpt>
      <trkpt lat="47.24387" lon="-2.30754">
        <ele>9</ele>
        <time>2021-01-10T09:33:03.000Z</time>
      </trkpt>
      <trkpt lat="47.24389" lon="-2.30753">
        <ele>9.3999996185303</ele>
        <time>2021-01-10T09:33:04.000Z</time>
      </trkpt>
      <trkpt lat="47.24392" lon="-2.30751">
        <ele>9.8000001907349</ele>
        <time>2021-01-10T09:33:05.000Z</time>
      </trkpt>
      <trkpt lat="47.24402" lon="-2.30735">
        <ele>9.8000001907349</ele>
        <time>2021-01-10T09:33:10.000Z</time>
      </trkpt>
      <trkpt lat="47.24407" lon="-2.30707">
        <ele>9.8000001907349</ele>
        <time>2021-01-10T09:33:15.000Z</time>
      </trkpt>
      <trkpt lat="47.24413" lon="-2.30677">
        <ele>9.8000001907349</ele>
        <time>2021-01-10T09:33:20.000Z</time>
      </trkpt>
      <trkpt lat="47.24423" lon="-2.30636">
        <ele>9.8000001907349</ele>
        <time>2021-01-10T09:33:27.000Z</time>
      </trkpt>
      <trkpt lat="47.24434" lon="-2.30618">
        <ele>9.8000001907349</ele>
        <time>2021-01-10T09:33:32.000Z</time>
      </trkpt>
      <trkpt lat="47.24448" lon="-2.306">
        <ele>9.8000001907349</ele>
        <time>2021-01-10T09:33:38.000Z</time>
      </trkpt>
      <trkpt lat="47.24463" lon="-2.3058">
        <ele>9.8000001907349</ele>
        <time>2021-01-10T09:33:43.000Z</time>
      </trkpt>
      <trkpt lat="47.2447" lon="-2.30555">
        <ele>9.3999996185303</ele>
        <time>2021-01-10T09:33:47.000Z</time>
      </trkpt>
      <trkpt lat="47.2447" lon="-2.3055">
        <ele>9</ele>
        <time>2021-01-10T09:33:48.000Z</time>
      </trkpt>
      <trkpt lat="47.2447" lon="-2.30546">
        <ele>8.6000003814697</ele>
        <time>2021-01-10T09:33:49.000Z</time>
      </trkpt>
      <trkpt lat="47.24468" lon="-2.30544">
        <ele>8.1999998092651</ele>
        <time>2021-01-10T09:33:50.000Z</time>
      </trkpt>
      <trkpt lat="47.24465" lon="-2.30543">
        <ele>7.8000001907349</ele>
        <time>2021-01-10T09:33:51.000Z</time>
      </trkpt>
      <trkpt lat="47.24454" lon="-2.30551">
        <ele>7.8000001907349</ele>
        <time>2021-01-10T09:33:55.000Z</time>
      </trkpt>
      <trkpt lat="47.24451" lon="-2.30556">
        <ele>7.8000001907349</ele>
        <time>2021-01-10T09:33:56.000Z</time>
      </trkpt>
      <trkpt lat="47.24449" lon="-2.3056">
        <ele>7.4000000953674</ele>
        <time>2021-01-10T09:33:57.000Z</time>
      </trkpt>
      <trkpt lat="47.24445" lon="-2.30565">
        <ele>7</ele>
        <time>2021-01-10T09:33:58.000Z</time>
      </trkpt>
      <trkpt lat="47.24441" lon="-2.30567">
        <ele>6.5999999046326</ele>
        <time>2021-01-10T09:33:59.000Z</time>
      </trkpt>
      <trkpt lat="47.24437" lon="-2.30571">
        <ele>6.1999998092651</ele>
        <time>2021-01-10T09:34:00.000Z</time>
      </trkpt>
      <trkpt lat="47.24431" lon="-2.30574">
        <ele>5.8000001907349</ele>
        <time>2021-01-10T09:34:01.000Z</time>
      </trkpt>
      <trkpt lat="47.24416" lon="-2.30583">
        <ele>5.8000001907349</ele>
        <time>2021-01-10T09:34:05.000Z</time>
      </trkpt>
      <trkpt lat="47.24408" lon="-2.30585">
        <ele>5.1999998092651</ele>
        <time>2021-01-10T09:34:07.000Z</time>
      </trkpt>
      <trkpt lat="47.24403" lon="-2.30585">
        <ele>4.8000001907349</ele>
        <time>2021-01-10T09:34:08.000Z</time>
      </trkpt>
      <trkpt lat="47.244" lon="-2.30585">
        <ele>4.4000000953674</ele>
        <time>2021-01-10T09:34:09.000Z</time>
      </trkpt>
      <trkpt lat="47.24396" lon="-2.30585">
        <ele>4</ele>
        <time>2021-01-10T09:34:10.000Z</time>
      </trkpt>
      <trkpt lat="47.24393" lon="-2.30583">
        <ele>3.5999999046326</ele>
        <time>2021-01-10T09:34:11.000Z</time>
      </trkpt>
      <trkpt lat="47.24383" lon="-2.30573">
        <ele>3.5999999046326</ele>
        <time>2021-01-10T09:34:14.000Z</time>
      </trkpt>
      <trkpt lat="47.24381" lon="-2.30567">
        <ele>3.5999999046326</ele>
        <time>2021-01-10T09:34:15.000Z</time>
      </trkpt>
      <trkpt lat="47.24381" lon="-2.30555">
        <ele>3.5999999046326</ele>
        <time>2021-01-10T09:34:17.000Z</time>
      </trkpt>
      <trkpt lat="47.24375" lon="-2.30495">
        <ele>4</ele>
        <time>2021-01-10T09:34:25.000Z</time>
      </trkpt>
      <trkpt lat="47.24376" lon="-2.30491">
        <ele>4.4000000953674</ele>
        <time>2021-01-10T09:34:26.000Z</time>
      </trkpt>
      <trkpt lat="47.24377" lon="-2.30485">
        <ele>5</ele>
        <time>2021-01-10T09:34:27.000Z</time>
      </trkpt>
      <trkpt lat="47.24377" lon="-2.30479">
        <ele>5.4000000953674</ele>
        <time>2021-01-10T09:34:28.000Z</time>
      </trkpt>
      <trkpt lat="47.24377" lon="-2.30473">
        <ele>6</ele>
        <time>2021-01-10T09:34:29.000Z</time>
      </trkpt>
      <trkpt lat="47.24378" lon="-2.30461">
        <ele>6.4000000953674</ele>
        <time>2021-01-10T09:34:31.000Z</time>
      </trkpt>
      <trkpt lat="47.24378" lon="-2.30456">
        <ele>6.8000001907349</ele>
        <time>2021-01-10T09:34:32.000Z</time>
      </trkpt>
      <trkpt lat="47.24378" lon="-2.30453">
        <ele>7.1999998092651</ele>
        <time>2021-01-10T09:34:33.000Z</time>
      </trkpt>
      <trkpt lat="47.24377" lon="-2.3045">
        <ele>7.5999999046326</ele>
        <time>2021-01-10T09:34:34.000Z</time>
      </trkpt>
      <trkpt lat="47.24376" lon="-2.30448">
        <ele>8</ele>
        <time>2021-01-10T09:34:35.000Z</time>
      </trkpt>
      <trkpt lat="47.24375" lon="-2.30447">
        <ele>8</ele>
        <time>2021-01-10T09:34:36.000Z</time>
      </trkpt>
      <trkpt lat="47.24371" lon="-2.30448">
        <ele>8</ele>
        <time>2021-01-10T09:34:37.000Z</time>
      </trkpt>
      <trkpt lat="47.24365" lon="-2.30451">
        <ele>8</ele>
        <time>2021-01-10T09:34:39.000Z</time>
      </trkpt>
      <trkpt lat="47.24349" lon="-2.30448">
        <ele>8</ele>
        <time>2021-01-10T09:34:44.000Z</time>
      </trkpt>
      <trkpt lat="47.24337" lon="-2.3044">
        <ele>8.3999996185303</ele>
        <time>2021-01-10T09:34:48.000Z</time>
      </trkpt>
      <trkpt lat="47.24333" lon="-2.30438">
        <ele>8.8000001907349</ele>
        <time>2021-01-10T09:34:49.000Z</time>
      </trkpt>
      <trkpt lat="47.24329" lon="-2.30435">
        <ele>9.1999998092651</ele>
        <time>2021-01-10T09:34:50.000Z</time>
      </trkpt>
      <trkpt lat="47.24325" lon="-2.30433">
        <ele>9.6000003814697</ele>
        <time>2021-01-10T09:34:51.000Z</time>
      </trkpt>
      <trkpt lat="47.24322" lon="-2.30431">
        <ele>10</ele>
        <time>2021-01-10T09:34:52.000Z</time>
      </trkpt>
      <trkpt lat="47.24309" lon="-2.30424">
        <ele>10</ele>
        <time>2021-01-10T09:34:56.000Z</time>
      </trkpt>
      <trkpt lat="47.24285" lon="-2.30403">
        <ele>10</ele>
        <time>2021-01-10T09:35:02.000Z</time>
      </trkpt>
      <trkpt lat="47.24266" lon="-2.30375">
        <ele>10.60000038147</ele>
        <time>2021-01-10T09:35:08.000Z</time>
      </trkpt>
      <trkpt lat="47.24263" lon="-2.3037">
        <ele>11</ele>
        <time>2021-01-10T09:35:09.000Z</time>
      </trkpt>
      <trkpt lat="47.2426" lon="-2.30365">
        <ele>11.39999961853</ele>
        <time>2021-01-10T09:35:10.000Z</time>
      </trkpt>
      <trkpt lat="47.24258" lon="-2.30361">
        <ele>11.800000190735</ele>
        <time>2021-01-10T09:35:11.000Z</time>
      </trkpt>
      <trkpt lat="47.24255" lon="-2.30356">
        <ele>12.199999809265</ele>
        <time>2021-01-10T09:35:12.000Z</time>
      </trkpt>
      <trkpt lat="47.24248" lon="-2.30341">
        <ele>12.199999809265</ele>
        <time>2021-01-10T09:35:15.000Z</time>
      </trkpt>
      <trkpt lat="47.24239" lon="-2.30327">
        <ele>12.199999809265</ele>
        <time>2021-01-10T09:35:18.000Z</time>
      </trkpt>
      <trkpt lat="47.24236" lon="-2.30326">
        <ele>12.199999809265</ele>
        <time>2021-01-10T09:35:19.000Z</time>
      </trkpt>
      <trkpt lat="47.24225" lon="-2.30332">
        <ele>12.199999809265</ele>
        <time>2021-01-10T09:35:22.000Z</time>
      </trkpt>
      <trkpt lat="47.24221" lon="-2.30334">
        <ele>11.60000038147</ele>
        <time>2021-01-10T09:35:23.000Z</time>
      </trkpt>
      <trkpt lat="47.24218" lon="-2.30336">
        <ele>11.199999809265</ele>
        <time>2021-01-10T09:35:24.000Z</time>
      </trkpt>
      <trkpt lat="47.24214" lon="-2.30336">
        <ele>10.60000038147</ele>
        <time>2021-01-10T09:35:25.000Z</time>
      </trkpt>
      <trkpt lat="47.24211" lon="-2.30336">
        <ele>10.199999809265</ele>
        <time>2021-01-10T09:35:26.000Z</time>
      </trkpt>
      <trkpt lat="47.24207" lon="-2.30335">
        <ele>9.6000003814697</ele>
        <time>2021-01-10T09:35:27.000Z</time>
      </trkpt>
      <trkpt lat="47.24202" lon="-2.30332">
        <ele>9</ele>
        <time>2021-01-10T09:35:28.000Z</time>
      </trkpt>
      <trkpt lat="47.24197" lon="-2.30326">
        <ele>8.3999996185303</ele>
        <time>2021-01-10T09:35:29.000Z</time>
      </trkpt>
      <trkpt lat="47.24194" lon="-2.30318">
        <ele>7.8000001907349</ele>
        <time>2021-01-10T09:35:30.000Z</time>
      </trkpt>
      <trkpt lat="47.24193" lon="-2.30309">
        <ele>7.1999998092651</ele>
        <time>2021-01-10T09:35:31.000Z</time>
      </trkpt>
      <trkpt lat="47.24193" lon="-2.303">
        <ele>7.1999998092651</ele>
        <time>2021-01-10T09:35:32.000Z</time>
      </trkpt>
      <trkpt lat="47.24192" lon="-2.30264">
        <ele>7.1999998092651</ele>
        <time>2021-01-10T09:35:36.000Z</time>
      </trkpt>
      <trkpt lat="47.24192" lon="-2.30258">
        <ele>7.1999998092651</ele>
        <time>2021-01-10T09:35:37.000Z</time>
      </trkpt>
      <trkpt lat="47.24193" lon="-2.30246">
        <ele>7.1999998092651</ele>
        <time>2021-01-10T09:35:40.000Z</time>
      </trkpt>
      <trkpt lat="47.24189" lon="-2.30245">
        <ele>6.8000001907349</ele>
        <time>2021-01-10T09:35:43.000Z</time>
      </trkpt>
      <trkpt lat="47.24187" lon="-2.30247">
        <ele>6.4000000953674</ele>
        <time>2021-01-10T09:35:44.000Z</time>
      </trkpt>
      <trkpt lat="47.24184" lon="-2.30249">
        <ele>6</ele>
        <time>2021-01-10T09:35:45.000Z</time>
      </trkpt>
      <trkpt lat="47.24181" lon="-2.3025">
        <ele>5.4000000953674</ele>
        <time>2021-01-10T09:35:46.000Z</time>
      </trkpt>
      <trkpt lat="47.24178" lon="-2.30251">
        <ele>5</ele>
        <time>2021-01-10T09:35:47.000Z</time>
      </trkpt>
      <trkpt lat="47.24169" lon="-2.30249">
        <ele>5</ele>
        <time>2021-01-10T09:35:53.000Z</time>
      </trkpt>
      <trkpt lat="47.24165" lon="-2.30239">
        <ele>5</ele>
        <time>2021-01-10T09:35:57.000Z</time>
      </trkpt>
      <trkpt lat="47.24162" lon="-2.30234">
        <ele>5</ele>
        <time>2021-01-10T09:35:59.000Z</time>
      </trkpt>
      <trkpt lat="47.24154" lon="-2.30221">
        <ele>5.4000000953674</ele>
        <time>2021-01-10T09:36:04.000Z</time>
      </trkpt>
      <trkpt lat="47.24152" lon="-2.30218">
        <ele>5.8000001907349</ele>
        <time>2021-01-10T09:36:05.000Z</time>
      </trkpt>
      <trkpt lat="47.24151" lon="-2.30213">
        <ele>6.4000000953674</ele>
        <time>2021-01-10T09:36:06.000Z</time>
      </trkpt>
      <trkpt lat="47.2415" lon="-2.3021">
        <ele>6.8000001907349</ele>
        <time>2021-01-10T09:36:07.000Z</time>
      </trkpt>
      <trkpt lat="47.24148" lon="-2.30206">
        <ele>7.1999998092651</ele>
        <time>2021-01-10T09:36:08.000Z</time>
      </trkpt>
      <trkpt lat="47.24142" lon="-2.30191">
        <ele>7.1999998092651</ele>
        <time>2021-01-10T09:36:12.000Z</time>
      </trkpt>
      <trkpt lat="47.24139" lon="-2.3018">
        <ele>7.5999999046326</ele>
        <time>2021-01-10T09:36:15.000Z</time>
      </trkpt>
      <trkpt lat="47.24137" lon="-2.30176">
        <ele>8</ele>
        <time>2021-01-10T09:36:16.000Z</time>
      </trkpt>
      <trkpt lat="47.24135" lon="-2.30173">
        <ele>8.3999996185303</ele>
        <time>2021-01-10T09:36:17.000Z</time>
      </trkpt>
      <trkpt lat="47.24134" lon="-2.30171">
        <ele>8.8000001907349</ele>
        <time>2021-01-10T09:36:18.000Z</time>
      </trkpt>
      <trkpt lat="47.24132" lon="-2.30168">
        <ele>9.1999998092651</ele>
        <time>2021-01-10T09:36:19.000Z</time>
      </trkpt>
      <trkpt lat="47.2413" lon="-2.30165">
        <ele>9.6000003814697</ele>
        <time>2021-01-10T09:36:21.000Z</time>
      </trkpt>
      <trkpt lat="47.24129" lon="-2.30163">
        <ele>10</ele>
        <time>2021-01-10T09:36:22.000Z</time>
      </trkpt>
      <trkpt lat="47.24128" lon="-2.30162">
        <ele>10.60000038147</ele>
        <time>2021-01-10T09:36:23.000Z</time>
      </trkpt>
      <trkpt lat="47.24127" lon="-2.30161">
        <ele>11</ele>
        <time>2021-01-10T09:36:24.000Z</time>
      </trkpt>
      <trkpt lat="47.24116" lon="-2.30167">
        <ele>12.800000190735</ele>
        <time>2021-01-10T09:37:23.000Z</time>
      </trkpt>
      <trkpt lat="47.24112" lon="-2.30167">
        <ele>13.199999809265</ele>
        <time>2021-01-10T09:37:24.000Z</time>
      </trkpt>
      <trkpt lat="47.24109" lon="-2.30167">
        <ele>13.60000038147</ele>
        <time>2021-01-10T09:37:25.000Z</time>
      </trkpt>
      <trkpt lat="47.24099" lon="-2.30166">
        <ele>13.60000038147</ele>
        <time>2021-01-10T09:37:30.000Z</time>
      </trkpt>
      <trkpt lat="47.24085" lon="-2.30169">
        <ele>13.60000038147</ele>
        <time>2021-01-10T09:37:36.000Z</time>
      </trkpt>
      <trkpt lat="47.24074" lon="-2.30177">
        <ele>14</ele>
        <time>2021-01-10T09:37:40.000Z</time>
      </trkpt>
      <trkpt lat="47.24071" lon="-2.30178">
        <ele>14.39999961853</ele>
        <time>2021-01-10T09:37:41.000Z</time>
      </trkpt>
      <trkpt lat="47.24068" lon="-2.30179">
        <ele>14.800000190735</ele>
        <time>2021-01-10T09:37:42.000Z</time>
      </trkpt>
      <trkpt lat="47.24065" lon="-2.30181">
        <ele>15.39999961853</ele>
        <time>2021-01-10T09:37:43.000Z</time>
      </trkpt>
      <trkpt lat="47.24061" lon="-2.30183">
        <ele>15.800000190735</ele>
        <time>2021-01-10T09:37:44.000Z</time>
      </trkpt>
      <trkpt lat="47.24056" lon="-2.30188">
        <ele>15.800000190735</ele>
        <time>2021-01-10T09:37:46.000Z</time>
      </trkpt>
      <trkpt lat="47.24046" lon="-2.30194">
        <ele>15.800000190735</ele>
        <time>2021-01-10T09:37:50.000Z</time>
      </trkpt>
      <trkpt lat="47.24043" lon="-2.30193">
        <ele>15.800000190735</ele>
        <time>2021-01-10T09:37:51.000Z</time>
      </trkpt>
      <trkpt lat="47.24029" lon="-2.30178">
        <ele>15.800000190735</ele>
        <time>2021-01-10T09:37:57.000Z</time>
      </trkpt>
      <trkpt lat="47.24021" lon="-2.30172">
        <ele>15.800000190735</ele>
        <time>2021-01-10T09:38:00.000Z</time>
      </trkpt>
      <trkpt lat="47.24017" lon="-2.3017">
        <ele>15.800000190735</ele>
        <time>2021-01-10T09:38:02.000Z</time>
      </trkpt>
      <trkpt lat="47.24013" lon="-2.30167">
        <ele>15.800000190735</ele>
        <time>2021-01-10T09:38:04.000Z</time>
      </trkpt>
      <trkpt lat="47.24004" lon="-2.30161">
        <ele>15.800000190735</ele>
        <time>2021-01-10T09:38:08.000Z</time>
      </trkpt>
      <trkpt lat="47.23987" lon="-2.3015">
        <ele>15.800000190735</ele>
        <time>2021-01-10T09:38:15.000Z</time>
      </trkpt>
      <trkpt lat="47.23982" lon="-2.30131">
        <ele>15.800000190735</ele>
        <time>2021-01-10T09:38:21.000Z</time>
      </trkpt>
      <trkpt lat="47.23984" lon="-2.30105">
        <ele>15.800000190735</ele>
        <time>2021-01-10T09:38:27.000Z</time>
      </trkpt>
      <trkpt lat="47.23988" lon="-2.30084">
        <ele>15.800000190735</ele>
        <time>2021-01-10T09:38:33.000Z</time>
      </trkpt>
      <trkpt lat="47.23989" lon="-2.30075">
        <ele>15.800000190735</ele>
        <time>2021-01-10T09:38:38.000Z</time>
      </trkpt>
      <trkpt lat="47.23991" lon="-2.30065">
        <ele>15.800000190735</ele>
        <time>2021-01-10T09:38:43.000Z</time>
      </trkpt>
      <trkpt lat="47.24" lon="-2.30039">
        <ele>15.800000190735</ele>
        <time>2021-01-10T09:39:19.000Z</time>
      </trkpt>
      <trkpt lat="47.24006" lon="-2.30022">
        <ele>15.800000190735</ele>
        <time>2021-01-10T09:39:26.000Z</time>
      </trkpt>
      <trkpt lat="47.24008" lon="-2.30018">
        <ele>16.200000762939</ele>
        <time>2021-01-10T09:39:28.000Z</time>
      </trkpt>
      <trkpt lat="47.24009" lon="-2.30016">
        <ele>16.60000038147</ele>
        <time>2021-01-10T09:39:29.000Z</time>
      </trkpt>
      <trkpt lat="47.2401" lon="-2.30013">
        <ele>17</ele>
        <time>2021-01-10T09:39:30.000Z</time>
      </trkpt>
      <trkpt lat="47.24011" lon="-2.30011">
        <ele>17.39999961853</ele>
        <time>2021-01-10T09:39:31.000Z</time>
      </trkpt>
      <trkpt lat="47.24012" lon="-2.30009">
        <ele>17.799999237061</ele>
        <time>2021-01-10T09:39:32.000Z</time>
      </trkpt>
      <trkpt lat="47.24014" lon="-2.30007">
        <ele>17.799999237061</ele>
        <time>2021-01-10T09:39:33.000Z</time>
      </trkpt>
      <trkpt lat="47.2403" lon="-2.29989">
        <ele>17.799999237061</ele>
        <time>2021-01-10T09:39:39.000Z</time>
      </trkpt>
      <trkpt lat="47.24049" lon="-2.29984">
        <ele>17.799999237061</ele>
        <time>2021-01-10T09:39:44.000Z</time>
      </trkpt>
      <trkpt lat="47.24066" lon="-2.29983">
        <ele>17.799999237061</ele>
        <time>2021-01-10T09:39:49.000Z</time>
      </trkpt>
      <trkpt lat="47.24078" lon="-2.29992">
        <ele>17.799999237061</ele>
        <time>2021-01-10T09:39:54.000Z</time>
      </trkpt>
      <trkpt lat="47.24094" lon="-2.30001">
        <ele>17.799999237061</ele>
        <time>2021-01-10T09:40:00.000Z</time>
      </trkpt>
      <trkpt lat="47.24096" lon="-2.30001">
        <ele>17.799999237061</ele>
        <time>2021-01-10T09:40:01.000Z</time>
      </trkpt>
      <trkpt lat="47.24101" lon="-2.29997">
        <ele>17.799999237061</ele>
        <time>2021-01-10T09:40:04.000Z</time>
      </trkpt>
      <trkpt lat="47.24103" lon="-2.29994">
        <ele>17.799999237061</ele>
        <time>2021-01-10T09:40:06.000Z</time>
      </trkpt>
      <trkpt lat="47.24107" lon="-2.29989">
        <ele>17.799999237061</ele>
        <time>2021-01-10T09:40:09.000Z</time>
      </trkpt>
      <trkpt lat="47.24118" lon="-2.29988">
        <ele>17.799999237061</ele>
        <time>2021-01-10T09:40:13.000Z</time>
      </trkpt>
      <trkpt lat="47.24121" lon="-2.29987">
        <ele>17.799999237061</ele>
        <time>2021-01-10T09:40:14.000Z</time>
      </trkpt>
      <trkpt lat="47.24146" lon="-2.29983">
        <ele>17.799999237061</ele>
        <time>2021-01-10T09:40:21.000Z</time>
      </trkpt>
      <trkpt lat="47.24157" lon="-2.29984">
        <ele>17.799999237061</ele>
        <time>2021-01-10T09:40:26.000Z</time>
      </trkpt>
      <trkpt lat="47.2416" lon="-2.29986">
        <ele>17.799999237061</ele>
        <time>2021-01-10T09:40:28.000Z</time>
      </trkpt>
      <trkpt lat="47.24167" lon="-2.29995">
        <ele>17.799999237061</ele>
        <time>2021-01-10T09:40:31.000Z</time>
      </trkpt>
      <trkpt lat="47.2417" lon="-2.29999">
        <ele>17.799999237061</ele>
        <time>2021-01-10T09:40:32.000Z</time>
      </trkpt>
      <trkpt lat="47.24182" lon="-2.30024">
        <ele>17.39999961853</ele>
        <time>2021-01-10T09:40:38.000Z</time>
      </trkpt>
      <trkpt lat="47.24183" lon="-2.30028">
        <ele>16.799999237061</ele>
        <time>2021-01-10T09:40:39.000Z</time>
      </trkpt>
      <trkpt lat="47.24183" lon="-2.30031">
        <ele>16.39999961853</ele>
        <time>2021-01-10T09:40:40.000Z</time>
      </trkpt>
      <trkpt lat="47.24182" lon="-2.30032">
        <ele>16</ele>
        <time>2021-01-10T09:40:41.000Z</time>
      </trkpt>
      <trkpt lat="47.24181" lon="-2.30032">
        <ele>15.60000038147</ele>
        <time>2021-01-10T09:40:42.000Z</time>
      </trkpt>
      <trkpt lat="47.24175" lon="-2.3003">
        <ele>15.60000038147</ele>
        <time>2021-01-10T09:40:46.000Z</time>
      </trkpt>
      <trkpt lat="47.24171" lon="-2.30027">
        <ele>15.60000038147</ele>
        <time>2021-01-10T09:40:48.000Z</time>
      </trkpt>
      <trkpt lat="47.24169" lon="-2.30025">
        <ele>15.60000038147</ele>
        <time>2021-01-10T09:40:49.000Z</time>
      </trkpt>
      <trkpt lat="47.24165" lon="-2.30013">
        <ele>15.60000038147</ele>
        <time>2021-01-10T09:40:52.000Z</time>
      </trkpt>
      <trkpt lat="47.24164" lon="-2.30007">
        <ele>15.60000038147</ele>
        <time>2021-01-10T09:40:54.000Z</time>
      </trkpt>
      <trkpt lat="47.24164" lon="-2.30005">
        <ele>16</ele>
        <time>2021-01-10T09:40:55.000Z</time>
      </trkpt>
      <trkpt lat="47.24164" lon="-2.30004">
        <ele>16.39999961853</ele>
        <time>2021-01-10T09:40:56.000Z</time>
      </trkpt>
      <trkpt lat="47.24163" lon="-2.30002">
        <ele>16.799999237061</ele>
        <time>2021-01-10T09:40:57.000Z</time>
      </trkpt>
      <trkpt lat="47.24163" lon="-2.29999">
        <ele>17.200000762939</ele>
        <time>2021-01-10T09:40:58.000Z</time>
      </trkpt>
      <trkpt lat="47.24162" lon="-2.29996">
        <ele>17.60000038147</ele>
        <time>2021-01-10T09:40:59.000Z</time>
      </trkpt>
      <trkpt lat="47.2416" lon="-2.29982">
        <ele>17.60000038147</ele>
        <time>2021-01-10T09:41:03.000Z</time>
      </trkpt>
      <trkpt lat="47.24159" lon="-2.29956">
        <ele>17.60000038147</ele>
        <time>2021-01-10T09:41:09.000Z</time>
      </trkpt>
      <trkpt lat="47.24168" lon="-2.29928">
        <ele>17.60000038147</ele>
        <time>2021-01-10T09:41:16.000Z</time>
      </trkpt>
      <trkpt lat="47.24174" lon="-2.29912">
        <ele>17.60000038147</ele>
        <time>2021-01-10T09:41:21.000Z</time>
      </trkpt>
      <trkpt lat="47.24177" lon="-2.29905">
        <ele>17.60000038147</ele>
        <time>2021-01-10T09:41:23.000Z</time>
      </trkpt>
      <trkpt lat="47.24181" lon="-2.29898">
        <ele>17.60000038147</ele>
        <time>2021-01-10T09:41:26.000Z</time>
      </trkpt>
      <trkpt lat="47.24182" lon="-2.29893">
        <ele>17.60000038147</ele>
        <time>2021-01-10T09:41:28.000Z</time>
      </trkpt>
      <trkpt lat="47.24181" lon="-2.2989">
        <ele>18</ele>
        <time>2021-01-10T09:41:29.000Z</time>
      </trkpt>
      <trkpt lat="47.24181" lon="-2.29886">
        <ele>18.39999961853</ele>
        <time>2021-01-10T09:41:30.000Z</time>
      </trkpt>
      <trkpt lat="47.24181" lon="-2.29882">
        <ele>18.799999237061</ele>
        <time>2021-01-10T09:41:31.000Z</time>
      </trkpt>
      <trkpt lat="47.24181" lon="-2.29878">
        <ele>19.39999961853</ele>
        <time>2021-01-10T09:41:32.000Z</time>
      </trkpt>
      <trkpt lat="47.24181" lon="-2.29874">
        <ele>19.799999237061</ele>
        <time>2021-01-10T09:41:33.000Z</time>
      </trkpt>
      <trkpt lat="47.24181" lon="-2.29871">
        <ele>19.799999237061</ele>
        <time>2021-01-10T09:41:34.000Z</time>
      </trkpt>
      <trkpt lat="47.24181" lon="-2.29867">
        <ele>19.799999237061</ele>
        <time>2021-01-10T09:41:35.000Z</time>
      </trkpt>
      <trkpt lat="47.24182" lon="-2.29844">
        <ele>19.799999237061</ele>
        <time>2021-01-10T09:41:40.000Z</time>
      </trkpt>
      <trkpt lat="47.24181" lon="-2.2984">
        <ele>19.799999237061</ele>
        <time>2021-01-10T09:41:41.000Z</time>
      </trkpt>
      <trkpt lat="47.24177" lon="-2.29836">
        <ele>19.799999237061</ele>
        <time>2021-01-10T09:41:43.000Z</time>
      </trkpt>
      <trkpt lat="47.24161" lon="-2.29837">
        <ele>19.799999237061</ele>
        <time>2021-01-10T09:41:47.000Z</time>
      </trkpt>
      <trkpt lat="47.24146" lon="-2.2984">
        <ele>19.799999237061</ele>
        <time>2021-01-10T09:41:52.000Z</time>
      </trkpt>
      <trkpt lat="47.24128" lon="-2.29844">
        <ele>19.799999237061</ele>
        <time>2021-01-10T09:41:58.000Z</time>
      </trkpt>
      <trkpt lat="47.24114" lon="-2.29849">
        <ele>19.799999237061</ele>
        <time>2021-01-10T09:42:04.000Z</time>
      </trkpt>
      <trkpt lat="47.24105" lon="-2.29848">
        <ele>19.799999237061</ele>
        <time>2021-01-10T09:42:09.000Z</time>
      </trkpt>
      <trkpt lat="47.24092" lon="-2.29841">
        <ele>19.799999237061</ele>
        <time>2021-01-10T09:42:15.000Z</time>
      </trkpt>
      <trkpt lat="47.24092" lon="-2.29839">
        <ele>19.799999237061</ele>
        <time>2021-01-10T09:42:16.000Z</time>
      </trkpt>
      <trkpt lat="47.24088" lon="-2.2982">
        <ele>19.799999237061</ele>
        <time>2021-01-10T09:42:20.000Z</time>
      </trkpt>
      <trkpt lat="47.24086" lon="-2.29811">
        <ele>19.799999237061</ele>
        <time>2021-01-10T09:42:22.000Z</time>
      </trkpt>
      <trkpt lat="47.24082" lon="-2.29787">
        <ele>19.799999237061</ele>
        <time>2021-01-10T09:42:27.000Z</time>
      </trkpt>
      <trkpt lat="47.24078" lon="-2.29761">
        <ele>19.799999237061</ele>
        <time>2021-01-10T09:42:32.000Z</time>
      </trkpt>
      <trkpt lat="47.24068" lon="-2.29717">
        <ele>19.799999237061</ele>
        <time>2021-01-10T09:42:39.000Z</time>
      </trkpt>
      <trkpt lat="47.24056" lon="-2.2967">
        <ele>19.799999237061</ele>
        <time>2021-01-10T09:42:46.000Z</time>
      </trkpt>
      <trkpt lat="47.24054" lon="-2.29634">
        <ele>19.799999237061</ele>
        <time>2021-01-10T09:42:52.000Z</time>
      </trkpt>
      <trkpt lat="47.24067" lon="-2.29621">
        <ele>19.799999237061</ele>
        <time>2021-01-10T09:42:56.000Z</time>
      </trkpt>
      <trkpt lat="47.24091" lon="-2.29602">
        <ele>19.799999237061</ele>
        <time>2021-01-10T09:43:03.000Z</time>
      </trkpt>
      <trkpt lat="47.24107" lon="-2.29586">
        <ele>19.799999237061</ele>
        <time>2021-01-10T09:43:07.000Z</time>
      </trkpt>
      <trkpt lat="47.24112" lon="-2.29572">
        <ele>19.799999237061</ele>
        <time>2021-01-10T09:43:09.000Z</time>
      </trkpt>
      <trkpt lat="47.24111" lon="-2.29549">
        <ele>19.799999237061</ele>
        <time>2021-01-10T09:43:12.000Z</time>
      </trkpt>
      <trkpt lat="47.24109" lon="-2.29541">
        <ele>19.799999237061</ele>
        <time>2021-01-10T09:43:13.000Z</time>
      </trkpt>
      <trkpt lat="47.241" lon="-2.29503">
        <ele>19.799999237061</ele>
        <time>2021-01-10T09:43:18.000Z</time>
      </trkpt>
      <trkpt lat="47.24103" lon="-2.29481">
        <ele>19.799999237061</ele>
        <time>2021-01-10T09:43:21.000Z</time>
      </trkpt>
      <trkpt lat="47.24114" lon="-2.29468">
        <ele>19.799999237061</ele>
        <time>2021-01-10T09:43:24.000Z</time>
      </trkpt>
      <trkpt lat="47.24118" lon="-2.29465">
        <ele>19.799999237061</ele>
        <time>2021-01-10T09:43:25.000Z</time>
      </trkpt>
      <trkpt lat="47.24126" lon="-2.2946">
        <ele>19.799999237061</ele>
        <time>2021-01-10T09:43:27.000Z</time>
      </trkpt>
      <trkpt lat="47.24136" lon="-2.29454">
        <ele>19.39999961853</ele>
        <time>2021-01-10T09:43:29.000Z</time>
      </trkpt>
      <trkpt lat="47.2414" lon="-2.29452">
        <ele>18.39999961853</ele>
        <time>2021-01-10T09:43:30.000Z</time>
      </trkpt>
      <trkpt lat="47.24145" lon="-2.29449">
        <ele>18</ele>
        <time>2021-01-10T09:43:31.000Z</time>
      </trkpt>
      <trkpt lat="47.2415" lon="-2.29447">
        <ele>17.60000038147</ele>
        <time>2021-01-10T09:43:32.000Z</time>
      </trkpt>
      <trkpt lat="47.24171" lon="-2.29441">
        <ele>17.60000038147</ele>
        <time>2021-01-10T09:43:36.000Z</time>
      </trkpt>
      <trkpt lat="47.24182" lon="-2.29442">
        <ele>17.60000038147</ele>
        <time>2021-01-10T09:43:38.000Z</time>
      </trkpt>
      <trkpt lat="47.24194" lon="-2.29444">
        <ele>17.60000038147</ele>
        <time>2021-01-10T09:43:40.000Z</time>
      </trkpt>
      <trkpt lat="47.242" lon="-2.29446">
        <ele>17.60000038147</ele>
        <time>2021-01-10T09:43:41.000Z</time>
      </trkpt>
      <trkpt lat="47.24206" lon="-2.29449">
        <ele>17.60000038147</ele>
        <time>2021-01-10T09:43:42.000Z</time>
      </trkpt>
      <trkpt lat="47.24228" lon="-2.29463">
        <ele>17.60000038147</ele>
        <time>2021-01-10T09:43:46.000Z</time>
      </trkpt>
      <trkpt lat="47.24234" lon="-2.29464">
        <ele>17.60000038147</ele>
        <time>2021-01-10T09:43:47.000Z</time>
      </trkpt>
      <trkpt lat="47.24246" lon="-2.29461">
        <ele>17.60000038147</ele>
        <time>2021-01-10T09:43:49.000Z</time>
      </trkpt>
      <trkpt lat="47.24252" lon="-2.29459">
        <ele>17.200000762939</ele>
        <time>2021-01-10T09:43:50.000Z</time>
      </trkpt>
      <trkpt lat="47.24257" lon="-2.29456">
        <ele>16.799999237061</ele>
        <time>2021-01-10T09:43:51.000Z</time>
      </trkpt>
      <trkpt lat="47.24261" lon="-2.29453">
        <ele>16.39999961853</ele>
        <time>2021-01-10T09:43:52.000Z</time>
      </trkpt>
      <trkpt lat="47.24266" lon="-2.2945">
        <ele>16</ele>
        <time>2021-01-10T09:43:53.000Z</time>
      </trkpt>
      <trkpt lat="47.2427" lon="-2.29447">
        <ele>15.39999961853</ele>
        <time>2021-01-10T09:43:54.000Z</time>
      </trkpt>
      <trkpt lat="47.24293" lon="-2.29434">
        <ele>15.39999961853</ele>
        <time>2021-01-10T09:43:59.000Z</time>
      </trkpt>
      <trkpt lat="47.24299" lon="-2.29433">
        <ele>15.39999961853</ele>
        <time>2021-01-10T09:44:00.000Z</time>
      </trkpt>
      <trkpt lat="47.2432" lon="-2.2944">
        <ele>15.39999961853</ele>
        <time>2021-01-10T09:44:04.000Z</time>
      </trkpt>
      <trkpt lat="47.2433" lon="-2.29448">
        <ele>15.39999961853</ele>
        <time>2021-01-10T09:44:06.000Z</time>
      </trkpt>
      <trkpt lat="47.24347" lon="-2.29463">
        <ele>15.39999961853</ele>
        <time>2021-01-10T09:44:10.000Z</time>
      </trkpt>
      <trkpt lat="47.24361" lon="-2.29464">
        <ele>15.39999961853</ele>
        <time>2021-01-10T09:44:13.000Z</time>
      </trkpt>
      <trkpt lat="47.24372" lon="-2.29455">
        <ele>15.39999961853</ele>
        <time>2021-01-10T09:44:16.000Z</time>
      </trkpt>
      <trkpt lat="47.24379" lon="-2.29449">
        <ele>15.39999961853</ele>
        <time>2021-01-10T09:44:18.000Z</time>
      </trkpt>
      <trkpt lat="47.2439" lon="-2.29438">
        <ele>15.39999961853</ele>
        <time>2021-01-10T09:44:21.000Z</time>
      </trkpt>
      <trkpt lat="47.24403" lon="-2.29432">
        <ele>15.39999961853</ele>
        <time>2021-01-10T09:44:24.000Z</time>
      </trkpt>
      <trkpt lat="47.24408" lon="-2.29431">
        <ele>15.39999961853</ele>
        <time>2021-01-10T09:44:25.000Z</time>
      </trkpt>
      <trkpt lat="47.24432" lon="-2.2943">
        <ele>15.800000190735</ele>
        <time>2021-01-10T09:44:30.000Z</time>
      </trkpt>
      <trkpt lat="47.24437" lon="-2.29429">
        <ele>16.200000762939</ele>
        <time>2021-01-10T09:44:31.000Z</time>
      </trkpt>
      <trkpt lat="47.24441" lon="-2.29428">
        <ele>16.60000038147</ele>
        <time>2021-01-10T09:44:32.000Z</time>
      </trkpt>
      <trkpt lat="47.24446" lon="-2.29427">
        <ele>17</ele>
        <time>2021-01-10T09:44:33.000Z</time>
      </trkpt>
      <trkpt lat="47.24451" lon="-2.29427">
        <ele>17.39999961853</ele>
        <time>2021-01-10T09:44:34.000Z</time>
      </trkpt>
      <trkpt lat="47.24464" lon="-2.29425">
        <ele>17.39999961853</ele>
        <time>2021-01-10T09:44:37.000Z</time>
      </trkpt>
      <trkpt lat="47.24477" lon="-2.29423">
        <ele>18</ele>
        <time>2021-01-10T09:44:40.000Z</time>
      </trkpt>
      <trkpt lat="47.24481" lon="-2.29423">
        <ele>18.39999961853</ele>
        <time>2021-01-10T09:44:41.000Z</time>
      </trkpt>
      <trkpt lat="47.24486" lon="-2.29422">
        <ele>18.799999237061</ele>
        <time>2021-01-10T09:44:42.000Z</time>
      </trkpt>
      <trkpt lat="47.2449" lon="-2.29421">
        <ele>19.200000762939</ele>
        <time>2021-01-10T09:44:43.000Z</time>
      </trkpt>
      <trkpt lat="47.24495" lon="-2.2942">
        <ele>19.60000038147</ele>
        <time>2021-01-10T09:44:44.000Z</time>
      </trkpt>
      <trkpt lat="47.24507" lon="-2.29417">
        <ele>19.60000038147</ele>
        <time>2021-01-10T09:44:47.000Z</time>
      </trkpt>
      <trkpt lat="47.2451" lon="-2.29413">
        <ele>19.60000038147</ele>
        <time>2021-01-10T09:44:48.000Z</time>
      </trkpt>
      <trkpt lat="47.24514" lon="-2.29397">
        <ele>20</ele>
        <time>2021-01-10T09:44:51.000Z</time>
      </trkpt>
      <trkpt lat="47.24514" lon="-2.29391">
        <ele>20.39999961853</ele>
        <time>2021-01-10T09:44:52.000Z</time>
      </trkpt>
      <trkpt lat="47.24515" lon="-2.29386">
        <ele>20.799999237061</ele>
        <time>2021-01-10T09:44:53.000Z</time>
      </trkpt>
      <trkpt lat="47.24515" lon="-2.2938">
        <ele>21.200000762939</ele>
        <time>2021-01-10T09:44:54.000Z</time>
      </trkpt>
      <trkpt lat="47.24515" lon="-2.29374">
        <ele>21.60000038147</ele>
        <time>2021-01-10T09:44:55.000Z</time>
      </trkpt>
      <trkpt lat="47.24514" lon="-2.29368">
        <ele>21.60000038147</ele>
        <time>2021-01-10T09:44:56.000Z</time>
      </trkpt>
      <trkpt lat="47.24505" lon="-2.29347">
        <ele>21.60000038147</ele>
        <time>2021-01-10T09:45:00.000Z</time>
      </trkpt>
      <trkpt lat="47.24502" lon="-2.29343">
        <ele>21.60000038147</ele>
        <time>2021-01-10T09:45:01.000Z</time>
      </trkpt>
      <trkpt lat="47.24494" lon="-2.29336">
        <ele>21.60000038147</ele>
        <time>2021-01-10T09:45:03.000Z</time>
      </trkpt>
      <trkpt lat="47.24482" lon="-2.29332">
        <ele>21.60000038147</ele>
        <time>2021-01-10T09:45:06.000Z</time>
      </trkpt>
      <trkpt lat="47.24471" lon="-2.29329">
        <ele>21.200000762939</ele>
        <time>2021-01-10T09:45:09.000Z</time>
      </trkpt>
      <trkpt lat="47.24468" lon="-2.29327">
        <ele>20.799999237061</ele>
        <time>2021-01-10T09:45:10.000Z</time>
      </trkpt>
      <trkpt lat="47.24465" lon="-2.29325">
        <ele>20.39999961853</ele>
        <time>2021-01-10T09:45:11.000Z</time>
      </trkpt>
      <trkpt lat="47.24462" lon="-2.29324">
        <ele>20</ele>
        <time>2021-01-10T09:45:12.000Z</time>
      </trkpt>
      <trkpt lat="47.24458" lon="-2.29322">
        <ele>19.60000038147</ele>
        <time>2021-01-10T09:45:13.000Z</time>
      </trkpt>
      <trkpt lat="47.24435" lon="-2.29311">
        <ele>19.60000038147</ele>
        <time>2021-01-10T09:45:19.000Z</time>
      </trkpt>
      <trkpt lat="47.24431" lon="-2.2931">
        <ele>19.60000038147</ele>
        <time>2021-01-10T09:45:20.000Z</time>
      </trkpt>
      <trkpt lat="47.24405" lon="-2.29302">
        <ele>19.60000038147</ele>
        <time>2021-01-10T09:45:26.000Z</time>
      </trkpt>
      <trkpt lat="47.24377" lon="-2.29286">
        <ele>19.60000038147</ele>
        <time>2021-01-10T09:45:33.000Z</time>
      </trkpt>
      <trkpt lat="47.24373" lon="-2.29282">
        <ele>19.60000038147</ele>
        <time>2021-01-10T09:45:34.000Z</time>
      </trkpt>
      <trkpt lat="47.2436" lon="-2.29269">
        <ele>19.200000762939</ele>
        <time>2021-01-10T09:45:37.000Z</time>
      </trkpt>
      <trkpt lat="47.24356" lon="-2.29264">
        <ele>18.799999237061</ele>
        <time>2021-01-10T09:45:38.000Z</time>
      </trkpt>
      <trkpt lat="47.24352" lon="-2.29259">
        <ele>18.39999961853</ele>
        <time>2021-01-10T09:45:39.000Z</time>
      </trkpt>
      <trkpt lat="47.24348" lon="-2.29253">
        <ele>18</ele>
        <time>2021-01-10T09:45:40.000Z</time>
      </trkpt>
      <trkpt lat="47.24345" lon="-2.29248">
        <ele>17.60000038147</ele>
        <time>2021-01-10T09:45:41.000Z</time>
      </trkpt>
      <trkpt lat="47.24323" lon="-2.29222">
        <ele>17.60000038147</ele>
        <time>2021-01-10T09:45:46.000Z</time>
      </trkpt>
      <trkpt lat="47.24297" lon="-2.29201">
        <ele>17.60000038147</ele>
        <time>2021-01-10T09:45:51.000Z</time>
      </trkpt>
      <trkpt lat="47.24293" lon="-2.29196">
        <ele>17.60000038147</ele>
        <time>2021-01-10T09:45:52.000Z</time>
      </trkpt>
      <trkpt lat="47.24284" lon="-2.29175">
        <ele>17.200000762939</ele>
        <time>2021-01-10T09:45:55.000Z</time>
      </trkpt>
      <trkpt lat="47.24283" lon="-2.29167">
        <ele>16.799999237061</ele>
        <time>2021-01-10T09:45:56.000Z</time>
      </trkpt>
      <trkpt lat="47.24282" lon="-2.29159">
        <ele>16.200000762939</ele>
        <time>2021-01-10T09:45:57.000Z</time>
      </trkpt>
      <trkpt lat="47.24281" lon="-2.29151">
        <ele>15.39999961853</ele>
        <time>2021-01-10T09:45:58.000Z</time>
      </trkpt>
      <trkpt lat="47.24275" lon="-2.29118">
        <ele>15.39999961853</ele>
        <time>2021-01-10T09:46:02.000Z</time>
      </trkpt>
      <trkpt lat="47.24274" lon="-2.29102">
        <ele>15.39999961853</ele>
        <time>2021-01-10T09:46:04.000Z</time>
      </trkpt>
      <trkpt lat="47.24271" lon="-2.29086">
        <ele>15.39999961853</ele>
        <time>2021-01-10T09:46:06.000Z</time>
      </trkpt>
      <trkpt lat="47.2427" lon="-2.29078">
        <ele>15.39999961853</ele>
        <time>2021-01-10T09:46:07.000Z</time>
      </trkpt>
      <trkpt lat="47.24269" lon="-2.29069">
        <ele>14.800000190735</ele>
        <time>2021-01-10T09:46:08.000Z</time>
      </trkpt>
      <trkpt lat="47.24268" lon="-2.2906">
        <ele>14.39999961853</ele>
        <time>2021-01-10T09:46:09.000Z</time>
      </trkpt>
      <trkpt lat="47.24266" lon="-2.2905">
        <ele>14</ele>
        <time>2021-01-10T09:46:10.000Z</time>
      </trkpt>
      <trkpt lat="47.24265" lon="-2.29041">
        <ele>13.39999961853</ele>
        <time>2021-01-10T09:46:11.000Z</time>
      </trkpt>
      <trkpt lat="47.24263" lon="-2.29031">
        <ele>13</ele>
        <time>2021-01-10T09:46:12.000Z</time>
      </trkpt>
      <trkpt lat="47.24261" lon="-2.29021">
        <ele>13</ele>
        <time>2021-01-10T09:46:13.000Z</time>
      </trkpt>
      <trkpt lat="47.24253" lon="-2.28968">
        <ele>12.60000038147</ele>
        <time>2021-01-10T09:46:18.000Z</time>
      </trkpt>
      <trkpt lat="47.24251" lon="-2.28957">
        <ele>12.199999809265</ele>
        <time>2021-01-10T09:46:19.000Z</time>
      </trkpt>
      <trkpt lat="47.24249" lon="-2.28946">
        <ele>11.60000038147</ele>
        <time>2021-01-10T09:46:20.000Z</time>
      </trkpt>
      <trkpt lat="47.24248" lon="-2.28934">
        <ele>11.199999809265</ele>
        <time>2021-01-10T09:46:21.000Z</time>
      </trkpt>
      <trkpt lat="47.24246" lon="-2.28923">
        <ele>10.800000190735</ele>
        <time>2021-01-10T09:46:22.000Z</time>
      </trkpt>
      <trkpt lat="47.24242" lon="-2.28899">
        <ele>10.39999961853</ele>
        <time>2021-01-10T09:46:24.000Z</time>
      </trkpt>
      <trkpt lat="47.2424" lon="-2.28887">
        <ele>10</ele>
        <time>2021-01-10T09:46:25.000Z</time>
      </trkpt>
      <trkpt lat="47.24237" lon="-2.28875">
        <ele>9.6000003814697</ele>
        <time>2021-01-10T09:46:26.000Z</time>
      </trkpt>
      <trkpt lat="47.24236" lon="-2.28863">
        <ele>9.1999998092651</ele>
        <time>2021-01-10T09:46:27.000Z</time>
      </trkpt>
      <trkpt lat="47.24234" lon="-2.28852">
        <ele>8.8000001907349</ele>
        <time>2021-01-10T09:46:28.000Z</time>
      </trkpt>
      <trkpt lat="47.24228" lon="-2.28823">
        <ele>8.1999998092651</ele>
        <time>2021-01-10T09:46:31.000Z</time>
      </trkpt>
      <trkpt lat="47.24226" lon="-2.28813">
        <ele>7.5999999046326</ele>
        <time>2021-01-10T09:46:32.000Z</time>
      </trkpt>
      <trkpt lat="47.24225" lon="-2.28804">
        <ele>7.1999998092651</ele>
        <time>2021-01-10T09:46:33.000Z</time>
      </trkpt>
      <trkpt lat="47.24222" lon="-2.28795">
        <ele>6.5999999046326</ele>
        <time>2021-01-10T09:46:34.000Z</time>
      </trkpt>
      <trkpt lat="47.2422" lon="-2.28786">
        <ele>6</ele>
        <time>2021-01-10T09:46:35.000Z</time>
      </trkpt>
      <trkpt lat="47.24219" lon="-2.28777">
        <ele>6</ele>
        <time>2021-01-10T09:46:36.000Z</time>
      </trkpt>
      <trkpt lat="47.24212" lon="-2.28742">
        <ele>5.5999999046326</ele>
        <time>2021-01-10T09:46:40.000Z</time>
      </trkpt>
      <trkpt lat="47.24211" lon="-2.28734">
        <ele>5.1999998092651</ele>
        <time>2021-01-10T09:46:41.000Z</time>
      </trkpt>
      <trkpt lat="47.2421" lon="-2.28726">
        <ele>4.8000001907349</ele>
        <time>2021-01-10T09:46:42.000Z</time>
      </trkpt>
      <trkpt lat="47.24209" lon="-2.28719">
        <ele>4.4000000953674</ele>
        <time>2021-01-10T09:46:43.000Z</time>
      </trkpt>
      <trkpt lat="47.24208" lon="-2.28712">
        <ele>4</ele>
        <time>2021-01-10T09:46:44.000Z</time>
      </trkpt>
      <trkpt lat="47.24209" lon="-2.28699">
        <ele>4</ele>
        <time>2021-01-10T09:46:46.000Z</time>
      </trkpt>
      <trkpt lat="47.24211" lon="-2.28694">
        <ele>4</ele>
        <time>2021-01-10T09:46:47.000Z</time>
      </trkpt>
      <trkpt lat="47.24226" lon="-2.28677">
        <ele>4</ele>
        <time>2021-01-10T09:46:51.000Z</time>
      </trkpt>
      <trkpt lat="47.24241" lon="-2.28676">
        <ele>4</ele>
        <time>2021-01-10T09:46:54.000Z</time>
      </trkpt>
      <trkpt lat="47.24247" lon="-2.28676">
        <ele>4</ele>
        <time>2021-01-10T09:46:55.000Z</time>
      </trkpt>
      <trkpt lat="47.24277" lon="-2.28673">
        <ele>4</ele>
        <time>2021-01-10T09:47:01.000Z</time>
      </trkpt>
      <trkpt lat="47.24303" lon="-2.28664">
        <ele>4</ele>
        <time>2021-01-10T09:47:07.000Z</time>
      </trkpt>
      <trkpt lat="47.24307" lon="-2.28662">
        <ele>4</ele>
        <time>2021-01-10T09:47:08.000Z</time>
      </trkpt>
      <trkpt lat="47.2433" lon="-2.28651">
        <ele>4.8000001907349</ele>
        <time>2021-01-10T09:47:13.000Z</time>
      </trkpt>
      <trkpt lat="47.24334" lon="-2.28649">
        <ele>5.1999998092651</ele>
        <time>2021-01-10T09:47:14.000Z</time>
      </trkpt>
      <trkpt lat="47.24338" lon="-2.28647">
        <ele>5.5999999046326</ele>
        <time>2021-01-10T09:47:15.000Z</time>
      </trkpt>
      <trkpt lat="47.24341" lon="-2.28646">
        <ele>6</ele>
        <time>2021-01-10T09:47:16.000Z</time>
      </trkpt>
      <trkpt lat="47.2435" lon="-2.2864">
        <ele>6</ele>
        <time>2021-01-10T09:47:19.000Z</time>
      </trkpt>
      <trkpt lat="47.24367" lon="-2.28629">
        <ele>6.4000000953674</ele>
        <time>2021-01-10T09:47:24.000Z</time>
      </trkpt>
      <trkpt lat="47.2437" lon="-2.28627">
        <ele>6.8000001907349</ele>
        <time>2021-01-10T09:47:25.000Z</time>
      </trkpt>
      <trkpt lat="47.24373" lon="-2.28625">
        <ele>7.1999998092651</ele>
        <time>2021-01-10T09:47:26.000Z</time>
      </trkpt>
      <trkpt lat="47.24377" lon="-2.28622">
        <ele>7.5999999046326</ele>
        <time>2021-01-10T09:47:27.000Z</time>
      </trkpt>
      <trkpt lat="47.24381" lon="-2.28621">
        <ele>8.1999998092651</ele>
        <time>2021-01-10T09:47:28.000Z</time>
      </trkpt>
      <trkpt lat="47.24385" lon="-2.28619">
        <ele>8.1999998092651</ele>
        <time>2021-01-10T09:47:29.000Z</time>
      </trkpt>
      <trkpt lat="47.24393" lon="-2.28615">
        <ele>8.1999998092651</ele>
        <time>2021-01-10T09:47:31.000Z</time>
      </trkpt>
      <trkpt lat="47.24406" lon="-2.2861">
        <ele>8.6000003814697</ele>
        <time>2021-01-10T09:47:34.000Z</time>
      </trkpt>
      <trkpt lat="47.24409" lon="-2.28608">
        <ele>9</ele>
        <time>2021-01-10T09:47:35.000Z</time>
      </trkpt>
      <trkpt lat="47.24412" lon="-2.28607">
        <ele>9.3999996185303</ele>
        <time>2021-01-10T09:47:36.000Z</time>
      </trkpt>
      <trkpt lat="47.24415" lon="-2.28606">
        <ele>10.199999809265</ele>
        <time>2021-01-10T09:47:37.000Z</time>
      </trkpt>
      <trkpt lat="47.24429" lon="-2.286">
        <ele>10.199999809265</ele>
        <time>2021-01-10T09:47:41.000Z</time>
      </trkpt>
      <trkpt lat="47.24451" lon="-2.28592">
        <ele>10.199999809265</ele>
        <time>2021-01-10T09:47:46.000Z</time>
      </trkpt>
      <trkpt lat="47.2446" lon="-2.28591">
        <ele>10.199999809265</ele>
        <time>2021-01-10T09:47:48.000Z</time>
      </trkpt>
      <trkpt lat="47.24475" lon="-2.28602">
        <ele>10.199999809265</ele>
        <time>2021-01-10T09:47:52.000Z</time>
      </trkpt>
      <trkpt lat="47.24482" lon="-2.2861">
        <ele>10.199999809265</ele>
        <time>2021-01-10T09:47:54.000Z</time>
      </trkpt>
      <trkpt lat="47.24495" lon="-2.28629">
        <ele>10.199999809265</ele>
        <time>2021-01-10T09:47:58.000Z</time>
      </trkpt>
      <trkpt lat="47.24499" lon="-2.28633">
        <ele>10.199999809265</ele>
        <time>2021-01-10T09:47:59.000Z</time>
      </trkpt>
      <trkpt lat="47.24503" lon="-2.28636">
        <ele>10.60000038147</ele>
        <time>2021-01-10T09:48:00.000Z</time>
      </trkpt>
      <trkpt lat="47.24507" lon="-2.28639">
        <ele>11</ele>
        <time>2021-01-10T09:48:01.000Z</time>
      </trkpt>
      <trkpt lat="47.24511" lon="-2.28641">
        <ele>11.800000190735</ele>
        <time>2021-01-10T09:48:02.000Z</time>
      </trkpt>
      <trkpt lat="47.24514" lon="-2.28642">
        <ele>12.199999809265</ele>
        <time>2021-01-10T09:48:03.000Z</time>
      </trkpt>
      <trkpt lat="47.24529" lon="-2.28638">
        <ele>12.199999809265</ele>
        <time>2021-01-10T09:48:07.000Z</time>
      </trkpt>
      <trkpt lat="47.24536" lon="-2.28632">
        <ele>12.199999809265</ele>
        <time>2021-01-10T09:48:09.000Z</time>
      </trkpt>
      <trkpt lat="47.24545" lon="-2.28624">
        <ele>12.199999809265</ele>
        <time>2021-01-10T09:48:12.000Z</time>
      </trkpt>
      <trkpt lat="47.24549" lon="-2.28617">
        <ele>12.800000190735</ele>
        <time>2021-01-10T09:48:14.000Z</time>
      </trkpt>
      <trkpt lat="47.24551" lon="-2.28613">
        <ele>13.199999809265</ele>
        <time>2021-01-10T09:48:15.000Z</time>
      </trkpt>
      <trkpt lat="47.24553" lon="-2.28609">
        <ele>13.60000038147</ele>
        <time>2021-01-10T09:48:16.000Z</time>
      </trkpt>
      <trkpt lat="47.24556" lon="-2.28605">
        <ele>14</ele>
        <time>2021-01-10T09:48:17.000Z</time>
      </trkpt>
      <trkpt lat="47.24559" lon="-2.28601">
        <ele>14.39999961853</ele>
        <time>2021-01-10T09:48:18.000Z</time>
      </trkpt>
      <trkpt lat="47.24582" lon="-2.28584">
        <ele>14.39999961853</ele>
        <time>2021-01-10T09:48:24.000Z</time>
      </trkpt>
      <trkpt lat="47.246" lon="-2.28572">
        <ele>14.39999961853</ele>
        <time>2021-01-10T09:48:29.000Z</time>
      </trkpt>
      <trkpt lat="47.2462" lon="-2.28555">
        <ele>14.39999961853</ele>
        <time>2021-01-10T09:48:35.000Z</time>
      </trkpt>
      <trkpt lat="47.24623" lon="-2.28552">
        <ele>14.800000190735</ele>
        <time>2021-01-10T09:48:36.000Z</time>
      </trkpt>
      <trkpt lat="47.24627" lon="-2.28549">
        <ele>15.199999809265</ele>
        <time>2021-01-10T09:48:37.000Z</time>
      </trkpt>
      <trkpt lat="47.2463" lon="-2.28546">
        <ele>15.60000038147</ele>
        <time>2021-01-10T09:48:38.000Z</time>
      </trkpt>
      <trkpt lat="47.24633" lon="-2.28543">
        <ele>16</ele>
        <time>2021-01-10T09:48:39.000Z</time>
      </trkpt>
      <trkpt lat="47.24637" lon="-2.2854">
        <ele>16.39999961853</ele>
        <time>2021-01-10T09:48:40.000Z</time>
      </trkpt>
      <trkpt lat="47.24641" lon="-2.28537">
        <ele>16.39999961853</ele>
        <time>2021-01-10T09:48:41.000Z</time>
      </trkpt>
      <trkpt lat="47.24645" lon="-2.28535">
        <ele>16.39999961853</ele>
        <time>2021-01-10T09:48:42.000Z</time>
      </trkpt>
      <trkpt lat="47.24662" lon="-2.28532">
        <ele>16.39999961853</ele>
        <time>2021-01-10T09:48:46.000Z</time>
      </trkpt>
      <trkpt lat="47.24677" lon="-2.28538">
        <ele>16.39999961853</ele>
        <time>2021-01-10T09:48:50.000Z</time>
      </trkpt>
      <trkpt lat="47.24683" lon="-2.28543">
        <ele>16.39999961853</ele>
        <time>2021-01-10T09:48:52.000Z</time>
      </trkpt>
      <trkpt lat="47.24693" lon="-2.28551">
        <ele>16.39999961853</ele>
        <time>2021-01-10T09:48:55.000Z</time>
      </trkpt>
      <trkpt lat="47.24709" lon="-2.28564">
        <ele>17</ele>
        <time>2021-01-10T09:48:59.000Z</time>
      </trkpt>
      <trkpt lat="47.24713" lon="-2.28567">
        <ele>17.39999961853</ele>
        <time>2021-01-10T09:49:00.000Z</time>
      </trkpt>
      <trkpt lat="47.24716" lon="-2.28569">
        <ele>17.799999237061</ele>
        <time>2021-01-10T09:49:01.000Z</time>
      </trkpt>
      <trkpt lat="47.2472" lon="-2.28572">
        <ele>18.200000762939</ele>
        <time>2021-01-10T09:49:02.000Z</time>
      </trkpt>
      <trkpt lat="47.24725" lon="-2.28573">
        <ele>18.60000038147</ele>
        <time>2021-01-10T09:49:03.000Z</time>
      </trkpt>
      <trkpt lat="47.24735" lon="-2.28572">
        <ele>18.60000038147</ele>
        <time>2021-01-10T09:49:05.000Z</time>
      </trkpt>
      <trkpt lat="47.24748" lon="-2.28559">
        <ele>18.60000038147</ele>
        <time>2021-01-10T09:49:08.000Z</time>
      </trkpt>
      <trkpt lat="47.24753" lon="-2.28554">
        <ele>18.60000038147</ele>
        <time>2021-01-10T09:49:09.000Z</time>
      </trkpt>
      <trkpt lat="47.24771" lon="-2.28536">
        <ele>19</ele>
        <time>2021-01-10T09:49:13.000Z</time>
      </trkpt>
      <trkpt lat="47.24775" lon="-2.28531">
        <ele>19.39999961853</ele>
        <time>2021-01-10T09:49:14.000Z</time>
      </trkpt>
      <trkpt lat="47.24779" lon="-2.28527">
        <ele>19.799999237061</ele>
        <time>2021-01-10T09:49:15.000Z</time>
      </trkpt>
      <trkpt lat="47.24783" lon="-2.28523">
        <ele>20.200000762939</ele>
        <time>2021-01-10T09:49:16.000Z</time>
      </trkpt>
      <trkpt lat="47.24785" lon="-2.28521">
        <ele>20.60000038147</ele>
        <time>2021-01-10T09:49:17.000Z</time>
      </trkpt>
      <trkpt lat="47.24794" lon="-2.28513">
        <ele>20.200000762939</ele>
        <time>2021-01-10T09:49:21.000Z</time>
      </trkpt>
      <trkpt lat="47.24797" lon="-2.2851">
        <ele>19.799999237061</ele>
        <time>2021-01-10T09:49:22.000Z</time>
      </trkpt>
      <trkpt lat="47.24801" lon="-2.28507">
        <ele>19.39999961853</ele>
        <time>2021-01-10T09:49:23.000Z</time>
      </trkpt>
      <trkpt lat="47.24804" lon="-2.28505">
        <ele>19</ele>
        <time>2021-01-10T09:49:24.000Z</time>
      </trkpt>
      <trkpt lat="47.24808" lon="-2.28503">
        <ele>18.60000038147</ele>
        <time>2021-01-10T09:49:25.000Z</time>
      </trkpt>
      <trkpt lat="47.24825" lon="-2.28491">
        <ele>18.60000038147</ele>
        <time>2021-01-10T09:49:29.000Z</time>
      </trkpt>
      <trkpt lat="47.2485" lon="-2.28469">
        <ele>18.60000038147</ele>
        <time>2021-01-10T09:49:35.000Z</time>
      </trkpt>
      <trkpt lat="47.24877" lon="-2.28438">
        <ele>18.60000038147</ele>
        <time>2021-01-10T09:49:41.000Z</time>
      </trkpt>
      <trkpt lat="47.24882" lon="-2.28434">
        <ele>18.60000038147</ele>
        <time>2021-01-10T09:49:42.000Z</time>
      </trkpt>
      <trkpt lat="47.24892" lon="-2.28426">
        <ele>18</ele>
        <time>2021-01-10T09:49:44.000Z</time>
      </trkpt>
      <trkpt lat="47.24898" lon="-2.28422">
        <ele>17.60000038147</ele>
        <time>2021-01-10T09:49:45.000Z</time>
      </trkpt>
      <trkpt lat="47.24904" lon="-2.28419">
        <ele>17.200000762939</ele>
        <time>2021-01-10T09:49:46.000Z</time>
      </trkpt>
      <trkpt lat="47.2491" lon="-2.28416">
        <ele>16.60000038147</ele>
        <time>2021-01-10T09:49:47.000Z</time>
      </trkpt>
      <trkpt lat="47.24917" lon="-2.28414">
        <ele>16.200000762939</ele>
        <time>2021-01-10T09:49:48.000Z</time>
      </trkpt>
      <trkpt lat="47.24949" lon="-2.28403">
        <ele>15.60000038147</ele>
        <time>2021-01-10T09:49:53.000Z</time>
      </trkpt>
      <trkpt lat="47.24955" lon="-2.284">
        <ele>15.199999809265</ele>
        <time>2021-01-10T09:49:54.000Z</time>
      </trkpt>
      <trkpt lat="47.24962" lon="-2.28396">
        <ele>14.60000038147</ele>
        <time>2021-01-10T09:49:55.000Z</time>
      </trkpt>
      <trkpt lat="47.24968" lon="-2.28392">
        <ele>14</ele>
        <time>2021-01-10T09:49:56.000Z</time>
      </trkpt>
      <trkpt lat="47.24973" lon="-2.28386">
        <ele>13.39999961853</ele>
        <time>2021-01-10T09:49:57.000Z</time>
      </trkpt>
      <trkpt lat="47.24977" lon="-2.28382">
        <ele>12.800000190735</ele>
        <time>2021-01-10T09:49:58.000Z</time>
      </trkpt>
      <trkpt lat="47.24979" lon="-2.28378">
        <ele>12.199999809265</ele>
        <time>2021-01-10T09:49:59.000Z</time>
      </trkpt>
      <trkpt lat="47.2498" lon="-2.28375">
        <ele>11.60000038147</ele>
        <time>2021-01-10T09:50:00.000Z</time>
      </trkpt>
      <trkpt lat="47.24982" lon="-2.28372">
        <ele>11.199999809265</ele>
        <time>2021-01-10T09:50:01.000Z</time>
      </trkpt>
      <trkpt lat="47.24983" lon="-2.28369">
        <ele>10.800000190735</ele>
        <time>2021-01-10T09:50:02.000Z</time>
      </trkpt>
      <trkpt lat="47.24984" lon="-2.28366">
        <ele>10.39999961853</ele>
        <time>2021-01-10T09:50:03.000Z</time>
      </trkpt>
      <trkpt lat="47.24986" lon="-2.28363">
        <ele>10</ele>
        <time>2021-01-10T09:50:04.000Z</time>
      </trkpt>
      <trkpt lat="47.24987" lon="-2.28361">
        <ele>9.6000003814697</ele>
        <time>2021-01-10T09:50:05.000Z</time>
      </trkpt>
      <trkpt lat="47.2499" lon="-2.28355">
        <ele>9.6000003814697</ele>
        <time>2021-01-10T09:50:07.000Z</time>
      </trkpt>
      <trkpt lat="47.25007" lon="-2.28335">
        <ele>9.6000003814697</ele>
        <time>2021-01-10T09:50:14.000Z</time>
      </trkpt>
      <trkpt lat="47.25022" lon="-2.28321">
        <ele>9.6000003814697</ele>
        <time>2021-01-10T09:50:19.000Z</time>
      </trkpt>
      <trkpt lat="47.25024" lon="-2.28319">
        <ele>10</ele>
        <time>2021-01-10T09:50:20.000Z</time>
      </trkpt>
      <trkpt lat="47.25026" lon="-2.28316">
        <ele>10.39999961853</ele>
        <time>2021-01-10T09:50:21.000Z</time>
      </trkpt>
      <trkpt lat="47.25027" lon="-2.28314">
        <ele>10.800000190735</ele>
        <time>2021-01-10T09:50:22.000Z</time>
      </trkpt>
      <trkpt lat="47.25027" lon="-2.2831">
        <ele>11.199999809265</ele>
        <time>2021-01-10T09:50:23.000Z</time>
      </trkpt>
      <trkpt lat="47.25027" lon="-2.28306">
        <ele>11.60000038147</ele>
        <time>2021-01-10T09:50:24.000Z</time>
      </trkpt>
      <trkpt lat="47.25028" lon="-2.28287">
        <ele>11.60000038147</ele>
        <time>2021-01-10T09:50:27.000Z</time>
      </trkpt>
      <trkpt lat="47.25029" lon="-2.28274">
        <ele>12</ele>
        <time>2021-01-10T09:50:29.000Z</time>
      </trkpt>
      <trkpt lat="47.2503" lon="-2.28266">
        <ele>12.39999961853</ele>
        <time>2021-01-10T09:50:30.000Z</time>
      </trkpt>
      <trkpt lat="47.25031" lon="-2.28259">
        <ele>13.39999961853</ele>
        <time>2021-01-10T09:50:31.000Z</time>
      </trkpt>
      <trkpt lat="47.25033" lon="-2.28253">
        <ele>13.800000190735</ele>
        <time>2021-01-10T09:50:32.000Z</time>
      </trkpt>
      <trkpt lat="47.25034" lon="-2.28247">
        <ele>13.800000190735</ele>
        <time>2021-01-10T09:50:33.000Z</time>
      </trkpt>
      <trkpt lat="47.25042" lon="-2.28212">
        <ele>13.800000190735</ele>
        <time>2021-01-10T09:50:38.000Z</time>
      </trkpt>
      <trkpt lat="47.25053" lon="-2.28171">
        <ele>13.800000190735</ele>
        <time>2021-01-10T09:50:44.000Z</time>
      </trkpt>
      <trkpt lat="47.25064" lon="-2.28136">
        <ele>13.800000190735</ele>
        <time>2021-01-10T09:50:50.000Z</time>
      </trkpt>
      <trkpt lat="47.25069" lon="-2.28119">
        <ele>13.800000190735</ele>
        <time>2021-01-10T09:50:53.000Z</time>
      </trkpt>
      <trkpt lat="47.25069" lon="-2.28101">
        <ele>13.800000190735</ele>
        <time>2021-01-10T09:50:56.000Z</time>
      </trkpt>
      <trkpt lat="47.25077" lon="-2.28075">
        <ele>13.800000190735</ele>
        <time>2021-01-10T09:51:00.000Z</time>
      </trkpt>
      <trkpt lat="47.25081" lon="-2.28068">
        <ele>13.800000190735</ele>
        <time>2021-01-10T09:51:01.000Z</time>
      </trkpt>
      <trkpt lat="47.25095" lon="-2.28033">
        <ele>13.800000190735</ele>
        <time>2021-01-10T09:51:06.000Z</time>
      </trkpt>
      <trkpt lat="47.25098" lon="-2.28026">
        <ele>14.199999809265</ele>
        <time>2021-01-10T09:51:07.000Z</time>
      </trkpt>
      <trkpt lat="47.25101" lon="-2.2802">
        <ele>14.60000038147</ele>
        <time>2021-01-10T09:51:08.000Z</time>
      </trkpt>
      <trkpt lat="47.25104" lon="-2.28013">
        <ele>15</ele>
        <time>2021-01-10T09:51:09.000Z</time>
      </trkpt>
      <trkpt lat="47.25107" lon="-2.28006">
        <ele>15.39999961853</ele>
        <time>2021-01-10T09:51:10.000Z</time>
      </trkpt>
      <trkpt lat="47.2511" lon="-2.28">
        <ele>15.800000190735</ele>
        <time>2021-01-10T09:51:11.000Z</time>
      </trkpt>
      <trkpt lat="47.25113" lon="-2.27994">
        <ele>15.800000190735</ele>
        <time>2021-01-10T09:51:12.000Z</time>
      </trkpt>
      <trkpt lat="47.25128" lon="-2.27971">
        <ele>15.800000190735</ele>
        <time>2021-01-10T09:51:16.000Z</time>
      </trkpt>
      <trkpt lat="47.25132" lon="-2.27966">
        <ele>15.800000190735</ele>
        <time>2021-01-10T09:51:17.000Z</time>
      </trkpt>
      <trkpt lat="47.25136" lon="-2.27962">
        <ele>15.800000190735</ele>
        <time>2021-01-10T09:51:18.000Z</time>
      </trkpt>
      <trkpt lat="47.25157" lon="-2.27944">
        <ele>15.800000190735</ele>
        <time>2021-01-10T09:51:23.000Z</time>
      </trkpt>
      <trkpt lat="47.25179" lon="-2.27929">
        <ele>15.800000190735</ele>
        <time>2021-01-10T09:51:28.000Z</time>
      </trkpt>
      <trkpt lat="47.25184" lon="-2.27925">
        <ele>16.39999961853</ele>
        <time>2021-01-10T09:51:29.000Z</time>
      </trkpt>
      <trkpt lat="47.25188" lon="-2.27921">
        <ele>16.799999237061</ele>
        <time>2021-01-10T09:51:30.000Z</time>
      </trkpt>
      <trkpt lat="47.25193" lon="-2.27917">
        <ele>17.200000762939</ele>
        <time>2021-01-10T09:51:31.000Z</time>
      </trkpt>
      <trkpt lat="47.25197" lon="-2.27914">
        <ele>17.60000038147</ele>
        <time>2021-01-10T09:51:32.000Z</time>
      </trkpt>
      <trkpt lat="47.25202" lon="-2.27911">
        <ele>18</ele>
        <time>2021-01-10T09:51:33.000Z</time>
      </trkpt>
      <trkpt lat="47.25211" lon="-2.27906">
        <ele>18</ele>
        <time>2021-01-10T09:51:35.000Z</time>
      </trkpt>
      <trkpt lat="47.25239" lon="-2.27891">
        <ele>18</ele>
        <time>2021-01-10T09:51:41.000Z</time>
      </trkpt>
      <trkpt lat="47.25258" lon="-2.27882">
        <ele>18.60000038147</ele>
        <time>2021-01-10T09:51:45.000Z</time>
      </trkpt>
      <trkpt lat="47.25263" lon="-2.27879">
        <ele>19</ele>
        <time>2021-01-10T09:51:46.000Z</time>
      </trkpt>
      <trkpt lat="47.25268" lon="-2.27878">
        <ele>19.39999961853</ele>
        <time>2021-01-10T09:51:47.000Z</time>
      </trkpt>
      <trkpt lat="47.25273" lon="-2.27876">
        <ele>19.799999237061</ele>
        <time>2021-01-10T09:51:48.000Z</time>
      </trkpt>
      <trkpt lat="47.25278" lon="-2.27875">
        <ele>20.39999961853</ele>
        <time>2021-01-10T09:51:49.000Z</time>
      </trkpt>
      <trkpt lat="47.2531" lon="-2.27869">
        <ele>20.39999961853</ele>
        <time>2021-01-10T09:51:55.000Z</time>
      </trkpt>
      <trkpt lat="47.25349" lon="-2.27861">
        <ele>20.39999961853</ele>
        <time>2021-01-10T09:52:03.000Z</time>
      </trkpt>
      <trkpt lat="47.25374" lon="-2.27853">
        <ele>20.799999237061</ele>
        <time>2021-01-10T09:52:08.000Z</time>
      </trkpt>
      <trkpt lat="47.25379" lon="-2.27851">
        <ele>21.200000762939</ele>
        <time>2021-01-10T09:52:10.000Z</time>
      </trkpt>
      <trkpt lat="47.25383" lon="-2.2785">
        <ele>22</ele>
        <time>2021-01-10T09:52:11.000Z</time>
      </trkpt>
      <trkpt lat="47.25387" lon="-2.27848">
        <ele>22.39999961853</ele>
        <time>2021-01-10T09:52:12.000Z</time>
      </trkpt>
      <trkpt lat="47.25406" lon="-2.27838">
        <ele>22.39999961853</ele>
        <time>2021-01-10T09:52:16.000Z</time>
      </trkpt>
      <trkpt lat="47.25427" lon="-2.27824">
        <ele>22.39999961853</ele>
        <time>2021-01-10T09:52:21.000Z</time>
      </trkpt>
      <trkpt lat="47.2545" lon="-2.27803">
        <ele>22.39999961853</ele>
        <time>2021-01-10T09:52:26.000Z</time>
      </trkpt>
      <trkpt lat="47.25458" lon="-2.27794">
        <ele>22.39999961853</ele>
        <time>2021-01-10T09:52:28.000Z</time>
      </trkpt>
      <trkpt lat="47.25468" lon="-2.27779">
        <ele>22.39999961853</ele>
        <time>2021-01-10T09:52:31.000Z</time>
      </trkpt>
      <trkpt lat="47.25476" lon="-2.2777">
        <ele>22.799999237061</ele>
        <time>2021-01-10T09:52:33.000Z</time>
      </trkpt>
      <trkpt lat="47.25479" lon="-2.27766">
        <ele>23.200000762939</ele>
        <time>2021-01-10T09:52:34.000Z</time>
      </trkpt>
      <trkpt lat="47.25482" lon="-2.27763">
        <ele>24</ele>
        <time>2021-01-10T09:52:35.000Z</time>
      </trkpt>
      <trkpt lat="47.25486" lon="-2.2776">
        <ele>24.39999961853</ele>
        <time>2021-01-10T09:52:36.000Z</time>
      </trkpt>
      <trkpt lat="47.25492" lon="-2.27754">
        <ele>24.39999961853</ele>
        <time>2021-01-10T09:52:38.000Z</time>
      </trkpt>
      <trkpt lat="47.25499" lon="-2.27742">
        <ele>24.39999961853</ele>
        <time>2021-01-10T09:52:43.000Z</time>
      </trkpt>
      <trkpt lat="47.25497" lon="-2.27726">
        <ele>24.39999961853</ele>
        <time>2021-01-10T09:52:49.000Z</time>
      </trkpt>
      <trkpt lat="47.25498" lon="-2.27707">
        <ele>24.39999961853</ele>
        <time>2021-01-10T09:52:57.000Z</time>
      </trkpt>
      <trkpt lat="47.25493" lon="-2.27698">
        <ele>24.39999961853</ele>
        <time>2021-01-10T09:53:04.000Z</time>
      </trkpt>
      <trkpt lat="47.25493" lon="-2.27694">
        <ele>24.39999961853</ele>
        <time>2021-01-10T09:53:07.000Z</time>
      </trkpt>
      <trkpt lat="47.25493" lon="-2.27692">
        <ele>24.39999961853</ele>
        <time>2021-01-10T09:53:08.000Z</time>
      </trkpt>
      <trkpt lat="47.25492" lon="-2.27687">
        <ele>24.39999961853</ele>
        <time>2021-01-10T09:53:10.000Z</time>
      </trkpt>
      <trkpt lat="47.25488" lon="-2.27669">
        <ele>24.39999961853</ele>
        <time>2021-01-10T09:53:16.000Z</time>
      </trkpt>
      <trkpt lat="47.25482" lon="-2.27636">
        <ele>24.39999961853</ele>
        <time>2021-01-10T09:53:24.000Z</time>
      </trkpt>
      <trkpt lat="47.2547" lon="-2.27612">
        <ele>24.39999961853</ele>
        <time>2021-01-10T09:53:30.000Z</time>
      </trkpt>
      <trkpt lat="47.25463" lon="-2.27593">
        <ele>24.39999961853</ele>
        <time>2021-01-10T09:53:34.000Z</time>
      </trkpt>
      <trkpt lat="47.25458" lon="-2.27565">
        <ele>24.39999961853</ele>
        <time>2021-01-10T09:53:39.000Z</time>
      </trkpt>
      <trkpt lat="47.25449" lon="-2.27531">
        <ele>24.39999961853</ele>
        <time>2021-01-10T09:53:45.000Z</time>
      </trkpt>
      <trkpt lat="47.25442" lon="-2.27509">
        <ele>24.39999961853</ele>
        <time>2021-01-10T09:53:50.000Z</time>
      </trkpt>
      <trkpt lat="47.25439" lon="-2.27504">
        <ele>24.39999961853</ele>
        <time>2021-01-10T09:53:51.000Z</time>
      </trkpt>
      <trkpt lat="47.25428" lon="-2.2749">
        <ele>24.39999961853</ele>
        <time>2021-01-10T09:53:54.000Z</time>
      </trkpt>
      <trkpt lat="47.25419" lon="-2.27464">
        <ele>24.39999961853</ele>
        <time>2021-01-10T09:53:58.000Z</time>
      </trkpt>
      <trkpt lat="47.25404" lon="-2.27424">
        <ele>24.39999961853</ele>
        <time>2021-01-10T09:54:04.000Z</time>
      </trkpt>
      <trkpt lat="47.25396" lon="-2.27396">
        <ele>24.39999961853</ele>
        <time>2021-01-10T09:54:09.000Z</time>
      </trkpt>
      <trkpt lat="47.25387" lon="-2.27377">
        <ele>24.39999961853</ele>
        <time>2021-01-10T09:54:15.000Z</time>
      </trkpt>
      <trkpt lat="47.25372" lon="-2.2737">
        <ele>24.39999961853</ele>
        <time>2021-01-10T09:54:19.000Z</time>
      </trkpt>
      <trkpt lat="47.2537" lon="-2.27366">
        <ele>24.39999961853</ele>
        <time>2021-01-10T09:54:20.000Z</time>
      </trkpt>
      <trkpt lat="47.25368" lon="-2.27356">
        <ele>24.39999961853</ele>
        <time>2021-01-10T09:54:22.000Z</time>
      </trkpt>
      <trkpt lat="47.25366" lon="-2.27347">
        <ele>24.39999961853</ele>
        <time>2021-01-10T09:54:24.000Z</time>
      </trkpt>
      <trkpt lat="47.25359" lon="-2.27344">
        <ele>24.39999961853</ele>
        <time>2021-01-10T09:54:26.000Z</time>
      </trkpt>
      <trkpt lat="47.25352" lon="-2.27338">
        <ele>24.39999961853</ele>
        <time>2021-01-10T09:54:28.000Z</time>
      </trkpt>
      <trkpt lat="47.25345" lon="-2.2733">
        <ele>24.39999961853</ele>
        <time>2021-01-10T09:54:30.000Z</time>
      </trkpt>
      <trkpt lat="47.25343" lon="-2.27325">
        <ele>24.39999961853</ele>
        <time>2021-01-10T09:54:31.000Z</time>
      </trkpt>
      <trkpt lat="47.25345" lon="-2.27309">
        <ele>24.39999961853</ele>
        <time>2021-01-10T09:54:34.000Z</time>
      </trkpt>
      <trkpt lat="47.25342" lon="-2.27293">
        <ele>24.39999961853</ele>
        <time>2021-01-10T09:54:37.000Z</time>
      </trkpt>
      <trkpt lat="47.25339" lon="-2.27283">
        <ele>24.39999961853</ele>
        <time>2021-01-10T09:54:39.000Z</time>
      </trkpt>
      <trkpt lat="47.25328" lon="-2.27268">
        <ele>24.39999961853</ele>
        <time>2021-01-10T09:54:43.000Z</time>
      </trkpt>
      <trkpt lat="47.25312" lon="-2.27248">
        <ele>24.39999961853</ele>
        <time>2021-01-10T09:54:48.000Z</time>
      </trkpt>
      <trkpt lat="47.25306" lon="-2.27238">
        <ele>24.39999961853</ele>
        <time>2021-01-10T09:54:50.000Z</time>
      </trkpt>
      <trkpt lat="47.25301" lon="-2.27227">
        <ele>24.39999961853</ele>
        <time>2021-01-10T09:54:52.000Z</time>
      </trkpt>
      <trkpt lat="47.25296" lon="-2.27212">
        <ele>24.39999961853</ele>
        <time>2021-01-10T09:54:55.000Z</time>
      </trkpt>
      <trkpt lat="47.25292" lon="-2.272">
        <ele>24.39999961853</ele>
        <time>2021-01-10T09:54:57.000Z</time>
      </trkpt>
      <trkpt lat="47.25287" lon="-2.27188">
        <ele>24.39999961853</ele>
        <time>2021-01-10T09:54:59.000Z</time>
      </trkpt>
      <trkpt lat="47.25281" lon="-2.27178">
        <ele>24.39999961853</ele>
        <time>2021-01-10T09:55:01.000Z</time>
      </trkpt>
      <trkpt lat="47.25259" lon="-2.27143">
        <ele>24.39999961853</ele>
        <time>2021-01-10T09:55:08.000Z</time>
      </trkpt>
      <trkpt lat="47.25244" lon="-2.27124">
        <ele>24.39999961853</ele>
        <time>2021-01-10T09:55:12.000Z</time>
      </trkpt>
      <trkpt lat="47.25224" lon="-2.27087">
        <ele>24.39999961853</ele>
        <time>2021-01-10T09:55:18.000Z</time>
      </trkpt>
      <trkpt lat="47.25204" lon="-2.27052">
        <ele>24.39999961853</ele>
        <time>2021-01-10T09:55:24.000Z</time>
      </trkpt>
      <trkpt lat="47.25201" lon="-2.27046">
        <ele>24.39999961853</ele>
        <time>2021-01-10T09:55:25.000Z</time>
      </trkpt>
      <trkpt lat="47.25197" lon="-2.27035">
        <ele>24.39999961853</ele>
        <time>2021-01-10T09:55:27.000Z</time>
      </trkpt>
      <trkpt lat="47.2519" lon="-2.27021">
        <ele>24.39999961853</ele>
        <time>2021-01-10T09:55:30.000Z</time>
      </trkpt>
      <trkpt lat="47.25185" lon="-2.27005">
        <ele>24.39999961853</ele>
        <time>2021-01-10T09:55:33.000Z</time>
      </trkpt>
      <trkpt lat="47.25183" lon="-2.2698">
        <ele>24.39999961853</ele>
        <time>2021-01-10T09:55:37.000Z</time>
      </trkpt>
      <trkpt lat="47.25181" lon="-2.26976">
        <ele>24.39999961853</ele>
        <time>2021-01-10T09:55:38.000Z</time>
      </trkpt>
      <trkpt lat="47.25176" lon="-2.26977">
        <ele>24.39999961853</ele>
        <time>2021-01-10T09:55:40.000Z</time>
      </trkpt>
      <trkpt lat="47.25166" lon="-2.26966">
        <ele>24.39999961853</ele>
        <time>2021-01-10T09:55:44.000Z</time>
      </trkpt>
      <trkpt lat="47.25164" lon="-2.26961">
        <ele>24.39999961853</ele>
        <time>2021-01-10T09:55:45.000Z</time>
      </trkpt>
      <trkpt lat="47.25155" lon="-2.26952">
        <ele>24.39999961853</ele>
        <time>2021-01-10T09:55:48.000Z</time>
      </trkpt>
      <trkpt lat="47.2515" lon="-2.26949">
        <ele>24.39999961853</ele>
        <time>2021-01-10T09:55:49.000Z</time>
      </trkpt>
      <trkpt lat="47.2514" lon="-2.26938">
        <ele>24.39999961853</ele>
        <time>2021-01-10T09:55:52.000Z</time>
      </trkpt>
      <trkpt lat="47.25137" lon="-2.26932">
        <ele>25.39999961853</ele>
        <time>2021-01-10T09:55:53.000Z</time>
      </trkpt>
      <trkpt lat="47.25134" lon="-2.26925">
        <ele>25.799999237061</ele>
        <time>2021-01-10T09:55:54.000Z</time>
      </trkpt>
      <trkpt lat="47.25132" lon="-2.26918">
        <ele>26.200000762939</ele>
        <time>2021-01-10T09:55:55.000Z</time>
      </trkpt>
      <trkpt lat="47.2513" lon="-2.26912">
        <ele>26.60000038147</ele>
        <time>2021-01-10T09:55:56.000Z</time>
      </trkpt>
      <trkpt lat="47.25127" lon="-2.26906">
        <ele>26.60000038147</ele>
        <time>2021-01-10T09:55:57.000Z</time>
      </trkpt>
      <trkpt lat="47.25115" lon="-2.269">
        <ele>26.60000038147</ele>
        <time>2021-01-10T09:56:00.000Z</time>
      </trkpt>
      <trkpt lat="47.2511" lon="-2.26899">
        <ele>26.60000038147</ele>
        <time>2021-01-10T09:56:01.000Z</time>
      </trkpt>
      <trkpt lat="47.25106" lon="-2.26896">
        <ele>26.60000038147</ele>
        <time>2021-01-10T09:56:02.000Z</time>
      </trkpt>
      <trkpt lat="47.25099" lon="-2.26889">
        <ele>26.60000038147</ele>
        <time>2021-01-10T09:56:04.000Z</time>
      </trkpt>
      <trkpt lat="47.25081" lon="-2.26868">
        <ele>26.60000038147</ele>
        <time>2021-01-10T09:56:09.000Z</time>
      </trkpt>
      <trkpt lat="47.25064" lon="-2.26863">
        <ele>26.60000038147</ele>
        <time>2021-01-10T09:56:13.000Z</time>
      </trkpt>
      <trkpt lat="47.25052" lon="-2.26861">
        <ele>26.60000038147</ele>
        <time>2021-01-10T09:56:17.000Z</time>
      </trkpt>
      <trkpt lat="47.2505" lon="-2.26861">
        <ele>26.60000038147</ele>
        <time>2021-01-10T09:56:18.000Z</time>
      </trkpt>
      <trkpt lat="47.25029" lon="-2.26867">
        <ele>26.60000038147</ele>
        <time>2021-01-10T09:56:23.000Z</time>
      </trkpt>
      <trkpt lat="47.25002" lon="-2.26874">
        <ele>26.60000038147</ele>
        <time>2021-01-10T09:56:29.000Z</time>
      </trkpt>
      <trkpt lat="47.24983" lon="-2.26876">
        <ele>26.60000038147</ele>
        <time>2021-01-10T09:56:33.000Z</time>
      </trkpt>
      <trkpt lat="47.24973" lon="-2.26871">
        <ele>26.60000038147</ele>
        <time>2021-01-10T09:56:35.000Z</time>
      </trkpt>
      <trkpt lat="47.24953" lon="-2.26853">
        <ele>26.60000038147</ele>
        <time>2021-01-10T09:56:40.000Z</time>
      </trkpt>
      <trkpt lat="47.24943" lon="-2.26849">
        <ele>26.60000038147</ele>
        <time>2021-01-10T09:56:42.000Z</time>
      </trkpt>
      <trkpt lat="47.2493" lon="-2.26841">
        <ele>26.200000762939</ele>
        <time>2021-01-10T09:56:45.000Z</time>
      </trkpt>
      <trkpt lat="47.24926" lon="-2.26837">
        <ele>25.799999237061</ele>
        <time>2021-01-10T09:56:46.000Z</time>
      </trkpt>
      <trkpt lat="47.24922" lon="-2.26834">
        <ele>25.39999961853</ele>
        <time>2021-01-10T09:56:47.000Z</time>
      </trkpt>
      <trkpt lat="47.24917" lon="-2.26832">
        <ele>25</ele>
        <time>2021-01-10T09:56:48.000Z</time>
      </trkpt>
      <trkpt lat="47.24913" lon="-2.26829">
        <ele>24.60000038147</ele>
        <time>2021-01-10T09:56:49.000Z</time>
      </trkpt>
      <trkpt lat="47.24908" lon="-2.26827">
        <ele>24.60000038147</ele>
        <time>2021-01-10T09:56:50.000Z</time>
      </trkpt>
      <trkpt lat="47.24891" lon="-2.26821">
        <ele>24.60000038147</ele>
        <time>2021-01-10T09:56:54.000Z</time>
      </trkpt>
      <trkpt lat="47.24886" lon="-2.26819">
        <ele>24.60000038147</ele>
        <time>2021-01-10T09:56:55.000Z</time>
      </trkpt>
      <trkpt lat="47.24866" lon="-2.2681">
        <ele>24.60000038147</ele>
        <time>2021-01-10T09:56:59.000Z</time>
      </trkpt>
      <trkpt lat="47.2486" lon="-2.26808">
        <ele>24.60000038147</ele>
        <time>2021-01-10T09:57:00.000Z</time>
      </trkpt>
      <trkpt lat="47.24842" lon="-2.26803">
        <ele>24.60000038147</ele>
        <time>2021-01-10T09:57:03.000Z</time>
      </trkpt>
      <trkpt lat="47.24836" lon="-2.26803">
        <ele>24.60000038147</ele>
        <time>2021-01-10T09:57:04.000Z</time>
      </trkpt>
      <trkpt lat="47.24823" lon="-2.26801">
        <ele>24.200000762939</ele>
        <time>2021-01-10T09:57:06.000Z</time>
      </trkpt>
      <trkpt lat="47.24817" lon="-2.26799">
        <ele>23.39999961853</ele>
        <time>2021-01-10T09:57:07.000Z</time>
      </trkpt>
      <trkpt lat="47.2481" lon="-2.26798">
        <ele>23</ele>
        <time>2021-01-10T09:57:08.000Z</time>
      </trkpt>
      <trkpt lat="47.24803" lon="-2.26796">
        <ele>22.60000038147</ele>
        <time>2021-01-10T09:57:09.000Z</time>
      </trkpt>
      <trkpt lat="47.24783" lon="-2.26786">
        <ele>22.60000038147</ele>
        <time>2021-01-10T09:57:13.000Z</time>
      </trkpt>
      <trkpt lat="47.24777" lon="-2.26785">
        <ele>22.200000762939</ele>
        <time>2021-01-10T09:57:15.000Z</time>
      </trkpt>
      <trkpt lat="47.24773" lon="-2.26785">
        <ele>21.799999237061</ele>
        <time>2021-01-10T09:57:16.000Z</time>
      </trkpt>
      <trkpt lat="47.24768" lon="-2.26784">
        <ele>21.39999961853</ele>
        <time>2021-01-10T09:57:17.000Z</time>
      </trkpt>
      <trkpt lat="47.24763" lon="-2.26783">
        <ele>21</ele>
        <time>2021-01-10T09:57:18.000Z</time>
      </trkpt>
      <trkpt lat="47.24757" lon="-2.26781">
        <ele>20.60000038147</ele>
        <time>2021-01-10T09:57:19.000Z</time>
      </trkpt>
      <trkpt lat="47.2475" lon="-2.26781">
        <ele>20.60000038147</ele>
        <time>2021-01-10T09:57:20.000Z</time>
      </trkpt>
      <trkpt lat="47.24744" lon="-2.26781">
        <ele>20.60000038147</ele>
        <time>2021-01-10T09:57:21.000Z</time>
      </trkpt>
      <trkpt lat="47.24708" lon="-2.2678">
        <ele>20.60000038147</ele>
        <time>2021-01-10T09:57:26.000Z</time>
      </trkpt>
      <trkpt lat="47.24701" lon="-2.26781">
        <ele>20.60000038147</ele>
        <time>2021-01-10T09:57:27.000Z</time>
      </trkpt>
      <trkpt lat="47.24691" lon="-2.26784">
        <ele>20</ele>
        <time>2021-01-10T09:57:29.000Z</time>
      </trkpt>
      <trkpt lat="47.24686" lon="-2.26784">
        <ele>19.60000038147</ele>
        <time>2021-01-10T09:57:30.000Z</time>
      </trkpt>
      <trkpt lat="47.24682" lon="-2.26785">
        <ele>19.200000762939</ele>
        <time>2021-01-10T09:57:31.000Z</time>
      </trkpt>
      <trkpt lat="47.24678" lon="-2.2679">
        <ele>18.39999961853</ele>
        <time>2021-01-10T09:57:32.000Z</time>
      </trkpt>
      <trkpt lat="47.24672" lon="-2.26799">
        <ele>18.39999961853</ele>
        <time>2021-01-10T09:57:34.000Z</time>
      </trkpt>
      <trkpt lat="47.24663" lon="-2.26807">
        <ele>18.39999961853</ele>
        <time>2021-01-10T09:57:36.000Z</time>
      </trkpt>
      <trkpt lat="47.24652" lon="-2.26814">
        <ele>18.39999961853</ele>
        <time>2021-01-10T09:57:38.000Z</time>
      </trkpt>
      <trkpt lat="47.24646" lon="-2.26815">
        <ele>18.39999961853</ele>
        <time>2021-01-10T09:57:39.000Z</time>
      </trkpt>
      <trkpt lat="47.24634" lon="-2.2682">
        <ele>17.799999237061</ele>
        <time>2021-01-10T09:57:41.000Z</time>
      </trkpt>
      <trkpt lat="47.24628" lon="-2.26825">
        <ele>17.39999961853</ele>
        <time>2021-01-10T09:57:42.000Z</time>
      </trkpt>
      <trkpt lat="47.24624" lon="-2.2683">
        <ele>16.799999237061</ele>
        <time>2021-01-10T09:57:43.000Z</time>
      </trkpt>
      <trkpt lat="47.2462" lon="-2.26835">
        <ele>16.39999961853</ele>
        <time>2021-01-10T09:57:44.000Z</time>
      </trkpt>
      <trkpt lat="47.24615" lon="-2.26839">
        <ele>16</ele>
        <time>2021-01-10T09:57:45.000Z</time>
      </trkpt>
      <trkpt lat="47.24605" lon="-2.26845">
        <ele>15.60000038147</ele>
        <time>2021-01-10T09:57:47.000Z</time>
      </trkpt>
      <trkpt lat="47.24599" lon="-2.26845">
        <ele>15</ele>
        <time>2021-01-10T09:57:48.000Z</time>
      </trkpt>
      <trkpt lat="47.24593" lon="-2.26844">
        <ele>14.60000038147</ele>
        <time>2021-01-10T09:57:49.000Z</time>
      </trkpt>
      <trkpt lat="47.24587" lon="-2.26844">
        <ele>14.199999809265</ele>
        <time>2021-01-10T09:57:50.000Z</time>
      </trkpt>
      <trkpt lat="47.24581" lon="-2.26847">
        <ele>13.800000190735</ele>
        <time>2021-01-10T09:57:51.000Z</time>
      </trkpt>
      <trkpt lat="47.24576" lon="-2.2685">
        <ele>13.800000190735</ele>
        <time>2021-01-10T09:57:52.000Z</time>
      </trkpt>
      <trkpt lat="47.2456" lon="-2.26863">
        <ele>13.800000190735</ele>
        <time>2021-01-10T09:57:55.000Z</time>
      </trkpt>
      <trkpt lat="47.24551" lon="-2.26871">
        <ele>13.800000190735</ele>
        <time>2021-01-10T09:57:57.000Z</time>
      </trkpt>
      <trkpt lat="47.2454" lon="-2.26883">
        <ele>13.39999961853</ele>
        <time>2021-01-10T09:58:00.000Z</time>
      </trkpt>
      <trkpt lat="47.24537" lon="-2.26886">
        <ele>13</ele>
        <time>2021-01-10T09:58:01.000Z</time>
      </trkpt>
      <trkpt lat="47.24534" lon="-2.2689">
        <ele>12.60000038147</ele>
        <time>2021-01-10T09:58:02.000Z</time>
      </trkpt>
      <trkpt lat="47.24533" lon="-2.26892">
        <ele>12.199999809265</ele>
        <time>2021-01-10T09:58:03.000Z</time>
      </trkpt>
      <trkpt lat="47.24532" lon="-2.26894">
        <ele>11.800000190735</ele>
        <time>2021-01-10T09:58:04.000Z</time>
      </trkpt>
      <trkpt lat="47.24528" lon="-2.26912">
        <ele>11.800000190735</ele>
        <time>2021-01-10T09:58:08.000Z</time>
      </trkpt>
      <trkpt lat="47.24518" lon="-2.26926">
        <ele>11.800000190735</ele>
        <time>2021-01-10T09:58:13.000Z</time>
      </trkpt>
      <trkpt lat="47.24497" lon="-2.2694">
        <ele>11.800000190735</ele>
        <time>2021-01-10T09:58:18.000Z</time>
      </trkpt>
      <trkpt lat="47.24486" lon="-2.26942">
        <ele>11.800000190735</ele>
        <time>2021-01-10T09:58:20.000Z</time>
      </trkpt>
      <trkpt lat="47.24476" lon="-2.2694">
        <ele>11.800000190735</ele>
        <time>2021-01-10T09:58:22.000Z</time>
      </trkpt>
      <trkpt lat="47.24442" lon="-2.26937">
        <ele>11.800000190735</ele>
        <time>2021-01-10T09:58:29.000Z</time>
      </trkpt>
      <trkpt lat="47.24422" lon="-2.26957">
        <ele>11.800000190735</ele>
        <time>2021-01-10T09:58:34.000Z</time>
      </trkpt>
      <trkpt lat="47.24412" lon="-2.26979">
        <ele>11.800000190735</ele>
        <time>2021-01-10T09:58:38.000Z</time>
      </trkpt>
      <trkpt lat="47.24405" lon="-2.26999">
        <ele>11.39999961853</ele>
        <time>2021-01-10T09:58:41.000Z</time>
      </trkpt>
      <trkpt lat="47.24401" lon="-2.27005">
        <ele>11</ele>
        <time>2021-01-10T09:58:42.000Z</time>
      </trkpt>
      <trkpt lat="47.24398" lon="-2.27011">
        <ele>10.60000038147</ele>
        <time>2021-01-10T09:58:43.000Z</time>
      </trkpt>
      <trkpt lat="47.24395" lon="-2.27017">
        <ele>10.199999809265</ele>
        <time>2021-01-10T09:58:44.000Z</time>
      </trkpt>
      <trkpt lat="47.24392" lon="-2.27023">
        <ele>9.8000001907349</ele>
        <time>2021-01-10T09:58:45.000Z</time>
      </trkpt>
      <trkpt lat="47.2438" lon="-2.2704">
        <ele>9.8000001907349</ele>
        <time>2021-01-10T09:58:48.000Z</time>
      </trkpt>
      <trkpt lat="47.24372" lon="-2.2705">
        <ele>9.8000001907349</ele>
        <time>2021-01-10T09:58:50.000Z</time>
      </trkpt>
      <trkpt lat="47.24368" lon="-2.27057">
        <ele>9.8000001907349</ele>
        <time>2021-01-10T09:58:51.000Z</time>
      </trkpt>
      <trkpt lat="47.24344" lon="-2.27078">
        <ele>9.8000001907349</ele>
        <time>2021-01-10T09:58:55.000Z</time>
      </trkpt>
      <trkpt lat="47.24316" lon="-2.27108">
        <ele>9.8000001907349</ele>
        <time>2021-01-10T09:59:00.000Z</time>
      </trkpt>
      <trkpt lat="47.24311" lon="-2.27112">
        <ele>9.8000001907349</ele>
        <time>2021-01-10T09:59:01.000Z</time>
      </trkpt>
      <trkpt lat="47.24298" lon="-2.27114">
        <ele>9.8000001907349</ele>
        <time>2021-01-10T09:59:03.000Z</time>
      </trkpt>
      <trkpt lat="47.24292" lon="-2.27113">
        <ele>9.3999996185303</ele>
        <time>2021-01-10T09:59:04.000Z</time>
      </trkpt>
      <trkpt lat="47.24285" lon="-2.27113">
        <ele>9</ele>
        <time>2021-01-10T09:59:05.000Z</time>
      </trkpt>
      <trkpt lat="47.24279" lon="-2.27113">
        <ele>8.6000003814697</ele>
        <time>2021-01-10T09:59:06.000Z</time>
      </trkpt>
      <trkpt lat="47.24272" lon="-2.27115">
        <ele>8.1999998092651</ele>
        <time>2021-01-10T09:59:07.000Z</time>
      </trkpt>
      <trkpt lat="47.24264" lon="-2.27118">
        <ele>7.8000001907349</ele>
        <time>2021-01-10T09:59:08.000Z</time>
      </trkpt>
      <trkpt lat="47.24242" lon="-2.2713">
        <ele>7.8000001907349</ele>
        <time>2021-01-10T09:59:11.000Z</time>
      </trkpt>
      <trkpt lat="47.24192" lon="-2.27164">
        <ele>7.8000001907349</ele>
        <time>2021-01-10T09:59:19.000Z</time>
      </trkpt>
      <trkpt lat="47.24178" lon="-2.2717">
        <ele>7.4000000953674</ele>
        <time>2021-01-10T09:59:21.000Z</time>
      </trkpt>
      <trkpt lat="47.2417" lon="-2.27173">
        <ele>7</ele>
        <time>2021-01-10T09:59:22.000Z</time>
      </trkpt>
      <trkpt lat="47.24163" lon="-2.27176">
        <ele>6.5999999046326</ele>
        <time>2021-01-10T09:59:23.000Z</time>
      </trkpt>
      <trkpt lat="47.24156" lon="-2.27178">
        <ele>6.1999998092651</ele>
        <time>2021-01-10T09:59:24.000Z</time>
      </trkpt>
      <trkpt lat="47.24149" lon="-2.27182">
        <ele>5.8000001907349</ele>
        <time>2021-01-10T09:59:25.000Z</time>
      </trkpt>
      <trkpt lat="47.24125" lon="-2.2719">
        <ele>5.8000001907349</ele>
        <time>2021-01-10T09:59:29.000Z</time>
      </trkpt>
      <trkpt lat="47.24111" lon="-2.27192">
        <ele>5.8000001907349</ele>
        <time>2021-01-10T09:59:33.000Z</time>
      </trkpt>
      <trkpt lat="47.24104" lon="-2.27191">
        <ele>5.8000001907349</ele>
        <time>2021-01-10T09:59:37.000Z</time>
      </trkpt>
      <trkpt lat="47.24103" lon="-2.27188">
        <ele>5.8000001907349</ele>
        <time>2021-01-10T09:59:38.000Z</time>
      </trkpt>
      <trkpt lat="47.24099" lon="-2.2717">
        <ele>5.8000001907349</ele>
        <time>2021-01-10T09:59:42.000Z</time>
      </trkpt>
      <trkpt lat="47.24102" lon="-2.27139">
        <ele>5.8000001907349</ele>
        <time>2021-01-10T09:59:48.000Z</time>
      </trkpt>
      <trkpt lat="47.24103" lon="-2.27118">
        <ele>5.8000001907349</ele>
        <time>2021-01-10T09:59:53.000Z</time>
      </trkpt>
      <trkpt lat="47.241" lon="-2.27091">
        <ele>5.8000001907349</ele>
        <time>2021-01-10T09:59:59.000Z</time>
      </trkpt>
      <trkpt lat="47.24099" lon="-2.27083">
        <ele>5.4000000953674</ele>
        <time>2021-01-10T10:00:00.000Z</time>
      </trkpt>
      <trkpt lat="47.24099" lon="-2.27076">
        <ele>5</ele>
        <time>2021-01-10T10:00:01.000Z</time>
      </trkpt>
      <trkpt lat="47.24099" lon="-2.27069">
        <ele>4.5999999046326</ele>
        <time>2021-01-10T10:00:02.000Z</time>
      </trkpt>
      <trkpt lat="47.24099" lon="-2.27062">
        <ele>4</ele>
        <time>2021-01-10T10:00:03.000Z</time>
      </trkpt>
      <trkpt lat="47.24099" lon="-2.27055">
        <ele>3.5999999046326</ele>
        <time>2021-01-10T10:00:04.000Z</time>
      </trkpt>
      <trkpt lat="47.24099" lon="-2.27047">
        <ele>3.5999999046326</ele>
        <time>2021-01-10T10:00:05.000Z</time>
      </trkpt>
      <trkpt lat="47.241" lon="-2.27032">
        <ele>3.5999999046326</ele>
        <time>2021-01-10T10:00:07.000Z</time>
      </trkpt>
      <trkpt lat="47.24102" lon="-2.27015">
        <ele>3.5999999046326</ele>
        <time>2021-01-10T10:00:10.000Z</time>
      </trkpt>
      <trkpt lat="47.24099" lon="-2.26974">
        <ele>3.5999999046326</ele>
        <time>2021-01-10T10:00:17.000Z</time>
      </trkpt>
      <trkpt lat="47.241" lon="-2.26968">
        <ele>3.5999999046326</ele>
        <time>2021-01-10T10:00:18.000Z</time>
      </trkpt>
      <trkpt lat="47.24101" lon="-2.26934">
        <ele>3.5999999046326</ele>
        <time>2021-01-10T10:00:23.000Z</time>
      </trkpt>
      <trkpt lat="47.24101" lon="-2.26928">
        <ele>4.1999998092651</ele>
        <time>2021-01-10T10:00:24.000Z</time>
      </trkpt>
      <trkpt lat="47.24101" lon="-2.26921">
        <ele>4.5999999046326</ele>
        <time>2021-01-10T10:00:25.000Z</time>
      </trkpt>
      <trkpt lat="47.24101" lon="-2.26915">
        <ele>5</ele>
        <time>2021-01-10T10:00:26.000Z</time>
      </trkpt>
      <trkpt lat="47.24101" lon="-2.26908">
        <ele>5.4000000953674</ele>
        <time>2021-01-10T10:00:27.000Z</time>
      </trkpt>
      <trkpt lat="47.24101" lon="-2.26902">
        <ele>5.8000001907349</ele>
        <time>2021-01-10T10:00:28.000Z</time>
      </trkpt>
      <trkpt lat="47.24101" lon="-2.26889">
        <ele>6.1999998092651</ele>
        <time>2021-01-10T10:00:30.000Z</time>
      </trkpt>
      <trkpt lat="47.24101" lon="-2.26884">
        <ele>6.8000001907349</ele>
        <time>2021-01-10T10:00:31.000Z</time>
      </trkpt>
      <trkpt lat="47.24101" lon="-2.26879">
        <ele>7.1999998092651</ele>
        <time>2021-01-10T10:00:32.000Z</time>
      </trkpt>
      <trkpt lat="47.24101" lon="-2.26874">
        <ele>7.5999999046326</ele>
        <time>2021-01-10T10:00:33.000Z</time>
      </trkpt>
      <trkpt lat="47.24102" lon="-2.2687">
        <ele>8</ele>
        <time>2021-01-10T10:00:34.000Z</time>
      </trkpt>
      <trkpt lat="47.24103" lon="-2.26859">
        <ele>8</ele>
        <time>2021-01-10T10:00:37.000Z</time>
      </trkpt>
      <trkpt lat="47.24103" lon="-2.26848">
        <ele>8</ele>
        <time>2021-01-10T10:00:43.000Z</time>
      </trkpt>
      <trkpt lat="47.24102" lon="-2.26842">
        <ele>8</ele>
        <time>2021-01-10T10:00:46.000Z</time>
      </trkpt>
      <trkpt lat="47.24099" lon="-2.26839">
        <ele>8</ele>
        <time>2021-01-10T10:00:48.000Z</time>
      </trkpt>
      <trkpt lat="47.24088" lon="-2.2684">
        <ele>8</ele>
        <time>2021-01-10T10:00:51.000Z</time>
      </trkpt>
      <trkpt lat="47.24084" lon="-2.26841">
        <ele>8</ele>
        <time>2021-01-10T10:00:52.000Z</time>
      </trkpt>
      <trkpt lat="47.24074" lon="-2.26842">
        <ele>8.3999996185303</ele>
        <time>2021-01-10T10:00:55.000Z</time>
      </trkpt>
      <trkpt lat="47.24071" lon="-2.26842">
        <ele>8.8000001907349</ele>
        <time>2021-01-10T10:00:56.000Z</time>
      </trkpt>
      <trkpt lat="47.24067" lon="-2.26842">
        <ele>9.1999998092651</ele>
        <time>2021-01-10T10:00:57.000Z</time>
      </trkpt>
      <trkpt lat="47.24064" lon="-2.26843">
        <ele>9.6000003814697</ele>
        <time>2021-01-10T10:00:58.000Z</time>
      </trkpt>
      <trkpt lat="47.24061" lon="-2.26847">
        <ele>10</ele>
        <time>2021-01-10T10:00:59.000Z</time>
      </trkpt>
      <trkpt lat="47.24057" lon="-2.26864">
        <ele>10</ele>
        <time>2021-01-10T10:01:03.000Z</time>
      </trkpt>
      <trkpt lat="47.24053" lon="-2.26896">
        <ele>10</ele>
        <time>2021-01-10T10:01:09.000Z</time>
      </trkpt>
      <trkpt lat="47.24052" lon="-2.26903">
        <ele>10</ele>
        <time>2021-01-10T10:01:11.000Z</time>
      </trkpt>
      <trkpt lat="47.24047" lon="-2.26919">
        <ele>9.6000003814697</ele>
        <time>2021-01-10T10:01:13.000Z</time>
      </trkpt>
      <trkpt lat="47.24046" lon="-2.26927">
        <ele>9</ele>
        <time>2021-01-10T10:01:14.000Z</time>
      </trkpt>
      <trkpt lat="47.24045" lon="-2.26936">
        <ele>8.6000003814697</ele>
        <time>2021-01-10T10:01:15.000Z</time>
      </trkpt>
      <trkpt lat="47.24045" lon="-2.26943">
        <ele>8</ele>
        <time>2021-01-10T10:01:16.000Z</time>
      </trkpt>
      <trkpt lat="47.24045" lon="-2.26951">
        <ele>7.5999999046326</ele>
        <time>2021-01-10T10:01:17.000Z</time>
      </trkpt>
      <trkpt lat="47.24044" lon="-2.26959">
        <ele>7</ele>
        <time>2021-01-10T10:01:18.000Z</time>
      </trkpt>
      <trkpt lat="47.24044" lon="-2.26967">
        <ele>6.5999999046326</ele>
        <time>2021-01-10T10:01:19.000Z</time>
      </trkpt>
      <trkpt lat="47.24045" lon="-2.26974">
        <ele>6.1999998092651</ele>
        <time>2021-01-10T10:01:20.000Z</time>
      </trkpt>
      <trkpt lat="47.24045" lon="-2.26981">
        <ele>5.5999999046326</ele>
        <time>2021-01-10T10:01:21.000Z</time>
      </trkpt>
      <trkpt lat="47.24044" lon="-2.26988">
        <ele>5</ele>
        <time>2021-01-10T10:01:22.000Z</time>
      </trkpt>
      <trkpt lat="47.24043" lon="-2.26993">
        <ele>4.4000000953674</ele>
        <time>2021-01-10T10:01:23.000Z</time>
      </trkpt>
      <trkpt lat="47.2404" lon="-2.26997">
        <ele>3.5999999046326</ele>
        <time>2021-01-10T10:01:24.000Z</time>
      </trkpt>
      <trkpt lat="47.24036" lon="-2.27">
        <ele>3</ele>
        <time>2021-01-10T10:01:25.000Z</time>
      </trkpt>
      <trkpt lat="47.24032" lon="-2.27002">
        <ele>2.2000000476837</ele>
        <time>2021-01-10T10:01:26.000Z</time>
      </trkpt>
      <trkpt lat="47.24026" lon="-2.27004">
        <ele>1.3999999761581</ele>
        <time>2021-01-10T10:01:27.000Z</time>
      </trkpt>
      <trkpt lat="47.24022" lon="-2.27006">
        <ele>0.80000001192093</ele>
        <time>2021-01-10T10:01:28.000Z</time>
      </trkpt>
      <trkpt lat="47.24018" lon="-2.27005">
        <ele>14.2</ele>
        <time>2021-01-10T10:01:29.000Z</time>
      </trkpt>
      <trkpt lat="47.24015" lon="-2.27003">
        <ele>14.2</ele>
        <time>2021-01-10T10:01:30.000Z</time>
      </trkpt>
      <trkpt lat="47.24011" lon="-2.26991">
        <ele>15.1</ele>
        <time>2021-01-10T10:01:33.000Z</time>
      </trkpt>
      <trkpt lat="47.24002" lon="-2.26975">
        <ele>15.8</ele>
        <time>2021-01-10T10:01:37.000Z</time>
      </trkpt>
      <trkpt lat="47.23995" lon="-2.2697">
        <ele>15.7</ele>
        <time>2021-01-10T10:01:39.000Z</time>
      </trkpt>
      <trkpt lat="47.23983" lon="-2.26962">
        <ele>15.3</ele>
        <time>2021-01-10T10:01:42.000Z</time>
      </trkpt>
      <trkpt lat="47.23956" lon="-2.26951">
        <ele>13.5</ele>
        <time>2021-01-10T10:01:49.000Z</time>
      </trkpt>
      <trkpt lat="47.2395" lon="-2.26943">
        <ele>14</ele>
        <time>2021-01-10T10:01:51.000Z</time>
      </trkpt>
      <trkpt lat="47.23949" lon="-2.26937">
        <ele>14.7</ele>
        <time>2021-01-10T10:01:52.000Z</time>
      </trkpt>
      <trkpt lat="47.23945" lon="-2.26911">
        <ele>0.40000000596046</ele>
        <time>2021-01-10T10:01:57.000Z</time>
      </trkpt>
      <trkpt lat="47.23945" lon="-2.26906">
        <ele>0.80000001192093</ele>
        <time>2021-01-10T10:01:58.000Z</time>
      </trkpt>
      <trkpt lat="47.23945" lon="-2.269">
        <ele>1.2000000476837</ele>
        <time>2021-01-10T10:01:59.000Z</time>
      </trkpt>
      <trkpt lat="47.23946" lon="-2.26894">
        <ele>1.6000000238419</ele>
        <time>2021-01-10T10:02:00.000Z</time>
      </trkpt>
      <trkpt lat="47.23947" lon="-2.2689">
        <ele>2</ele>
        <time>2021-01-10T10:02:01.000Z</time>
      </trkpt>
      <trkpt lat="47.23947" lon="-2.26887">
        <ele>2</ele>
        <time>2021-01-10T10:02:02.000Z</time>
      </trkpt>
      <trkpt lat="47.23946" lon="-2.26883">
        <ele>3</ele>
        <time>2021-01-10T10:02:03.000Z</time>
      </trkpt>
      <trkpt lat="47.23946" lon="-2.2688">
        <ele>3.4000000953674</ele>
        <time>2021-01-10T10:02:04.000Z</time>
      </trkpt>
      <trkpt lat="47.23946" lon="-2.26876">
        <ele>3.7999999523163</ele>
        <time>2021-01-10T10:02:05.000Z</time>
      </trkpt>
      <trkpt lat="47.23945" lon="-2.26872">
        <ele>4.1999998092651</ele>
        <time>2021-01-10T10:02:06.000Z</time>
      </trkpt>
      <trkpt lat="47.23944" lon="-2.26867">
        <ele>4.1999998092651</ele>
        <time>2021-01-10T10:02:07.000Z</time>
      </trkpt>
      <trkpt lat="47.23936" lon="-2.26835">
        <ele>4.1999998092651</ele>
        <time>2021-01-10T10:02:13.000Z</time>
      </trkpt>
      <trkpt lat="47.23933" lon="-2.26805">
        <ele>4.1999998092651</ele>
        <time>2021-01-10T10:02:19.000Z</time>
      </trkpt>
      <trkpt lat="47.2393" lon="-2.26788">
        <ele>4.1999998092651</ele>
        <time>2021-01-10T10:02:24.000Z</time>
      </trkpt>
      <trkpt lat="47.23931" lon="-2.26773">
        <ele>4.1999998092651</ele>
        <time>2021-01-10T10:02:29.000Z</time>
      </trkpt>
      <trkpt lat="47.23938" lon="-2.26753">
        <ele>4.1999998092651</ele>
        <time>2021-01-10T10:02:35.000Z</time>
      </trkpt>
      <trkpt lat="47.2395" lon="-2.26739">
        <ele>4.1999998092651</ele>
        <time>2021-01-10T10:02:40.000Z</time>
      </trkpt>
      <trkpt lat="47.23972" lon="-2.26735">
        <ele>4.1999998092651</ele>
        <time>2021-01-10T10:02:46.000Z</time>
      </trkpt>
      <trkpt lat="47.23988" lon="-2.26737">
        <ele>4.5999999046326</ele>
        <time>2021-01-10T10:02:51.000Z</time>
      </trkpt>
      <trkpt lat="47.23991" lon="-2.26738">
        <ele>5.4000000953674</ele>
        <time>2021-01-10T10:02:52.000Z</time>
      </trkpt>
      <trkpt lat="47.23994" lon="-2.26739">
        <ele>5.8000001907349</ele>
        <time>2021-01-10T10:02:53.000Z</time>
      </trkpt>
      <trkpt lat="47.23998" lon="-2.2674">
        <ele>6.1999998092651</ele>
        <time>2021-01-10T10:02:54.000Z</time>
      </trkpt>
      <trkpt lat="47.24016" lon="-2.2674">
        <ele>6.1999998092651</ele>
        <time>2021-01-10T10:03:00.000Z</time>
      </trkpt>
      <trkpt lat="47.2403" lon="-2.26734">
        <ele>6.5999999046326</ele>
        <time>2021-01-10T10:03:05.000Z</time>
      </trkpt>
      <trkpt lat="47.24033" lon="-2.26733">
        <ele>7.1999998092651</ele>
        <time>2021-01-10T10:03:06.000Z</time>
      </trkpt>
      <trkpt lat="47.24035" lon="-2.26731">
        <ele>7.5999999046326</ele>
        <time>2021-01-10T10:03:07.000Z</time>
      </trkpt>
      <trkpt lat="47.24038" lon="-2.2673">
        <ele>8</ele>
        <time>2021-01-10T10:03:08.000Z</time>
      </trkpt>
      <trkpt lat="47.2404" lon="-2.26729">
        <ele>8.3999996185303</ele>
        <time>2021-01-10T10:03:09.000Z</time>
      </trkpt>
      <trkpt lat="47.24053" lon="-2.26719">
        <ele>8.3999996185303</ele>
        <time>2021-01-10T10:03:15.000Z</time>
      </trkpt>
      <trkpt lat="47.24066" lon="-2.26707">
        <ele>8.8000001907349</ele>
        <time>2021-01-10T10:03:22.000Z</time>
      </trkpt>
      <trkpt lat="47.24067" lon="-2.26705">
        <ele>9.1999998092651</ele>
        <time>2021-01-10T10:03:23.000Z</time>
      </trkpt>
      <trkpt lat="47.24069" lon="-2.26702">
        <ele>9.8000001907349</ele>
        <time>2021-01-10T10:03:24.000Z</time>
      </trkpt>
      <trkpt lat="47.2407" lon="-2.267">
        <ele>10.199999809265</ele>
        <time>2021-01-10T10:03:25.000Z</time>
      </trkpt>
      <trkpt lat="47.24072" lon="-2.26697">
        <ele>10.60000038147</ele>
        <time>2021-01-10T10:03:26.000Z</time>
      </trkpt>
      <trkpt lat="47.24077" lon="-2.26687">
        <ele>10.60000038147</ele>
        <time>2021-01-10T10:03:30.000Z</time>
      </trkpt>
      <trkpt lat="47.24083" lon="-2.26674">
        <ele>11</ele>
        <time>2021-01-10T10:03:35.000Z</time>
      </trkpt>
      <trkpt lat="47.24084" lon="-2.26672">
        <ele>11.39999961853</ele>
        <time>2021-01-10T10:03:36.000Z</time>
      </trkpt>
      <trkpt lat="47.24085" lon="-2.26669">
        <ele>12</ele>
        <time>2021-01-10T10:03:37.000Z</time>
      </trkpt>
      <trkpt lat="47.24086" lon="-2.26666">
        <ele>12.39999961853</ele>
        <time>2021-01-10T10:03:38.000Z</time>
      </trkpt>
      <trkpt lat="47.24088" lon="-2.26663">
        <ele>12.800000190735</ele>
        <time>2021-01-10T10:03:39.000Z</time>
      </trkpt>
      <trkpt lat="47.24095" lon="-2.26654">
        <ele>12.800000190735</ele>
        <time>2021-01-10T10:03:43.000Z</time>
      </trkpt>
      <trkpt lat="47.24097" lon="-2.26654">
        <ele>12.800000190735</ele>
        <time>2021-01-10T10:03:44.000Z</time>
      </trkpt>
      <trkpt lat="47.24108" lon="-2.26651">
        <ele>12.800000190735</ele>
        <time>2021-01-10T10:03:49.000Z</time>
      </trkpt>
      <trkpt lat="47.24114" lon="-2.2664">
        <ele>12.800000190735</ele>
        <time>2021-01-10T10:03:54.000Z</time>
      </trkpt>
      <trkpt lat="47.24119" lon="-2.26641">
        <ele>12.800000190735</ele>
        <time>2021-01-10T10:03:57.000Z</time>
      </trkpt>
      <trkpt lat="47.2412" lon="-2.26637">
        <ele>12.39999961853</ele>
        <time>2021-01-10T10:03:58.000Z</time>
      </trkpt>
      <trkpt lat="47.24121" lon="-2.26633">
        <ele>12</ele>
        <time>2021-01-10T10:03:59.000Z</time>
      </trkpt>
      <trkpt lat="47.24123" lon="-2.26629">
        <ele>11.39999961853</ele>
        <time>2021-01-10T10:04:00.000Z</time>
      </trkpt>
      <trkpt lat="47.24125" lon="-2.26624">
        <ele>11</ele>
        <time>2021-01-10T10:04:01.000Z</time>
      </trkpt>
      <trkpt lat="47.24126" lon="-2.26617">
        <ele>10.60000038147</ele>
        <time>2021-01-10T10:04:02.000Z</time>
      </trkpt>
      <trkpt lat="47.24133" lon="-2.26601">
        <ele>10.60000038147</ele>
        <time>2021-01-10T10:04:05.000Z</time>
      </trkpt>
      <trkpt lat="47.24137" lon="-2.26595">
        <ele>10.60000038147</ele>
        <time>2021-01-10T10:04:07.000Z</time>
      </trkpt>
      <trkpt lat="47.24138" lon="-2.26592">
        <ele>10.199999809265</ele>
        <time>2021-01-10T10:04:08.000Z</time>
      </trkpt>
      <trkpt lat="47.24137" lon="-2.2659">
        <ele>9.6000003814697</ele>
        <time>2021-01-10T10:04:09.000Z</time>
      </trkpt>
      <trkpt lat="47.24137" lon="-2.26586">
        <ele>9.1999998092651</ele>
        <time>2021-01-10T10:04:10.000Z</time>
      </trkpt>
      <trkpt lat="47.24137" lon="-2.26584">
        <ele>8.8000001907349</ele>
        <time>2021-01-10T10:04:11.000Z</time>
      </trkpt>
      <trkpt lat="47.24137" lon="-2.26582">
        <ele>8.3999996185303</ele>
        <time>2021-01-10T10:04:12.000Z</time>
      </trkpt>
      <trkpt lat="47.24138" lon="-2.26579">
        <ele>8.3999996185303</ele>
        <time>2021-01-10T10:04:13.000Z</time>
      </trkpt>
      <trkpt lat="47.24144" lon="-2.26578">
        <ele>8.3999996185303</ele>
        <time>2021-01-10T10:04:17.000Z</time>
      </trkpt>
      <trkpt lat="47.24149" lon="-2.26578">
        <ele>8.3999996185303</ele>
        <time>2021-01-10T10:04:20.000Z</time>
      </trkpt>
      <trkpt lat="47.24153" lon="-2.26579">
        <ele>8.3999996185303</ele>
        <time>2021-01-10T10:04:23.000Z</time>
      </trkpt>
      <trkpt lat="47.24158" lon="-2.26582">
        <ele>8.3999996185303</ele>
        <time>2021-01-10T10:04:29.000Z</time>
      </trkpt>
      <trkpt lat="47.24159" lon="-2.26585">
        <ele>8.8000001907349</ele>
        <time>2021-01-10T10:04:31.000Z</time>
      </trkpt>
      <trkpt lat="47.24159" lon="-2.26587">
        <ele>9.1999998092651</ele>
        <time>2021-01-10T10:04:32.000Z</time>
      </trkpt>
      <trkpt lat="47.24159" lon="-2.26588">
        <ele>9.6000003814697</ele>
        <time>2021-01-10T10:04:33.000Z</time>
      </trkpt>
      <trkpt lat="47.24159" lon="-2.26589">
        <ele>10</ele>
        <time>2021-01-10T10:04:34.000Z</time>
      </trkpt>
      <trkpt lat="47.24159" lon="-2.2659">
        <ele>10.39999961853</ele>
        <time>2021-01-10T10:04:35.000Z</time>
      </trkpt>
      <trkpt lat="47.24158" lon="-2.26603">
        <ele>10.39999961853</ele>
        <time>2021-01-10T10:04:42.000Z</time>
      </trkpt>
      <trkpt lat="47.24156" lon="-2.26609">
        <ele>10.800000190735</ele>
        <time>2021-01-10T10:04:44.000Z</time>
      </trkpt>
      <trkpt lat="47.24156" lon="-2.26611">
        <ele>11.199999809265</ele>
        <time>2021-01-10T10:04:45.000Z</time>
      </trkpt>
      <trkpt lat="47.24157" lon="-2.26613">
        <ele>11.800000190735</ele>
        <time>2021-01-10T10:04:46.000Z</time>
      </trkpt>
      <trkpt lat="47.24158" lon="-2.26614">
        <ele>12.199999809265</ele>
        <time>2021-01-10T10:04:47.000Z</time>
      </trkpt>
      <trkpt lat="47.24159" lon="-2.26614">
        <ele>12.60000038147</ele>
        <time>2021-01-10T10:04:48.000Z</time>
      </trkpt>
      <trkpt lat="47.24161" lon="-2.26614">
        <ele>12.60000038147</ele>
        <time>2021-01-10T10:04:50.000Z</time>
      </trkpt>
      <trkpt lat="47.24166" lon="-2.26612">
        <ele>12.60000038147</ele>
        <time>2021-01-10T10:04:53.000Z</time>
      </trkpt>
      <trkpt lat="47.24168" lon="-2.2661">
        <ele>12.60000038147</ele>
        <time>2021-01-10T10:04:56.000Z</time>
      </trkpt>
      <trkpt lat="47.24169" lon="-2.2661">
        <ele>12.60000038147</ele>
        <time>2021-01-10T10:04:58.000Z</time>
      </trkpt>
      <trkpt lat="47.24175" lon="-2.26612">
        <ele>12.60000038147</ele>
        <time>2021-01-10T10:05:04.000Z</time>
      </trkpt>
      <trkpt lat="47.24179" lon="-2.26614">
        <ele>12.60000038147</ele>
        <time>2021-01-10T10:05:07.000Z</time>
      </trkpt>
      <trkpt lat="47.24182" lon="-2.26614">
        <ele>12.60000038147</ele>
        <time>2021-01-10T10:05:10.000Z</time>
      </trkpt>
      <trkpt lat="47.24188" lon="-2.26617">
        <ele>12.60000038147</ele>
        <time>2021-01-10T10:05:14.000Z</time>
      </trkpt>
      <trkpt lat="47.24209" lon="-2.26624">
        <ele>12.60000038147</ele>
        <time>2021-01-10T10:05:23.000Z</time>
      </trkpt>
      <trkpt lat="47.24219" lon="-2.26625">
        <ele>12.60000038147</ele>
        <time>2021-01-10T10:05:30.000Z</time>
      </trkpt>
      <trkpt lat="47.24223" lon="-2.26621">
        <ele>13</ele>
        <time>2021-01-10T10:05:32.000Z</time>
      </trkpt>
      <trkpt lat="47.24225" lon="-2.26619">
        <ele>13.39999961853</ele>
        <time>2021-01-10T10:05:33.000Z</time>
      </trkpt>
      <trkpt lat="47.24228" lon="-2.26616">
        <ele>13.800000190735</ele>
        <time>2021-01-10T10:05:34.000Z</time>
      </trkpt>
      <trkpt lat="47.2423" lon="-2.26613">
        <ele>14.199999809265</ele>
        <time>2021-01-10T10:05:35.000Z</time>
      </trkpt>
      <trkpt lat="47.24234" lon="-2.26609">
        <ele>14.60000038147</ele>
        <time>2021-01-10T10:05:36.000Z</time>
      </trkpt>
      <trkpt lat="47.24252" lon="-2.26593">
        <ele>14.60000038147</ele>
        <time>2021-01-10T10:05:41.000Z</time>
      </trkpt>
      <trkpt lat="47.2428" lon="-2.26567">
        <ele>14.60000038147</ele>
        <time>2021-01-10T10:05:47.000Z</time>
      </trkpt>
      <trkpt lat="47.24314" lon="-2.26537">
        <ele>14.60000038147</ele>
        <time>2021-01-10T10:05:53.000Z</time>
      </trkpt>
      <trkpt lat="47.24343" lon="-2.26512">
        <ele>14.60000038147</ele>
        <time>2021-01-10T10:05:59.000Z</time>
      </trkpt>
      <trkpt lat="47.24347" lon="-2.26509">
        <ele>14.60000038147</ele>
        <time>2021-01-10T10:06:00.000Z</time>
      </trkpt>
      <trkpt lat="47.24371" lon="-2.26489">
        <ele>14.60000038147</ele>
        <time>2021-01-10T10:06:05.000Z</time>
      </trkpt>
      <trkpt lat="47.24403" lon="-2.26465">
        <ele>14.60000038147</ele>
        <time>2021-01-10T10:06:12.000Z</time>
      </trkpt>
      <trkpt lat="47.24411" lon="-2.26457">
        <ele>14.60000038147</ele>
        <time>2021-01-10T10:06:14.000Z</time>
      </trkpt>
      <trkpt lat="47.24426" lon="-2.26447">
        <ele>14.60000038147</ele>
        <time>2021-01-10T10:06:17.000Z</time>
      </trkpt>
      <trkpt lat="47.24459" lon="-2.26426">
        <ele>14.60000038147</ele>
        <time>2021-01-10T10:06:24.000Z</time>
      </trkpt>
      <trkpt lat="47.24505" lon="-2.26405">
        <ele>14.60000038147</ele>
        <time>2021-01-10T10:06:33.000Z</time>
      </trkpt>
      <trkpt lat="47.2454" lon="-2.2639">
        <ele>14.60000038147</ele>
        <time>2021-01-10T10:06:40.000Z</time>
      </trkpt>
      <trkpt lat="47.24583" lon="-2.26376">
        <ele>14.60000038147</ele>
        <time>2021-01-10T10:06:48.000Z</time>
      </trkpt>
      <trkpt lat="47.24615" lon="-2.26375">
        <ele>14.60000038147</ele>
        <time>2021-01-10T10:06:54.000Z</time>
      </trkpt>
      <trkpt lat="47.24649" lon="-2.26384">
        <ele>14.60000038147</ele>
        <time>2021-01-10T10:07:00.000Z</time>
      </trkpt>
      <trkpt lat="47.24685" lon="-2.26399">
        <ele>14.60000038147</ele>
        <time>2021-01-10T10:07:07.000Z</time>
      </trkpt>
      <trkpt lat="47.24728" lon="-2.26421">
        <ele>14.60000038147</ele>
        <time>2021-01-10T10:07:16.000Z</time>
      </trkpt>
      <trkpt lat="47.24773" lon="-2.26443">
        <ele>14.60000038147</ele>
        <time>2021-01-10T10:07:25.000Z</time>
      </trkpt>
      <trkpt lat="47.24811" lon="-2.26454">
        <ele>14.60000038147</ele>
        <time>2021-01-10T10:07:32.000Z</time>
      </trkpt>
      <trkpt lat="47.24827" lon="-2.26454">
        <ele>15</ele>
        <time>2021-01-10T10:07:35.000Z</time>
      </trkpt>
      <trkpt lat="47.24832" lon="-2.26454">
        <ele>15.60000038147</ele>
        <time>2021-01-10T10:07:36.000Z</time>
      </trkpt>
      <trkpt lat="47.24838" lon="-2.26454">
        <ele>16</ele>
        <time>2021-01-10T10:07:37.000Z</time>
      </trkpt>
      <trkpt lat="47.24843" lon="-2.26454">
        <ele>16.39999961853</ele>
        <time>2021-01-10T10:07:38.000Z</time>
      </trkpt>
      <trkpt lat="47.24848" lon="-2.26452">
        <ele>16.799999237061</ele>
        <time>2021-01-10T10:07:39.000Z</time>
      </trkpt>
      <trkpt lat="47.24878" lon="-2.26443">
        <ele>16.799999237061</ele>
        <time>2021-01-10T10:07:45.000Z</time>
      </trkpt>
      <trkpt lat="47.24902" lon="-2.26437">
        <ele>17.200000762939</ele>
        <time>2021-01-10T10:07:50.000Z</time>
      </trkpt>
      <trkpt lat="47.24907" lon="-2.26435">
        <ele>17.60000038147</ele>
        <time>2021-01-10T10:07:51.000Z</time>
      </trkpt>
      <trkpt lat="47.24912" lon="-2.26433">
        <ele>18</ele>
        <time>2021-01-10T10:07:52.000Z</time>
      </trkpt>
      <trkpt lat="47.24917" lon="-2.26431">
        <ele>18.39999961853</ele>
        <time>2021-01-10T10:07:53.000Z</time>
      </trkpt>
      <trkpt lat="47.24921" lon="-2.2643">
        <ele>19</ele>
        <time>2021-01-10T10:07:54.000Z</time>
      </trkpt>
      <trkpt lat="47.24941" lon="-2.26424">
        <ele>19</ele>
        <time>2021-01-10T10:07:58.000Z</time>
      </trkpt>
      <trkpt lat="47.24946" lon="-2.26425">
        <ele>19</ele>
        <time>2021-01-10T10:07:59.000Z</time>
      </trkpt>
      <trkpt lat="47.24961" lon="-2.26422">
        <ele>19</ele>
        <time>2021-01-10T10:08:02.000Z</time>
      </trkpt>
      <trkpt lat="47.24965" lon="-2.26416">
        <ele>19</ele>
        <time>2021-01-10T10:08:03.000Z</time>
      </trkpt>
      <trkpt lat="47.24972" lon="-2.26396">
        <ele>19</ele>
        <time>2021-01-10T10:08:06.000Z</time>
      </trkpt>
      <trkpt lat="47.24986" lon="-2.26384">
        <ele>19</ele>
        <time>2021-01-10T10:08:09.000Z</time>
      </trkpt>
      <trkpt lat="47.24991" lon="-2.26379">
        <ele>19</ele>
        <time>2021-01-10T10:08:10.000Z</time>
      </trkpt>
      <trkpt lat="47.25019" lon="-2.26361">
        <ele>18.39999961853</ele>
        <time>2021-01-10T10:08:15.000Z</time>
      </trkpt>
      <trkpt lat="47.25025" lon="-2.26358">
        <ele>18</ele>
        <time>2021-01-10T10:08:16.000Z</time>
      </trkpt>
      <trkpt lat="47.25031" lon="-2.26357">
        <ele>17.60000038147</ele>
        <time>2021-01-10T10:08:17.000Z</time>
      </trkpt>
      <trkpt lat="47.25037" lon="-2.26356">
        <ele>17.200000762939</ele>
        <time>2021-01-10T10:08:18.000Z</time>
      </trkpt>
      <trkpt lat="47.25044" lon="-2.26353">
        <ele>16.60000038147</ele>
        <time>2021-01-10T10:08:19.000Z</time>
      </trkpt>
      <trkpt lat="47.25052" lon="-2.26338">
        <ele>16.200000762939</ele>
        <time>2021-01-10T10:08:21.000Z</time>
      </trkpt>
      <trkpt lat="47.25055" lon="-2.2633">
        <ele>15.800000190735</ele>
        <time>2021-01-10T10:08:22.000Z</time>
      </trkpt>
      <trkpt lat="47.25058" lon="-2.26322">
        <ele>15.199999809265</ele>
        <time>2021-01-10T10:08:23.000Z</time>
      </trkpt>
      <trkpt lat="47.2506" lon="-2.26313">
        <ele>14.800000190735</ele>
        <time>2021-01-10T10:08:24.000Z</time>
      </trkpt>
      <trkpt lat="47.2506" lon="-2.26305">
        <ele>14.199999809265</ele>
        <time>2021-01-10T10:08:25.000Z</time>
      </trkpt>
      <trkpt lat="47.2506" lon="-2.26297">
        <ele>14.199999809265</ele>
        <time>2021-01-10T10:08:26.000Z</time>
      </trkpt>
      <trkpt lat="47.2506" lon="-2.2629">
        <ele>14.199999809265</ele>
        <time>2021-01-10T10:08:27.000Z</time>
      </trkpt>
      <trkpt lat="47.25061" lon="-2.26281">
        <ele>14.199999809265</ele>
        <time>2021-01-10T10:08:28.000Z</time>
      </trkpt>
      <trkpt lat="47.2507" lon="-2.26252">
        <ele>14.199999809265</ele>
        <time>2021-01-10T10:08:32.000Z</time>
      </trkpt>
      <trkpt lat="47.2508" lon="-2.26226">
        <ele>14.199999809265</ele>
        <time>2021-01-10T10:08:36.000Z</time>
      </trkpt>
      <trkpt lat="47.25082" lon="-2.26197">
        <ele>14.199999809265</ele>
        <time>2021-01-10T10:08:40.000Z</time>
      </trkpt>
      <trkpt lat="47.25082" lon="-2.2618">
        <ele>14.199999809265</ele>
        <time>2021-01-10T10:08:42.000Z</time>
      </trkpt>
      <trkpt lat="47.25083" lon="-2.26145">
        <ele>14.199999809265</ele>
        <time>2021-01-10T10:08:46.000Z</time>
      </trkpt>
      <trkpt lat="47.25088" lon="-2.26089">
        <ele>14.199999809265</ele>
        <time>2021-01-10T10:08:53.000Z</time>
      </trkpt>
      <trkpt lat="47.25091" lon="-2.26081">
        <ele>14.199999809265</ele>
        <time>2021-01-10T10:08:54.000Z</time>
      </trkpt>
      <trkpt lat="47.25101" lon="-2.26037">
        <ele>13.800000190735</ele>
        <time>2021-01-10T10:08:59.000Z</time>
      </trkpt>
      <trkpt lat="47.25102" lon="-2.26027">
        <ele>13.39999961853</ele>
        <time>2021-01-10T10:09:00.000Z</time>
      </trkpt>
      <trkpt lat="47.25104" lon="-2.26017">
        <ele>13</ele>
        <time>2021-01-10T10:09:01.000Z</time>
      </trkpt>
      <trkpt lat="47.25106" lon="-2.26006">
        <ele>12.199999809265</ele>
        <time>2021-01-10T10:09:02.000Z</time>
      </trkpt>
      <trkpt lat="47.25115" lon="-2.25968">
        <ele>12.199999809265</ele>
        <time>2021-01-10T10:09:06.000Z</time>
      </trkpt>
      <trkpt lat="47.25124" lon="-2.25949">
        <ele>12.199999809265</ele>
        <time>2021-01-10T10:09:09.000Z</time>
      </trkpt>
      <trkpt lat="47.25128" lon="-2.25944">
        <ele>11.800000190735</ele>
        <time>2021-01-10T10:09:10.000Z</time>
      </trkpt>
      <trkpt lat="47.25131" lon="-2.25938">
        <ele>11.39999961853</ele>
        <time>2021-01-10T10:09:11.000Z</time>
      </trkpt>
      <trkpt lat="47.25134" lon="-2.25932">
        <ele>11</ele>
        <time>2021-01-10T10:09:12.000Z</time>
      </trkpt>
      <trkpt lat="47.25138" lon="-2.25926">
        <ele>10.60000038147</ele>
        <time>2021-01-10T10:09:13.000Z</time>
      </trkpt>
      <trkpt lat="47.25141" lon="-2.2592">
        <ele>10.199999809265</ele>
        <time>2021-01-10T10:09:14.000Z</time>
      </trkpt>
      <trkpt lat="47.25152" lon="-2.25894">
        <ele>10.199999809265</ele>
        <time>2021-01-10T10:09:18.000Z</time>
      </trkpt>
      <trkpt lat="47.25163" lon="-2.25845">
        <ele>10.199999809265</ele>
        <time>2021-01-10T10:09:24.000Z</time>
      </trkpt>
      <trkpt lat="47.25165" lon="-2.2583">
        <ele>10.199999809265</ele>
        <time>2021-01-10T10:09:26.000Z</time>
      </trkpt>
      <trkpt lat="47.25171" lon="-2.2581">
        <ele>10.199999809265</ele>
        <time>2021-01-10T10:09:29.000Z</time>
      </trkpt>
      <trkpt lat="47.25177" lon="-2.25781">
        <ele>10.199999809265</ele>
        <time>2021-01-10T10:09:34.000Z</time>
      </trkpt>
      <trkpt lat="47.25179" lon="-2.25753">
        <ele>10.199999809265</ele>
        <time>2021-01-10T10:09:38.000Z</time>
      </trkpt>
      <trkpt lat="47.2518" lon="-2.25749">
        <ele>10.199999809265</ele>
        <time>2021-01-10T10:09:39.000Z</time>
      </trkpt>
      <trkpt lat="47.25183" lon="-2.25738">
        <ele>10.199999809265</ele>
        <time>2021-01-10T10:09:44.000Z</time>
      </trkpt>
      <trkpt lat="47.25183" lon="-2.25737">
        <ele>10.199999809265</ele>
        <time>2021-01-10T10:09:46.000Z</time>
      </trkpt>
      <trkpt lat="47.25185" lon="-2.25747">
        <ele>10.60000038147</ele>
        <time>2021-01-10T10:10:25.000Z</time>
      </trkpt>
      <trkpt lat="47.25184" lon="-2.25753">
        <ele>10.60000038147</ele>
        <time>2021-01-10T10:10:27.000Z</time>
      </trkpt>
      <trkpt lat="47.25182" lon="-2.25761">
        <ele>10.60000038147</ele>
        <time>2021-01-10T10:10:29.000Z</time>
      </trkpt>
      <trkpt lat="47.25179" lon="-2.25777">
        <ele>10.60000038147</ele>
        <time>2021-01-10T10:10:33.000Z</time>
      </trkpt>
      <trkpt lat="47.25179" lon="-2.2578">
        <ele>10.60000038147</ele>
        <time>2021-01-10T10:10:34.000Z</time>
      </trkpt>
      <trkpt lat="47.25185" lon="-2.25784">
        <ele>10.60000038147</ele>
        <time>2021-01-10T10:10:37.000Z</time>
      </trkpt>
      <trkpt lat="47.25193" lon="-2.25783">
        <ele>10.60000038147</ele>
        <time>2021-01-10T10:10:39.000Z</time>
      </trkpt>
      <trkpt lat="47.252" lon="-2.25786">
        <ele>10.60000038147</ele>
        <time>2021-01-10T10:10:41.000Z</time>
      </trkpt>
      <trkpt lat="47.25221" lon="-2.25799">
        <ele>10.60000038147</ele>
        <time>2021-01-10T10:10:47.000Z</time>
      </trkpt>
      <trkpt lat="47.2523" lon="-2.25811">
        <ele>10.60000038147</ele>
        <time>2021-01-10T10:10:50.000Z</time>
      </trkpt>
      <trkpt lat="47.25232" lon="-2.25816">
        <ele>10.60000038147</ele>
        <time>2021-01-10T10:10:51.000Z</time>
      </trkpt>
      <trkpt lat="47.25242" lon="-2.25859">
        <ele>10.60000038147</ele>
        <time>2021-01-10T10:10:58.000Z</time>
      </trkpt>
      <trkpt lat="47.25253" lon="-2.25908">
        <ele>10.60000038147</ele>
        <time>2021-01-10T10:11:05.000Z</time>
      </trkpt>
      <trkpt lat="47.25255" lon="-2.25914">
        <ele>10.60000038147</ele>
        <time>2021-01-10T10:11:06.000Z</time>
      </trkpt>
      <trkpt lat="47.25261" lon="-2.25933">
        <ele>10.60000038147</ele>
        <time>2021-01-10T10:11:09.000Z</time>
      </trkpt>
      <trkpt lat="47.25271" lon="-2.25948">
        <ele>10.60000038147</ele>
        <time>2021-01-10T10:11:12.000Z</time>
      </trkpt>
      <trkpt lat="47.25273" lon="-2.25953">
        <ele>11</ele>
        <time>2021-01-10T10:11:13.000Z</time>
      </trkpt>
      <trkpt lat="47.25275" lon="-2.25959">
        <ele>11.39999961853</ele>
        <time>2021-01-10T10:11:14.000Z</time>
      </trkpt>
      <trkpt lat="47.25276" lon="-2.25966">
        <ele>11.800000190735</ele>
        <time>2021-01-10T10:11:15.000Z</time>
      </trkpt>
      <trkpt lat="47.25278" lon="-2.25971">
        <ele>12.199999809265</ele>
        <time>2021-01-10T10:11:16.000Z</time>
      </trkpt>
      <trkpt lat="47.25279" lon="-2.25975">
        <ele>12.60000038147</ele>
        <time>2021-01-10T10:11:17.000Z</time>
      </trkpt>
      <trkpt lat="47.25293" lon="-2.25993">
        <ele>12.60000038147</ele>
        <time>2021-01-10T10:11:22.000Z</time>
      </trkpt>
      <trkpt lat="47.25312" lon="-2.26003">
        <ele>12.60000038147</ele>
        <time>2021-01-10T10:11:28.000Z</time>
      </trkpt>
      <trkpt lat="47.25321" lon="-2.26006">
        <ele>12.60000038147</ele>
        <time>2021-01-10T10:11:30.000Z</time>
      </trkpt>
      <trkpt lat="47.25328" lon="-2.26009">
        <ele>12.60000038147</ele>
        <time>2021-01-10T10:11:32.000Z</time>
      </trkpt>
      <trkpt lat="47.25332" lon="-2.26011">
        <ele>12.199999809265</ele>
        <time>2021-01-10T10:11:34.000Z</time>
      </trkpt>
      <trkpt lat="47.25334" lon="-2.26011">
        <ele>11.800000190735</ele>
        <time>2021-01-10T10:11:35.000Z</time>
      </trkpt>
      <trkpt lat="47.25337" lon="-2.26011">
        <ele>11.199999809265</ele>
        <time>2021-01-10T10:11:36.000Z</time>
      </trkpt>
      <trkpt lat="47.2534" lon="-2.2601">
        <ele>10.800000190735</ele>
        <time>2021-01-10T10:11:37.000Z</time>
      </trkpt>
      <trkpt lat="47.25342" lon="-2.2601">
        <ele>10.39999961853</ele>
        <time>2021-01-10T10:11:38.000Z</time>
      </trkpt>
      <trkpt lat="47.25348" lon="-2.26017">
        <ele>10.39999961853</ele>
        <time>2021-01-10T10:11:42.000Z</time>
      </trkpt>
      <trkpt lat="47.25346" lon="-2.26024">
        <ele>10.39999961853</ele>
        <time>2021-01-10T10:11:47.000Z</time>
      </trkpt>
      <trkpt lat="47.25339" lon="-2.26031">
        <ele>10.39999961853</ele>
        <time>2021-01-10T10:11:51.000Z</time>
      </trkpt>
      <trkpt lat="47.25331" lon="-2.26032">
        <ele>10.39999961853</ele>
        <time>2021-01-10T10:11:55.000Z</time>
      </trkpt>
      <trkpt lat="47.25323" lon="-2.26027">
        <ele>10.39999961853</ele>
        <time>2021-01-10T10:25:02.000Z</time>
      </trkpt>
      <trkpt lat="47.25324" lon="-2.26021">
        <ele>10.39999961853</ele>
        <time>2021-01-10T10:25:04.000Z</time>
      </trkpt>
      <trkpt lat="47.25326" lon="-2.26012">
        <ele>10.39999961853</ele>
        <time>2021-01-10T10:25:06.000Z</time>
      </trkpt>
      <trkpt lat="47.25332" lon="-2.25997">
        <ele>10.39999961853</ele>
        <time>2021-01-10T10:25:09.000Z</time>
      </trkpt>
      <trkpt lat="47.25336" lon="-2.25986">
        <ele>10.39999961853</ele>
        <time>2021-01-10T10:25:11.000Z</time>
      </trkpt>
      <trkpt lat="47.2534" lon="-2.2597">
        <ele>10</ele>
        <time>2021-01-10T10:25:13.000Z</time>
      </trkpt>
      <trkpt lat="47.25341" lon="-2.25963">
        <ele>9.6000003814697</ele>
        <time>2021-01-10T10:25:14.000Z</time>
      </trkpt>
      <trkpt lat="47.25343" lon="-2.25956">
        <ele>9.1999998092651</ele>
        <time>2021-01-10T10:25:15.000Z</time>
      </trkpt>
      <trkpt lat="47.25344" lon="-2.25948">
        <ele>8.6000003814697</ele>
        <time>2021-01-10T10:25:16.000Z</time>
      </trkpt>
      <trkpt lat="47.25344" lon="-2.25943">
        <ele>8.1999998092651</ele>
        <time>2021-01-10T10:25:17.000Z</time>
      </trkpt>
      <trkpt lat="47.25343" lon="-2.25933">
        <ele>8.1999998092651</ele>
        <time>2021-01-10T10:25:19.000Z</time>
      </trkpt>
      <trkpt lat="47.25338" lon="-2.2591">
        <ele>8.1999998092651</ele>
        <time>2021-01-10T10:25:25.000Z</time>
      </trkpt>
      <trkpt lat="47.25332" lon="-2.25894">
        <ele>8.1999998092651</ele>
        <time>2021-01-10T10:25:30.000Z</time>
      </trkpt>
      <trkpt lat="47.25334" lon="-2.25874">
        <ele>8.1999998092651</ele>
        <time>2021-01-10T10:25:34.000Z</time>
      </trkpt>
      <trkpt lat="47.25335" lon="-2.25868">
        <ele>8.1999998092651</ele>
        <time>2021-01-10T10:25:35.000Z</time>
      </trkpt>
      <trkpt lat="47.25336" lon="-2.25848">
        <ele>7.8000001907349</ele>
        <time>2021-01-10T10:25:38.000Z</time>
      </trkpt>
      <trkpt lat="47.25337" lon="-2.25841">
        <ele>7.4000000953674</ele>
        <time>2021-01-10T10:25:39.000Z</time>
      </trkpt>
      <trkpt lat="47.25337" lon="-2.25834">
        <ele>7</ele>
        <time>2021-01-10T10:25:40.000Z</time>
      </trkpt>
      <trkpt lat="47.25338" lon="-2.25827">
        <ele>6.5999999046326</ele>
        <time>2021-01-10T10:25:41.000Z</time>
      </trkpt>
      <trkpt lat="47.25339" lon="-2.25819">
        <ele>5.5999999046326</ele>
        <time>2021-01-10T10:25:42.000Z</time>
      </trkpt>
      <trkpt lat="47.2534" lon="-2.25811">
        <ele>5.1999998092651</ele>
        <time>2021-01-10T10:25:43.000Z</time>
      </trkpt>
      <trkpt lat="47.2534" lon="-2.25803">
        <ele>4.5999999046326</ele>
        <time>2021-01-10T10:25:44.000Z</time>
      </trkpt>
      <trkpt lat="47.25341" lon="-2.25796">
        <ele>4.1999998092651</ele>
        <time>2021-01-10T10:25:45.000Z</time>
      </trkpt>
      <trkpt lat="47.25342" lon="-2.25788">
        <ele>3.5999999046326</ele>
        <time>2021-01-10T10:25:46.000Z</time>
      </trkpt>
      <trkpt lat="47.25345" lon="-2.25764">
        <ele>3.5999999046326</ele>
        <time>2021-01-10T10:25:50.000Z</time>
      </trkpt>
      <trkpt lat="47.25346" lon="-2.25731">
        <ele>3.5999999046326</ele>
        <time>2021-01-10T10:25:56.000Z</time>
      </trkpt>
      <trkpt lat="47.25348" lon="-2.25704">
        <ele>3.5999999046326</ele>
        <time>2021-01-10T10:26:01.000Z</time>
      </trkpt>
      <trkpt lat="47.25348" lon="-2.25681">
        <ele>3.2000000476837</ele>
        <time>2021-01-10T10:26:05.000Z</time>
      </trkpt>
      <trkpt lat="47.25349" lon="-2.25675">
        <ele>2.4000000953674</ele>
        <time>2021-01-10T10:26:06.000Z</time>
      </trkpt>
      <trkpt lat="47.25348" lon="-2.2567">
        <ele>2</ele>
        <time>2021-01-10T10:26:07.000Z</time>
      </trkpt>
      <trkpt lat="47.25347" lon="-2.25664">
        <ele>1.6000000238419</ele>
        <time>2021-01-10T10:26:08.000Z</time>
      </trkpt>
      <trkpt lat="47.25343" lon="-2.25633">
        <ele>1.6000000238419</ele>
        <time>2021-01-10T10:26:14.000Z</time>
      </trkpt>
      <trkpt lat="47.25337" lon="-2.25619">
        <ele>1.6000000238419</ele>
        <time>2021-01-10T10:26:19.000Z</time>
      </trkpt>
      <trkpt lat="47.25332" lon="-2.256">
        <ele>1.6000000238419</ele>
        <time>2021-01-10T10:26:24.000Z</time>
      </trkpt>
      <trkpt lat="47.25324" lon="-2.2558">
        <ele>1.6000000238419</ele>
        <time>2021-01-10T10:26:28.000Z</time>
      </trkpt>
      <trkpt lat="47.2532" lon="-2.2554">
        <ele>1.6000000238419</ele>
        <time>2021-01-10T10:26:34.000Z</time>
      </trkpt>
      <trkpt lat="47.2532" lon="-2.25522">
        <ele>1.2000000476837</ele>
        <time>2021-01-10T10:26:36.000Z</time>
      </trkpt>
      <trkpt lat="47.25319" lon="-2.25513">
        <ele>0.80000001192093</ele>
        <time>2021-01-10T10:26:37.000Z</time>
      </trkpt>
      <trkpt lat="47.25319" lon="-2.25503">
        <ele>0.40000000596046</ele>
        <time>2021-01-10T10:26:38.000Z</time>
      </trkpt>
      <trkpt lat="47.2532" lon="-2.25494">
        <ele>15.5</ele>
        <time>2021-01-10T10:26:39.000Z</time>
      </trkpt>
      <trkpt lat="47.2532" lon="-2.25484">
        <ele>-0.40000000596046</ele>
        <time>2021-01-10T10:26:40.000Z</time>
      </trkpt>
      <trkpt lat="47.25319" lon="-2.25475">
        <ele>-0.80000001192093</ele>
        <time>2021-01-10T10:26:41.000Z</time>
      </trkpt>
      <trkpt lat="47.25317" lon="-2.25466">
        <ele>-1.3999999761581</ele>
        <time>2021-01-10T10:26:42.000Z</time>
      </trkpt>
      <trkpt lat="47.25317" lon="-2.25458">
        <ele>-1.7999999523163</ele>
        <time>2021-01-10T10:26:43.000Z</time>
      </trkpt>
      <trkpt lat="47.25317" lon="-2.25451">
        <ele>-2.2000000476837</ele>
        <time>2021-01-10T10:26:44.000Z</time>
      </trkpt>
      <trkpt lat="47.25319" lon="-2.25445">
        <ele>-3</ele>
        <time>2021-01-10T10:26:45.000Z</time>
      </trkpt>
      <trkpt lat="47.25319" lon="-2.25442">
        <ele>-3.5999999046326</ele>
        <time>2021-01-10T10:26:46.000Z</time>
      </trkpt>
      <trkpt lat="47.25319" lon="-2.25438">
        <ele>-4.1999998092651</ele>
        <time>2021-01-10T10:26:47.000Z</time>
      </trkpt>
      <trkpt lat="47.2532" lon="-2.25436">
        <ele>-4.8000001907349</ele>
        <time>2021-01-10T10:26:48.000Z</time>
      </trkpt>
      <trkpt lat="47.25322" lon="-2.25432">
        <ele>-5.4000000953674</ele>
        <time>2021-01-10T10:26:49.000Z</time>
      </trkpt>
      <trkpt lat="47.25324" lon="-2.25429">
        <ele>-6</ele>
        <time>2021-01-10T10:26:50.000Z</time>
      </trkpt>
      <trkpt lat="47.25326" lon="-2.25427">
        <ele>-6.5999999046326</ele>
        <time>2021-01-10T10:26:51.000Z</time>
      </trkpt>
      <trkpt lat="47.25329" lon="-2.25426">
        <ele>-7.1999998092651</ele>
        <time>2021-01-10T10:26:52.000Z</time>
      </trkpt>
      <trkpt lat="47.25332" lon="-2.25426">
        <ele>-7.5999999046326</ele>
        <time>2021-01-10T10:26:53.000Z</time>
      </trkpt>
      <trkpt lat="47.25334" lon="-2.25428">
        <ele>-8.1999998092651</ele>
        <time>2021-01-10T10:26:54.000Z</time>
      </trkpt>
      <trkpt lat="47.25335" lon="-2.2543">
        <ele>-8.8000001907349</ele>
        <time>2021-01-10T10:26:55.000Z</time>
      </trkpt>
      <trkpt lat="47.25336" lon="-2.25433">
        <ele>-9.8000001907349</ele>
        <time>2021-01-10T10:26:56.000Z</time>
      </trkpt>
      <trkpt lat="47.25337" lon="-2.25439">
        <ele>-9.8000001907349</ele>
        <time>2021-01-10T10:26:58.000Z</time>
      </trkpt>
      <trkpt lat="47.2534" lon="-2.25452">
        <ele>-9.8000001907349</ele>
        <time>2021-01-10T10:27:01.000Z</time>
      </trkpt>
      <trkpt lat="47.2535" lon="-2.25485">
        <ele>-9.8000001907349</ele>
        <time>2021-01-10T10:27:07.000Z</time>
      </trkpt>
      <trkpt lat="47.25352" lon="-2.25504">
        <ele>-9.8000001907349</ele>
        <time>2021-01-10T10:27:11.000Z</time>
      </trkpt>
      <trkpt lat="47.25352" lon="-2.25506">
        <ele>-10.199999809265</ele>
        <time>2021-01-10T10:27:12.000Z</time>
      </trkpt>
      <trkpt lat="47.25353" lon="-2.25507">
        <ele>-10.60000038147</ele>
        <time>2021-01-10T10:27:13.000Z</time>
      </trkpt>
      <trkpt lat="47.25354" lon="-2.25508">
        <ele>-11</ele>
        <time>2021-01-10T10:27:14.000Z</time>
      </trkpt>
      <trkpt lat="47.25356" lon="-2.25511">
        <ele>-11.39999961853</ele>
        <time>2021-01-10T10:27:15.000Z</time>
      </trkpt>
      <trkpt lat="47.25358" lon="-2.25514">
        <ele>-11.800000190735</ele>
        <time>2021-01-10T10:27:16.000Z</time>
      </trkpt>
      <trkpt lat="47.25358" lon="-2.25531">
        <ele>-11.800000190735</ele>
        <time>2021-01-10T10:27:20.000Z</time>
      </trkpt>
      <trkpt lat="47.25361" lon="-2.2556">
        <ele>-11.800000190735</ele>
        <time>2021-01-10T10:27:26.000Z</time>
      </trkpt>
      <trkpt lat="47.25362" lon="-2.2558">
        <ele>-11.800000190735</ele>
        <time>2021-01-10T10:27:31.000Z</time>
      </trkpt>
      <trkpt lat="47.25364" lon="-2.25602">
        <ele>-11.39999961853</ele>
        <time>2021-01-10T10:27:36.000Z</time>
      </trkpt>
      <trkpt lat="47.25364" lon="-2.25604">
        <ele>-11</ele>
        <time>2021-01-10T10:27:37.000Z</time>
      </trkpt>
      <trkpt lat="47.25364" lon="-2.25607">
        <ele>-10.60000038147</ele>
        <time>2021-01-10T10:27:38.000Z</time>
      </trkpt>
      <trkpt lat="47.25366" lon="-2.25614">
        <ele>-10.199999809265</ele>
        <time>2021-01-10T10:27:39.000Z</time>
      </trkpt>
      <trkpt lat="47.25368" lon="-2.2562">
        <ele>-9.8000001907349</ele>
        <time>2021-01-10T10:27:40.000Z</time>
      </trkpt>
      <trkpt lat="47.25369" lon="-2.25624">
        <ele>-9.8000001907349</ele>
        <time>2021-01-10T10:27:41.000Z</time>
      </trkpt>
      <trkpt lat="47.25378" lon="-2.25648">
        <ele>-9.8000001907349</ele>
        <time>2021-01-10T10:27:46.000Z</time>
      </trkpt>
      <trkpt lat="47.2538" lon="-2.25661">
        <ele>-9.8000001907349</ele>
        <time>2021-01-10T10:27:49.000Z</time>
      </trkpt>
      <trkpt lat="47.25381" lon="-2.25663">
        <ele>-9.8000001907349</ele>
        <time>2021-01-10T10:27:50.000Z</time>
      </trkpt>
      <trkpt lat="47.25384" lon="-2.25672">
        <ele>-9.8000001907349</ele>
        <time>2021-01-10T10:27:53.000Z</time>
      </trkpt>
      <trkpt lat="47.25386" lon="-2.25682">
        <ele>-9.8000001907349</ele>
        <time>2021-01-10T10:27:55.000Z</time>
      </trkpt>
      <trkpt lat="47.25396" lon="-2.25687">
        <ele>-9.8000001907349</ele>
        <time>2021-01-10T10:27:58.000Z</time>
      </trkpt>
      <trkpt lat="47.25413" lon="-2.25687">
        <ele>-9.8000001907349</ele>
        <time>2021-01-10T10:28:03.000Z</time>
      </trkpt>
      <trkpt lat="47.2542" lon="-2.25689">
        <ele>-9.3999996185303</ele>
        <time>2021-01-10T10:28:07.000Z</time>
      </trkpt>
      <trkpt lat="47.25422" lon="-2.25689">
        <ele>-8.8000001907349</ele>
        <time>2021-01-10T10:28:08.000Z</time>
      </trkpt>
      <trkpt lat="47.25424" lon="-2.25688">
        <ele>-8.3999996185303</ele>
        <time>2021-01-10T10:28:09.000Z</time>
      </trkpt>
      <trkpt lat="47.25427" lon="-2.2569">
        <ele>-7.5999999046326</ele>
        <time>2021-01-10T10:28:10.000Z</time>
      </trkpt>
      <trkpt lat="47.2543" lon="-2.25691">
        <ele>-7.5999999046326</ele>
        <time>2021-01-10T10:28:11.000Z</time>
      </trkpt>
      <trkpt lat="47.25433" lon="-2.25692">
        <ele>-7.5999999046326</ele>
        <time>2021-01-10T10:28:12.000Z</time>
      </trkpt>
      <trkpt lat="47.25441" lon="-2.25692">
        <ele>-7.5999999046326</ele>
        <time>2021-01-10T10:28:15.000Z</time>
      </trkpt>
      <trkpt lat="47.25445" lon="-2.25693">
        <ele>-7.1999998092651</ele>
        <time>2021-01-10T10:28:17.000Z</time>
      </trkpt>
      <trkpt lat="47.25446" lon="-2.25694">
        <ele>-6.8000001907349</ele>
        <time>2021-01-10T10:28:18.000Z</time>
      </trkpt>
      <trkpt lat="47.25447" lon="-2.25695">
        <ele>-6.4000000953674</ele>
        <time>2021-01-10T10:28:19.000Z</time>
      </trkpt>
      <trkpt lat="47.25448" lon="-2.25695">
        <ele>-6</ele>
        <time>2021-01-10T10:28:20.000Z</time>
      </trkpt>
      <trkpt lat="47.2545" lon="-2.25697">
        <ele>-5.5999999046326</ele>
        <time>2021-01-10T10:28:21.000Z</time>
      </trkpt>
      <trkpt lat="47.2545" lon="-2.25697">
        <ele>-5.5999999046326</ele>
        <time>2021-01-10T10:28:22.000Z</time>
      </trkpt>
      <trkpt lat="47.25456" lon="-2.25704">
        <ele>-5.1999998092651</ele>
        <time>2021-01-10T10:28:26.000Z</time>
      </trkpt>
      <trkpt lat="47.25457" lon="-2.25706">
        <ele>-4.5999999046326</ele>
        <time>2021-01-10T10:28:27.000Z</time>
      </trkpt>
      <trkpt lat="47.25458" lon="-2.25708">
        <ele>-4.1999998092651</ele>
        <time>2021-01-10T10:28:28.000Z</time>
      </trkpt>
      <trkpt lat="47.25459" lon="-2.25709">
        <ele>-3.7999999523163</ele>
        <time>2021-01-10T10:28:29.000Z</time>
      </trkpt>
      <trkpt lat="47.2546" lon="-2.25711">
        <ele>-3.4000000953674</ele>
        <time>2021-01-10T10:28:30.000Z</time>
      </trkpt>
      <trkpt lat="47.25461" lon="-2.2572">
        <ele>-3.4000000953674</ele>
        <time>2021-01-10T10:28:35.000Z</time>
      </trkpt>
      <trkpt lat="47.25461" lon="-2.25724">
        <ele>-3</ele>
        <time>2021-01-10T10:28:37.000Z</time>
      </trkpt>
      <trkpt lat="47.25462" lon="-2.25725">
        <ele>-2.5999999046326</ele>
        <time>2021-01-10T10:28:38.000Z</time>
      </trkpt>
      <trkpt lat="47.25462" lon="-2.25727">
        <ele>-2.2000000476837</ele>
        <time>2021-01-10T10:28:39.000Z</time>
      </trkpt>
      <trkpt lat="47.25462" lon="-2.25728">
        <ele>-1.7999999523163</ele>
        <time>2021-01-10T10:28:40.000Z</time>
      </trkpt>
      <trkpt lat="47.25463" lon="-2.2573">
        <ele>-1.3999999761581</ele>
        <time>2021-01-10T10:28:41.000Z</time>
      </trkpt>
      <trkpt lat="47.25462" lon="-2.25731">
        <ele>-1.3999999761581</ele>
        <time>2021-01-10T10:28:42.000Z</time>
      </trkpt>
      <trkpt lat="47.25464" lon="-2.25745">
        <ele>-1.3999999761581</ele>
        <time>2021-01-10T10:28:49.000Z</time>
      </trkpt>
      <trkpt lat="47.25464" lon="-2.25747">
        <ele>-1</ele>
        <time>2021-01-10T10:28:50.000Z</time>
      </trkpt>
      <trkpt lat="47.25464" lon="-2.2575">
        <ele>-0.60000002384186</ele>
        <time>2021-01-10T10:28:51.000Z</time>
      </trkpt>
      <trkpt lat="47.25464" lon="-2.25752">
        <ele>-0.20000000298023</ele>
        <time>2021-01-10T10:28:52.000Z</time>
      </trkpt>
      <trkpt lat="47.25464" lon="-2.25755">
        <ele>0.20000000298023</ele>
        <time>2021-01-10T10:28:53.000Z</time>
      </trkpt>
      <trkpt lat="47.25463" lon="-2.25757">
        <ele>0.60000002384186</ele>
        <time>2021-01-10T10:28:54.000Z</time>
      </trkpt>
      <trkpt lat="47.25463" lon="-2.25762">
        <ele>0.60000002384186</ele>
        <time>2021-01-10T10:28:56.000Z</time>
      </trkpt>
      <trkpt lat="47.25459" lon="-2.25779">
        <ele>0.60000002384186</ele>
        <time>2021-01-10T10:29:02.000Z</time>
      </trkpt>
      <trkpt lat="47.25458" lon="-2.25786">
        <ele>1</ele>
        <time>2021-01-10T10:29:05.000Z</time>
      </trkpt>
      <trkpt lat="47.25457" lon="-2.25787">
        <ele>1.3999999761581</ele>
        <time>2021-01-10T10:29:06.000Z</time>
      </trkpt>
      <trkpt lat="47.25457" lon="-2.25789">
        <ele>1.7999999523163</ele>
        <time>2021-01-10T10:29:07.000Z</time>
      </trkpt>
      <trkpt lat="47.25457" lon="-2.25791">
        <ele>2.2000000476837</ele>
        <time>2021-01-10T10:29:08.000Z</time>
      </trkpt>
      <trkpt lat="47.25457" lon="-2.25793">
        <ele>2.5999999046326</ele>
        <time>2021-01-10T10:29:09.000Z</time>
      </trkpt>
      <trkpt lat="47.25456" lon="-2.25795">
        <ele>2.5999999046326</ele>
        <time>2021-01-10T10:29:10.000Z</time>
      </trkpt>
      <trkpt lat="47.25451" lon="-2.25804">
        <ele>2.5999999046326</ele>
        <time>2021-01-10T10:29:14.000Z</time>
      </trkpt>
      <trkpt lat="47.25448" lon="-2.25812">
        <ele>2.5999999046326</ele>
        <time>2021-01-10T10:29:16.000Z</time>
      </trkpt>
      <trkpt lat="47.25445" lon="-2.2583">
        <ele>2.2000000476837</ele>
        <time>2021-01-10T10:29:21.000Z</time>
      </trkpt>
      <trkpt lat="47.25444" lon="-2.25835">
        <ele>1.7999999523163</ele>
        <time>2021-01-10T10:29:22.000Z</time>
      </trkpt>
      <trkpt lat="47.25444" lon="-2.2584">
        <ele>1.3999999761581</ele>
        <time>2021-01-10T10:29:23.000Z</time>
      </trkpt>
      <trkpt lat="47.25443" lon="-2.25845">
        <ele>0.60000002384186</ele>
        <time>2021-01-10T10:29:24.000Z</time>
      </trkpt>
      <trkpt lat="47.25438" lon="-2.25861">
        <ele>0.60000002384186</ele>
        <time>2021-01-10T10:29:28.000Z</time>
      </trkpt>
      <trkpt lat="47.25431" lon="-2.25876">
        <ele>0.20000000298023</ele>
        <time>2021-01-10T10:29:32.000Z</time>
      </trkpt>
      <trkpt lat="47.2543" lon="-2.2588">
        <ele>-0.20000000298023</ele>
        <time>2021-01-10T10:29:33.000Z</time>
      </trkpt>
      <trkpt lat="47.2543" lon="-2.25884">
        <ele>-0.80000001192093</ele>
        <time>2021-01-10T10:29:34.000Z</time>
      </trkpt>
      <trkpt lat="47.2543" lon="-2.25888">
        <ele>-1.2000000476837</ele>
        <time>2021-01-10T10:29:35.000Z</time>
      </trkpt>
      <trkpt lat="47.25429" lon="-2.25894">
        <ele>-1.6000000238419</ele>
        <time>2021-01-10T10:29:36.000Z</time>
      </trkpt>
      <trkpt lat="47.25428" lon="-2.25899">
        <ele>-1.6000000238419</ele>
        <time>2021-01-10T10:29:38.000Z</time>
      </trkpt>
      <trkpt lat="47.2543" lon="-2.25921">
        <ele>-1.6000000238419</ele>
        <time>2021-01-10T10:29:44.000Z</time>
      </trkpt>
      <trkpt lat="47.25428" lon="-2.25936">
        <ele>-1.6000000238419</ele>
        <time>2021-01-10T10:29:49.000Z</time>
      </trkpt>
      <trkpt lat="47.25426" lon="-2.25939">
        <ele>-1.6000000238419</ele>
        <time>2021-01-10T10:29:50.000Z</time>
      </trkpt>
      <trkpt lat="47.25418" lon="-2.25949">
        <ele>-1.6000000238419</ele>
        <time>2021-01-10T10:29:55.000Z</time>
      </trkpt>
      <trkpt lat="47.25412" lon="-2.2596">
        <ele>-1.6000000238419</ele>
        <time>2021-01-10T10:30:00.000Z</time>
      </trkpt>
      <trkpt lat="47.25409" lon="-2.25965">
        <ele>-1.6000000238419</ele>
        <time>2021-01-10T10:30:03.000Z</time>
      </trkpt>
      <trkpt lat="47.25405" lon="-2.25973">
        <ele>-1.6000000238419</ele>
        <time>2021-01-10T10:30:06.000Z</time>
      </trkpt>
      <trkpt lat="47.254" lon="-2.25983">
        <ele>-1.6000000238419</ele>
        <time>2021-01-10T10:30:12.000Z</time>
      </trkpt>
      <trkpt lat="47.25399" lon="-2.25984">
        <ele>-1.6000000238419</ele>
        <time>2021-01-10T10:30:13.000Z</time>
      </trkpt>
      <trkpt lat="47.25393" lon="-2.25987">
        <ele>-1.6000000238419</ele>
        <time>2021-01-10T10:30:17.000Z</time>
      </trkpt>
      <trkpt lat="47.2539" lon="-2.25998">
        <ele>-1.2000000476837</ele>
        <time>2021-01-10T10:30:21.000Z</time>
      </trkpt>
      <trkpt lat="47.25391" lon="-2.25999">
        <ele>-0.80000001192093</ele>
        <time>2021-01-10T10:30:22.000Z</time>
      </trkpt>
      <trkpt lat="47.25391" lon="-2.26003">
        <ele>-0.20000000298023</ele>
        <time>2021-01-10T10:30:23.000Z</time>
      </trkpt>
      <trkpt lat="47.25392" lon="-2.26005">
        <ele>0.20000000298023</ele>
        <time>2021-01-10T10:30:24.000Z</time>
      </trkpt>
      <trkpt lat="47.25393" lon="-2.26008">
        <ele>0.60000002384186</ele>
        <time>2021-01-10T10:30:25.000Z</time>
      </trkpt>
      <trkpt lat="47.25393" lon="-2.26012">
        <ele>0.60000002384186</ele>
        <time>2021-01-10T10:30:27.000Z</time>
      </trkpt>
      <trkpt lat="47.25392" lon="-2.26017">
        <ele>1</ele>
        <time>2021-01-10T10:30:29.000Z</time>
      </trkpt>
      <trkpt lat="47.25392" lon="-2.26019">
        <ele>1.3999999761581</ele>
        <time>2021-01-10T10:30:30.000Z</time>
      </trkpt>
      <trkpt lat="47.25391" lon="-2.26022">
        <ele>1.7999999523163</ele>
        <time>2021-01-10T10:30:31.000Z</time>
      </trkpt>
      <trkpt lat="47.25391" lon="-2.26026">
        <ele>2.2000000476837</ele>
        <time>2021-01-10T10:30:32.000Z</time>
      </trkpt>
      <trkpt lat="47.25391" lon="-2.26028">
        <ele>2.5999999046326</ele>
        <time>2021-01-10T10:30:33.000Z</time>
      </trkpt>
      <trkpt lat="47.25391" lon="-2.26032">
        <ele>3</ele>
        <time>2021-01-10T10:30:35.000Z</time>
      </trkpt>
      <trkpt lat="47.25391" lon="-2.26036">
        <ele>3.4000000953674</ele>
        <time>2021-01-10T10:30:36.000Z</time>
      </trkpt>
      <trkpt lat="47.25391" lon="-2.26039">
        <ele>3.7999999523163</ele>
        <time>2021-01-10T10:30:37.000Z</time>
      </trkpt>
      <trkpt lat="47.25391" lon="-2.26042">
        <ele>4.8000001907349</ele>
        <time>2021-01-10T10:30:38.000Z</time>
      </trkpt>
      <trkpt lat="47.2539" lon="-2.26072">
        <ele>4.8000001907349</ele>
        <time>2021-01-10T10:30:44.000Z</time>
      </trkpt>
      <trkpt lat="47.25393" lon="-2.26087">
        <ele>4.8000001907349</ele>
        <time>2021-01-10T10:30:48.000Z</time>
      </trkpt>
      <trkpt lat="47.25394" lon="-2.26107">
        <ele>4.8000001907349</ele>
        <time>2021-01-10T10:30:53.000Z</time>
      </trkpt>
      <trkpt lat="47.25393" lon="-2.2611">
        <ele>4.8000001907349</ele>
        <time>2021-01-10T10:30:54.000Z</time>
      </trkpt>
      <trkpt lat="47.25387" lon="-2.26117">
        <ele>4.8000001907349</ele>
        <time>2021-01-10T10:30:58.000Z</time>
      </trkpt>
      <trkpt lat="47.25382" lon="-2.26122">
        <ele>5.1999998092651</ele>
        <time>2021-01-10T10:31:02.000Z</time>
      </trkpt>
      <trkpt lat="47.25382" lon="-2.26124">
        <ele>6</ele>
        <time>2021-01-10T10:31:03.000Z</time>
      </trkpt>
      <trkpt lat="47.25381" lon="-2.26127">
        <ele>6.5999999046326</ele>
        <time>2021-01-10T10:31:04.000Z</time>
      </trkpt>
      <trkpt lat="47.25381" lon="-2.26129">
        <ele>7</ele>
        <time>2021-01-10T10:31:05.000Z</time>
      </trkpt>
      <trkpt lat="47.25378" lon="-2.26143">
        <ele>7</ele>
        <time>2021-01-10T10:31:11.000Z</time>
      </trkpt>
      <trkpt lat="47.25373" lon="-2.26151">
        <ele>7</ele>
        <time>2021-01-10T10:31:17.000Z</time>
      </trkpt>
      <trkpt lat="47.25371" lon="-2.26149">
        <ele>7.4000000953674</ele>
        <time>2021-01-10T10:31:18.000Z</time>
      </trkpt>
      <trkpt lat="47.25371" lon="-2.26148">
        <ele>7.8000001907349</ele>
        <time>2021-01-10T10:31:19.000Z</time>
      </trkpt>
      <trkpt lat="47.25371" lon="-2.26149">
        <ele>8.1999998092651</ele>
        <time>2021-01-10T10:31:20.000Z</time>
      </trkpt>
      <trkpt lat="47.2537" lon="-2.26148">
        <ele>8.6000003814697</ele>
        <time>2021-01-10T10:31:21.000Z</time>
      </trkpt>
      <trkpt lat="47.2537" lon="-2.26147">
        <ele>9</ele>
        <time>2021-01-10T10:31:22.000Z</time>
      </trkpt>
      <trkpt lat="47.25362" lon="-2.26144">
        <ele>9</ele>
        <time>2021-01-10T10:31:29.000Z</time>
      </trkpt>
      <trkpt lat="47.25353" lon="-2.26148">
        <ele>9.6000003814697</ele>
        <time>2021-01-10T10:31:35.000Z</time>
      </trkpt>
      <trkpt lat="47.25351" lon="-2.26149">
        <ele>10</ele>
        <time>2021-01-10T10:31:36.000Z</time>
      </trkpt>
      <trkpt lat="47.2535" lon="-2.26149">
        <ele>10.39999961853</ele>
        <time>2021-01-10T10:31:37.000Z</time>
      </trkpt>
      <trkpt lat="47.25349" lon="-2.2615">
        <ele>10.800000190735</ele>
        <time>2021-01-10T10:31:38.000Z</time>
      </trkpt>
      <trkpt lat="47.25348" lon="-2.26151">
        <ele>11.199999809265</ele>
        <time>2021-01-10T10:31:39.000Z</time>
      </trkpt>
      <trkpt lat="47.25347" lon="-2.26153">
        <ele>11.199999809265</ele>
        <time>2021-01-10T10:31:41.000Z</time>
      </trkpt>
      <trkpt lat="47.25347" lon="-2.26155">
        <ele>11.199999809265</ele>
        <time>2021-01-10T10:31:44.000Z</time>
      </trkpt>
      <trkpt lat="47.25343" lon="-2.26158">
        <ele>12.800000190735</ele>
        <time>2021-01-10T10:32:02.000Z</time>
      </trkpt>
      <trkpt lat="47.25342" lon="-2.26157">
        <ele>13.39999961853</ele>
        <time>2021-01-10T10:32:03.000Z</time>
      </trkpt>
      <trkpt lat="47.25341" lon="-2.26158">
        <ele>13.39999961853</ele>
        <time>2021-01-10T10:32:06.000Z</time>
      </trkpt>
      <trkpt lat="47.25344" lon="-2.26149">
        <ele>13.39999961853</ele>
        <time>2021-01-10T10:32:47.000Z</time>
      </trkpt>
      <trkpt lat="47.25345" lon="-2.26148">
        <ele>13.39999961853</ele>
        <time>2021-01-10T10:32:48.000Z</time>
      </trkpt>
      <trkpt lat="47.25352" lon="-2.26145">
        <ele>12.800000190735</ele>
        <time>2021-01-10T10:32:51.000Z</time>
      </trkpt>
      <trkpt lat="47.25355" lon="-2.26146">
        <ele>12.39999961853</ele>
        <time>2021-01-10T10:32:52.000Z</time>
      </trkpt>
      <trkpt lat="47.25357" lon="-2.26146">
        <ele>12</ele>
        <time>2021-01-10T10:32:53.000Z</time>
      </trkpt>
      <trkpt lat="47.25359" lon="-2.26149">
        <ele>11.60000038147</ele>
        <time>2021-01-10T10:32:54.000Z</time>
      </trkpt>
      <trkpt lat="47.25361" lon="-2.26153">
        <ele>11.199999809265</ele>
        <time>2021-01-10T10:32:55.000Z</time>
      </trkpt>
      <trkpt lat="47.25363" lon="-2.26158">
        <ele>11.199999809265</ele>
        <time>2021-01-10T10:32:56.000Z</time>
      </trkpt>
      <trkpt lat="47.25368" lon="-2.26183">
        <ele>11.199999809265</ele>
        <time>2021-01-10T10:33:01.000Z</time>
      </trkpt>
      <trkpt lat="47.25375" lon="-2.26199">
        <ele>11.199999809265</ele>
        <time>2021-01-10T10:33:06.000Z</time>
      </trkpt>
      <trkpt lat="47.25382" lon="-2.26216">
        <ele>11.199999809265</ele>
        <time>2021-01-10T10:33:09.000Z</time>
      </trkpt>
      <trkpt lat="47.25386" lon="-2.26224">
        <ele>11.199999809265</ele>
        <time>2021-01-10T10:33:10.000Z</time>
      </trkpt>
      <trkpt lat="47.25388" lon="-2.26243">
        <ele>11.199999809265</ele>
        <time>2021-01-10T10:33:13.000Z</time>
      </trkpt>
      <trkpt lat="47.25387" lon="-2.26248">
        <ele>11.60000038147</ele>
        <time>2021-01-10T10:33:14.000Z</time>
      </trkpt>
      <trkpt lat="47.25387" lon="-2.26252">
        <ele>12</ele>
        <time>2021-01-10T10:33:15.000Z</time>
      </trkpt>
      <trkpt lat="47.25386" lon="-2.26256">
        <ele>12.39999961853</ele>
        <time>2021-01-10T10:33:16.000Z</time>
      </trkpt>
      <trkpt lat="47.25386" lon="-2.2626">
        <ele>12.800000190735</ele>
        <time>2021-01-10T10:33:17.000Z</time>
      </trkpt>
      <trkpt lat="47.25386" lon="-2.26264">
        <ele>13.199999809265</ele>
        <time>2021-01-10T10:33:18.000Z</time>
      </trkpt>
      <trkpt lat="47.25387" lon="-2.26268">
        <ele>13.199999809265</ele>
        <time>2021-01-10T10:33:19.000Z</time>
      </trkpt>
      <trkpt lat="47.25388" lon="-2.26273">
        <ele>13.60000038147</ele>
        <time>2021-01-10T10:33:20.000Z</time>
      </trkpt>
      <trkpt lat="47.25389" lon="-2.26277">
        <ele>14.199999809265</ele>
        <time>2021-01-10T10:33:21.000Z</time>
      </trkpt>
      <trkpt lat="47.25391" lon="-2.26282">
        <ele>14.60000038147</ele>
        <time>2021-01-10T10:33:22.000Z</time>
      </trkpt>
      <trkpt lat="47.25392" lon="-2.26288">
        <ele>15</ele>
        <time>2021-01-10T10:33:23.000Z</time>
      </trkpt>
      <trkpt lat="47.25394" lon="-2.26293">
        <ele>15.39999961853</ele>
        <time>2021-01-10T10:33:24.000Z</time>
      </trkpt>
      <trkpt lat="47.25396" lon="-2.26298">
        <ele>15.39999961853</ele>
        <time>2021-01-10T10:33:25.000Z</time>
      </trkpt>
      <trkpt lat="47.25405" lon="-2.26322">
        <ele>15.39999961853</ele>
        <time>2021-01-10T10:33:30.000Z</time>
      </trkpt>
      <trkpt lat="47.2541" lon="-2.26346">
        <ele>15.39999961853</ele>
        <time>2021-01-10T10:33:35.000Z</time>
      </trkpt>
      <trkpt lat="47.25416" lon="-2.26367">
        <ele>15</ele>
        <time>2021-01-10T10:33:40.000Z</time>
      </trkpt>
      <trkpt lat="47.25418" lon="-2.26372">
        <ele>14.39999961853</ele>
        <time>2021-01-10T10:33:41.000Z</time>
      </trkpt>
      <trkpt lat="47.25419" lon="-2.26377">
        <ele>14</ele>
        <time>2021-01-10T10:33:42.000Z</time>
      </trkpt>
      <trkpt lat="47.25421" lon="-2.26383">
        <ele>13.39999961853</ele>
        <time>2021-01-10T10:33:43.000Z</time>
      </trkpt>
      <trkpt lat="47.25424" lon="-2.26392">
        <ele>13</ele>
        <time>2021-01-10T10:33:44.000Z</time>
      </trkpt>
      <trkpt lat="47.25427" lon="-2.26416">
        <ele>13</ele>
        <time>2021-01-10T10:33:48.000Z</time>
      </trkpt>
      <trkpt lat="47.25436" lon="-2.26422">
        <ele>13</ele>
        <time>2021-01-10T10:33:52.000Z</time>
      </trkpt>
      <trkpt lat="47.25444" lon="-2.26404">
        <ele>13</ele>
        <time>2021-01-10T10:33:55.000Z</time>
      </trkpt>
      <trkpt lat="47.25447" lon="-2.2639">
        <ele>13</ele>
        <time>2021-01-10T10:33:57.000Z</time>
      </trkpt>
      <trkpt lat="47.2545" lon="-2.26369">
        <ele>13</ele>
        <time>2021-01-10T10:34:00.000Z</time>
      </trkpt>
      <trkpt lat="47.25453" lon="-2.2635">
        <ele>12.60000038147</ele>
        <time>2021-01-10T10:34:03.000Z</time>
      </trkpt>
      <trkpt lat="47.25454" lon="-2.26346">
        <ele>12</ele>
        <time>2021-01-10T10:34:04.000Z</time>
      </trkpt>
      <trkpt lat="47.25454" lon="-2.26342">
        <ele>11.60000038147</ele>
        <time>2021-01-10T10:34:05.000Z</time>
      </trkpt>
      <trkpt lat="47.25453" lon="-2.26337">
        <ele>11.199999809265</ele>
        <time>2021-01-10T10:34:06.000Z</time>
      </trkpt>
      <trkpt lat="47.25453" lon="-2.26332">
        <ele>10.800000190735</ele>
        <time>2021-01-10T10:34:07.000Z</time>
      </trkpt>
      <trkpt lat="47.2545" lon="-2.26312">
        <ele>10.800000190735</ele>
        <time>2021-01-10T10:34:10.000Z</time>
      </trkpt>
      <trkpt lat="47.2545" lon="-2.26304">
        <ele>10.800000190735</ele>
        <time>2021-01-10T10:34:11.000Z</time>
      </trkpt>
      <trkpt lat="47.25454" lon="-2.26289">
        <ele>10.800000190735</ele>
        <time>2021-01-10T10:34:14.000Z</time>
      </trkpt>
      <trkpt lat="47.2546" lon="-2.26282">
        <ele>10.800000190735</ele>
        <time>2021-01-10T10:34:17.000Z</time>
      </trkpt>
      <trkpt lat="47.25462" lon="-2.26281">
        <ele>10.800000190735</ele>
        <time>2021-01-10T10:34:18.000Z</time>
      </trkpt>
      <trkpt lat="47.25463" lon="-2.26282">
        <ele>11.39999961853</ele>
        <time>2021-01-10T10:34:19.000Z</time>
      </trkpt>
      <trkpt lat="47.25464" lon="-2.26283">
        <ele>11.800000190735</ele>
        <time>2021-01-10T10:34:20.000Z</time>
      </trkpt>
      <trkpt lat="47.25464" lon="-2.26285">
        <ele>12.60000038147</ele>
        <time>2021-01-10T10:34:21.000Z</time>
      </trkpt>
      <trkpt lat="47.25465" lon="-2.26286">
        <ele>13</ele>
        <time>2021-01-10T10:34:22.000Z</time>
      </trkpt>
      <trkpt lat="47.25465" lon="-2.26288">
        <ele>13.39999961853</ele>
        <time>2021-01-10T10:34:23.000Z</time>
      </trkpt>
      <trkpt lat="47.25465" lon="-2.2629">
        <ele>13.800000190735</ele>
        <time>2021-01-10T10:34:24.000Z</time>
      </trkpt>
      <trkpt lat="47.25466" lon="-2.26291">
        <ele>14.39999961853</ele>
        <time>2021-01-10T10:34:25.000Z</time>
      </trkpt>
      <trkpt lat="47.25466" lon="-2.26294">
        <ele>14.800000190735</ele>
        <time>2021-01-10T10:34:26.000Z</time>
      </trkpt>
      <trkpt lat="47.25467" lon="-2.26297">
        <ele>15.199999809265</ele>
        <time>2021-01-10T10:34:27.000Z</time>
      </trkpt>
      <trkpt lat="47.25468" lon="-2.26305">
        <ele>15.199999809265</ele>
        <time>2021-01-10T10:34:29.000Z</time>
      </trkpt>
      <trkpt lat="47.25471" lon="-2.26319">
        <ele>15.199999809265</ele>
        <time>2021-01-10T10:34:34.000Z</time>
      </trkpt>
      <trkpt lat="47.25473" lon="-2.26324">
        <ele>15.199999809265</ele>
        <time>2021-01-10T10:34:36.000Z</time>
      </trkpt>
      <trkpt lat="47.25476" lon="-2.26338">
        <ele>15.199999809265</ele>
        <time>2021-01-10T10:34:40.000Z</time>
      </trkpt>
      <trkpt lat="47.25475" lon="-2.2636">
        <ele>15.199999809265</ele>
        <time>2021-01-10T10:34:46.000Z</time>
      </trkpt>
      <trkpt lat="47.2548" lon="-2.26375">
        <ele>15.60000038147</ele>
        <time>2021-01-10T10:34:51.000Z</time>
      </trkpt>
      <trkpt lat="47.25481" lon="-2.26377">
        <ele>16</ele>
        <time>2021-01-10T10:34:52.000Z</time>
      </trkpt>
      <trkpt lat="47.25482" lon="-2.26379">
        <ele>16.39999961853</ele>
        <time>2021-01-10T10:34:53.000Z</time>
      </trkpt>
      <trkpt lat="47.25483" lon="-2.26382">
        <ele>16.799999237061</ele>
        <time>2021-01-10T10:34:54.000Z</time>
      </trkpt>
      <trkpt lat="47.25484" lon="-2.26385">
        <ele>17.200000762939</ele>
        <time>2021-01-10T10:34:55.000Z</time>
      </trkpt>
      <trkpt lat="47.25485" lon="-2.2639">
        <ele>17.200000762939</ele>
        <time>2021-01-10T10:34:57.000Z</time>
      </trkpt>
      <trkpt lat="47.25485" lon="-2.26404">
        <ele>17.200000762939</ele>
        <time>2021-01-10T10:35:02.000Z</time>
      </trkpt>
      <trkpt lat="47.25485" lon="-2.26408">
        <ele>17.60000038147</ele>
        <time>2021-01-10T10:35:03.000Z</time>
      </trkpt>
      <trkpt lat="47.25486" lon="-2.26412">
        <ele>18</ele>
        <time>2021-01-10T10:35:04.000Z</time>
      </trkpt>
      <trkpt lat="47.25486" lon="-2.26416">
        <ele>18.39999961853</ele>
        <time>2021-01-10T10:35:05.000Z</time>
      </trkpt>
      <trkpt lat="47.25486" lon="-2.2642">
        <ele>18.799999237061</ele>
        <time>2021-01-10T10:35:06.000Z</time>
      </trkpt>
      <trkpt lat="47.25486" lon="-2.26424">
        <ele>19.39999961853</ele>
        <time>2021-01-10T10:35:07.000Z</time>
      </trkpt>
      <trkpt lat="47.25485" lon="-2.26433">
        <ele>19.39999961853</ele>
        <time>2021-01-10T10:35:09.000Z</time>
      </trkpt>
      <trkpt lat="47.25478" lon="-2.26459">
        <ele>19.39999961853</ele>
        <time>2021-01-10T10:35:15.000Z</time>
      </trkpt>
      <trkpt lat="47.25478" lon="-2.26469">
        <ele>19.39999961853</ele>
        <time>2021-01-10T10:35:17.000Z</time>
      </trkpt>
      <trkpt lat="47.25482" lon="-2.26479">
        <ele>19.39999961853</ele>
        <time>2021-01-10T10:35:19.000Z</time>
      </trkpt>
      <trkpt lat="47.25483" lon="-2.26506">
        <ele>19.39999961853</ele>
        <time>2021-01-10T10:35:24.000Z</time>
      </trkpt>
      <trkpt lat="47.25487" lon="-2.2654">
        <ele>19.39999961853</ele>
        <time>2021-01-10T10:35:28.000Z</time>
      </trkpt>
      <trkpt lat="47.25492" lon="-2.2657">
        <ele>19.39999961853</ele>
        <time>2021-01-10T10:35:32.000Z</time>
      </trkpt>
      <trkpt lat="47.25492" lon="-2.26584">
        <ele>19.39999961853</ele>
        <time>2021-01-10T10:35:34.000Z</time>
      </trkpt>
      <trkpt lat="47.25489" lon="-2.26633">
        <ele>19.39999961853</ele>
        <time>2021-01-10T10:35:40.000Z</time>
      </trkpt>
      <trkpt lat="47.25487" lon="-2.26672">
        <ele>19.39999961853</ele>
        <time>2021-01-10T10:35:46.000Z</time>
      </trkpt>
      <trkpt lat="47.25479" lon="-2.26699">
        <ele>19.39999961853</ele>
        <time>2021-01-10T10:35:51.000Z</time>
      </trkpt>
      <trkpt lat="47.25474" lon="-2.26719">
        <ele>19.39999961853</ele>
        <time>2021-01-10T10:35:56.000Z</time>
      </trkpt>
      <trkpt lat="47.25474" lon="-2.26722">
        <ele>19.799999237061</ele>
        <time>2021-01-10T10:35:57.000Z</time>
      </trkpt>
      <trkpt lat="47.25474" lon="-2.26725">
        <ele>20.200000762939</ele>
        <time>2021-01-10T10:35:58.000Z</time>
      </trkpt>
      <trkpt lat="47.25474" lon="-2.26729">
        <ele>20.60000038147</ele>
        <time>2021-01-10T10:35:59.000Z</time>
      </trkpt>
      <trkpt lat="47.25474" lon="-2.26733">
        <ele>21.60000038147</ele>
        <time>2021-01-10T10:36:00.000Z</time>
      </trkpt>
      <trkpt lat="47.25475" lon="-2.26736">
        <ele>21.60000038147</ele>
        <time>2021-01-10T10:36:01.000Z</time>
      </trkpt>
      <trkpt lat="47.25477" lon="-2.26738">
        <ele>21.60000038147</ele>
        <time>2021-01-10T10:36:04.000Z</time>
      </trkpt>
      <trkpt lat="47.25479" lon="-2.26741">
        <ele>21.60000038147</ele>
        <time>2021-01-10T10:36:56.000Z</time>
      </trkpt>
      <trkpt lat="47.25482" lon="-2.2675">
        <ele>21.60000038147</ele>
        <time>2021-01-10T10:36:59.000Z</time>
      </trkpt>
      <trkpt lat="47.25486" lon="-2.26758">
        <ele>21.60000038147</ele>
        <time>2021-01-10T10:37:01.000Z</time>
      </trkpt>
      <trkpt lat="47.25495" lon="-2.26774">
        <ele>21.60000038147</ele>
        <time>2021-01-10T10:37:05.000Z</time>
      </trkpt>
      <trkpt lat="47.25506" lon="-2.26792">
        <ele>21.60000038147</ele>
        <time>2021-01-10T10:37:09.000Z</time>
      </trkpt>
      <trkpt lat="47.25512" lon="-2.26801">
        <ele>22</ele>
        <time>2021-01-10T10:37:11.000Z</time>
      </trkpt>
      <trkpt lat="47.25516" lon="-2.26805">
        <ele>22.39999961853</ele>
        <time>2021-01-10T10:37:12.000Z</time>
      </trkpt>
      <trkpt lat="47.25519" lon="-2.26809">
        <ele>22.799999237061</ele>
        <time>2021-01-10T10:37:13.000Z</time>
      </trkpt>
      <trkpt lat="47.25522" lon="-2.26813">
        <ele>23.60000038147</ele>
        <time>2021-01-10T10:37:14.000Z</time>
      </trkpt>
      <trkpt lat="47.25536" lon="-2.26829">
        <ele>23.60000038147</ele>
        <time>2021-01-10T10:37:18.000Z</time>
      </trkpt>
      <trkpt lat="47.25549" lon="-2.26841">
        <ele>24</ele>
        <time>2021-01-10T10:37:22.000Z</time>
      </trkpt>
      <trkpt lat="47.25552" lon="-2.26844">
        <ele>24.60000038147</ele>
        <time>2021-01-10T10:37:23.000Z</time>
      </trkpt>
      <trkpt lat="47.25556" lon="-2.26847">
        <ele>25</ele>
        <time>2021-01-10T10:37:24.000Z</time>
      </trkpt>
      <trkpt lat="47.25559" lon="-2.26849">
        <ele>25.39999961853</ele>
        <time>2021-01-10T10:37:25.000Z</time>
      </trkpt>
      <trkpt lat="47.25563" lon="-2.26852">
        <ele>25.799999237061</ele>
        <time>2021-01-10T10:37:26.000Z</time>
      </trkpt>
      <trkpt lat="47.25574" lon="-2.26858">
        <ele>25.799999237061</ele>
        <time>2021-01-10T10:37:29.000Z</time>
      </trkpt>
      <trkpt lat="47.25578" lon="-2.2686">
        <ele>26.200000762939</ele>
        <time>2021-01-10T10:37:30.000Z</time>
      </trkpt>
      <trkpt lat="47.25581" lon="-2.26861">
        <ele>26.60000038147</ele>
        <time>2021-01-10T10:37:31.000Z</time>
      </trkpt>
      <trkpt lat="47.25584" lon="-2.26863">
        <ele>27</ele>
        <time>2021-01-10T10:37:32.000Z</time>
      </trkpt>
      <trkpt lat="47.25588" lon="-2.26865">
        <ele>27.39999961853</ele>
        <time>2021-01-10T10:37:33.000Z</time>
      </trkpt>
      <trkpt lat="47.25591" lon="-2.26867">
        <ele>27.799999237061</ele>
        <time>2021-01-10T10:37:34.000Z</time>
      </trkpt>
      <trkpt lat="47.25595" lon="-2.26868">
        <ele>27.799999237061</ele>
        <time>2021-01-10T10:37:35.000Z</time>
      </trkpt>
      <trkpt lat="47.2561" lon="-2.26875">
        <ele>28.39999961853</ele>
        <time>2021-01-10T10:37:40.000Z</time>
      </trkpt>
      <trkpt lat="47.25613" lon="-2.26877">
        <ele>28.799999237061</ele>
        <time>2021-01-10T10:37:41.000Z</time>
      </trkpt>
      <trkpt lat="47.25616" lon="-2.26878">
        <ele>29.200000762939</ele>
        <time>2021-01-10T10:37:42.000Z</time>
      </trkpt>
      <trkpt lat="47.25619" lon="-2.26878">
        <ele>29.60000038147</ele>
        <time>2021-01-10T10:37:43.000Z</time>
      </trkpt>
      <trkpt lat="47.25623" lon="-2.26878">
        <ele>30</ele>
        <time>2021-01-10T10:37:44.000Z</time>
      </trkpt>
      <trkpt lat="47.25626" lon="-2.26876">
        <ele>30</ele>
        <time>2021-01-10T10:37:45.000Z</time>
      </trkpt>
      <trkpt lat="47.25637" lon="-2.26857">
        <ele>30.39999961853</ele>
        <time>2021-01-10T10:37:49.000Z</time>
      </trkpt>
      <trkpt lat="47.25641" lon="-2.26853">
        <ele>31</ele>
        <time>2021-01-10T10:37:50.000Z</time>
      </trkpt>
      <trkpt lat="47.25643" lon="-2.26848">
        <ele>31.39999961853</ele>
        <time>2021-01-10T10:37:51.000Z</time>
      </trkpt>
      <trkpt lat="47.25645" lon="-2.26844">
        <ele>31.799999237061</ele>
        <time>2021-01-10T10:37:52.000Z</time>
      </trkpt>
      <trkpt lat="47.25648" lon="-2.2684">
        <ele>32.200000762939</ele>
        <time>2021-01-10T10:37:53.000Z</time>
      </trkpt>
      <trkpt lat="47.25656" lon="-2.26829">
        <ele>32.200000762939</ele>
        <time>2021-01-10T10:37:56.000Z</time>
      </trkpt>
      <trkpt lat="47.25673" lon="-2.26816">
        <ele>32.200000762939</ele>
        <time>2021-01-10T10:38:01.000Z</time>
      </trkpt>
      <trkpt lat="47.25681" lon="-2.26814">
        <ele>32.200000762939</ele>
        <time>2021-01-10T10:38:03.000Z</time>
      </trkpt>
      <trkpt lat="47.25694" lon="-2.26817">
        <ele>32.200000762939</ele>
        <time>2021-01-10T10:38:06.000Z</time>
      </trkpt>
      <trkpt lat="47.25705" lon="-2.26822">
        <ele>32.200000762939</ele>
        <time>2021-01-10T10:38:09.000Z</time>
      </trkpt>
      <trkpt lat="47.25717" lon="-2.2683">
        <ele>32.200000762939</ele>
        <time>2021-01-10T10:38:12.000Z</time>
      </trkpt>
      <trkpt lat="47.25725" lon="-2.26838">
        <ele>32.200000762939</ele>
        <time>2021-01-10T10:38:14.000Z</time>
      </trkpt>
      <trkpt lat="47.25735" lon="-2.26851">
        <ele>32.200000762939</ele>
        <time>2021-01-10T10:38:17.000Z</time>
      </trkpt>
      <trkpt lat="47.25747" lon="-2.26882">
        <ele>32.200000762939</ele>
        <time>2021-01-10T10:38:23.000Z</time>
      </trkpt>
      <trkpt lat="47.25749" lon="-2.26894">
        <ele>32.200000762939</ele>
        <time>2021-01-10T10:38:25.000Z</time>
      </trkpt>
      <trkpt lat="47.25753" lon="-2.26902">
        <ele>32.200000762939</ele>
        <time>2021-01-10T10:38:27.000Z</time>
      </trkpt>
      <trkpt lat="47.25765" lon="-2.269">
        <ele>32.200000762939</ele>
        <time>2021-01-10T10:38:30.000Z</time>
      </trkpt>
      <trkpt lat="47.25774" lon="-2.26895">
        <ele>32.200000762939</ele>
        <time>2021-01-10T10:38:32.000Z</time>
      </trkpt>
      <trkpt lat="47.25786" lon="-2.26888">
        <ele>32.200000762939</ele>
        <time>2021-01-10T10:38:35.000Z</time>
      </trkpt>
      <trkpt lat="47.25818" lon="-2.2687">
        <ele>32.200000762939</ele>
        <time>2021-01-10T10:38:42.000Z</time>
      </trkpt>
      <trkpt lat="47.25834" lon="-2.26862">
        <ele>31.799999237061</ele>
        <time>2021-01-10T10:38:45.000Z</time>
      </trkpt>
      <trkpt lat="47.2584" lon="-2.2686">
        <ele>31.39999961853</ele>
        <time>2021-01-10T10:38:46.000Z</time>
      </trkpt>
      <trkpt lat="47.25846" lon="-2.26858">
        <ele>31</ele>
        <time>2021-01-10T10:38:47.000Z</time>
      </trkpt>
      <trkpt lat="47.25851" lon="-2.26856">
        <ele>30.60000038147</ele>
        <time>2021-01-10T10:38:48.000Z</time>
      </trkpt>
      <trkpt lat="47.25857" lon="-2.26855">
        <ele>30.200000762939</ele>
        <time>2021-01-10T10:38:49.000Z</time>
      </trkpt>
      <trkpt lat="47.25879" lon="-2.26843">
        <ele>30.200000762939</ele>
        <time>2021-01-10T10:38:53.000Z</time>
      </trkpt>
      <trkpt lat="47.25884" lon="-2.26841">
        <ele>30.200000762939</ele>
        <time>2021-01-10T10:38:54.000Z</time>
      </trkpt>
      <trkpt lat="47.25895" lon="-2.26837">
        <ele>30.200000762939</ele>
        <time>2021-01-10T10:38:56.000Z</time>
      </trkpt>
      <trkpt lat="47.25906" lon="-2.26831">
        <ele>30.200000762939</ele>
        <time>2021-01-10T10:38:58.000Z</time>
      </trkpt>
      <trkpt lat="47.25911" lon="-2.26828">
        <ele>29.799999237061</ele>
        <time>2021-01-10T10:38:59.000Z</time>
      </trkpt>
      <trkpt lat="47.25916" lon="-2.26824">
        <ele>29.39999961853</ele>
        <time>2021-01-10T10:39:00.000Z</time>
      </trkpt>
      <trkpt lat="47.25922" lon="-2.26821">
        <ele>29</ele>
        <time>2021-01-10T10:39:01.000Z</time>
      </trkpt>
      <trkpt lat="47.25927" lon="-2.26819">
        <ele>28.39999961853</ele>
        <time>2021-01-10T10:39:02.000Z</time>
      </trkpt>
      <trkpt lat="47.25933" lon="-2.26817">
        <ele>28</ele>
        <time>2021-01-10T10:39:03.000Z</time>
      </trkpt>
      <trkpt lat="47.25938" lon="-2.26816">
        <ele>28</ele>
        <time>2021-01-10T10:39:04.000Z</time>
      </trkpt>
      <trkpt lat="47.25949" lon="-2.26814">
        <ele>28</ele>
        <time>2021-01-10T10:39:06.000Z</time>
      </trkpt>
      <trkpt lat="47.25971" lon="-2.26808">
        <ele>28</ele>
        <time>2021-01-10T10:39:10.000Z</time>
      </trkpt>
      <trkpt lat="47.25976" lon="-2.26807">
        <ele>27.60000038147</ele>
        <time>2021-01-10T10:39:11.000Z</time>
      </trkpt>
      <trkpt lat="47.2598" lon="-2.26808">
        <ele>27.200000762939</ele>
        <time>2021-01-10T10:39:12.000Z</time>
      </trkpt>
      <trkpt lat="47.25984" lon="-2.26812">
        <ele>26.799999237061</ele>
        <time>2021-01-10T10:39:13.000Z</time>
      </trkpt>
      <trkpt lat="47.25986" lon="-2.26816">
        <ele>26.39999961853</ele>
        <time>2021-01-10T10:39:14.000Z</time>
      </trkpt>
      <trkpt lat="47.25987" lon="-2.26821">
        <ele>26</ele>
        <time>2021-01-10T10:39:15.000Z</time>
      </trkpt>
      <trkpt lat="47.25988" lon="-2.26827">
        <ele>26</ele>
        <time>2021-01-10T10:39:16.000Z</time>
      </trkpt>
      <trkpt lat="47.25988" lon="-2.26833">
        <ele>26</ele>
        <time>2021-01-10T10:39:17.000Z</time>
      </trkpt>
      <trkpt lat="47.2599" lon="-2.26856">
        <ele>26</ele>
        <time>2021-01-10T10:39:20.000Z</time>
      </trkpt>
      <trkpt lat="47.25994" lon="-2.26888">
        <ele>26</ele>
        <time>2021-01-10T10:39:24.000Z</time>
      </trkpt>
      <trkpt lat="47.26" lon="-2.26904">
        <ele>26</ele>
        <time>2021-01-10T10:39:26.000Z</time>
      </trkpt>
      <trkpt lat="47.26021" lon="-2.26939">
        <ele>26</ele>
        <time>2021-01-10T10:39:31.000Z</time>
      </trkpt>
      <trkpt lat="47.26042" lon="-2.26966">
        <ele>26</ele>
        <time>2021-01-10T10:39:36.000Z</time>
      </trkpt>
      <trkpt lat="47.26048" lon="-2.26972">
        <ele>26</ele>
        <time>2021-01-10T10:39:37.000Z</time>
      </trkpt>
      <trkpt lat="47.26057" lon="-2.26984">
        <ele>26</ele>
        <time>2021-01-10T10:39:39.000Z</time>
      </trkpt>
      <trkpt lat="47.26072" lon="-2.27012">
        <ele>26</ele>
        <time>2021-01-10T10:39:43.000Z</time>
      </trkpt>
      <trkpt lat="47.26078" lon="-2.27027">
        <ele>26</ele>
        <time>2021-01-10T10:39:45.000Z</time>
      </trkpt>
      <trkpt lat="47.26092" lon="-2.27077">
        <ele>26</ele>
        <time>2021-01-10T10:39:51.000Z</time>
      </trkpt>
      <trkpt lat="47.26103" lon="-2.27138">
        <ele>26</ele>
        <time>2021-01-10T10:39:58.000Z</time>
      </trkpt>
      <trkpt lat="47.26115" lon="-2.27177">
        <ele>26</ele>
        <time>2021-01-10T10:40:03.000Z</time>
      </trkpt>
      <trkpt lat="47.26118" lon="-2.27184">
        <ele>26</ele>
        <time>2021-01-10T10:40:04.000Z</time>
      </trkpt>
      <trkpt lat="47.26132" lon="-2.27219">
        <ele>26</ele>
        <time>2021-01-10T10:40:09.000Z</time>
      </trkpt>
      <trkpt lat="47.26138" lon="-2.27242">
        <ele>26</ele>
        <time>2021-01-10T10:40:12.000Z</time>
      </trkpt>
      <trkpt lat="47.26146" lon="-2.27285">
        <ele>26</ele>
        <time>2021-01-10T10:40:18.000Z</time>
      </trkpt>
      <trkpt lat="47.26149" lon="-2.27309">
        <ele>26</ele>
        <time>2021-01-10T10:40:23.000Z</time>
      </trkpt>
      <trkpt lat="47.26148" lon="-2.27311">
        <ele>26</ele>
        <time>2021-01-10T10:40:25.000Z</time>
      </trkpt>
      <trkpt lat="47.2615" lon="-2.27312">
        <ele>26</ele>
        <time>2021-01-10T10:41:17.000Z</time>
      </trkpt>
      <trkpt lat="47.26162" lon="-2.27315">
        <ele>26</ele>
        <time>2021-01-10T10:41:23.000Z</time>
      </trkpt>
      <trkpt lat="47.26182" lon="-2.27313">
        <ele>26</ele>
        <time>2021-01-10T10:41:28.000Z</time>
      </trkpt>
      <trkpt lat="47.26206" lon="-2.27312">
        <ele>26</ele>
        <time>2021-01-10T10:41:33.000Z</time>
      </trkpt>
      <trkpt lat="47.26235" lon="-2.27317">
        <ele>26</ele>
        <time>2021-01-10T10:41:39.000Z</time>
      </trkpt>
      <trkpt lat="47.26239" lon="-2.27318">
        <ele>26</ele>
        <time>2021-01-10T10:41:40.000Z</time>
      </trkpt>
      <trkpt lat="47.26249" lon="-2.2732">
        <ele>26</ele>
        <time>2021-01-10T10:41:42.000Z</time>
      </trkpt>
      <trkpt lat="47.26254" lon="-2.2732">
        <ele>26</ele>
        <time>2021-01-10T10:41:43.000Z</time>
      </trkpt>
      <trkpt lat="47.26271" lon="-2.27321">
        <ele>26</ele>
        <time>2021-01-10T10:41:46.000Z</time>
      </trkpt>
      <trkpt lat="47.26293" lon="-2.27323">
        <ele>26</ele>
        <time>2021-01-10T10:41:50.000Z</time>
      </trkpt>
      <trkpt lat="47.26327" lon="-2.27326">
        <ele>26</ele>
        <time>2021-01-10T10:41:56.000Z</time>
      </trkpt>
      <trkpt lat="47.26332" lon="-2.27327">
        <ele>26</ele>
        <time>2021-01-10T10:41:57.000Z</time>
      </trkpt>
      <trkpt lat="47.26352" lon="-2.27329">
        <ele>26</ele>
        <time>2021-01-10T10:42:01.000Z</time>
      </trkpt>
      <trkpt lat="47.2639" lon="-2.27329">
        <ele>26</ele>
        <time>2021-01-10T10:42:08.000Z</time>
      </trkpt>
      <trkpt lat="47.26407" lon="-2.2733">
        <ele>25</ele>
        <time>2021-01-10T10:42:11.000Z</time>
      </trkpt>
      <trkpt lat="47.26412" lon="-2.27332">
        <ele>24.60000038147</ele>
        <time>2021-01-10T10:42:12.000Z</time>
      </trkpt>
      <trkpt lat="47.26416" lon="-2.27334">
        <ele>24.200000762939</ele>
        <time>2021-01-10T10:42:13.000Z</time>
      </trkpt>
      <trkpt lat="47.26421" lon="-2.27336">
        <ele>23.60000038147</ele>
        <time>2021-01-10T10:42:14.000Z</time>
      </trkpt>
      <trkpt lat="47.26424" lon="-2.27338">
        <ele>23.60000038147</ele>
        <time>2021-01-10T10:42:15.000Z</time>
      </trkpt>
      <trkpt lat="47.26429" lon="-2.27346">
        <ele>23.60000038147</ele>
        <time>2021-01-10T10:42:17.000Z</time>
      </trkpt>
      <trkpt lat="47.26437" lon="-2.27364">
        <ele>23.200000762939</ele>
        <time>2021-01-10T10:42:21.000Z</time>
      </trkpt>
      <trkpt lat="47.26439" lon="-2.2737">
        <ele>22.799999237061</ele>
        <time>2021-01-10T10:42:22.000Z</time>
      </trkpt>
      <trkpt lat="47.26441" lon="-2.27375">
        <ele>22.39999961853</ele>
        <time>2021-01-10T10:42:23.000Z</time>
      </trkpt>
      <trkpt lat="47.26442" lon="-2.2738">
        <ele>22</ele>
        <time>2021-01-10T10:42:24.000Z</time>
      </trkpt>
      <trkpt lat="47.26444" lon="-2.27386">
        <ele>21.60000038147</ele>
        <time>2021-01-10T10:42:25.000Z</time>
      </trkpt>
      <trkpt lat="47.26445" lon="-2.27391">
        <ele>21.60000038147</ele>
        <time>2021-01-10T10:42:26.000Z</time>
      </trkpt>
      <trkpt lat="47.2645" lon="-2.2741">
        <ele>21.60000038147</ele>
        <time>2021-01-10T10:42:29.000Z</time>
      </trkpt>
      <trkpt lat="47.26456" lon="-2.27427">
        <ele>21.60000038147</ele>
        <time>2021-01-10T10:42:31.000Z</time>
      </trkpt>
      <trkpt lat="47.26459" lon="-2.27435">
        <ele>21.60000038147</ele>
        <time>2021-01-10T10:42:32.000Z</time>
      </trkpt>
      <trkpt lat="47.26469" lon="-2.27468">
        <ele>21.60000038147</ele>
        <time>2021-01-10T10:42:36.000Z</time>
      </trkpt>
      <trkpt lat="47.2648" lon="-2.27504">
        <ele>21.200000762939</ele>
        <time>2021-01-10T10:42:40.000Z</time>
      </trkpt>
      <trkpt lat="47.26482" lon="-2.27513">
        <ele>20.799999237061</ele>
        <time>2021-01-10T10:42:41.000Z</time>
      </trkpt>
      <trkpt lat="47.26484" lon="-2.27522">
        <ele>20.39999961853</ele>
        <time>2021-01-10T10:42:42.000Z</time>
      </trkpt>
      <trkpt lat="47.26486" lon="-2.27531">
        <ele>20</ele>
        <time>2021-01-10T10:42:43.000Z</time>
      </trkpt>
      <trkpt lat="47.26487" lon="-2.2754">
        <ele>19.39999961853</ele>
        <time>2021-01-10T10:42:44.000Z</time>
      </trkpt>
      <trkpt lat="47.26491" lon="-2.27563">
        <ele>19.39999961853</ele>
        <time>2021-01-10T10:42:47.000Z</time>
      </trkpt>
      <trkpt lat="47.26493" lon="-2.2757">
        <ele>19</ele>
        <time>2021-01-10T10:42:48.000Z</time>
      </trkpt>
      <trkpt lat="47.26495" lon="-2.27573">
        <ele>18.60000038147</ele>
        <time>2021-01-10T10:42:49.000Z</time>
      </trkpt>
      <trkpt lat="47.26499" lon="-2.27576">
        <ele>18.200000762939</ele>
        <time>2021-01-10T10:42:50.000Z</time>
      </trkpt>
      <trkpt lat="47.26503" lon="-2.27575">
        <ele>17.799999237061</ele>
        <time>2021-01-10T10:42:51.000Z</time>
      </trkpt>
      <trkpt lat="47.26508" lon="-2.27574">
        <ele>17.39999961853</ele>
        <time>2021-01-10T10:42:52.000Z</time>
      </trkpt>
      <trkpt lat="47.26513" lon="-2.27572">
        <ele>17.39999961853</ele>
        <time>2021-01-10T10:42:53.000Z</time>
      </trkpt>
      <trkpt lat="47.26534" lon="-2.27563">
        <ele>17.39999961853</ele>
        <time>2021-01-10T10:42:57.000Z</time>
      </trkpt>
      <trkpt lat="47.26538" lon="-2.2756">
        <ele>17.39999961853</ele>
        <time>2021-01-10T10:42:58.000Z</time>
      </trkpt>
      <trkpt lat="47.26542" lon="-2.27557">
        <ele>17.39999961853</ele>
        <time>2021-01-10T10:42:59.000Z</time>
      </trkpt>
      <trkpt lat="47.26553" lon="-2.27543">
        <ele>17.39999961853</ele>
        <time>2021-01-10T10:43:03.000Z</time>
      </trkpt>
      <trkpt lat="47.26563" lon="-2.27525">
        <ele>17.39999961853</ele>
        <time>2021-01-10T10:43:09.000Z</time>
      </trkpt>
      <trkpt lat="47.26567" lon="-2.27517">
        <ele>17.39999961853</ele>
        <time>2021-01-10T10:43:13.000Z</time>
      </trkpt>
      <trkpt lat="47.26568" lon="-2.27517">
        <ele>17.39999961853</ele>
        <time>2021-01-10T10:43:14.000Z</time>
      </trkpt>
      <trkpt lat="47.2657" lon="-2.27518">
        <ele>17.39999961853</ele>
        <time>2021-01-10T10:43:16.000Z</time>
      </trkpt>
      <trkpt lat="47.26569" lon="-2.27521">
        <ele>17.39999961853</ele>
        <time>2021-01-10T10:43:19.000Z</time>
      </trkpt>
      <trkpt lat="47.26569" lon="-2.27513">
        <ele>17.39999961853</ele>
        <time>2021-01-10T10:43:22.000Z</time>
      </trkpt>
      <trkpt lat="47.26573" lon="-2.27497">
        <ele>17.39999961853</ele>
        <time>2021-01-10T10:43:25.000Z</time>
      </trkpt>
      <trkpt lat="47.26575" lon="-2.27491">
        <ele>17.39999961853</ele>
        <time>2021-01-10T10:43:26.000Z</time>
      </trkpt>
      <trkpt lat="47.2658" lon="-2.2748">
        <ele>18</ele>
        <time>2021-01-10T10:43:28.000Z</time>
      </trkpt>
      <trkpt lat="47.26584" lon="-2.27475">
        <ele>18.39999961853</ele>
        <time>2021-01-10T10:43:29.000Z</time>
      </trkpt>
      <trkpt lat="47.26587" lon="-2.27471">
        <ele>18.799999237061</ele>
        <time>2021-01-10T10:43:30.000Z</time>
      </trkpt>
      <trkpt lat="47.26591" lon="-2.27466">
        <ele>19.200000762939</ele>
        <time>2021-01-10T10:43:31.000Z</time>
      </trkpt>
      <trkpt lat="47.26595" lon="-2.27462">
        <ele>19.60000038147</ele>
        <time>2021-01-10T10:43:32.000Z</time>
      </trkpt>
      <trkpt lat="47.26617" lon="-2.27437">
        <ele>19.60000038147</ele>
        <time>2021-01-10T10:43:38.000Z</time>
      </trkpt>
      <trkpt lat="47.26654" lon="-2.27402">
        <ele>19.60000038147</ele>
        <time>2021-01-10T10:43:47.000Z</time>
      </trkpt>
      <trkpt lat="47.2669" lon="-2.27371">
        <ele>19.60000038147</ele>
        <time>2021-01-10T10:43:55.000Z</time>
      </trkpt>
      <trkpt lat="47.26695" lon="-2.27368">
        <ele>19.60000038147</ele>
        <time>2021-01-10T10:43:56.000Z</time>
      </trkpt>
      <trkpt lat="47.26713" lon="-2.2736">
        <ele>19.60000038147</ele>
        <time>2021-01-10T10:44:00.000Z</time>
      </trkpt>
      <trkpt lat="47.26721" lon="-2.27356">
        <ele>19.60000038147</ele>
        <time>2021-01-10T10:44:02.000Z</time>
      </trkpt>
      <trkpt lat="47.26732" lon="-2.2735">
        <ele>19.60000038147</ele>
        <time>2021-01-10T10:44:05.000Z</time>
      </trkpt>
      <trkpt lat="47.26738" lon="-2.2734">
        <ele>19.60000038147</ele>
        <time>2021-01-10T10:44:08.000Z</time>
      </trkpt>
      <trkpt lat="47.26736" lon="-2.27318">
        <ele>19.60000038147</ele>
        <time>2021-01-10T10:44:12.000Z</time>
      </trkpt>
      <trkpt lat="47.26733" lon="-2.273">
        <ele>19.60000038147</ele>
        <time>2021-01-10T10:44:15.000Z</time>
      </trkpt>
      <trkpt lat="47.26731" lon="-2.2728">
        <ele>19.60000038147</ele>
        <time>2021-01-10T10:44:18.000Z</time>
      </trkpt>
      <trkpt lat="47.2673" lon="-2.2726">
        <ele>19.60000038147</ele>
        <time>2021-01-10T10:44:21.000Z</time>
      </trkpt>
      <trkpt lat="47.26728" lon="-2.27248">
        <ele>19.60000038147</ele>
        <time>2021-01-10T10:44:23.000Z</time>
      </trkpt>
      <trkpt lat="47.26726" lon="-2.27237">
        <ele>19.60000038147</ele>
        <time>2021-01-10T10:44:25.000Z</time>
      </trkpt>
      <trkpt lat="47.26723" lon="-2.27214">
        <ele>19.60000038147</ele>
        <time>2021-01-10T10:44:29.000Z</time>
      </trkpt>
      <trkpt lat="47.26724" lon="-2.2719">
        <ele>19.60000038147</ele>
        <time>2021-01-10T10:44:34.000Z</time>
      </trkpt>
      <trkpt lat="47.26726" lon="-2.27186">
        <ele>19.60000038147</ele>
        <time>2021-01-10T10:44:35.000Z</time>
      </trkpt>
      <trkpt lat="47.26737" lon="-2.27171">
        <ele>19.60000038147</ele>
        <time>2021-01-10T10:44:38.000Z</time>
      </trkpt>
      <trkpt lat="47.26746" lon="-2.27162">
        <ele>19.60000038147</ele>
        <time>2021-01-10T10:44:40.000Z</time>
      </trkpt>
      <trkpt lat="47.2676" lon="-2.2715">
        <ele>19.60000038147</ele>
        <time>2021-01-10T10:44:43.000Z</time>
      </trkpt>
      <trkpt lat="47.26769" lon="-2.27143">
        <ele>19.60000038147</ele>
        <time>2021-01-10T10:44:45.000Z</time>
      </trkpt>
      <trkpt lat="47.26784" lon="-2.27137">
        <ele>19.200000762939</ele>
        <time>2021-01-10T10:44:48.000Z</time>
      </trkpt>
      <trkpt lat="47.26789" lon="-2.27135">
        <ele>18.799999237061</ele>
        <time>2021-01-10T10:44:49.000Z</time>
      </trkpt>
      <trkpt lat="47.26794" lon="-2.27133">
        <ele>18.200000762939</ele>
        <time>2021-01-10T10:44:50.000Z</time>
      </trkpt>
      <trkpt lat="47.26799" lon="-2.27132">
        <ele>17.799999237061</ele>
        <time>2021-01-10T10:44:51.000Z</time>
      </trkpt>
      <trkpt lat="47.26803" lon="-2.27131">
        <ele>17.39999961853</ele>
        <time>2021-01-10T10:44:52.000Z</time>
      </trkpt>
      <trkpt lat="47.26813" lon="-2.27128">
        <ele>17.39999961853</ele>
        <time>2021-01-10T10:44:54.000Z</time>
      </trkpt>
      <trkpt lat="47.26835" lon="-2.27124">
        <ele>17.39999961853</ele>
        <time>2021-01-10T10:44:59.000Z</time>
      </trkpt>
      <trkpt lat="47.26839" lon="-2.27122">
        <ele>17.39999961853</ele>
        <time>2021-01-10T10:45:00.000Z</time>
      </trkpt>
      <trkpt lat="47.26863" lon="-2.2711">
        <ele>17.39999961853</ele>
        <time>2021-01-10T10:45:05.000Z</time>
      </trkpt>
      <trkpt lat="47.26877" lon="-2.27097">
        <ele>17</ele>
        <time>2021-01-10T10:45:08.000Z</time>
      </trkpt>
      <trkpt lat="47.26882" lon="-2.27092">
        <ele>16.60000038147</ele>
        <time>2021-01-10T10:45:09.000Z</time>
      </trkpt>
      <trkpt lat="47.26887" lon="-2.27086">
        <ele>16.200000762939</ele>
        <time>2021-01-10T10:45:10.000Z</time>
      </trkpt>
      <trkpt lat="47.26892" lon="-2.27081">
        <ele>15.800000190735</ele>
        <time>2021-01-10T10:45:11.000Z</time>
      </trkpt>
      <trkpt lat="47.26897" lon="-2.27074">
        <ele>15.39999961853</ele>
        <time>2021-01-10T10:45:12.000Z</time>
      </trkpt>
      <trkpt lat="47.26917" lon="-2.27048">
        <ele>14.800000190735</ele>
        <time>2021-01-10T10:45:16.000Z</time>
      </trkpt>
      <trkpt lat="47.26922" lon="-2.27041">
        <ele>14.39999961853</ele>
        <time>2021-01-10T10:45:17.000Z</time>
      </trkpt>
      <trkpt lat="47.26927" lon="-2.27033">
        <ele>13.800000190735</ele>
        <time>2021-01-10T10:45:18.000Z</time>
      </trkpt>
      <trkpt lat="47.26931" lon="-2.27026">
        <ele>13.39999961853</ele>
        <time>2021-01-10T10:45:19.000Z</time>
      </trkpt>
      <trkpt lat="47.26935" lon="-2.27019">
        <ele>13</ele>
        <time>2021-01-10T10:45:20.000Z</time>
      </trkpt>
      <trkpt lat="47.26939" lon="-2.27013">
        <ele>13</ele>
        <time>2021-01-10T10:45:21.000Z</time>
      </trkpt>
      <trkpt lat="47.26941" lon="-2.27009">
        <ele>12.39999961853</ele>
        <time>2021-01-10T10:45:22.000Z</time>
      </trkpt>
      <trkpt lat="47.26943" lon="-2.27005">
        <ele>12</ele>
        <time>2021-01-10T10:45:23.000Z</time>
      </trkpt>
      <trkpt lat="47.26944" lon="-2.27003">
        <ele>11.60000038147</ele>
        <time>2021-01-10T10:45:24.000Z</time>
      </trkpt>
      <trkpt lat="47.26945" lon="-2.27">
        <ele>11.199999809265</ele>
        <time>2021-01-10T10:45:25.000Z</time>
      </trkpt>
      <trkpt lat="47.26947" lon="-2.26998">
        <ele>10.60000038147</ele>
        <time>2021-01-10T10:45:26.000Z</time>
      </trkpt>
      <trkpt lat="47.2695" lon="-2.26995">
        <ele>10.199999809265</ele>
        <time>2021-01-10T10:45:28.000Z</time>
      </trkpt>
      <trkpt lat="47.26951" lon="-2.26994">
        <ele>9.8000001907349</ele>
        <time>2021-01-10T10:45:29.000Z</time>
      </trkpt>
      <trkpt lat="47.26952" lon="-2.26994">
        <ele>9.3999996185303</ele>
        <time>2021-01-10T10:45:30.000Z</time>
      </trkpt>
      <trkpt lat="47.26953" lon="-2.26993">
        <ele>9</ele>
        <time>2021-01-10T10:45:31.000Z</time>
      </trkpt>
      <trkpt lat="47.26954" lon="-2.26994">
        <ele>8.6000003814697</ele>
        <time>2021-01-10T10:45:32.000Z</time>
      </trkpt>
      <trkpt lat="47.26959" lon="-2.26998">
        <ele>8.6000003814697</ele>
        <time>2021-01-10T10:45:35.000Z</time>
      </trkpt>
      <trkpt lat="47.26962" lon="-2.27">
        <ele>8.6000003814697</ele>
        <time>2021-01-10T10:45:36.000Z</time>
      </trkpt>
      <trkpt lat="47.26974" lon="-2.27017">
        <ele>8.6000003814697</ele>
        <time>2021-01-10T10:45:41.000Z</time>
      </trkpt>
      <trkpt lat="47.26984" lon="-2.2703">
        <ele>9</ele>
        <time>2021-01-10T10:45:45.000Z</time>
      </trkpt>
      <trkpt lat="47.26986" lon="-2.27032">
        <ele>9.3999996185303</ele>
        <time>2021-01-10T10:45:46.000Z</time>
      </trkpt>
      <trkpt lat="47.26988" lon="-2.27034">
        <ele>9.8000001907349</ele>
        <time>2021-01-10T10:45:47.000Z</time>
      </trkpt>
      <trkpt lat="47.2699" lon="-2.27037">
        <ele>10.199999809265</ele>
        <time>2021-01-10T10:45:48.000Z</time>
      </trkpt>
      <trkpt lat="47.26991" lon="-2.2704">
        <ele>10.60000038147</ele>
        <time>2021-01-10T10:45:49.000Z</time>
      </trkpt>
      <trkpt lat="47.26995" lon="-2.27048">
        <ele>10.60000038147</ele>
        <time>2021-01-10T10:45:51.000Z</time>
      </trkpt>
      <trkpt lat="47.27007" lon="-2.27081">
        <ele>10.60000038147</ele>
        <time>2021-01-10T10:45:59.000Z</time>
      </trkpt>
      <trkpt lat="47.27016" lon="-2.27105">
        <ele>10.60000038147</ele>
        <time>2021-01-10T10:46:04.000Z</time>
      </trkpt>
      <trkpt lat="47.27022" lon="-2.27114">
        <ele>10.60000038147</ele>
        <time>2021-01-10T10:46:06.000Z</time>
      </trkpt>
      <trkpt lat="47.27035" lon="-2.27133">
        <ele>10.199999809265</ele>
        <time>2021-01-10T10:46:10.000Z</time>
      </trkpt>
      <trkpt lat="47.27038" lon="-2.27137">
        <ele>9.8000001907349</ele>
        <time>2021-01-10T10:46:11.000Z</time>
      </trkpt>
      <trkpt lat="47.2704" lon="-2.27141">
        <ele>9.3999996185303</ele>
        <time>2021-01-10T10:46:12.000Z</time>
      </trkpt>
      <trkpt lat="47.27043" lon="-2.27145">
        <ele>9</ele>
        <time>2021-01-10T10:46:13.000Z</time>
      </trkpt>
      <trkpt lat="47.27045" lon="-2.27149">
        <ele>8.6000003814697</ele>
        <time>2021-01-10T10:46:14.000Z</time>
      </trkpt>
      <trkpt lat="47.27052" lon="-2.27163">
        <ele>8.6000003814697</ele>
        <time>2021-01-10T10:46:17.000Z</time>
      </trkpt>
      <trkpt lat="47.2707" lon="-2.27195">
        <ele>8.6000003814697</ele>
        <time>2021-01-10T10:46:22.000Z</time>
      </trkpt>
      <trkpt lat="47.27076" lon="-2.27208">
        <ele>9</ele>
        <time>2021-01-10T10:46:24.000Z</time>
      </trkpt>
      <trkpt lat="47.27079" lon="-2.27215">
        <ele>9.3999996185303</ele>
        <time>2021-01-10T10:46:25.000Z</time>
      </trkpt>
      <trkpt lat="47.27082" lon="-2.27221">
        <ele>10</ele>
        <time>2021-01-10T10:46:26.000Z</time>
      </trkpt>
      <trkpt lat="47.27085" lon="-2.27227">
        <ele>10.39999961853</ele>
        <time>2021-01-10T10:46:27.000Z</time>
      </trkpt>
      <trkpt lat="47.27088" lon="-2.27233">
        <ele>10.800000190735</ele>
        <time>2021-01-10T10:46:28.000Z</time>
      </trkpt>
      <trkpt lat="47.27091" lon="-2.27238">
        <ele>11.199999809265</ele>
        <time>2021-01-10T10:46:29.000Z</time>
      </trkpt>
      <trkpt lat="47.27095" lon="-2.27244">
        <ele>11.60000038147</ele>
        <time>2021-01-10T10:46:30.000Z</time>
      </trkpt>
      <trkpt lat="47.27098" lon="-2.27249">
        <ele>12</ele>
        <time>2021-01-10T10:46:31.000Z</time>
      </trkpt>
      <trkpt lat="47.27101" lon="-2.27254">
        <ele>12.39999961853</ele>
        <time>2021-01-10T10:46:32.000Z</time>
      </trkpt>
      <trkpt lat="47.27104" lon="-2.2726">
        <ele>12.800000190735</ele>
        <time>2021-01-10T10:46:33.000Z</time>
      </trkpt>
      <trkpt lat="47.2711" lon="-2.2727">
        <ele>12.800000190735</ele>
        <time>2021-01-10T10:46:35.000Z</time>
      </trkpt>
      <trkpt lat="47.27113" lon="-2.27276">
        <ele>13.199999809265</ele>
        <time>2021-01-10T10:46:36.000Z</time>
      </trkpt>
      <trkpt lat="47.27116" lon="-2.27282">
        <ele>13.60000038147</ele>
        <time>2021-01-10T10:46:37.000Z</time>
      </trkpt>
      <trkpt lat="47.27119" lon="-2.27287">
        <ele>14</ele>
        <time>2021-01-10T10:46:38.000Z</time>
      </trkpt>
      <trkpt lat="47.27121" lon="-2.27292">
        <ele>14.39999961853</ele>
        <time>2021-01-10T10:46:39.000Z</time>
      </trkpt>
      <trkpt lat="47.27123" lon="-2.27298">
        <ele>14.800000190735</ele>
        <time>2021-01-10T10:46:40.000Z</time>
      </trkpt>
      <trkpt lat="47.2713" lon="-2.27332">
        <ele>15.199999809265</ele>
        <time>2021-01-10T10:46:45.000Z</time>
      </trkpt>
      <trkpt lat="47.27131" lon="-2.27339">
        <ele>15.800000190735</ele>
        <time>2021-01-10T10:46:46.000Z</time>
      </trkpt>
      <trkpt lat="47.27132" lon="-2.27347">
        <ele>16.200000762939</ele>
        <time>2021-01-10T10:46:47.000Z</time>
      </trkpt>
      <trkpt lat="47.27134" lon="-2.27354">
        <ele>16.60000038147</ele>
        <time>2021-01-10T10:46:48.000Z</time>
      </trkpt>
      <trkpt lat="47.27135" lon="-2.27362">
        <ele>17</ele>
        <time>2021-01-10T10:46:49.000Z</time>
      </trkpt>
      <trkpt lat="47.2714" lon="-2.27394">
        <ele>17</ele>
        <time>2021-01-10T10:46:53.000Z</time>
      </trkpt>
      <trkpt lat="47.27142" lon="-2.27401">
        <ele>17</ele>
        <time>2021-01-10T10:46:54.000Z</time>
      </trkpt>
      <trkpt lat="47.27145" lon="-2.27416">
        <ele>17</ele>
        <time>2021-01-10T10:46:56.000Z</time>
      </trkpt>
      <trkpt lat="47.27147" lon="-2.27431">
        <ele>17</ele>
        <time>2021-01-10T10:46:58.000Z</time>
      </trkpt>
      <trkpt lat="47.27152" lon="-2.27477">
        <ele>17</ele>
        <time>2021-01-10T10:47:04.000Z</time>
      </trkpt>
      <trkpt lat="47.27153" lon="-2.27494">
        <ele>17</ele>
        <time>2021-01-10T10:47:06.000Z</time>
      </trkpt>
      <trkpt lat="47.27154" lon="-2.27553">
        <ele>17</ele>
        <time>2021-01-10T10:47:13.000Z</time>
      </trkpt>
      <trkpt lat="47.27154" lon="-2.27562">
        <ele>17</ele>
        <time>2021-01-10T10:47:14.000Z</time>
      </trkpt>
      <trkpt lat="47.27148" lon="-2.27584">
        <ele>17</ele>
        <time>2021-01-10T10:47:17.000Z</time>
      </trkpt>
      <trkpt lat="47.27133" lon="-2.27608">
        <ele>17</ele>
        <time>2021-01-10T10:47:21.000Z</time>
      </trkpt>
      <trkpt lat="47.27104" lon="-2.27626">
        <ele>17</ele>
        <time>2021-01-10T10:47:26.000Z</time>
      </trkpt>
      <trkpt lat="47.27099" lon="-2.2763">
        <ele>17</ele>
        <time>2021-01-10T10:47:27.000Z</time>
      </trkpt>
      <trkpt lat="47.27072" lon="-2.27651">
        <ele>17.39999961853</ele>
        <time>2021-01-10T10:47:32.000Z</time>
      </trkpt>
      <trkpt lat="47.27067" lon="-2.27655">
        <ele>17.799999237061</ele>
        <time>2021-01-10T10:47:33.000Z</time>
      </trkpt>
      <trkpt lat="47.27063" lon="-2.2766">
        <ele>18.200000762939</ele>
        <time>2021-01-10T10:47:34.000Z</time>
      </trkpt>
      <trkpt lat="47.27058" lon="-2.27665">
        <ele>18.60000038147</ele>
        <time>2021-01-10T10:47:35.000Z</time>
      </trkpt>
      <trkpt lat="47.27053" lon="-2.27669">
        <ele>19</ele>
        <time>2021-01-10T10:47:36.000Z</time>
      </trkpt>
      <trkpt lat="47.27037" lon="-2.27689">
        <ele>19</ele>
        <time>2021-01-10T10:47:40.000Z</time>
      </trkpt>
      <trkpt lat="47.27028" lon="-2.27705">
        <ele>19</ele>
        <time>2021-01-10T10:47:43.000Z</time>
      </trkpt>
      <trkpt lat="47.27026" lon="-2.27716">
        <ele>19</ele>
        <time>2021-01-10T10:47:45.000Z</time>
      </trkpt>
      <trkpt lat="47.27033" lon="-2.27726">
        <ele>19</ele>
        <time>2021-01-10T10:47:48.000Z</time>
      </trkpt>
      <trkpt lat="47.27043" lon="-2.27729">
        <ele>19</ele>
        <time>2021-01-10T10:47:51.000Z</time>
      </trkpt>
      <trkpt lat="47.2705" lon="-2.27732">
        <ele>19</ele>
        <time>2021-01-10T10:47:53.000Z</time>
      </trkpt>
      <trkpt lat="47.27072" lon="-2.27741">
        <ele>19</ele>
        <time>2021-01-10T10:48:00.000Z</time>
      </trkpt>
      <trkpt lat="47.27089" lon="-2.27749">
        <ele>19</ele>
        <time>2021-01-10T10:48:06.000Z</time>
      </trkpt>
      <trkpt lat="47.27099" lon="-2.27763">
        <ele>19</ele>
        <time>2021-01-10T10:48:11.000Z</time>
      </trkpt>
      <trkpt lat="47.27104" lon="-2.27775">
        <ele>19</ele>
        <time>2021-01-10T10:48:16.000Z</time>
      </trkpt>
      <trkpt lat="47.27106" lon="-2.27788">
        <ele>19</ele>
        <time>2021-01-10T10:48:23.000Z</time>
      </trkpt>
      <trkpt lat="47.27113" lon="-2.27792">
        <ele>19</ele>
        <time>2021-01-10T10:48:28.000Z</time>
      </trkpt>
      <trkpt lat="47.27114" lon="-2.27793">
        <ele>19</ele>
        <time>2021-01-10T10:48:29.000Z</time>
      </trkpt>
      <trkpt lat="47.27115" lon="-2.27794">
        <ele>19</ele>
        <time>2021-01-10T10:48:30.000Z</time>
      </trkpt>
      <trkpt lat="47.27119" lon="-2.27796">
        <ele>19.39999961853</ele>
        <time>2021-01-10T10:48:33.000Z</time>
      </trkpt>
      <trkpt lat="47.27121" lon="-2.27797">
        <ele>19.799999237061</ele>
        <time>2021-01-10T10:48:34.000Z</time>
      </trkpt>
      <trkpt lat="47.27122" lon="-2.27796">
        <ele>20.200000762939</ele>
        <time>2021-01-10T10:48:35.000Z</time>
      </trkpt>
      <trkpt lat="47.27124" lon="-2.27796">
        <ele>20.60000038147</ele>
        <time>2021-01-10T10:48:36.000Z</time>
      </trkpt>
      <trkpt lat="47.27126" lon="-2.27794">
        <ele>21.200000762939</ele>
        <time>2021-01-10T10:48:37.000Z</time>
      </trkpt>
      <trkpt lat="47.27127" lon="-2.27792">
        <ele>21.200000762939</ele>
        <time>2021-01-10T10:48:38.000Z</time>
      </trkpt>
      <trkpt lat="47.27127" lon="-2.27791">
        <ele>21.200000762939</ele>
        <time>2021-01-10T10:48:39.000Z</time>
      </trkpt>
      <trkpt lat="47.27124" lon="-2.27792">
        <ele>21.200000762939</ele>
        <time>2021-01-10T10:48:43.000Z</time>
      </trkpt>
      <trkpt lat="47.27123" lon="-2.27796">
        <ele>21.200000762939</ele>
        <time>2021-01-10T10:48:46.000Z</time>
      </trkpt>
      <trkpt lat="47.27122" lon="-2.27797">
        <ele>21.200000762939</ele>
        <time>2021-01-10T10:48:48.000Z</time>
      </trkpt>
      <trkpt lat="47.27118" lon="-2.27797">
        <ele>21.200000762939</ele>
        <time>2021-01-10T10:49:59.000Z</time>
      </trkpt>
      <trkpt lat="47.27115" lon="-2.27786">
        <ele>21.200000762939</ele>
        <time>2021-01-10T10:50:04.000Z</time>
      </trkpt>
      <trkpt lat="47.27113" lon="-2.27784">
        <ele>21.200000762939</ele>
        <time>2021-01-10T10:50:05.000Z</time>
      </trkpt>
      <trkpt lat="47.27104" lon="-2.27773">
        <ele>21.200000762939</ele>
        <time>2021-01-10T10:50:09.000Z</time>
      </trkpt>
      <trkpt lat="47.27102" lon="-2.2777">
        <ele>21.200000762939</ele>
        <time>2021-01-10T10:50:10.000Z</time>
      </trkpt>
      <trkpt lat="47.27085" lon="-2.27754">
        <ele>21.200000762939</ele>
        <time>2021-01-10T10:50:16.000Z</time>
      </trkpt>
      <trkpt lat="47.27058" lon="-2.27741">
        <ele>21.200000762939</ele>
        <time>2021-01-10T10:50:23.000Z</time>
      </trkpt>
      <trkpt lat="47.27029" lon="-2.27727">
        <ele>21.200000762939</ele>
        <time>2021-01-10T10:50:30.000Z</time>
      </trkpt>
      <trkpt lat="47.27026" lon="-2.27724">
        <ele>21.200000762939</ele>
        <time>2021-01-10T10:50:31.000Z</time>
      </trkpt>
      <trkpt lat="47.27019" lon="-2.27714">
        <ele>21.200000762939</ele>
        <time>2021-01-10T10:50:34.000Z</time>
      </trkpt>
      <trkpt lat="47.27019" lon="-2.2771">
        <ele>21.200000762939</ele>
        <time>2021-01-10T10:50:36.000Z</time>
      </trkpt>
      <trkpt lat="47.27023" lon="-2.27698">
        <ele>21.200000762939</ele>
        <time>2021-01-10T10:50:40.000Z</time>
      </trkpt>
      <trkpt lat="47.27025" lon="-2.27696">
        <ele>21.200000762939</ele>
        <time>2021-01-10T10:50:41.000Z</time>
      </trkpt>
      <trkpt lat="47.27026" lon="-2.27694">
        <ele>20.799999237061</ele>
        <time>2021-01-10T10:50:42.000Z</time>
      </trkpt>
      <trkpt lat="47.27027" lon="-2.27693">
        <ele>20.39999961853</ele>
        <time>2021-01-10T10:50:43.000Z</time>
      </trkpt>
      <trkpt lat="47.27029" lon="-2.27692">
        <ele>20</ele>
        <time>2021-01-10T10:50:44.000Z</time>
      </trkpt>
      <trkpt lat="47.2703" lon="-2.27691">
        <ele>19.39999961853</ele>
        <time>2021-01-10T10:50:45.000Z</time>
      </trkpt>
      <trkpt lat="47.27031" lon="-2.27689">
        <ele>19</ele>
        <time>2021-01-10T10:50:46.000Z</time>
      </trkpt>
      <trkpt lat="47.27032" lon="-2.27688">
        <ele>19</ele>
        <time>2021-01-10T10:50:47.000Z</time>
      </trkpt>
      <trkpt lat="47.27034" lon="-2.27685">
        <ele>19</ele>
        <time>2021-01-10T10:50:49.000Z</time>
      </trkpt>
      <trkpt lat="47.27038" lon="-2.2768">
        <ele>19</ele>
        <time>2021-01-10T10:50:53.000Z</time>
      </trkpt>
      <trkpt lat="47.27049" lon="-2.27666">
        <ele>19</ele>
        <time>2021-01-10T10:51:03.000Z</time>
      </trkpt>
      <trkpt lat="47.27054" lon="-2.27662">
        <ele>19</ele>
        <time>2021-01-10T10:51:08.000Z</time>
      </trkpt>
      <trkpt lat="47.27052" lon="-2.27665">
        <ele>19</ele>
        <time>2021-01-10T10:51:25.000Z</time>
      </trkpt>
      <trkpt lat="47.27051" lon="-2.27667">
        <ele>19</ele>
        <time>2021-01-10T10:51:26.000Z</time>
      </trkpt>
      <trkpt lat="47.27044" lon="-2.27675">
        <ele>19</ele>
        <time>2021-01-10T10:51:29.000Z</time>
      </trkpt>
      <trkpt lat="47.27039" lon="-2.27682">
        <ele>19</ele>
        <time>2021-01-10T10:51:31.000Z</time>
      </trkpt>
      <trkpt lat="47.27026" lon="-2.27705">
        <ele>19</ele>
        <time>2021-01-10T10:51:37.000Z</time>
      </trkpt>
      <trkpt lat="47.27025" lon="-2.27717">
        <ele>19</ele>
        <time>2021-01-10T10:51:39.000Z</time>
      </trkpt>
      <trkpt lat="47.27029" lon="-2.27725">
        <ele>19</ele>
        <time>2021-01-10T10:51:41.000Z</time>
      </trkpt>
      <trkpt lat="47.2704" lon="-2.27731">
        <ele>19</ele>
        <time>2021-01-10T10:51:44.000Z</time>
      </trkpt>
      <trkpt lat="47.27044" lon="-2.27732">
        <ele>19</ele>
        <time>2021-01-10T10:51:45.000Z</time>
      </trkpt>
      <trkpt lat="47.27073" lon="-2.27741">
        <ele>19</ele>
        <time>2021-01-10T10:51:52.000Z</time>
      </trkpt>
      <trkpt lat="47.27077" lon="-2.27743">
        <ele>19.60000038147</ele>
        <time>2021-01-10T10:51:53.000Z</time>
      </trkpt>
      <trkpt lat="47.27081" lon="-2.27745">
        <ele>20</ele>
        <time>2021-01-10T10:51:54.000Z</time>
      </trkpt>
      <trkpt lat="47.27085" lon="-2.27747">
        <ele>20.39999961853</ele>
        <time>2021-01-10T10:51:55.000Z</time>
      </trkpt>
      <trkpt lat="47.27089" lon="-2.2775">
        <ele>20.799999237061</ele>
        <time>2021-01-10T10:51:56.000Z</time>
      </trkpt>
      <trkpt lat="47.27092" lon="-2.27754">
        <ele>21.200000762939</ele>
        <time>2021-01-10T10:51:57.000Z</time>
      </trkpt>
      <trkpt lat="47.27095" lon="-2.27757">
        <ele>21.200000762939</ele>
        <time>2021-01-10T10:51:58.000Z</time>
      </trkpt>
      <trkpt lat="47.27104" lon="-2.27767">
        <ele>21.200000762939</ele>
        <time>2021-01-10T10:52:02.000Z</time>
      </trkpt>
      <trkpt lat="47.27105" lon="-2.27789">
        <ele>21.200000762939</ele>
        <time>2021-01-10T10:52:06.000Z</time>
      </trkpt>
      <trkpt lat="47.27113" lon="-2.2781">
        <ele>21.200000762939</ele>
        <time>2021-01-10T10:52:10.000Z</time>
      </trkpt>
      <trkpt lat="47.2711" lon="-2.27826">
        <ele>21.200000762939</ele>
        <time>2021-01-10T10:52:13.000Z</time>
      </trkpt>
      <trkpt lat="47.27105" lon="-2.27837">
        <ele>21.200000762939</ele>
        <time>2021-01-10T10:52:15.000Z</time>
      </trkpt>
      <trkpt lat="47.27102" lon="-2.27848">
        <ele>21.200000762939</ele>
        <time>2021-01-10T10:52:17.000Z</time>
      </trkpt>
      <trkpt lat="47.271" lon="-2.27858">
        <ele>21.200000762939</ele>
        <time>2021-01-10T10:52:19.000Z</time>
      </trkpt>
      <trkpt lat="47.27099" lon="-2.27866">
        <ele>21.60000038147</ele>
        <time>2021-01-10T10:52:21.000Z</time>
      </trkpt>
      <trkpt lat="47.27098" lon="-2.27868">
        <ele>22</ele>
        <time>2021-01-10T10:52:22.000Z</time>
      </trkpt>
      <trkpt lat="47.27098" lon="-2.27871">
        <ele>22.39999961853</ele>
        <time>2021-01-10T10:52:23.000Z</time>
      </trkpt>
      <trkpt lat="47.27097" lon="-2.27873">
        <ele>22.799999237061</ele>
        <time>2021-01-10T10:52:24.000Z</time>
      </trkpt>
      <trkpt lat="47.27096" lon="-2.27875">
        <ele>23.200000762939</ele>
        <time>2021-01-10T10:52:25.000Z</time>
      </trkpt>
      <trkpt lat="47.27091" lon="-2.27884">
        <ele>23.200000762939</ele>
        <time>2021-01-10T10:52:30.000Z</time>
      </trkpt>
      <trkpt lat="47.27085" lon="-2.27891">
        <ele>23.60000038147</ele>
        <time>2021-01-10T10:52:34.000Z</time>
      </trkpt>
      <trkpt lat="47.27083" lon="-2.27893">
        <ele>24</ele>
        <time>2021-01-10T10:52:35.000Z</time>
      </trkpt>
      <trkpt lat="47.27081" lon="-2.27896">
        <ele>24.39999961853</ele>
        <time>2021-01-10T10:52:36.000Z</time>
      </trkpt>
      <trkpt lat="47.27079" lon="-2.27898">
        <ele>24.799999237061</ele>
        <time>2021-01-10T10:52:37.000Z</time>
      </trkpt>
      <trkpt lat="47.27077" lon="-2.27901">
        <ele>25.39999961853</ele>
        <time>2021-01-10T10:52:38.000Z</time>
      </trkpt>
      <trkpt lat="47.27068" lon="-2.2792">
        <ele>25.39999961853</ele>
        <time>2021-01-10T10:52:44.000Z</time>
      </trkpt>
      <trkpt lat="47.27066" lon="-2.27949">
        <ele>25.39999961853</ele>
        <time>2021-01-10T10:52:51.000Z</time>
      </trkpt>
      <trkpt lat="47.27075" lon="-2.27973">
        <ele>25.39999961853</ele>
        <time>2021-01-10T10:52:56.000Z</time>
      </trkpt>
      <trkpt lat="47.27082" lon="-2.2798">
        <ele>25.39999961853</ele>
        <time>2021-01-10T10:52:58.000Z</time>
      </trkpt>
      <trkpt lat="47.27094" lon="-2.27989">
        <ele>25.39999961853</ele>
        <time>2021-01-10T10:53:01.000Z</time>
      </trkpt>
      <trkpt lat="47.27098" lon="-2.27991">
        <ele>25.39999961853</ele>
        <time>2021-01-10T10:53:02.000Z</time>
      </trkpt>
      <trkpt lat="47.27111" lon="-2.27996">
        <ele>25.39999961853</ele>
        <time>2021-01-10T10:53:05.000Z</time>
      </trkpt>
      <trkpt lat="47.27117" lon="-2.28014">
        <ele>25.39999961853</ele>
        <time>2021-01-10T10:53:08.000Z</time>
      </trkpt>
      <trkpt lat="47.27119" lon="-2.28029">
        <ele>25.39999961853</ele>
        <time>2021-01-10T10:53:10.000Z</time>
      </trkpt>
      <trkpt lat="47.27123" lon="-2.2806">
        <ele>25.39999961853</ele>
        <time>2021-01-10T10:53:14.000Z</time>
      </trkpt>
      <trkpt lat="47.27124" lon="-2.28068">
        <ele>25.39999961853</ele>
        <time>2021-01-10T10:53:15.000Z</time>
      </trkpt>
      <trkpt lat="47.27125" lon="-2.28096">
        <ele>25.39999961853</ele>
        <time>2021-01-10T10:53:19.000Z</time>
      </trkpt>
      <trkpt lat="47.27125" lon="-2.28116">
        <ele>25.39999961853</ele>
        <time>2021-01-10T10:53:24.000Z</time>
      </trkpt>
      <trkpt lat="47.27126" lon="-2.28125">
        <ele>24.799999237061</ele>
        <time>2021-01-10T10:53:26.000Z</time>
      </trkpt>
      <trkpt lat="47.27126" lon="-2.2813">
        <ele>24.39999961853</ele>
        <time>2021-01-10T10:53:27.000Z</time>
      </trkpt>
      <trkpt lat="47.27127" lon="-2.28136">
        <ele>24</ele>
        <time>2021-01-10T10:53:28.000Z</time>
      </trkpt>
      <trkpt lat="47.27129" lon="-2.28141">
        <ele>23.60000038147</ele>
        <time>2021-01-10T10:53:29.000Z</time>
      </trkpt>
      <trkpt lat="47.27131" lon="-2.28146">
        <ele>23.200000762939</ele>
        <time>2021-01-10T10:53:30.000Z</time>
      </trkpt>
      <trkpt lat="47.27131" lon="-2.28151">
        <ele>23.200000762939</ele>
        <time>2021-01-10T10:53:31.000Z</time>
      </trkpt>
      <trkpt lat="47.27129" lon="-2.28164">
        <ele>23.200000762939</ele>
        <time>2021-01-10T10:53:33.000Z</time>
      </trkpt>
      <trkpt lat="47.27123" lon="-2.28217">
        <ele>23.200000762939</ele>
        <time>2021-01-10T10:53:40.000Z</time>
      </trkpt>
      <trkpt lat="47.27121" lon="-2.28239">
        <ele>23.200000762939</ele>
        <time>2021-01-10T10:53:43.000Z</time>
      </trkpt>
      <trkpt lat="47.27123" lon="-2.28249">
        <ele>23.200000762939</ele>
        <time>2021-01-10T10:53:45.000Z</time>
      </trkpt>
      <trkpt lat="47.27125" lon="-2.2826">
        <ele>23.200000762939</ele>
        <time>2021-01-10T10:53:47.000Z</time>
      </trkpt>
      <trkpt lat="47.2713" lon="-2.28273">
        <ele>23.200000762939</ele>
        <time>2021-01-10T10:53:49.000Z</time>
      </trkpt>
      <trkpt lat="47.27139" lon="-2.28303">
        <ele>23.200000762939</ele>
        <time>2021-01-10T10:53:53.000Z</time>
      </trkpt>
      <trkpt lat="47.27141" lon="-2.28311">
        <ele>23.200000762939</ele>
        <time>2021-01-10T10:53:54.000Z</time>
      </trkpt>
      <trkpt lat="47.27146" lon="-2.28351">
        <ele>23.200000762939</ele>
        <time>2021-01-10T10:54:00.000Z</time>
      </trkpt>
      <trkpt lat="47.27145" lon="-2.28362">
        <ele>23.200000762939</ele>
        <time>2021-01-10T10:54:04.000Z</time>
      </trkpt>
      <trkpt lat="47.27148" lon="-2.28382">
        <ele>23.200000762939</ele>
        <time>2021-01-10T10:54:10.000Z</time>
      </trkpt>
      <trkpt lat="47.27152" lon="-2.28408">
        <ele>23.200000762939</ele>
        <time>2021-01-10T10:54:15.000Z</time>
      </trkpt>
      <trkpt lat="47.27154" lon="-2.2842">
        <ele>23.200000762939</ele>
        <time>2021-01-10T10:54:17.000Z</time>
      </trkpt>
      <trkpt lat="47.27156" lon="-2.28443">
        <ele>23.200000762939</ele>
        <time>2021-01-10T10:54:20.000Z</time>
      </trkpt>
      <trkpt lat="47.27164" lon="-2.28495">
        <ele>23.200000762939</ele>
        <time>2021-01-10T10:54:26.000Z</time>
      </trkpt>
      <trkpt lat="47.27172" lon="-2.28538">
        <ele>22.799999237061</ele>
        <time>2021-01-10T10:54:30.000Z</time>
      </trkpt>
      <trkpt lat="47.27174" lon="-2.28548">
        <ele>22</ele>
        <time>2021-01-10T10:54:31.000Z</time>
      </trkpt>
      <trkpt lat="47.27176" lon="-2.28557">
        <ele>21.60000038147</ele>
        <time>2021-01-10T10:54:32.000Z</time>
      </trkpt>
      <trkpt lat="47.27178" lon="-2.28566">
        <ele>21.200000762939</ele>
        <time>2021-01-10T10:54:33.000Z</time>
      </trkpt>
      <trkpt lat="47.27181" lon="-2.28575">
        <ele>21.200000762939</ele>
        <time>2021-01-10T10:54:34.000Z</time>
      </trkpt>
      <trkpt lat="47.27186" lon="-2.28592">
        <ele>21.200000762939</ele>
        <time>2021-01-10T10:54:36.000Z</time>
      </trkpt>
      <trkpt lat="47.27188" lon="-2.2861">
        <ele>20.799999237061</ele>
        <time>2021-01-10T10:54:38.000Z</time>
      </trkpt>
      <trkpt lat="47.27188" lon="-2.28618">
        <ele>20.39999961853</ele>
        <time>2021-01-10T10:54:39.000Z</time>
      </trkpt>
      <trkpt lat="47.27187" lon="-2.28627">
        <ele>19.799999237061</ele>
        <time>2021-01-10T10:54:40.000Z</time>
      </trkpt>
      <trkpt lat="47.27187" lon="-2.28636">
        <ele>19.39999961853</ele>
        <time>2021-01-10T10:54:41.000Z</time>
      </trkpt>
      <trkpt lat="47.27187" lon="-2.28645">
        <ele>19</ele>
        <time>2021-01-10T10:54:42.000Z</time>
      </trkpt>
      <trkpt lat="47.27187" lon="-2.28682">
        <ele>19</ele>
        <time>2021-01-10T10:54:46.000Z</time>
      </trkpt>
      <trkpt lat="47.27189" lon="-2.28736">
        <ele>19</ele>
        <time>2021-01-10T10:54:52.000Z</time>
      </trkpt>
      <trkpt lat="47.27187" lon="-2.28795">
        <ele>19</ele>
        <time>2021-01-10T10:54:58.000Z</time>
      </trkpt>
      <trkpt lat="47.27182" lon="-2.28845">
        <ele>19</ele>
        <time>2021-01-10T10:55:04.000Z</time>
      </trkpt>
      <trkpt lat="47.27181" lon="-2.28869">
        <ele>18.60000038147</ele>
        <time>2021-01-10T10:55:07.000Z</time>
      </trkpt>
      <trkpt lat="47.2718" lon="-2.28876">
        <ele>18.200000762939</ele>
        <time>2021-01-10T10:55:08.000Z</time>
      </trkpt>
      <trkpt lat="47.27179" lon="-2.28884">
        <ele>17.799999237061</ele>
        <time>2021-01-10T10:55:09.000Z</time>
      </trkpt>
      <trkpt lat="47.27179" lon="-2.28892">
        <ele>17.39999961853</ele>
        <time>2021-01-10T10:55:10.000Z</time>
      </trkpt>
      <trkpt lat="47.27178" lon="-2.289">
        <ele>17</ele>
        <time>2021-01-10T10:55:11.000Z</time>
      </trkpt>
      <trkpt lat="47.27178" lon="-2.28949">
        <ele>17</ele>
        <time>2021-01-10T10:55:17.000Z</time>
      </trkpt>
      <trkpt lat="47.27184" lon="-2.28996">
        <ele>17</ele>
        <time>2021-01-10T10:55:22.000Z</time>
      </trkpt>
      <trkpt lat="47.27193" lon="-2.29063">
        <ele>17</ele>
        <time>2021-01-10T10:55:29.000Z</time>
      </trkpt>
      <trkpt lat="47.27196" lon="-2.29102">
        <ele>17</ele>
        <time>2021-01-10T10:55:34.000Z</time>
      </trkpt>
      <trkpt lat="47.27186" lon="-2.29115">
        <ele>17</ele>
        <time>2021-01-10T10:55:37.000Z</time>
      </trkpt>
      <trkpt lat="47.27169" lon="-2.29134">
        <ele>17</ele>
        <time>2021-01-10T10:55:43.000Z</time>
      </trkpt>
      <trkpt lat="47.27155" lon="-2.29153">
        <ele>17</ele>
        <time>2021-01-10T10:55:49.000Z</time>
      </trkpt>
      <trkpt lat="47.27151" lon="-2.29159">
        <ele>17</ele>
        <time>2021-01-10T10:55:54.000Z</time>
      </trkpt>
      <trkpt lat="47.27147" lon="-2.29165">
        <ele>17</ele>
        <time>2021-01-10T10:56:00.000Z</time>
      </trkpt>
      <trkpt lat="47.27145" lon="-2.29173">
        <ele>17</ele>
        <time>2021-01-10T10:56:06.000Z</time>
      </trkpt>
      <trkpt lat="47.27146" lon="-2.29175">
        <ele>17</ele>
        <time>2021-01-10T10:56:07.000Z</time>
      </trkpt>
      <trkpt lat="47.27154" lon="-2.29187">
        <ele>17</ele>
        <time>2021-01-10T10:56:11.000Z</time>
      </trkpt>
      <trkpt lat="47.27162" lon="-2.29204">
        <ele>17</ele>
        <time>2021-01-10T10:56:14.000Z</time>
      </trkpt>
      <trkpt lat="47.27165" lon="-2.29214">
        <ele>17</ele>
        <time>2021-01-10T10:56:16.000Z</time>
      </trkpt>
      <trkpt lat="47.27173" lon="-2.29229">
        <ele>17</ele>
        <time>2021-01-10T10:56:21.000Z</time>
      </trkpt>
      <trkpt lat="47.27173" lon="-2.2925">
        <ele>17</ele>
        <time>2021-01-10T10:56:26.000Z</time>
      </trkpt>
      <trkpt lat="47.27163" lon="-2.29274">
        <ele>17</ele>
        <time>2021-01-10T10:56:31.000Z</time>
      </trkpt>
      <trkpt lat="47.27161" lon="-2.29279">
        <ele>17</ele>
        <time>2021-01-10T10:56:32.000Z</time>
      </trkpt>
      <trkpt lat="47.27152" lon="-2.293">
        <ele>17</ele>
        <time>2021-01-10T10:56:36.000Z</time>
      </trkpt>
      <trkpt lat="47.27152" lon="-2.29316">
        <ele>17</ele>
        <time>2021-01-10T10:56:39.000Z</time>
      </trkpt>
      <trkpt lat="47.27163" lon="-2.29335">
        <ele>17</ele>
        <time>2021-01-10T10:56:43.000Z</time>
      </trkpt>
      <trkpt lat="47.27167" lon="-2.29339">
        <ele>17</ele>
        <time>2021-01-10T10:56:44.000Z</time>
      </trkpt>
      <trkpt lat="47.2718" lon="-2.29352">
        <ele>17</ele>
        <time>2021-01-10T10:56:47.000Z</time>
      </trkpt>
      <trkpt lat="47.27183" lon="-2.29358">
        <ele>17</ele>
        <time>2021-01-10T10:56:48.000Z</time>
      </trkpt>
      <trkpt lat="47.27196" lon="-2.29384">
        <ele>17</ele>
        <time>2021-01-10T10:56:52.000Z</time>
      </trkpt>
      <trkpt lat="47.27199" lon="-2.2939">
        <ele>17</ele>
        <time>2021-01-10T10:56:53.000Z</time>
      </trkpt>
      <trkpt lat="47.27205" lon="-2.29408">
        <ele>17</ele>
        <time>2021-01-10T10:56:56.000Z</time>
      </trkpt>
      <trkpt lat="47.2721" lon="-2.29421">
        <ele>17</ele>
        <time>2021-01-10T10:56:58.000Z</time>
      </trkpt>
      <trkpt lat="47.27211" lon="-2.29427">
        <ele>17.799999237061</ele>
        <time>2021-01-10T10:56:59.000Z</time>
      </trkpt>
      <trkpt lat="47.27212" lon="-2.29434">
        <ele>18.200000762939</ele>
        <time>2021-01-10T10:57:00.000Z</time>
      </trkpt>
      <trkpt lat="47.27214" lon="-2.2944">
        <ele>18.60000038147</ele>
        <time>2021-01-10T10:57:01.000Z</time>
      </trkpt>
      <trkpt lat="47.27215" lon="-2.29446">
        <ele>19</ele>
        <time>2021-01-10T10:57:02.000Z</time>
      </trkpt>
      <trkpt lat="47.27219" lon="-2.29457">
        <ele>19</ele>
        <time>2021-01-10T10:57:04.000Z</time>
      </trkpt>
      <trkpt lat="47.27227" lon="-2.29487">
        <ele>19</ele>
        <time>2021-01-10T10:57:10.000Z</time>
      </trkpt>
      <trkpt lat="47.27233" lon="-2.29508">
        <ele>19</ele>
        <time>2021-01-10T10:57:16.000Z</time>
      </trkpt>
      <trkpt lat="47.27235" lon="-2.29512">
        <ele>19</ele>
        <time>2021-01-10T10:57:19.000Z</time>
      </trkpt>
      <trkpt lat="47.27237" lon="-2.29515">
        <ele>19</ele>
        <time>2021-01-10T10:58:14.000Z</time>
      </trkpt>
      <trkpt lat="47.27245" lon="-2.29529">
        <ele>19</ele>
        <time>2021-01-10T10:58:20.000Z</time>
      </trkpt>
      <trkpt lat="47.2725" lon="-2.29553">
        <ele>19</ele>
        <time>2021-01-10T10:58:25.000Z</time>
      </trkpt>
      <trkpt lat="47.27256" lon="-2.29588">
        <ele>19</ele>
        <time>2021-01-10T10:58:31.000Z</time>
      </trkpt>
      <trkpt lat="47.27257" lon="-2.29595">
        <ele>19</ele>
        <time>2021-01-10T10:58:32.000Z</time>
      </trkpt>
      <trkpt lat="47.27263" lon="-2.29626">
        <ele>19</ele>
        <time>2021-01-10T10:58:37.000Z</time>
      </trkpt>
      <trkpt lat="47.27269" lon="-2.29655">
        <ele>19</ele>
        <time>2021-01-10T10:58:42.000Z</time>
      </trkpt>
      <trkpt lat="47.27271" lon="-2.29663">
        <ele>19</ele>
        <time>2021-01-10T10:58:43.000Z</time>
      </trkpt>
      <trkpt lat="47.27276" lon="-2.29694">
        <ele>19</ele>
        <time>2021-01-10T10:58:47.000Z</time>
      </trkpt>
      <trkpt lat="47.27292" lon="-2.29748">
        <ele>19</ele>
        <time>2021-01-10T10:58:54.000Z</time>
      </trkpt>
      <trkpt lat="47.27307" lon="-2.29793">
        <ele>19</ele>
        <time>2021-01-10T10:58:59.000Z</time>
      </trkpt>
      <trkpt lat="47.27312" lon="-2.29801">
        <ele>19</ele>
        <time>2021-01-10T10:59:00.000Z</time>
      </trkpt>
      <trkpt lat="47.27334" lon="-2.29836">
        <ele>19</ele>
        <time>2021-01-10T10:59:05.000Z</time>
      </trkpt>
      <trkpt lat="47.27359" lon="-2.29885">
        <ele>19</ele>
        <time>2021-01-10T10:59:11.000Z</time>
      </trkpt>
      <trkpt lat="47.2738" lon="-2.2993">
        <ele>19</ele>
        <time>2021-01-10T10:59:17.000Z</time>
      </trkpt>
      <trkpt lat="47.27382" lon="-2.29937">
        <ele>19</ele>
        <time>2021-01-10T10:59:18.000Z</time>
      </trkpt>
      <trkpt lat="47.27394" lon="-2.29964">
        <ele>19</ele>
        <time>2021-01-10T10:59:22.000Z</time>
      </trkpt>
      <trkpt lat="47.27411" lon="-2.30004">
        <ele>19</ele>
        <time>2021-01-10T10:59:27.000Z</time>
      </trkpt>
      <trkpt lat="47.27433" lon="-2.30062">
        <ele>19</ele>
        <time>2021-01-10T10:59:34.000Z</time>
      </trkpt>
      <trkpt lat="47.27443" lon="-2.30095">
        <ele>18.60000038147</ele>
        <time>2021-01-10T10:59:38.000Z</time>
      </trkpt>
      <trkpt lat="47.27446" lon="-2.30103">
        <ele>18.200000762939</ele>
        <time>2021-01-10T10:59:39.000Z</time>
      </trkpt>
      <trkpt lat="47.27449" lon="-2.30111">
        <ele>17.799999237061</ele>
        <time>2021-01-10T10:59:40.000Z</time>
      </trkpt>
      <trkpt lat="47.27451" lon="-2.3012">
        <ele>17.39999961853</ele>
        <time>2021-01-10T10:59:41.000Z</time>
      </trkpt>
      <trkpt lat="47.27452" lon="-2.30128">
        <ele>17</ele>
        <time>2021-01-10T10:59:42.000Z</time>
      </trkpt>
      <trkpt lat="47.27457" lon="-2.3015">
        <ele>17</ele>
        <time>2021-01-10T10:59:45.000Z</time>
      </trkpt>
      <trkpt lat="47.27458" lon="-2.30157">
        <ele>17</ele>
        <time>2021-01-10T10:59:46.000Z</time>
      </trkpt>
      <trkpt lat="47.2746" lon="-2.30165">
        <ele>16.60000038147</ele>
        <time>2021-01-10T10:59:47.000Z</time>
      </trkpt>
      <trkpt lat="47.27462" lon="-2.30173">
        <ele>16.200000762939</ele>
        <time>2021-01-10T10:59:48.000Z</time>
      </trkpt>
      <trkpt lat="47.27463" lon="-2.30178">
        <ele>15.800000190735</ele>
        <time>2021-01-10T10:59:49.000Z</time>
      </trkpt>
      <trkpt lat="47.27464" lon="-2.30183">
        <ele>15.39999961853</ele>
        <time>2021-01-10T10:59:50.000Z</time>
      </trkpt>
      <trkpt lat="47.27465" lon="-2.30188">
        <ele>15</ele>
        <time>2021-01-10T10:59:51.000Z</time>
      </trkpt>
      <trkpt lat="47.27464" lon="-2.30196">
        <ele>15</ele>
        <time>2021-01-10T10:59:53.000Z</time>
      </trkpt>
      <trkpt lat="47.27463" lon="-2.30201">
        <ele>15</ele>
        <time>2021-01-10T10:59:54.000Z</time>
      </trkpt>
      <trkpt lat="47.27451" lon="-2.30212">
        <ele>15</ele>
        <time>2021-01-10T10:59:58.000Z</time>
      </trkpt>
      <trkpt lat="47.27446" lon="-2.30215">
        <ele>15</ele>
        <time>2021-01-10T10:59:59.000Z</time>
      </trkpt>
      <trkpt lat="47.27419" lon="-2.30229">
        <ele>15</ele>
        <time>2021-01-10T11:00:04.000Z</time>
      </trkpt>
      <trkpt lat="47.27392" lon="-2.30242">
        <ele>15</ele>
        <time>2021-01-10T11:00:09.000Z</time>
      </trkpt>
      <trkpt lat="47.27387" lon="-2.30244">
        <ele>15</ele>
        <time>2021-01-10T11:00:10.000Z</time>
      </trkpt>
      <trkpt lat="47.27371" lon="-2.3025">
        <ele>15</ele>
        <time>2021-01-10T11:00:13.000Z</time>
      </trkpt>
      <trkpt lat="47.2736" lon="-2.30252">
        <ele>15</ele>
        <time>2021-01-10T11:00:15.000Z</time>
      </trkpt>
      <trkpt lat="47.27315" lon="-2.30259">
        <ele>15</ele>
        <time>2021-01-10T11:00:23.000Z</time>
      </trkpt>
      <trkpt lat="47.27303" lon="-2.30259">
        <ele>15</ele>
        <time>2021-01-10T11:00:25.000Z</time>
      </trkpt>
      <trkpt lat="47.27286" lon="-2.3026">
        <ele>15</ele>
        <time>2021-01-10T11:00:28.000Z</time>
      </trkpt>
      <trkpt lat="47.27281" lon="-2.30261">
        <ele>14.60000038147</ele>
        <time>2021-01-10T11:00:29.000Z</time>
      </trkpt>
      <trkpt lat="47.27275" lon="-2.30263">
        <ele>14.199999809265</ele>
        <time>2021-01-10T11:00:30.000Z</time>
      </trkpt>
      <trkpt lat="47.27269" lon="-2.30264">
        <ele>13.60000038147</ele>
        <time>2021-01-10T11:00:31.000Z</time>
      </trkpt>
      <trkpt lat="47.27265" lon="-2.30266">
        <ele>13.199999809265</ele>
        <time>2021-01-10T11:00:32.000Z</time>
      </trkpt>
      <trkpt lat="47.2726" lon="-2.30266">
        <ele>12.800000190735</ele>
        <time>2021-01-10T11:00:33.000Z</time>
      </trkpt>
      <trkpt lat="47.27256" lon="-2.30266">
        <ele>12.800000190735</ele>
        <time>2021-01-10T11:00:34.000Z</time>
      </trkpt>
      <trkpt lat="47.27237" lon="-2.30261">
        <ele>12.800000190735</ele>
        <time>2021-01-10T11:00:39.000Z</time>
      </trkpt>
      <trkpt lat="47.2722" lon="-2.30256">
        <ele>12.800000190735</ele>
        <time>2021-01-10T11:00:44.000Z</time>
      </trkpt>
      <trkpt lat="47.27213" lon="-2.30255">
        <ele>12.800000190735</ele>
        <time>2021-01-10T11:00:46.000Z</time>
      </trkpt>
      <trkpt lat="47.27208" lon="-2.30254">
        <ele>12.800000190735</ele>
        <time>2021-01-10T11:00:48.000Z</time>
      </trkpt>
      <trkpt lat="47.27194" lon="-2.30261">
        <ele>12.800000190735</ele>
        <time>2021-01-10T11:00:53.000Z</time>
      </trkpt>
      <trkpt lat="47.2718" lon="-2.30254">
        <ele>12.800000190735</ele>
        <time>2021-01-10T11:00:57.000Z</time>
      </trkpt>
      <trkpt lat="47.27164" lon="-2.30243">
        <ele>12.800000190735</ele>
        <time>2021-01-10T11:01:02.000Z</time>
      </trkpt>
      <trkpt lat="47.27148" lon="-2.30246">
        <ele>12.800000190735</ele>
        <time>2021-01-10T11:01:05.000Z</time>
      </trkpt>
      <trkpt lat="47.27138" lon="-2.30249">
        <ele>12.800000190735</ele>
        <time>2021-01-10T11:01:07.000Z</time>
      </trkpt>
      <trkpt lat="47.27118" lon="-2.30258">
        <ele>12.800000190735</ele>
        <time>2021-01-10T11:01:11.000Z</time>
      </trkpt>
      <trkpt lat="47.27113" lon="-2.3026">
        <ele>12.800000190735</ele>
        <time>2021-01-10T11:01:12.000Z</time>
      </trkpt>
      <trkpt lat="47.27103" lon="-2.30264">
        <ele>12.800000190735</ele>
        <time>2021-01-10T11:01:14.000Z</time>
      </trkpt>
      <trkpt lat="47.27091" lon="-2.30273">
        <ele>12.800000190735</ele>
        <time>2021-01-10T11:01:17.000Z</time>
      </trkpt>
      <trkpt lat="47.27082" lon="-2.30286">
        <ele>13.199999809265</ele>
        <time>2021-01-10T11:01:20.000Z</time>
      </trkpt>
      <trkpt lat="47.27081" lon="-2.30291">
        <ele>13.60000038147</ele>
        <time>2021-01-10T11:01:21.000Z</time>
      </trkpt>
      <trkpt lat="47.27079" lon="-2.30297">
        <ele>14</ele>
        <time>2021-01-10T11:01:22.000Z</time>
      </trkpt>
      <trkpt lat="47.27078" lon="-2.30303">
        <ele>14.39999961853</ele>
        <time>2021-01-10T11:01:23.000Z</time>
      </trkpt>
      <trkpt lat="47.27077" lon="-2.3031">
        <ele>15</ele>
        <time>2021-01-10T11:01:24.000Z</time>
      </trkpt>
      <trkpt lat="47.27076" lon="-2.30316">
        <ele>15</ele>
        <time>2021-01-10T11:01:25.000Z</time>
      </trkpt>
      <trkpt lat="47.27073" lon="-2.30329">
        <ele>15</ele>
        <time>2021-01-10T11:01:27.000Z</time>
      </trkpt>
      <trkpt lat="47.27073" lon="-2.30336">
        <ele>15</ele>
        <time>2021-01-10T11:01:28.000Z</time>
      </trkpt>
      <trkpt lat="47.27068" lon="-2.30361">
        <ele>15</ele>
        <time>2021-01-10T11:01:31.000Z</time>
      </trkpt>
      <trkpt lat="47.27058" lon="-2.30426">
        <ele>15</ele>
        <time>2021-01-10T11:01:38.000Z</time>
      </trkpt>
      <trkpt lat="47.27047" lon="-2.30481">
        <ele>15</ele>
        <time>2021-01-10T11:01:44.000Z</time>
      </trkpt>
      <trkpt lat="47.27033" lon="-2.30534">
        <ele>15</ele>
        <time>2021-01-10T11:01:50.000Z</time>
      </trkpt>
      <trkpt lat="47.2702" lon="-2.30576">
        <ele>15</ele>
        <time>2021-01-10T11:01:55.000Z</time>
      </trkpt>
      <trkpt lat="47.27017" lon="-2.30585">
        <ele>15</ele>
        <time>2021-01-10T11:01:56.000Z</time>
      </trkpt>
      <trkpt lat="47.27009" lon="-2.30598">
        <ele>15</ele>
        <time>2021-01-10T11:01:58.000Z</time>
      </trkpt>
      <trkpt lat="47.26998" lon="-2.30606">
        <ele>15</ele>
        <time>2021-01-10T11:02:00.000Z</time>
      </trkpt>
      <trkpt lat="47.26967" lon="-2.30623">
        <ele>15.39999961853</ele>
        <time>2021-01-10T11:02:05.000Z</time>
      </trkpt>
      <trkpt lat="47.26961" lon="-2.30626">
        <ele>15.800000190735</ele>
        <time>2021-01-10T11:02:06.000Z</time>
      </trkpt>
      <trkpt lat="47.26956" lon="-2.30627">
        <ele>16.200000762939</ele>
        <time>2021-01-10T11:02:07.000Z</time>
      </trkpt>
      <trkpt lat="47.2695" lon="-2.3063">
        <ele>16.60000038147</ele>
        <time>2021-01-10T11:02:08.000Z</time>
      </trkpt>
      <trkpt lat="47.26945" lon="-2.30632">
        <ele>17</ele>
        <time>2021-01-10T11:02:09.000Z</time>
      </trkpt>
      <trkpt lat="47.26928" lon="-2.30636">
        <ele>17</ele>
        <time>2021-01-10T11:02:13.000Z</time>
      </trkpt>
      <trkpt lat="47.26914" lon="-2.30644">
        <ele>17</ele>
        <time>2021-01-10T11:02:18.000Z</time>
      </trkpt>
      <trkpt lat="47.26905" lon="-2.30655">
        <ele>17</ele>
        <time>2021-01-10T11:02:24.000Z</time>
      </trkpt>
      <trkpt lat="47.26905" lon="-2.30655">
        <ele>17</ele>
        <time>2021-01-10T11:02:25.000Z</time>
      </trkpt>
      <trkpt lat="47.26904" lon="-2.30668">
        <ele>17</ele>
        <time>2021-01-10T11:03:25.000Z</time>
      </trkpt>
      <trkpt lat="47.26906" lon="-2.30671">
        <ele>17</ele>
        <time>2021-01-10T11:03:26.000Z</time>
      </trkpt>
      <trkpt lat="47.26917" lon="-2.3069">
        <ele>17</ele>
        <time>2021-01-10T11:03:31.000Z</time>
      </trkpt>
      <trkpt lat="47.26923" lon="-2.30699">
        <ele>17</ele>
        <time>2021-01-10T11:03:33.000Z</time>
      </trkpt>
      <trkpt lat="47.26931" lon="-2.30711">
        <ele>17</ele>
        <time>2021-01-10T11:03:36.000Z</time>
      </trkpt>
      <trkpt lat="47.2695" lon="-2.30742">
        <ele>17</ele>
        <time>2021-01-10T11:03:42.000Z</time>
      </trkpt>
      <trkpt lat="47.26955" lon="-2.30746">
        <ele>17</ele>
        <time>2021-01-10T11:03:43.000Z</time>
      </trkpt>
      <trkpt lat="47.26962" lon="-2.30757">
        <ele>17</ele>
        <time>2021-01-10T11:03:45.000Z</time>
      </trkpt>
      <trkpt lat="47.26966" lon="-2.30762">
        <ele>17</ele>
        <time>2021-01-10T11:03:46.000Z</time>
      </trkpt>
      <trkpt lat="47.26984" lon="-2.3079">
        <ele>17</ele>
        <time>2021-01-10T11:03:51.000Z</time>
      </trkpt>
      <trkpt lat="47.26987" lon="-2.30796">
        <ele>17</ele>
        <time>2021-01-10T11:03:52.000Z</time>
      </trkpt>
      <trkpt lat="47.26993" lon="-2.30807">
        <ele>16.60000038147</ele>
        <time>2021-01-10T11:03:54.000Z</time>
      </trkpt>
      <trkpt lat="47.26997" lon="-2.30813">
        <ele>16.200000762939</ele>
        <time>2021-01-10T11:03:55.000Z</time>
      </trkpt>
      <trkpt lat="47.27001" lon="-2.30819">
        <ele>15.60000038147</ele>
        <time>2021-01-10T11:03:56.000Z</time>
      </trkpt>
      <trkpt lat="47.27005" lon="-2.30825">
        <ele>15.199999809265</ele>
        <time>2021-01-10T11:03:57.000Z</time>
      </trkpt>
      <trkpt lat="47.27008" lon="-2.30831">
        <ele>14.800000190735</ele>
        <time>2021-01-10T11:03:58.000Z</time>
      </trkpt>
      <trkpt lat="47.27012" lon="-2.30837">
        <ele>14.800000190735</ele>
        <time>2021-01-10T11:03:59.000Z</time>
      </trkpt>
      <trkpt lat="47.27019" lon="-2.30847">
        <ele>14.800000190735</ele>
        <time>2021-01-10T11:04:01.000Z</time>
      </trkpt>
      <trkpt lat="47.27025" lon="-2.30857">
        <ele>14.39999961853</ele>
        <time>2021-01-10T11:04:03.000Z</time>
      </trkpt>
      <trkpt lat="47.27028" lon="-2.30863">
        <ele>14</ele>
        <time>2021-01-10T11:04:04.000Z</time>
      </trkpt>
      <trkpt lat="47.27031" lon="-2.30868">
        <ele>13.39999961853</ele>
        <time>2021-01-10T11:04:05.000Z</time>
      </trkpt>
      <trkpt lat="47.27035" lon="-2.30873">
        <ele>13</ele>
        <time>2021-01-10T11:04:06.000Z</time>
      </trkpt>
      <trkpt lat="47.27038" lon="-2.30878">
        <ele>12.60000038147</ele>
        <time>2021-01-10T11:04:07.000Z</time>
      </trkpt>
      <trkpt lat="47.27044" lon="-2.30888">
        <ele>12.199999809265</ele>
        <time>2021-01-10T11:04:10.000Z</time>
      </trkpt>
      <trkpt lat="47.27045" lon="-2.3089">
        <ele>11.800000190735</ele>
        <time>2021-01-10T11:04:11.000Z</time>
      </trkpt>
      <trkpt lat="47.27046" lon="-2.30893">
        <ele>11.39999961853</ele>
        <time>2021-01-10T11:04:12.000Z</time>
      </trkpt>
      <trkpt lat="47.27046" lon="-2.30895">
        <ele>11</ele>
        <time>2021-01-10T11:04:13.000Z</time>
      </trkpt>
      <trkpt lat="47.27046" lon="-2.30899">
        <ele>10.60000038147</ele>
        <time>2021-01-10T11:04:14.000Z</time>
      </trkpt>
      <trkpt lat="47.27046" lon="-2.30902">
        <ele>10.60000038147</ele>
        <time>2021-01-10T11:04:15.000Z</time>
      </trkpt>
      <trkpt lat="47.27055" lon="-2.30922">
        <ele>10.60000038147</ele>
        <time>2021-01-10T11:04:20.000Z</time>
      </trkpt>
      <trkpt lat="47.27058" lon="-2.3093">
        <ele>10.60000038147</ele>
        <time>2021-01-10T11:04:22.000Z</time>
      </trkpt>
      <trkpt lat="47.2706" lon="-2.30943">
        <ele>10.60000038147</ele>
        <time>2021-01-10T11:04:25.000Z</time>
      </trkpt>
      <trkpt lat="47.27063" lon="-2.30968">
        <ele>10.60000038147</ele>
        <time>2021-01-10T11:04:30.000Z</time>
      </trkpt>
      <trkpt lat="47.27063" lon="-2.30979">
        <ele>10.60000038147</ele>
        <time>2021-01-10T11:04:32.000Z</time>
      </trkpt>
      <trkpt lat="47.2706" lon="-2.30987">
        <ele>10.60000038147</ele>
        <time>2021-01-10T11:04:34.000Z</time>
      </trkpt>
      <trkpt lat="47.27043" lon="-2.31007">
        <ele>10.60000038147</ele>
        <time>2021-01-10T11:04:40.000Z</time>
      </trkpt>
      <trkpt lat="47.27028" lon="-2.31019">
        <ele>10.60000038147</ele>
        <time>2021-01-10T11:04:44.000Z</time>
      </trkpt>
      <trkpt lat="47.27022" lon="-2.31026">
        <ele>11</ele>
        <time>2021-01-10T11:04:46.000Z</time>
      </trkpt>
      <trkpt lat="47.27018" lon="-2.31028">
        <ele>11.39999961853</ele>
        <time>2021-01-10T11:04:47.000Z</time>
      </trkpt>
      <trkpt lat="47.27014" lon="-2.31033">
        <ele>11.800000190735</ele>
        <time>2021-01-10T11:04:48.000Z</time>
      </trkpt>
      <trkpt lat="47.27009" lon="-2.31038">
        <ele>12.60000038147</ele>
        <time>2021-01-10T11:04:49.000Z</time>
      </trkpt>
      <trkpt lat="47.26998" lon="-2.31054">
        <ele>12.60000038147</ele>
        <time>2021-01-10T11:04:52.000Z</time>
      </trkpt>
      <trkpt lat="47.26998" lon="-2.31062">
        <ele>12.60000038147</ele>
        <time>2021-01-10T11:04:53.000Z</time>
      </trkpt>
      <trkpt lat="47.26998" lon="-2.3107">
        <ele>13</ele>
        <time>2021-01-10T11:04:54.000Z</time>
      </trkpt>
      <trkpt lat="47.26997" lon="-2.31078">
        <ele>13.39999961853</ele>
        <time>2021-01-10T11:04:55.000Z</time>
      </trkpt>
      <trkpt lat="47.26997" lon="-2.31085">
        <ele>13.800000190735</ele>
        <time>2021-01-10T11:04:56.000Z</time>
      </trkpt>
      <trkpt lat="47.26996" lon="-2.31093">
        <ele>14.199999809265</ele>
        <time>2021-01-10T11:04:57.000Z</time>
      </trkpt>
      <trkpt lat="47.26995" lon="-2.31103">
        <ele>14.60000038147</ele>
        <time>2021-01-10T11:04:58.000Z</time>
      </trkpt>
      <trkpt lat="47.26993" lon="-2.31119">
        <ele>14.60000038147</ele>
        <time>2021-01-10T11:05:00.000Z</time>
      </trkpt>
      <trkpt lat="47.26985" lon="-2.31165">
        <ele>14.60000038147</ele>
        <time>2021-01-10T11:05:06.000Z</time>
      </trkpt>
      <trkpt lat="47.26983" lon="-2.31188">
        <ele>15</ele>
        <time>2021-01-10T11:05:09.000Z</time>
      </trkpt>
      <trkpt lat="47.26982" lon="-2.31195">
        <ele>15.39999961853</ele>
        <time>2021-01-10T11:05:10.000Z</time>
      </trkpt>
      <trkpt lat="47.2698" lon="-2.31202">
        <ele>15.800000190735</ele>
        <time>2021-01-10T11:05:11.000Z</time>
      </trkpt>
      <trkpt lat="47.2698" lon="-2.3121">
        <ele>16.39999961853</ele>
        <time>2021-01-10T11:05:12.000Z</time>
      </trkpt>
      <trkpt lat="47.26979" lon="-2.31217">
        <ele>16.799999237061</ele>
        <time>2021-01-10T11:05:13.000Z</time>
      </trkpt>
      <trkpt lat="47.26977" lon="-2.31232">
        <ele>16.799999237061</ele>
        <time>2021-01-10T11:05:15.000Z</time>
      </trkpt>
      <trkpt lat="47.26975" lon="-2.31247">
        <ele>16.799999237061</ele>
        <time>2021-01-10T11:05:17.000Z</time>
      </trkpt>
      <trkpt lat="47.26977" lon="-2.31269">
        <ele>17.200000762939</ele>
        <time>2021-01-10T11:05:20.000Z</time>
      </trkpt>
      <trkpt lat="47.26977" lon="-2.31277">
        <ele>17.60000038147</ele>
        <time>2021-01-10T11:05:21.000Z</time>
      </trkpt>
      <trkpt lat="47.26976" lon="-2.31283">
        <ele>18</ele>
        <time>2021-01-10T11:05:22.000Z</time>
      </trkpt>
      <trkpt lat="47.26976" lon="-2.3129">
        <ele>18.39999961853</ele>
        <time>2021-01-10T11:05:23.000Z</time>
      </trkpt>
      <trkpt lat="47.26976" lon="-2.31298">
        <ele>18.799999237061</ele>
        <time>2021-01-10T11:05:24.000Z</time>
      </trkpt>
      <trkpt lat="47.26979" lon="-2.31319">
        <ele>18.799999237061</ele>
        <time>2021-01-10T11:05:27.000Z</time>
      </trkpt>
      <trkpt lat="47.26984" lon="-2.31369">
        <ele>18.799999237061</ele>
        <time>2021-01-10T11:05:34.000Z</time>
      </trkpt>
      <trkpt lat="47.26987" lon="-2.31415">
        <ele>18.799999237061</ele>
        <time>2021-01-10T11:05:39.000Z</time>
      </trkpt>
      <trkpt lat="47.26987" lon="-2.31432">
        <ele>18.39999961853</ele>
        <time>2021-01-10T11:05:41.000Z</time>
      </trkpt>
      <trkpt lat="47.26987" lon="-2.3144">
        <ele>17.799999237061</ele>
        <time>2021-01-10T11:05:42.000Z</time>
      </trkpt>
      <trkpt lat="47.26987" lon="-2.31449">
        <ele>17.39999961853</ele>
        <time>2021-01-10T11:05:43.000Z</time>
      </trkpt>
      <trkpt lat="47.26988" lon="-2.31456">
        <ele>17</ele>
        <time>2021-01-10T11:05:44.000Z</time>
      </trkpt>
      <trkpt lat="47.26989" lon="-2.31463">
        <ele>16.39999961853</ele>
        <time>2021-01-10T11:05:45.000Z</time>
      </trkpt>
      <trkpt lat="47.26993" lon="-2.31491">
        <ele>16.39999961853</ele>
        <time>2021-01-10T11:05:49.000Z</time>
      </trkpt>
      <trkpt lat="47.26995" lon="-2.31497">
        <ele>16</ele>
        <time>2021-01-10T11:05:50.000Z</time>
      </trkpt>
      <trkpt lat="47.26997" lon="-2.31506">
        <ele>15.60000038147</ele>
        <time>2021-01-10T11:05:51.000Z</time>
      </trkpt>
      <trkpt lat="47.27" lon="-2.31514">
        <ele>15.199999809265</ele>
        <time>2021-01-10T11:05:52.000Z</time>
      </trkpt>
      <trkpt lat="47.27002" lon="-2.31523">
        <ele>14.800000190735</ele>
        <time>2021-01-10T11:05:53.000Z</time>
      </trkpt>
      <trkpt lat="47.27004" lon="-2.31532">
        <ele>14.39999961853</ele>
        <time>2021-01-10T11:05:54.000Z</time>
      </trkpt>
      <trkpt lat="47.2701" lon="-2.31557">
        <ele>14</ele>
        <time>2021-01-10T11:05:57.000Z</time>
      </trkpt>
      <trkpt lat="47.27015" lon="-2.31564">
        <ele>13.39999961853</ele>
        <time>2021-01-10T11:05:58.000Z</time>
      </trkpt>
      <trkpt lat="47.27018" lon="-2.31571">
        <ele>13</ele>
        <time>2021-01-10T11:05:59.000Z</time>
      </trkpt>
      <trkpt lat="47.2702" lon="-2.31576">
        <ele>12.60000038147</ele>
        <time>2021-01-10T11:06:00.000Z</time>
      </trkpt>
      <trkpt lat="47.27023" lon="-2.31581">
        <ele>12.199999809265</ele>
        <time>2021-01-10T11:06:01.000Z</time>
      </trkpt>
      <trkpt lat="47.27024" lon="-2.31587">
        <ele>11.199999809265</ele>
        <time>2021-01-10T11:06:02.000Z</time>
      </trkpt>
      <trkpt lat="47.27025" lon="-2.31591">
        <ele>10.60000038147</ele>
        <time>2021-01-10T11:06:03.000Z</time>
      </trkpt>
      <trkpt lat="47.27026" lon="-2.31595">
        <ele>10.199999809265</ele>
        <time>2021-01-10T11:06:04.000Z</time>
      </trkpt>
      <trkpt lat="47.27029" lon="-2.31607">
        <ele>10.199999809265</ele>
        <time>2021-01-10T11:06:06.000Z</time>
      </trkpt>
      <trkpt lat="47.27029" lon="-2.31615">
        <ele>9.8000001907349</ele>
        <time>2021-01-10T11:06:07.000Z</time>
      </trkpt>
      <trkpt lat="47.2703" lon="-2.31622">
        <ele>9.1999998092651</ele>
        <time>2021-01-10T11:06:08.000Z</time>
      </trkpt>
      <trkpt lat="47.27032" lon="-2.3163">
        <ele>8.8000001907349</ele>
        <time>2021-01-10T11:06:09.000Z</time>
      </trkpt>
      <trkpt lat="47.27033" lon="-2.31637">
        <ele>8.3999996185303</ele>
        <time>2021-01-10T11:06:10.000Z</time>
      </trkpt>
      <trkpt lat="47.27034" lon="-2.31646">
        <ele>7.8000001907349</ele>
        <time>2021-01-10T11:06:11.000Z</time>
      </trkpt>
      <trkpt lat="47.27034" lon="-2.31653">
        <ele>7.8000001907349</ele>
        <time>2021-01-10T11:06:12.000Z</time>
      </trkpt>
      <trkpt lat="47.27031" lon="-2.31679">
        <ele>7.4000000953674</ele>
        <time>2021-01-10T11:06:15.000Z</time>
      </trkpt>
      <trkpt lat="47.2703" lon="-2.31685">
        <ele>7</ele>
        <time>2021-01-10T11:06:16.000Z</time>
      </trkpt>
      <trkpt lat="47.27028" lon="-2.31689">
        <ele>6.5999999046326</ele>
        <time>2021-01-10T11:06:17.000Z</time>
      </trkpt>
      <trkpt lat="47.27027" lon="-2.31692">
        <ele>6.1999998092651</ele>
        <time>2021-01-10T11:06:18.000Z</time>
      </trkpt>
      <trkpt lat="47.27027" lon="-2.31694">
        <ele>5.8000001907349</ele>
        <time>2021-01-10T11:06:19.000Z</time>
      </trkpt>
      <trkpt lat="47.27027" lon="-2.31702">
        <ele>5.4000000953674</ele>
        <time>2021-01-10T11:06:21.000Z</time>
      </trkpt>
      <trkpt lat="47.27029" lon="-2.31705">
        <ele>5</ele>
        <time>2021-01-10T11:06:22.000Z</time>
      </trkpt>
      <trkpt lat="47.2703" lon="-2.31709">
        <ele>4.5999999046326</ele>
        <time>2021-01-10T11:06:23.000Z</time>
      </trkpt>
      <trkpt lat="47.27031" lon="-2.31712">
        <ele>4.1999998092651</ele>
        <time>2021-01-10T11:06:24.000Z</time>
      </trkpt>
      <trkpt lat="47.27034" lon="-2.31715">
        <ele>3.5999999046326</ele>
        <time>2021-01-10T11:06:25.000Z</time>
      </trkpt>
      <trkpt lat="47.2704" lon="-2.31724">
        <ele>3.5999999046326</ele>
        <time>2021-01-10T11:06:28.000Z</time>
      </trkpt>
      <trkpt lat="47.27057" lon="-2.31742">
        <ele>3.5999999046326</ele>
        <time>2021-01-10T11:06:33.000Z</time>
      </trkpt>
      <trkpt lat="47.27067" lon="-2.31747">
        <ele>3.5999999046326</ele>
        <time>2021-01-10T11:06:37.000Z</time>
      </trkpt>
      <trkpt lat="47.27075" lon="-2.3175">
        <ele>3.5999999046326</ele>
        <time>2021-01-10T11:07:19.000Z</time>
      </trkpt>
      <trkpt lat="47.27081" lon="-2.31757">
        <ele>3.5999999046326</ele>
        <time>2021-01-10T11:07:23.000Z</time>
      </trkpt>
      <trkpt lat="47.27087" lon="-2.31762">
        <ele>3.2000000476837</ele>
        <time>2021-01-10T11:07:25.000Z</time>
      </trkpt>
      <trkpt lat="47.2709" lon="-2.31764">
        <ele>2.7999999523163</ele>
        <time>2021-01-10T11:07:26.000Z</time>
      </trkpt>
      <trkpt lat="47.27093" lon="-2.31767">
        <ele>2.4000000953674</ele>
        <time>2021-01-10T11:07:27.000Z</time>
      </trkpt>
      <trkpt lat="47.27097" lon="-2.31771">
        <ele>2</ele>
        <time>2021-01-10T11:07:28.000Z</time>
      </trkpt>
      <trkpt lat="47.271" lon="-2.31774">
        <ele>1.6000000238419</ele>
        <time>2021-01-10T11:07:29.000Z</time>
      </trkpt>
      <trkpt lat="47.27123" lon="-2.31798">
        <ele>1.6000000238419</ele>
        <time>2021-01-10T11:07:35.000Z</time>
      </trkpt>
      <trkpt lat="47.2713" lon="-2.31809">
        <ele>1.6000000238419</ele>
        <time>2021-01-10T11:07:37.000Z</time>
      </trkpt>
      <trkpt lat="47.27137" lon="-2.3182">
        <ele>1.6000000238419</ele>
        <time>2021-01-10T11:07:39.000Z</time>
      </trkpt>
      <trkpt lat="47.27144" lon="-2.31831">
        <ele>1.6000000238419</ele>
        <time>2021-01-10T11:07:41.000Z</time>
      </trkpt>
      <trkpt lat="47.27164" lon="-2.31867">
        <ele>1.2000000476837</ele>
        <time>2021-01-10T11:07:47.000Z</time>
      </trkpt>
      <trkpt lat="47.27167" lon="-2.31873">
        <ele>0.80000001192093</ele>
        <time>2021-01-10T11:07:48.000Z</time>
      </trkpt>
      <trkpt lat="47.27172" lon="-2.31879">
        <ele>0.20000000298023</ele>
        <time>2021-01-10T11:07:49.000Z</time>
      </trkpt>
      <trkpt lat="47.27179" lon="-2.31885">
        <ele>-0.20000000298023</ele>
        <time>2021-01-10T11:07:50.000Z</time>
      </trkpt>
      <trkpt lat="47.27186" lon="-2.31891">
        <ele>-0.60000002384186</ele>
        <time>2021-01-10T11:07:51.000Z</time>
      </trkpt>
      <trkpt lat="47.27192" lon="-2.31897">
        <ele>-0.60000002384186</ele>
        <time>2021-01-10T11:07:52.000Z</time>
      </trkpt>
      <trkpt lat="47.27198" lon="-2.31902">
        <ele>-0.60000002384186</ele>
        <time>2021-01-10T11:07:53.000Z</time>
      </trkpt>
      <trkpt lat="47.27216" lon="-2.31916">
        <ele>-0.60000002384186</ele>
        <time>2021-01-10T11:07:56.000Z</time>
      </trkpt>
      <trkpt lat="47.2723" lon="-2.31922">
        <ele>-0.60000002384186</ele>
        <time>2021-01-10T11:07:58.000Z</time>
      </trkpt>
      <trkpt lat="47.27268" lon="-2.31934">
        <ele>-0.60000002384186</ele>
        <time>2021-01-10T11:08:04.000Z</time>
      </trkpt>
      <trkpt lat="47.27304" lon="-2.31952">
        <ele>-1</ele>
        <time>2021-01-10T11:08:10.000Z</time>
      </trkpt>
      <trkpt lat="47.2731" lon="-2.31957">
        <ele>-1.3999999761581</ele>
        <time>2021-01-10T11:08:11.000Z</time>
      </trkpt>
      <trkpt lat="47.27315" lon="-2.31963">
        <ele>-1.7999999523163</ele>
        <time>2021-01-10T11:08:12.000Z</time>
      </trkpt>
      <trkpt lat="47.27319" lon="-2.31969">
        <ele>-2.4000000953674</ele>
        <time>2021-01-10T11:08:13.000Z</time>
      </trkpt>
      <trkpt lat="47.27324" lon="-2.31977">
        <ele>-2.7999999523163</ele>
        <time>2021-01-10T11:08:14.000Z</time>
      </trkpt>
      <trkpt lat="47.27329" lon="-2.31985">
        <ele>-2.7999999523163</ele>
        <time>2021-01-10T11:08:15.000Z</time>
      </trkpt>
      <trkpt lat="47.27368" lon="-2.32034">
        <ele>-2.7999999523163</ele>
        <time>2021-01-10T11:08:22.000Z</time>
      </trkpt>
      <trkpt lat="47.274" lon="-2.32071">
        <ele>-2.7999999523163</ele>
        <time>2021-01-10T11:08:28.000Z</time>
      </trkpt>
      <trkpt lat="47.27409" lon="-2.32085">
        <ele>-2.7999999523163</ele>
        <time>2021-01-10T11:08:30.000Z</time>
      </trkpt>
      <trkpt lat="47.27413" lon="-2.32103">
        <ele>-3.2000000476837</ele>
        <time>2021-01-10T11:08:32.000Z</time>
      </trkpt>
      <trkpt lat="47.27411" lon="-2.32112">
        <ele>-3.5999999046326</ele>
        <time>2021-01-10T11:08:33.000Z</time>
      </trkpt>
      <trkpt lat="47.27409" lon="-2.32121">
        <ele>-4</ele>
        <time>2021-01-10T11:08:34.000Z</time>
      </trkpt>
      <trkpt lat="47.27408" lon="-2.3213">
        <ele>-4.4000000953674</ele>
        <time>2021-01-10T11:08:35.000Z</time>
      </trkpt>
      <trkpt lat="47.27405" lon="-2.32139">
        <ele>-4.8000001907349</ele>
        <time>2021-01-10T11:08:36.000Z</time>
      </trkpt>
      <trkpt lat="47.27403" lon="-2.32147">
        <ele>-4.8000001907349</ele>
        <time>2021-01-10T11:08:37.000Z</time>
      </trkpt>
      <trkpt lat="47.27402" lon="-2.32157">
        <ele>-4.8000001907349</ele>
        <time>2021-01-10T11:08:38.000Z</time>
      </trkpt>
      <trkpt lat="47.27398" lon="-2.32186">
        <ele>-4.8000001907349</ele>
        <time>2021-01-10T11:08:41.000Z</time>
      </trkpt>
      <trkpt lat="47.2739" lon="-2.32254">
        <ele>-4.8000001907349</ele>
        <time>2021-01-10T11:08:48.000Z</time>
      </trkpt>
      <trkpt lat="47.27376" lon="-2.32306">
        <ele>-4</ele>
        <time>2021-01-10T11:08:55.000Z</time>
      </trkpt>
      <trkpt lat="47.27374" lon="-2.32314">
        <ele>-3.4000000953674</ele>
        <time>2021-01-10T11:08:56.000Z</time>
      </trkpt>
      <trkpt lat="47.27372" lon="-2.32322">
        <ele>-3</ele>
        <time>2021-01-10T11:08:57.000Z</time>
      </trkpt>
      <trkpt lat="47.27371" lon="-2.32329">
        <ele>-2.5999999046326</ele>
        <time>2021-01-10T11:08:58.000Z</time>
      </trkpt>
      <trkpt lat="47.27362" lon="-2.32369">
        <ele>-2.5999999046326</ele>
        <time>2021-01-10T11:09:03.000Z</time>
      </trkpt>
      <trkpt lat="47.27356" lon="-2.324">
        <ele>-2.5999999046326</ele>
        <time>2021-01-10T11:09:06.000Z</time>
      </trkpt>
      <trkpt lat="47.27354" lon="-2.3241">
        <ele>-2.5999999046326</ele>
        <time>2021-01-10T11:09:07.000Z</time>
      </trkpt>
      <trkpt lat="47.27337" lon="-2.32457">
        <ele>-3</ele>
        <time>2021-01-10T11:09:12.000Z</time>
      </trkpt>
      <trkpt lat="47.27333" lon="-2.32466">
        <ele>-3.4000000953674</ele>
        <time>2021-01-10T11:09:13.000Z</time>
      </trkpt>
      <trkpt lat="47.27329" lon="-2.32473">
        <ele>-3.7999999523163</ele>
        <time>2021-01-10T11:09:14.000Z</time>
      </trkpt>
      <trkpt lat="47.27324" lon="-2.3248">
        <ele>-4.1999998092651</ele>
        <time>2021-01-10T11:09:15.000Z</time>
      </trkpt>
      <trkpt lat="47.2732" lon="-2.32486">
        <ele>-4.5999999046326</ele>
        <time>2021-01-10T11:09:16.000Z</time>
      </trkpt>
      <trkpt lat="47.27316" lon="-2.32494">
        <ele>-4.5999999046326</ele>
        <time>2021-01-10T11:09:17.000Z</time>
      </trkpt>
      <trkpt lat="47.27287" lon="-2.3254">
        <ele>-4.5999999046326</ele>
        <time>2021-01-10T11:09:24.000Z</time>
      </trkpt>
      <trkpt lat="47.27253" lon="-2.32581">
        <ele>-4.5999999046326</ele>
        <time>2021-01-10T11:09:31.000Z</time>
      </trkpt>
      <trkpt lat="47.27242" lon="-2.32592">
        <ele>-4.1999998092651</ele>
        <time>2021-01-10T11:09:33.000Z</time>
      </trkpt>
      <trkpt lat="47.27237" lon="-2.32596">
        <ele>-3.7999999523163</ele>
        <time>2021-01-10T11:09:34.000Z</time>
      </trkpt>
      <trkpt lat="47.27232" lon="-2.326">
        <ele>-3.4000000953674</ele>
        <time>2021-01-10T11:09:35.000Z</time>
      </trkpt>
      <trkpt lat="47.27227" lon="-2.32606">
        <ele>-3</ele>
        <time>2021-01-10T11:09:36.000Z</time>
      </trkpt>
      <trkpt lat="47.27221" lon="-2.32612">
        <ele>-2.5999999046326</ele>
        <time>2021-01-10T11:09:37.000Z</time>
      </trkpt>
      <trkpt lat="47.27178" lon="-2.32653">
        <ele>-2.5999999046326</ele>
        <time>2021-01-10T11:09:45.000Z</time>
      </trkpt>
      <trkpt lat="47.27134" lon="-2.32696">
        <ele>-2.5999999046326</ele>
        <time>2021-01-10T11:09:53.000Z</time>
      </trkpt>
      <trkpt lat="47.27132" lon="-2.32702">
        <ele>-2.5999999046326</ele>
        <time>2021-01-10T11:09:54.000Z</time>
      </trkpt>
      <trkpt lat="47.2713" lon="-2.32707">
        <ele>-2.5999999046326</ele>
        <time>2021-01-10T11:09:56.000Z</time>
      </trkpt>
      <trkpt lat="47.2712" lon="-2.32716">
        <ele>-2.5999999046326</ele>
        <time>2021-01-10T11:09:59.000Z</time>
      </trkpt>
      <trkpt lat="47.27102" lon="-2.32731">
        <ele>-2.5999999046326</ele>
        <time>2021-01-10T11:10:03.000Z</time>
      </trkpt>
      <trkpt lat="47.27088" lon="-2.32744">
        <ele>-2.5999999046326</ele>
        <time>2021-01-10T11:10:06.000Z</time>
      </trkpt>
      <trkpt lat="47.27044" lon="-2.32785">
        <ele>-2.5999999046326</ele>
        <time>2021-01-10T11:10:14.000Z</time>
      </trkpt>
      <trkpt lat="47.27033" lon="-2.32795">
        <ele>-3</ele>
        <time>2021-01-10T11:10:16.000Z</time>
      </trkpt>
      <trkpt lat="47.27027" lon="-2.32801">
        <ele>-3.4000000953674</ele>
        <time>2021-01-10T11:10:17.000Z</time>
      </trkpt>
      <trkpt lat="47.27021" lon="-2.32806">
        <ele>-3.7999999523163</ele>
        <time>2021-01-10T11:10:18.000Z</time>
      </trkpt>
      <trkpt lat="47.27015" lon="-2.32812">
        <ele>-4.1999998092651</ele>
        <time>2021-01-10T11:10:19.000Z</time>
      </trkpt>
      <trkpt lat="47.27009" lon="-2.32817">
        <ele>-4.5999999046326</ele>
        <time>2021-01-10T11:10:20.000Z</time>
      </trkpt>
      <trkpt lat="47.26991" lon="-2.32832">
        <ele>-4.5999999046326</ele>
        <time>2021-01-10T11:10:23.000Z</time>
      </trkpt>
      <trkpt lat="47.26941" lon="-2.32879">
        <ele>-4.5999999046326</ele>
        <time>2021-01-10T11:10:32.000Z</time>
      </trkpt>
      <trkpt lat="47.26929" lon="-2.3289">
        <ele>-4.5999999046326</ele>
        <time>2021-01-10T11:10:34.000Z</time>
      </trkpt>
      <trkpt lat="47.26878" lon="-2.32936">
        <ele>-4.5999999046326</ele>
        <time>2021-01-10T11:10:43.000Z</time>
      </trkpt>
      <trkpt lat="47.26837" lon="-2.32974">
        <ele>-4.5999999046326</ele>
        <time>2021-01-10T11:10:51.000Z</time>
      </trkpt>
      <trkpt lat="47.26801" lon="-2.33007">
        <ele>-4.5999999046326</ele>
        <time>2021-01-10T11:10:58.000Z</time>
      </trkpt>
      <trkpt lat="47.26769" lon="-2.33041">
        <ele>-5</ele>
        <time>2021-01-10T11:11:05.000Z</time>
      </trkpt>
      <trkpt lat="47.26765" lon="-2.33045">
        <ele>-5.4000000953674</ele>
        <time>2021-01-10T11:11:06.000Z</time>
      </trkpt>
      <trkpt lat="47.26761" lon="-2.33049">
        <ele>-5.8000001907349</ele>
        <time>2021-01-10T11:11:07.000Z</time>
      </trkpt>
      <trkpt lat="47.26757" lon="-2.33052">
        <ele>-6.1999998092651</ele>
        <time>2021-01-10T11:11:08.000Z</time>
      </trkpt>
      <trkpt lat="47.26753" lon="-2.33056">
        <ele>-6.5999999046326</ele>
        <time>2021-01-10T11:11:09.000Z</time>
      </trkpt>
      <trkpt lat="47.26746" lon="-2.33062">
        <ele>-6.5999999046326</ele>
        <time>2021-01-10T11:11:11.000Z</time>
      </trkpt>
      <trkpt lat="47.26742" lon="-2.33066">
        <ele>-6.5999999046326</ele>
        <time>2021-01-10T11:11:13.000Z</time>
      </trkpt>
      <trkpt lat="47.2674" lon="-2.33065">
        <ele>-6.5999999046326</ele>
        <time>2021-01-10T11:11:14.000Z</time>
      </trkpt>
      <trkpt lat="47.26732" lon="-2.33063">
        <ele>-6.5999999046326</ele>
        <time>2021-01-10T11:11:18.000Z</time>
      </trkpt>
      <trkpt lat="47.2673" lon="-2.33064">
        <ele>-6.5999999046326</ele>
        <time>2021-01-10T11:11:19.000Z</time>
      </trkpt>
      <trkpt lat="47.26722" lon="-2.33069">
        <ele>-6.5999999046326</ele>
        <time>2021-01-10T11:11:22.000Z</time>
      </trkpt>
      <trkpt lat="47.26719" lon="-2.33072">
        <ele>-7</ele>
        <time>2021-01-10T11:11:23.000Z</time>
      </trkpt>
      <trkpt lat="47.26716" lon="-2.33074">
        <ele>-7.4000000953674</ele>
        <time>2021-01-10T11:11:24.000Z</time>
      </trkpt>
      <trkpt lat="47.26714" lon="-2.33077">
        <ele>-7.8000001907349</ele>
        <time>2021-01-10T11:11:25.000Z</time>
      </trkpt>
      <trkpt lat="47.26711" lon="-2.33079">
        <ele>-8.1999998092651</ele>
        <time>2021-01-10T11:11:26.000Z</time>
      </trkpt>
      <trkpt lat="47.26709" lon="-2.33082">
        <ele>-8.6000003814697</ele>
        <time>2021-01-10T11:11:27.000Z</time>
      </trkpt>
      <trkpt lat="47.26696" lon="-2.33095">
        <ele>-8.6000003814697</ele>
        <time>2021-01-10T11:11:33.000Z</time>
      </trkpt>
      <trkpt lat="47.26686" lon="-2.33104">
        <ele>-8.6000003814697</ele>
        <time>2021-01-10T11:11:38.000Z</time>
      </trkpt>
      <trkpt lat="47.26668" lon="-2.33121">
        <ele>-8.6000003814697</ele>
        <time>2021-01-10T11:11:45.000Z</time>
      </trkpt>
      <trkpt lat="47.26657" lon="-2.3313">
        <ele>-8.6000003814697</ele>
        <time>2021-01-10T11:11:50.000Z</time>
      </trkpt>
      <trkpt lat="47.26646" lon="-2.33142">
        <ele>-8.6000003814697</ele>
        <time>2021-01-10T11:11:55.000Z</time>
      </trkpt>
      <trkpt lat="47.26632" lon="-2.33152">
        <ele>-8.6000003814697</ele>
        <time>2021-01-10T11:12:01.000Z</time>
      </trkpt>
      <trkpt lat="47.2662" lon="-2.33151">
        <ele>-8.6000003814697</ele>
        <time>2021-01-10T11:12:07.000Z</time>
      </trkpt>
      <trkpt lat="47.26606" lon="-2.33145">
        <ele>-8.6000003814697</ele>
        <time>2021-01-10T11:12:14.000Z</time>
      </trkpt>
      <trkpt lat="47.26599" lon="-2.33147">
        <ele>-8.6000003814697</ele>
        <time>2021-01-10T11:12:20.000Z</time>
      </trkpt>
      <trkpt lat="47.26593" lon="-2.33157">
        <ele>-8.6000003814697</ele>
        <time>2021-01-10T11:12:27.000Z</time>
      </trkpt>
      <trkpt lat="47.26591" lon="-2.33161">
        <ele>-8.6000003814697</ele>
        <time>2021-01-10T11:12:29.000Z</time>
      </trkpt>
      <trkpt lat="47.26586" lon="-2.33171">
        <ele>-8.6000003814697</ele>
        <time>2021-01-10T11:12:33.000Z</time>
      </trkpt>
      <trkpt lat="47.26578" lon="-2.3319">
        <ele>-8.6000003814697</ele>
        <time>2021-01-10T11:12:38.000Z</time>
      </trkpt>
      <trkpt lat="47.26564" lon="-2.33203">
        <ele>-8.6000003814697</ele>
        <time>2021-01-10T11:12:44.000Z</time>
      </trkpt>
      <trkpt lat="47.26546" lon="-2.33213">
        <ele>-8.6000003814697</ele>
        <time>2021-01-10T11:12:52.000Z</time>
      </trkpt>
      <trkpt lat="47.2653" lon="-2.33219">
        <ele>-8.6000003814697</ele>
        <time>2021-01-10T11:12:59.000Z</time>
      </trkpt>
      <trkpt lat="47.26518" lon="-2.33223">
        <ele>-8.6000003814697</ele>
        <time>2021-01-10T11:13:04.000Z</time>
      </trkpt>
      <trkpt lat="47.26507" lon="-2.33233">
        <ele>-8.6000003814697</ele>
        <time>2021-01-10T11:13:11.000Z</time>
      </trkpt>
      <trkpt lat="47.26495" lon="-2.33246">
        <ele>-8.6000003814697</ele>
        <time>2021-01-10T11:13:18.000Z</time>
      </trkpt>
      <trkpt lat="47.26493" lon="-2.33249">
        <ele>-8.6000003814697</ele>
        <time>2021-01-10T11:13:20.000Z</time>
      </trkpt>
      <trkpt lat="47.26491" lon="-2.33254">
        <ele>-8.6000003814697</ele>
        <time>2021-01-10T11:13:23.000Z</time>
      </trkpt>
      <trkpt lat="47.2649" lon="-2.33256">
        <ele>-8.6000003814697</ele>
        <time>2021-01-10T11:13:24.000Z</time>
      </trkpt>
      <trkpt lat="47.26481" lon="-2.33269">
        <ele>-8.6000003814697</ele>
        <time>2021-01-10T11:13:30.000Z</time>
      </trkpt>
      <trkpt lat="47.26477" lon="-2.33287">
        <ele>-8.6000003814697</ele>
        <time>2021-01-10T11:13:35.000Z</time>
      </trkpt>
      <trkpt lat="47.26477" lon="-2.3329">
        <ele>-8.6000003814697</ele>
        <time>2021-01-10T11:13:36.000Z</time>
      </trkpt>
      <trkpt lat="47.26472" lon="-2.33302">
        <ele>-8.6000003814697</ele>
        <time>2021-01-10T11:13:41.000Z</time>
      </trkpt>
      <trkpt lat="47.26459" lon="-2.33313">
        <ele>-8.6000003814697</ele>
        <time>2021-01-10T11:13:47.000Z</time>
      </trkpt>
      <trkpt lat="47.26433" lon="-2.33336">
        <ele>-8.6000003814697</ele>
        <time>2021-01-10T11:13:55.000Z</time>
      </trkpt>
      <trkpt lat="47.26426" lon="-2.33341">
        <ele>-8.6000003814697</ele>
        <time>2021-01-10T11:13:57.000Z</time>
      </trkpt>
      <trkpt lat="47.2641" lon="-2.33351">
        <ele>-8.6000003814697</ele>
        <time>2021-01-10T11:14:01.000Z</time>
      </trkpt>
      <trkpt lat="47.26379" lon="-2.33372">
        <ele>-8.6000003814697</ele>
        <time>2021-01-10T11:14:08.000Z</time>
      </trkpt>
      <trkpt lat="47.26338" lon="-2.33393">
        <ele>-8.6000003814697</ele>
        <time>2021-01-10T11:14:16.000Z</time>
      </trkpt>
      <trkpt lat="47.26318" lon="-2.33407">
        <ele>-8.6000003814697</ele>
        <time>2021-01-10T11:14:20.000Z</time>
      </trkpt>
      <trkpt lat="47.26308" lon="-2.33416">
        <ele>-8.6000003814697</ele>
        <time>2021-01-10T11:14:22.000Z</time>
      </trkpt>
      <trkpt lat="47.26303" lon="-2.33419">
        <ele>-8.6000003814697</ele>
        <time>2021-01-10T11:14:23.000Z</time>
      </trkpt>
      <trkpt lat="47.26292" lon="-2.33422">
        <ele>-8.6000003814697</ele>
        <time>2021-01-10T11:14:25.000Z</time>
      </trkpt>
      <trkpt lat="47.26257" lon="-2.33428">
        <ele>-8.6000003814697</ele>
        <time>2021-01-10T11:14:31.000Z</time>
      </trkpt>
      <trkpt lat="47.26217" lon="-2.33437">
        <ele>-8.6000003814697</ele>
        <time>2021-01-10T11:14:38.000Z</time>
      </trkpt>
      <trkpt lat="47.26188" lon="-2.33442">
        <ele>-8.6000003814697</ele>
        <time>2021-01-10T11:14:44.000Z</time>
      </trkpt>
      <trkpt lat="47.26177" lon="-2.33442">
        <ele>-8.6000003814697</ele>
        <time>2021-01-10T11:14:47.000Z</time>
      </trkpt>
      <trkpt lat="47.26169" lon="-2.33441">
        <ele>-8.6000003814697</ele>
        <time>2021-01-10T11:14:49.000Z</time>
      </trkpt>
      <trkpt lat="47.2616" lon="-2.33438">
        <ele>-8.6000003814697</ele>
        <time>2021-01-10T11:14:51.000Z</time>
      </trkpt>
      <trkpt lat="47.26151" lon="-2.33434">
        <ele>-8.6000003814697</ele>
        <time>2021-01-10T11:14:53.000Z</time>
      </trkpt>
      <trkpt lat="47.2614" lon="-2.33429">
        <ele>-8.6000003814697</ele>
        <time>2021-01-10T11:14:56.000Z</time>
      </trkpt>
      <trkpt lat="47.26136" lon="-2.33434">
        <ele>-8.6000003814697</ele>
        <time>2021-01-10T11:14:59.000Z</time>
      </trkpt>
      <trkpt lat="47.26135" lon="-2.33441">
        <ele>-8.6000003814697</ele>
        <time>2021-01-10T11:15:01.000Z</time>
      </trkpt>
      <trkpt lat="47.26134" lon="-2.33447">
        <ele>-8.6000003814697</ele>
        <time>2021-01-10T11:15:04.000Z</time>
      </trkpt>
      <trkpt lat="47.26128" lon="-2.33463">
        <ele>-8.6000003814697</ele>
        <time>2021-01-10T11:15:07.000Z</time>
      </trkpt>
      <trkpt lat="47.26116" lon="-2.33489">
        <ele>-8.6000003814697</ele>
        <time>2021-01-10T11:15:11.000Z</time>
      </trkpt>
      <trkpt lat="47.26112" lon="-2.33491">
        <ele>-8.6000003814697</ele>
        <time>2021-01-10T11:15:12.000Z</time>
      </trkpt>
      <trkpt lat="47.261" lon="-2.33488">
        <ele>-8.6000003814697</ele>
        <time>2021-01-10T11:15:15.000Z</time>
      </trkpt>
      <trkpt lat="47.26092" lon="-2.33486">
        <ele>-8.6000003814697</ele>
        <time>2021-01-10T11:15:20.000Z</time>
      </trkpt>
      <trkpt lat="47.26086" lon="-2.33485">
        <ele>-8.6000003814697</ele>
        <time>2021-01-10T11:15:23.000Z</time>
      </trkpt>
      <trkpt lat="47.26083" lon="-2.33483">
        <ele>-8.6000003814697</ele>
        <time>2021-01-10T11:15:24.000Z</time>
      </trkpt>
      <trkpt lat="47.26068" lon="-2.33481">
        <ele>-8.6000003814697</ele>
        <time>2021-01-10T11:15:28.000Z</time>
      </trkpt>
      <trkpt lat="47.26063" lon="-2.33482">
        <ele>-8.6000003814697</ele>
        <time>2021-01-10T11:15:29.000Z</time>
      </trkpt>
      <trkpt lat="47.26052" lon="-2.33479">
        <ele>-8.6000003814697</ele>
        <time>2021-01-10T11:15:32.000Z</time>
      </trkpt>
      <trkpt lat="47.26049" lon="-2.33475">
        <ele>-8.6000003814697</ele>
        <time>2021-01-10T11:15:33.000Z</time>
      </trkpt>
      <trkpt lat="47.26045" lon="-2.33473">
        <ele>-8.6000003814697</ele>
        <time>2021-01-10T11:15:34.000Z</time>
      </trkpt>
      <trkpt lat="47.26041" lon="-2.33474">
        <ele>-8.6000003814697</ele>
        <time>2021-01-10T11:15:35.000Z</time>
      </trkpt>
      <trkpt lat="47.26024" lon="-2.33487">
        <ele>-8.6000003814697</ele>
        <time>2021-01-10T11:15:39.000Z</time>
      </trkpt>
      <trkpt lat="47.26019" lon="-2.33488">
        <ele>-8.6000003814697</ele>
        <time>2021-01-10T11:15:40.000Z</time>
      </trkpt>
      <trkpt lat="47.25988" lon="-2.33497">
        <ele>-8.6000003814697</ele>
        <time>2021-01-10T11:15:46.000Z</time>
      </trkpt>
      <trkpt lat="47.25975" lon="-2.33507">
        <ele>-8.6000003814697</ele>
        <time>2021-01-10T11:15:49.000Z</time>
      </trkpt>
      <trkpt lat="47.25965" lon="-2.33504">
        <ele>-8.6000003814697</ele>
        <time>2021-01-10T11:15:52.000Z</time>
      </trkpt>
      <trkpt lat="47.25959" lon="-2.33497">
        <ele>-8.6000003814697</ele>
        <time>2021-01-10T11:15:55.000Z</time>
      </trkpt>
      <trkpt lat="47.25965" lon="-2.33491">
        <ele>-8.6000003814697</ele>
        <time>2021-01-10T11:15:58.000Z</time>
      </trkpt>
      <trkpt lat="47.25976" lon="-2.33498">
        <ele>-8.6000003814697</ele>
        <time>2021-01-10T11:16:02.000Z</time>
      </trkpt>
      <trkpt lat="47.25971" lon="-2.33508">
        <ele>-8.6000003814697</ele>
        <time>2021-01-10T11:16:05.000Z</time>
      </trkpt>
      <trkpt lat="47.25963" lon="-2.33508">
        <ele>-8.6000003814697</ele>
        <time>2021-01-10T11:16:07.000Z</time>
      </trkpt>
      <trkpt lat="47.25959" lon="-2.33508">
        <ele>-8.6000003814697</ele>
        <time>2021-01-10T11:16:08.000Z</time>
      </trkpt>
      <trkpt lat="47.25946" lon="-2.33515">
        <ele>-8.6000003814697</ele>
        <time>2021-01-10T11:16:11.000Z</time>
      </trkpt>
      <trkpt lat="47.25934" lon="-2.33525">
        <ele>-8.6000003814697</ele>
        <time>2021-01-10T11:16:14.000Z</time>
      </trkpt>
      <trkpt lat="47.25917" lon="-2.33541">
        <ele>-8.6000003814697</ele>
        <time>2021-01-10T11:16:18.000Z</time>
      </trkpt>
      <trkpt lat="47.25908" lon="-2.33549">
        <ele>-8.1999998092651</ele>
        <time>2021-01-10T11:16:20.000Z</time>
      </trkpt>
      <trkpt lat="47.25904" lon="-2.33552">
        <ele>-7.8000001907349</ele>
        <time>2021-01-10T11:16:21.000Z</time>
      </trkpt>
      <trkpt lat="47.259" lon="-2.33556">
        <ele>-7.4000000953674</ele>
        <time>2021-01-10T11:16:22.000Z</time>
      </trkpt>
      <trkpt lat="47.25895" lon="-2.3356">
        <ele>-7</ele>
        <time>2021-01-10T11:16:23.000Z</time>
      </trkpt>
      <trkpt lat="47.25891" lon="-2.33564">
        <ele>-6.5999999046326</ele>
        <time>2021-01-10T11:16:24.000Z</time>
      </trkpt>
      <trkpt lat="47.25886" lon="-2.33567">
        <ele>-6.5999999046326</ele>
        <time>2021-01-10T11:16:25.000Z</time>
      </trkpt>
      <trkpt lat="47.25877" lon="-2.33573">
        <ele>-6.5999999046326</ele>
        <time>2021-01-10T11:16:27.000Z</time>
      </trkpt>
      <trkpt lat="47.25862" lon="-2.33577">
        <ele>-6.5999999046326</ele>
        <time>2021-01-10T11:16:30.000Z</time>
      </trkpt>
      <trkpt lat="47.25829" lon="-2.3358">
        <ele>-6.1999998092651</ele>
        <time>2021-01-10T11:16:36.000Z</time>
      </trkpt>
      <trkpt lat="47.25824" lon="-2.3358">
        <ele>-5.8000001907349</ele>
        <time>2021-01-10T11:16:37.000Z</time>
      </trkpt>
      <trkpt lat="47.25818" lon="-2.3358">
        <ele>-5.4000000953674</ele>
        <time>2021-01-10T11:16:38.000Z</time>
      </trkpt>
      <trkpt lat="47.25813" lon="-2.3358">
        <ele>-5</ele>
        <time>2021-01-10T11:16:39.000Z</time>
      </trkpt>
      <trkpt lat="47.25808" lon="-2.3358">
        <ele>-4.5999999046326</ele>
        <time>2021-01-10T11:16:40.000Z</time>
      </trkpt>
      <trkpt lat="47.25792" lon="-2.33581">
        <ele>-4.5999999046326</ele>
        <time>2021-01-10T11:16:43.000Z</time>
      </trkpt>
      <trkpt lat="47.2575" lon="-2.33584">
        <ele>-4.5999999046326</ele>
        <time>2021-01-10T11:16:51.000Z</time>
      </trkpt>
      <trkpt lat="47.25745" lon="-2.33586">
        <ele>-4.5999999046326</ele>
        <time>2021-01-10T11:16:52.000Z</time>
      </trkpt>
      <trkpt lat="47.2573" lon="-2.33584">
        <ele>-4.5999999046326</ele>
        <time>2021-01-10T11:16:55.000Z</time>
      </trkpt>
      <trkpt lat="47.25714" lon="-2.33585">
        <ele>-4.5999999046326</ele>
        <time>2021-01-10T11:16:58.000Z</time>
      </trkpt>
      <trkpt lat="47.25703" lon="-2.33585">
        <ele>-4.5999999046326</ele>
        <time>2021-01-10T11:17:00.000Z</time>
      </trkpt>
      <trkpt lat="47.25677" lon="-2.33582">
        <ele>-4.5999999046326</ele>
        <time>2021-01-10T11:17:05.000Z</time>
      </trkpt>
      <trkpt lat="47.25671" lon="-2.33581">
        <ele>-4.5999999046326</ele>
        <time>2021-01-10T11:17:06.000Z</time>
      </trkpt>
      <trkpt lat="47.25666" lon="-2.33579">
        <ele>-4.5999999046326</ele>
        <time>2021-01-10T11:17:07.000Z</time>
      </trkpt>
      <trkpt lat="47.25644" lon="-2.33572">
        <ele>-4.5999999046326</ele>
        <time>2021-01-10T11:17:11.000Z</time>
      </trkpt>
      <trkpt lat="47.25634" lon="-2.33567">
        <ele>-4.5999999046326</ele>
        <time>2021-01-10T11:17:13.000Z</time>
      </trkpt>
      <trkpt lat="47.25601" lon="-2.33542">
        <ele>-4.5999999046326</ele>
        <time>2021-01-10T11:17:20.000Z</time>
      </trkpt>
      <trkpt lat="47.25572" lon="-2.33505">
        <ele>-4.5999999046326</ele>
        <time>2021-01-10T11:17:27.000Z</time>
      </trkpt>
      <trkpt lat="47.25552" lon="-2.3347">
        <ele>-4.5999999046326</ele>
        <time>2021-01-10T11:17:33.000Z</time>
      </trkpt>
      <trkpt lat="47.25547" lon="-2.33457">
        <ele>-4.5999999046326</ele>
        <time>2021-01-10T11:17:35.000Z</time>
      </trkpt>
      <trkpt lat="47.25532" lon="-2.33408">
        <ele>-4.5999999046326</ele>
        <time>2021-01-10T11:17:42.000Z</time>
      </trkpt>
      <trkpt lat="47.25529" lon="-2.33393">
        <ele>-4.1999998092651</ele>
        <time>2021-01-10T11:17:44.000Z</time>
      </trkpt>
      <trkpt lat="47.25528" lon="-2.33386">
        <ele>-3.7999999523163</ele>
        <time>2021-01-10T11:17:45.000Z</time>
      </trkpt>
      <trkpt lat="47.25527" lon="-2.33378">
        <ele>-3.4000000953674</ele>
        <time>2021-01-10T11:17:46.000Z</time>
      </trkpt>
      <trkpt lat="47.25526" lon="-2.3337">
        <ele>-3</ele>
        <time>2021-01-10T11:17:47.000Z</time>
      </trkpt>
      <trkpt lat="47.25525" lon="-2.33362">
        <ele>-2.4000000953674</ele>
        <time>2021-01-10T11:17:48.000Z</time>
      </trkpt>
      <trkpt lat="47.25523" lon="-2.33346">
        <ele>-2.4000000953674</ele>
        <time>2021-01-10T11:17:50.000Z</time>
      </trkpt>
      <trkpt lat="47.25515" lon="-2.33284">
        <ele>-2.4000000953674</ele>
        <time>2021-01-10T11:17:58.000Z</time>
      </trkpt>
      <trkpt lat="47.25505" lon="-2.33213">
        <ele>-2.4000000953674</ele>
        <time>2021-01-10T11:18:07.000Z</time>
      </trkpt>
      <trkpt lat="47.25496" lon="-2.33143">
        <ele>-2.4000000953674</ele>
        <time>2021-01-10T11:18:16.000Z</time>
      </trkpt>
      <trkpt lat="47.25489" lon="-2.33097">
        <ele>-2.4000000953674</ele>
        <time>2021-01-10T11:18:22.000Z</time>
      </trkpt>
      <trkpt lat="47.25487" lon="-2.33092">
        <ele>-2.4000000953674</ele>
        <time>2021-01-10T11:18:23.000Z</time>
      </trkpt>
      <trkpt lat="47.25482" lon="-2.33091">
        <ele>-2.4000000953674</ele>
        <time>2021-01-10T11:18:26.000Z</time>
      </trkpt>
      <trkpt lat="47.25462" lon="-2.33103">
        <ele>-3</ele>
        <time>2021-01-10T11:18:29.000Z</time>
      </trkpt>
      <trkpt lat="47.25456" lon="-2.33106">
        <ele>-3.4000000953674</ele>
        <time>2021-01-10T11:18:30.000Z</time>
      </trkpt>
      <trkpt lat="47.25449" lon="-2.33109">
        <ele>-3.7999999523163</ele>
        <time>2021-01-10T11:18:31.000Z</time>
      </trkpt>
      <trkpt lat="47.25444" lon="-2.33111">
        <ele>-4.1999998092651</ele>
        <time>2021-01-10T11:18:32.000Z</time>
      </trkpt>
      <trkpt lat="47.25438" lon="-2.33114">
        <ele>-4.5999999046326</ele>
        <time>2021-01-10T11:18:33.000Z</time>
      </trkpt>
      <trkpt lat="47.25412" lon="-2.33124">
        <ele>-4.5999999046326</ele>
        <time>2021-01-10T11:18:38.000Z</time>
      </trkpt>
      <trkpt lat="47.25407" lon="-2.33126">
        <ele>-4.5999999046326</ele>
        <time>2021-01-10T11:18:39.000Z</time>
      </trkpt>
      <trkpt lat="47.25398" lon="-2.33131">
        <ele>-4.5999999046326</ele>
        <time>2021-01-10T11:18:41.000Z</time>
      </trkpt>
      <trkpt lat="47.25389" lon="-2.33138">
        <ele>-4.5999999046326</ele>
        <time>2021-01-10T11:18:43.000Z</time>
      </trkpt>
      <trkpt lat="47.25377" lon="-2.33136">
        <ele>-4.5999999046326</ele>
        <time>2021-01-10T11:18:46.000Z</time>
      </trkpt>
      <trkpt lat="47.25376" lon="-2.33124">
        <ele>-4.5999999046326</ele>
        <time>2021-01-10T11:18:49.000Z</time>
      </trkpt>
      <trkpt lat="47.25376" lon="-2.33121">
        <ele>-4.5999999046326</ele>
        <time>2021-01-10T11:18:50.000Z</time>
      </trkpt>
      <trkpt lat="47.25375" lon="-2.33106">
        <ele>-4.5999999046326</ele>
        <time>2021-01-10T11:18:56.000Z</time>
      </trkpt>
      <trkpt lat="47.25375" lon="-2.33105">
        <ele>-4.5999999046326</ele>
        <time>2021-01-10T11:18:58.000Z</time>
      </trkpt>
      <trkpt lat="47.25369" lon="-2.33102">
        <ele>-4.5999999046326</ele>
        <time>2021-01-10T11:32:33.000Z</time>
      </trkpt>
      <trkpt lat="47.25367" lon="-2.331">
        <ele>-4.5999999046326</ele>
        <time>2021-01-10T11:32:34.000Z</time>
      </trkpt>
      <trkpt lat="47.25359" lon="-2.33082">
        <ele>-4.5999999046326</ele>
        <time>2021-01-10T11:32:39.000Z</time>
      </trkpt>
      <trkpt lat="47.25346" lon="-2.33048">
        <ele>-4.5999999046326</ele>
        <time>2021-01-10T11:32:46.000Z</time>
      </trkpt>
      <trkpt lat="47.2533" lon="-2.33006">
        <ele>-4.1999998092651</ele>
        <time>2021-01-10T11:32:54.000Z</time>
      </trkpt>
      <trkpt lat="47.25328" lon="-2.32999">
        <ele>-3.7999999523163</ele>
        <time>2021-01-10T11:32:55.000Z</time>
      </trkpt>
      <trkpt lat="47.25326" lon="-2.32993">
        <ele>-3.2000000476837</ele>
        <time>2021-01-10T11:32:56.000Z</time>
      </trkpt>
      <trkpt lat="47.25323" lon="-2.32987">
        <ele>-2.7999999523163</ele>
        <time>2021-01-10T11:32:57.000Z</time>
      </trkpt>
      <trkpt lat="47.25321" lon="-2.32981">
        <ele>-2.4000000953674</ele>
        <time>2021-01-10T11:32:58.000Z</time>
      </trkpt>
      <trkpt lat="47.25317" lon="-2.32969">
        <ele>-2.4000000953674</ele>
        <time>2021-01-10T11:33:00.000Z</time>
      </trkpt>
      <trkpt lat="47.25308" lon="-2.32945">
        <ele>-2.4000000953674</ele>
        <time>2021-01-10T11:33:04.000Z</time>
      </trkpt>
      <trkpt lat="47.25306" lon="-2.3294">
        <ele>-2.4000000953674</ele>
        <time>2021-01-10T11:33:05.000Z</time>
      </trkpt>
      <trkpt lat="47.25305" lon="-2.32922">
        <ele>-2.4000000953674</ele>
        <time>2021-01-10T11:33:08.000Z</time>
      </trkpt>
      <trkpt lat="47.25316" lon="-2.32909">
        <ele>-2.4000000953674</ele>
        <time>2021-01-10T11:33:11.000Z</time>
      </trkpt>
      <trkpt lat="47.2532" lon="-2.32904">
        <ele>-2.4000000953674</ele>
        <time>2021-01-10T11:33:12.000Z</time>
      </trkpt>
      <trkpt lat="47.25348" lon="-2.32876">
        <ele>-2.4000000953674</ele>
        <time>2021-01-10T11:33:19.000Z</time>
      </trkpt>
      <trkpt lat="47.25374" lon="-2.32851">
        <ele>-2</ele>
        <time>2021-01-10T11:33:25.000Z</time>
      </trkpt>
      <trkpt lat="47.25378" lon="-2.32847">
        <ele>-1.6000000238419</ele>
        <time>2021-01-10T11:33:26.000Z</time>
      </trkpt>
      <trkpt lat="47.25382" lon="-2.32842">
        <ele>-1</ele>
        <time>2021-01-10T11:33:27.000Z</time>
      </trkpt>
      <trkpt lat="47.25386" lon="-2.32838">
        <ele>-0.60000002384186</ele>
        <time>2021-01-10T11:33:28.000Z</time>
      </trkpt>
      <trkpt lat="47.2539" lon="-2.32833">
        <ele>-0.20000000298023</ele>
        <time>2021-01-10T11:33:29.000Z</time>
      </trkpt>
      <trkpt lat="47.25405" lon="-2.32814">
        <ele>-0.20000000298023</ele>
        <time>2021-01-10T11:33:33.000Z</time>
      </trkpt>
      <trkpt lat="47.25414" lon="-2.328">
        <ele>-0.20000000298023</ele>
        <time>2021-01-10T11:33:36.000Z</time>
      </trkpt>
      <trkpt lat="47.25427" lon="-2.32771">
        <ele>-0.20000000298023</ele>
        <time>2021-01-10T11:33:42.000Z</time>
      </trkpt>
      <trkpt lat="47.25429" lon="-2.32768">
        <ele>-0.20000000298023</ele>
        <time>2021-01-10T11:33:43.000Z</time>
      </trkpt>
      <trkpt lat="47.25436" lon="-2.32763">
        <ele>-0.20000000298023</ele>
        <time>2021-01-10T11:33:45.000Z</time>
      </trkpt>
      <trkpt lat="47.25441" lon="-2.32754">
        <ele>-0.20000000298023</ele>
        <time>2021-01-10T11:33:47.000Z</time>
      </trkpt>
      <trkpt lat="47.25446" lon="-2.32745">
        <ele>-0.20000000298023</ele>
        <time>2021-01-10T11:33:49.000Z</time>
      </trkpt>
      <trkpt lat="47.25455" lon="-2.32733">
        <ele>-0.20000000298023</ele>
        <time>2021-01-10T11:33:52.000Z</time>
      </trkpt>
      <trkpt lat="47.25462" lon="-2.32725">
        <ele>-0.20000000298023</ele>
        <time>2021-01-10T11:33:54.000Z</time>
      </trkpt>
      <trkpt lat="47.25482" lon="-2.32695">
        <ele>-0.20000000298023</ele>
        <time>2021-01-10T11:34:00.000Z</time>
      </trkpt>
      <trkpt lat="47.25487" lon="-2.32667">
        <ele>-0.20000000298023</ele>
        <time>2021-01-10T11:34:04.000Z</time>
      </trkpt>
      <trkpt lat="47.25486" lon="-2.32646">
        <ele>-0.20000000298023</ele>
        <time>2021-01-10T11:34:07.000Z</time>
      </trkpt>
      <trkpt lat="47.25485" lon="-2.32639">
        <ele>-0.20000000298023</ele>
        <time>2021-01-10T11:34:08.000Z</time>
      </trkpt>
      <trkpt lat="47.25484" lon="-2.32632">
        <ele>-0.20000000298023</ele>
        <time>2021-01-10T11:34:09.000Z</time>
      </trkpt>
      <trkpt lat="47.25476" lon="-2.32599">
        <ele>-0.20000000298023</ele>
        <time>2021-01-10T11:34:14.000Z</time>
      </trkpt>
      <trkpt lat="47.25473" lon="-2.32586">
        <ele>-0.20000000298023</ele>
        <time>2021-01-10T11:34:16.000Z</time>
      </trkpt>
      <trkpt lat="47.25472" lon="-2.32574">
        <ele>-0.20000000298023</ele>
        <time>2021-01-10T11:34:18.000Z</time>
      </trkpt>
      <trkpt lat="47.25474" lon="-2.32569">
        <ele>0.20000000298023</ele>
        <time>2021-01-10T11:34:19.000Z</time>
      </trkpt>
      <trkpt lat="47.25477" lon="-2.32565">
        <ele>0.60000002384186</ele>
        <time>2021-01-10T11:34:20.000Z</time>
      </trkpt>
      <trkpt lat="47.25481" lon="-2.3256">
        <ele>1.2000000476837</ele>
        <time>2021-01-10T11:34:21.000Z</time>
      </trkpt>
      <trkpt lat="47.25485" lon="-2.32556">
        <ele>1.6000000238419</ele>
        <time>2021-01-10T11:34:22.000Z</time>
      </trkpt>
      <trkpt lat="47.2549" lon="-2.32552">
        <ele>2</ele>
        <time>2021-01-10T11:34:23.000Z</time>
      </trkpt>
      <trkpt lat="47.25494" lon="-2.32547">
        <ele>2</ele>
        <time>2021-01-10T11:34:24.000Z</time>
      </trkpt>
      <trkpt lat="47.25529" lon="-2.32514">
        <ele>2</ele>
        <time>2021-01-10T11:34:31.000Z</time>
      </trkpt>
      <trkpt lat="47.25568" lon="-2.32477">
        <ele>2</ele>
        <time>2021-01-10T11:34:38.000Z</time>
      </trkpt>
      <trkpt lat="47.25579" lon="-2.32466">
        <ele>1.6000000238419</ele>
        <time>2021-01-10T11:34:40.000Z</time>
      </trkpt>
      <trkpt lat="47.25585" lon="-2.3246">
        <ele>1</ele>
        <time>2021-01-10T11:34:41.000Z</time>
      </trkpt>
      <trkpt lat="47.25591" lon="-2.32454">
        <ele>0.60000002384186</ele>
        <time>2021-01-10T11:34:42.000Z</time>
      </trkpt>
      <trkpt lat="47.25596" lon="-2.32448">
        <ele>0.20000000298023</ele>
        <time>2021-01-10T11:34:43.000Z</time>
      </trkpt>
      <trkpt lat="47.25602" lon="-2.32441">
        <ele>-0.20000000298023</ele>
        <time>2021-01-10T11:34:44.000Z</time>
      </trkpt>
      <trkpt lat="47.25614" lon="-2.32429">
        <ele>-0.60000002384186</ele>
        <time>2021-01-10T11:34:46.000Z</time>
      </trkpt>
      <trkpt lat="47.2562" lon="-2.32423">
        <ele>-1.2000000476837</ele>
        <time>2021-01-10T11:34:47.000Z</time>
      </trkpt>
      <trkpt lat="47.25626" lon="-2.32417">
        <ele>-1.6000000238419</ele>
        <time>2021-01-10T11:34:48.000Z</time>
      </trkpt>
      <trkpt lat="47.25632" lon="-2.32411">
        <ele>-2</ele>
        <time>2021-01-10T11:34:49.000Z</time>
      </trkpt>
      <trkpt lat="47.25638" lon="-2.32406">
        <ele>-2.5999999046326</ele>
        <time>2021-01-10T11:34:50.000Z</time>
      </trkpt>
      <trkpt lat="47.25643" lon="-2.32403">
        <ele>-2.5999999046326</ele>
        <time>2021-01-10T11:34:51.000Z</time>
      </trkpt>
      <trkpt lat="47.25649" lon="-2.32401">
        <ele>-3</ele>
        <time>2021-01-10T11:34:52.000Z</time>
      </trkpt>
      <trkpt lat="47.25654" lon="-2.32401">
        <ele>-3.4000000953674</ele>
        <time>2021-01-10T11:34:53.000Z</time>
      </trkpt>
      <trkpt lat="47.2566" lon="-2.32401">
        <ele>-3.7999999523163</ele>
        <time>2021-01-10T11:34:54.000Z</time>
      </trkpt>
      <trkpt lat="47.25665" lon="-2.32404">
        <ele>-4.1999998092651</ele>
        <time>2021-01-10T11:34:55.000Z</time>
      </trkpt>
      <trkpt lat="47.2567" lon="-2.32408">
        <ele>-4.8000001907349</ele>
        <time>2021-01-10T11:34:56.000Z</time>
      </trkpt>
      <trkpt lat="47.25693" lon="-2.3242">
        <ele>-4.8000001907349</ele>
        <time>2021-01-10T11:35:00.000Z</time>
      </trkpt>
      <trkpt lat="47.25706" lon="-2.3242">
        <ele>-4.8000001907349</ele>
        <time>2021-01-10T11:35:02.000Z</time>
      </trkpt>
      <trkpt lat="47.25731" lon="-2.32421">
        <ele>-4.8000001907349</ele>
        <time>2021-01-10T11:35:06.000Z</time>
      </trkpt>
      <trkpt lat="47.25765" lon="-2.32418">
        <ele>-4.8000001907349</ele>
        <time>2021-01-10T11:35:12.000Z</time>
      </trkpt>
      <trkpt lat="47.25769" lon="-2.32416">
        <ele>-4.8000001907349</ele>
        <time>2021-01-10T11:35:13.000Z</time>
      </trkpt>
      <trkpt lat="47.25781" lon="-2.32416">
        <ele>-4.8000001907349</ele>
        <time>2021-01-10T11:35:16.000Z</time>
      </trkpt>
      <trkpt lat="47.25792" lon="-2.32433">
        <ele>-4.8000001907349</ele>
        <time>2021-01-10T11:35:19.000Z</time>
      </trkpt>
      <trkpt lat="47.25795" lon="-2.3244">
        <ele>-4.8000001907349</ele>
        <time>2021-01-10T11:35:20.000Z</time>
      </trkpt>
      <trkpt lat="47.25799" lon="-2.32447">
        <ele>-4.8000001907349</ele>
        <time>2021-01-10T11:35:21.000Z</time>
      </trkpt>
      <trkpt lat="47.25812" lon="-2.32458">
        <ele>-4.8000001907349</ele>
        <time>2021-01-10T11:35:23.000Z</time>
      </trkpt>
      <trkpt lat="47.25824" lon="-2.32464">
        <ele>-4.8000001907349</ele>
        <time>2021-01-10T11:35:25.000Z</time>
      </trkpt>
      <trkpt lat="47.25842" lon="-2.32473">
        <ele>-4.8000001907349</ele>
        <time>2021-01-10T11:35:28.000Z</time>
      </trkpt>
      <trkpt lat="47.25848" lon="-2.32474">
        <ele>-4.8000001907349</ele>
        <time>2021-01-10T11:35:29.000Z</time>
      </trkpt>
      <trkpt lat="47.25871" lon="-2.32473">
        <ele>-4.8000001907349</ele>
        <time>2021-01-10T11:35:33.000Z</time>
      </trkpt>
      <trkpt lat="47.25896" lon="-2.32461">
        <ele>-4.8000001907349</ele>
        <time>2021-01-10T11:35:38.000Z</time>
      </trkpt>
      <trkpt lat="47.25905" lon="-2.3245">
        <ele>-4.8000001907349</ele>
        <time>2021-01-10T11:35:40.000Z</time>
      </trkpt>
      <trkpt lat="47.25914" lon="-2.32439">
        <ele>-5.1999998092651</ele>
        <time>2021-01-10T11:35:42.000Z</time>
      </trkpt>
      <trkpt lat="47.25918" lon="-2.32433">
        <ele>-5.5999999046326</ele>
        <time>2021-01-10T11:35:43.000Z</time>
      </trkpt>
      <trkpt lat="47.25923" lon="-2.32428">
        <ele>-6</ele>
        <time>2021-01-10T11:35:44.000Z</time>
      </trkpt>
      <trkpt lat="47.25927" lon="-2.32423">
        <ele>-6.4000000953674</ele>
        <time>2021-01-10T11:35:45.000Z</time>
      </trkpt>
      <trkpt lat="47.25932" lon="-2.32417">
        <ele>-6.8000001907349</ele>
        <time>2021-01-10T11:35:46.000Z</time>
      </trkpt>
      <trkpt lat="47.25956" lon="-2.32385">
        <ele>-6.8000001907349</ele>
        <time>2021-01-10T11:35:52.000Z</time>
      </trkpt>
      <trkpt lat="47.26001" lon="-2.32327">
        <ele>-6.8000001907349</ele>
        <time>2021-01-10T11:36:03.000Z</time>
      </trkpt>
      <trkpt lat="47.2603" lon="-2.32291">
        <ele>-6.8000001907349</ele>
        <time>2021-01-10T11:36:10.000Z</time>
      </trkpt>
      <trkpt lat="47.26057" lon="-2.3226">
        <ele>-6.8000001907349</ele>
        <time>2021-01-10T11:36:16.000Z</time>
      </trkpt>
      <trkpt lat="47.2606" lon="-2.32255">
        <ele>-6.8000001907349</ele>
        <time>2021-01-10T11:36:17.000Z</time>
      </trkpt>
      <trkpt lat="47.26068" lon="-2.32246">
        <ele>-6.8000001907349</ele>
        <time>2021-01-10T11:36:19.000Z</time>
      </trkpt>
      <trkpt lat="47.2608" lon="-2.3223">
        <ele>-6.8000001907349</ele>
        <time>2021-01-10T11:36:22.000Z</time>
      </trkpt>
      <trkpt lat="47.26106" lon="-2.32188">
        <ele>-6.8000001907349</ele>
        <time>2021-01-10T11:36:29.000Z</time>
      </trkpt>
      <trkpt lat="47.26126" lon="-2.32139">
        <ele>-6.8000001907349</ele>
        <time>2021-01-10T11:36:36.000Z</time>
      </trkpt>
      <trkpt lat="47.26129" lon="-2.3213">
        <ele>-6.8000001907349</ele>
        <time>2021-01-10T11:36:37.000Z</time>
      </trkpt>
      <trkpt lat="47.26141" lon="-2.32092">
        <ele>-6.8000001907349</ele>
        <time>2021-01-10T11:36:42.000Z</time>
      </trkpt>
      <trkpt lat="47.26145" lon="-2.32077">
        <ele>-6.8000001907349</ele>
        <time>2021-01-10T11:36:44.000Z</time>
      </trkpt>
      <trkpt lat="47.26154" lon="-2.32047">
        <ele>-6.8000001907349</ele>
        <time>2021-01-10T11:36:48.000Z</time>
      </trkpt>
      <trkpt lat="47.26166" lon="-2.32022">
        <ele>-6.8000001907349</ele>
        <time>2021-01-10T11:36:52.000Z</time>
      </trkpt>
      <trkpt lat="47.26176" lon="-2.3202">
        <ele>-6.8000001907349</ele>
        <time>2021-01-10T11:36:54.000Z</time>
      </trkpt>
      <trkpt lat="47.26188" lon="-2.32022">
        <ele>-6.8000001907349</ele>
        <time>2021-01-10T11:36:57.000Z</time>
      </trkpt>
      <trkpt lat="47.26197" lon="-2.32021">
        <ele>-7.1999998092651</ele>
        <time>2021-01-10T11:37:02.000Z</time>
      </trkpt>
      <trkpt lat="47.26197" lon="-2.32016">
        <ele>-7.5999999046326</ele>
        <time>2021-01-10T11:37:03.000Z</time>
      </trkpt>
      <trkpt lat="47.26198" lon="-2.32012">
        <ele>-8</ele>
        <time>2021-01-10T11:37:04.000Z</time>
      </trkpt>
      <trkpt lat="47.26198" lon="-2.32008">
        <ele>-8.6000003814697</ele>
        <time>2021-01-10T11:37:05.000Z</time>
      </trkpt>
      <trkpt lat="47.26198" lon="-2.32005">
        <ele>-9</ele>
        <time>2021-01-10T11:37:06.000Z</time>
      </trkpt>
      <trkpt lat="47.26199" lon="-2.32004">
        <ele>-9</ele>
        <time>2021-01-10T11:37:07.000Z</time>
      </trkpt>
      <trkpt lat="47.26203" lon="-2.32002">
        <ele>-9</ele>
        <time>2021-01-10T11:37:09.000Z</time>
      </trkpt>
      <trkpt lat="47.26214" lon="-2.31991">
        <ele>-9</ele>
        <time>2021-01-10T11:37:13.000Z</time>
      </trkpt>
      <trkpt lat="47.26224" lon="-2.3198">
        <ele>-9</ele>
        <time>2021-01-10T11:37:17.000Z</time>
      </trkpt>
      <trkpt lat="47.26226" lon="-2.31979">
        <ele>-9</ele>
        <time>2021-01-10T11:37:18.000Z</time>
      </trkpt>
      <trkpt lat="47.26239" lon="-2.31971">
        <ele>-9</ele>
        <time>2021-01-10T11:37:23.000Z</time>
      </trkpt>
      <trkpt lat="47.26243" lon="-2.31963">
        <ele>-9</ele>
        <time>2021-01-10T11:37:25.000Z</time>
      </trkpt>
      <trkpt lat="47.26246" lon="-2.31955">
        <ele>-9</ele>
        <time>2021-01-10T11:37:27.000Z</time>
      </trkpt>
      <trkpt lat="47.26253" lon="-2.31941">
        <ele>-9</ele>
        <time>2021-01-10T11:37:32.000Z</time>
      </trkpt>
      <trkpt lat="47.26258" lon="-2.31936">
        <ele>-9</ele>
        <time>2021-01-10T11:37:34.000Z</time>
      </trkpt>
      <trkpt lat="47.26265" lon="-2.31926">
        <ele>-9</ele>
        <time>2021-01-10T11:37:37.000Z</time>
      </trkpt>
      <trkpt lat="47.26286" lon="-2.31903">
        <ele>-9</ele>
        <time>2021-01-10T11:37:44.000Z</time>
      </trkpt>
      <trkpt lat="47.26293" lon="-2.31894">
        <ele>-9</ele>
        <time>2021-01-10T11:37:47.000Z</time>
      </trkpt>
      <trkpt lat="47.26295" lon="-2.31886">
        <ele>-9</ele>
        <time>2021-01-10T11:37:49.000Z</time>
      </trkpt>
      <trkpt lat="47.26297" lon="-2.31858">
        <ele>-9</ele>
        <time>2021-01-10T11:37:55.000Z</time>
      </trkpt>
      <trkpt lat="47.263" lon="-2.31827">
        <ele>-9</ele>
        <time>2021-01-10T11:38:01.000Z</time>
      </trkpt>
      <trkpt lat="47.26303" lon="-2.31791">
        <ele>-9</ele>
        <time>2021-01-10T11:38:07.000Z</time>
      </trkpt>
      <trkpt lat="47.26299" lon="-2.31756">
        <ele>-9</ele>
        <time>2021-01-10T11:38:13.000Z</time>
      </trkpt>
      <trkpt lat="47.26299" lon="-2.31727">
        <ele>-9</ele>
        <time>2021-01-10T11:38:18.000Z</time>
      </trkpt>
      <trkpt lat="47.26301" lon="-2.31722">
        <ele>-8.6000003814697</ele>
        <time>2021-01-10T11:38:19.000Z</time>
      </trkpt>
      <trkpt lat="47.26305" lon="-2.31718">
        <ele>-8.1999998092651</ele>
        <time>2021-01-10T11:38:20.000Z</time>
      </trkpt>
      <trkpt lat="47.2631" lon="-2.31716">
        <ele>-7.8000001907349</ele>
        <time>2021-01-10T11:38:21.000Z</time>
      </trkpt>
      <trkpt lat="47.26313" lon="-2.31713">
        <ele>-7.4000000953674</ele>
        <time>2021-01-10T11:38:22.000Z</time>
      </trkpt>
      <trkpt lat="47.26318" lon="-2.31712">
        <ele>-7</ele>
        <time>2021-01-10T11:38:23.000Z</time>
      </trkpt>
      <trkpt lat="47.26329" lon="-2.31702">
        <ele>-7</ele>
        <time>2021-01-10T11:38:26.000Z</time>
      </trkpt>
      <trkpt lat="47.26339" lon="-2.31688">
        <ele>-7</ele>
        <time>2021-01-10T11:38:30.000Z</time>
      </trkpt>
      <trkpt lat="47.26343" lon="-2.31687">
        <ele>-7</ele>
        <time>2021-01-10T11:38:31.000Z</time>
      </trkpt>
      <trkpt lat="47.2635" lon="-2.31684">
        <ele>-6.5999999046326</ele>
        <time>2021-01-10T11:38:33.000Z</time>
      </trkpt>
      <trkpt lat="47.26354" lon="-2.31681">
        <ele>-6.1999998092651</ele>
        <time>2021-01-10T11:38:34.000Z</time>
      </trkpt>
      <trkpt lat="47.26357" lon="-2.3168">
        <ele>-5.5999999046326</ele>
        <time>2021-01-10T11:38:35.000Z</time>
      </trkpt>
      <trkpt lat="47.26361" lon="-2.31678">
        <ele>-5.1999998092651</ele>
        <time>2021-01-10T11:38:36.000Z</time>
      </trkpt>
      <trkpt lat="47.26364" lon="-2.31677">
        <ele>-4.8000001907349</ele>
        <time>2021-01-10T11:38:37.000Z</time>
      </trkpt>
      <trkpt lat="47.26382" lon="-2.31667">
        <ele>-4.8000001907349</ele>
        <time>2021-01-10T11:38:42.000Z</time>
      </trkpt>
      <trkpt lat="47.26402" lon="-2.31657">
        <ele>-4.8000001907349</ele>
        <time>2021-01-10T11:38:48.000Z</time>
      </trkpt>
      <trkpt lat="47.26411" lon="-2.31647">
        <ele>-4.8000001907349</ele>
        <time>2021-01-10T11:38:51.000Z</time>
      </trkpt>
      <trkpt lat="47.26411" lon="-2.31643">
        <ele>-4.8000001907349</ele>
        <time>2021-01-10T11:38:52.000Z</time>
      </trkpt>
      <trkpt lat="47.2641" lon="-2.31634">
        <ele>-4.4000000953674</ele>
        <time>2021-01-10T11:38:54.000Z</time>
      </trkpt>
      <trkpt lat="47.2641" lon="-2.31629">
        <ele>-4</ele>
        <time>2021-01-10T11:38:55.000Z</time>
      </trkpt>
      <trkpt lat="47.2641" lon="-2.31623">
        <ele>-3.5999999046326</ele>
        <time>2021-01-10T11:38:56.000Z</time>
      </trkpt>
      <trkpt lat="47.2641" lon="-2.31618">
        <ele>-3</ele>
        <time>2021-01-10T11:38:57.000Z</time>
      </trkpt>
      <trkpt lat="47.2641" lon="-2.31613">
        <ele>-2.5999999046326</ele>
        <time>2021-01-10T11:38:58.000Z</time>
      </trkpt>
      <trkpt lat="47.26411" lon="-2.31587">
        <ele>-2.5999999046326</ele>
        <time>2021-01-10T11:39:03.000Z</time>
      </trkpt>
      <trkpt lat="47.26409" lon="-2.31562">
        <ele>-2.5999999046326</ele>
        <time>2021-01-10T11:39:08.000Z</time>
      </trkpt>
      <trkpt lat="47.26409" lon="-2.31557">
        <ele>-2.5999999046326</ele>
        <time>2021-01-10T11:39:09.000Z</time>
      </trkpt>
      <trkpt lat="47.26413" lon="-2.31553">
        <ele>-2.5999999046326</ele>
        <time>2021-01-10T11:39:11.000Z</time>
      </trkpt>
      <trkpt lat="47.26416" lon="-2.31554">
        <ele>-2.5999999046326</ele>
        <time>2021-01-10T11:39:15.000Z</time>
      </trkpt>
    </trkseg>
  </trk>
</gpx>